<?xml version='1.0' encoding='UTF-8'?><gpx version="1.1" creator="JPX - https://github.com/jenetics/jpx" xmlns="http://www.topografix.com/GPX/1/1"><trk><trkseg><trkpt lat="44.2870433" lon="10.6658467"><ele>1303.0</ele><time>2026-05-03T14:57:02.762Z</time></trkpt><trkpt lat="44.28707" lon="10.6659317"><ele>1303.0</ele><time>2026-05-03T14:57:06.761Z</time></trkpt><trkpt lat="44.2871133" lon="10.66604"><ele>1303.0</ele><time>2026-05-03T14:57:19.762Z</time></trkpt><trkpt lat="44.28714" lon="10.66615"><ele>1303.0</ele><time>2026-05-03T14:57:21.761Z</time></trkpt><trkpt lat="44.287165" lon="10.66627"><ele>1303.0</ele><time>2026-05-03T14:57:23.762Z</time></trkpt><trkpt lat="44.2871967" lon="10.666405"><ele>1303.0</ele><time>2026-05-03T14:57:25.762Z</time></trkpt><trkpt lat="44.287245" lon="10.6665333"><ele>1303.2</ele><time>2026-05-03T14:57:27.762Z</time></trkpt><trkpt lat="44.2873033" lon="10.6666517"><ele>1303.4</ele><time>2026-05-03T14:57:29.761Z</time></trkpt><trkpt lat="44.2873567" lon="10.666795"><ele>1303.6000000000001</ele><time>2026-05-03T14:57:31.761Z</time></trkpt><trkpt lat="44.2873817" lon="10.66688"><ele>1303.8000000000002</ele><time>2026-05-03T14:57:32.762Z</time></trkpt><trkpt lat="44.28743" lon="10.667025"><ele>1304.0</ele><time>2026-05-03T14:57:34.762Z</time></trkpt><trkpt lat="44.2874867" lon="10.6671583"><ele>1304.3333333333335</ele><time>2026-05-03T14:57:36.762Z</time></trkpt><trkpt lat="44.2875317" lon="10.6673167"><ele>1304.6666666666667</ele><time>2026-05-03T14:57:38.761Z</time></trkpt><trkpt lat="44.28756" lon="10.6674"><ele>1305.0</ele><time>2026-05-03T14:57:39.76Z</time></trkpt><trkpt lat="44.2876033" lon="10.66749"><ele>1305.3333333333333</ele><time>2026-05-03T14:57:40.76Z</time></trkpt><trkpt lat="44.2876467" lon="10.6675833"><ele>1305.6666666666665</ele><time>2026-05-03T14:57:41.761Z</time></trkpt><trkpt lat="44.2877067" lon="10.6676767"><ele>1306.0</ele><time>2026-05-03T14:57:42.761Z</time></trkpt><trkpt lat="44.2877783" lon="10.6677683"><ele>1305.8333333333333</ele><time>2026-05-03T14:57:43.76Z</time></trkpt><trkpt lat="44.2878383" lon="10.6678483"><ele>1305.6666666666665</ele><time>2026-05-03T14:57:44.761Z</time></trkpt><trkpt lat="44.2879" lon="10.6679383"><ele>1305.5</ele><time>2026-05-03T14:57:45.761Z</time></trkpt><trkpt lat="44.2879583" lon="10.6680383"><ele>1305.3333333333333</ele><time>2026-05-03T14:57:46.761Z</time></trkpt><trkpt lat="44.2880133" lon="10.6681433"><ele>1305.1666666666667</ele><time>2026-05-03T14:57:47.761Z</time></trkpt><trkpt lat="44.288065" lon="10.6682367"><ele>1305.0</ele><time>2026-05-03T14:57:48.761Z</time></trkpt><trkpt lat="44.2881167" lon="10.6683517"><ele>1303.8</ele><time>2026-05-03T14:57:49.761Z</time></trkpt><trkpt lat="44.2881717" lon="10.6684633"><ele>1302.6</ele><time>2026-05-03T14:57:50.761Z</time></trkpt><trkpt lat="44.2882083" lon="10.66859"><ele>1301.4</ele><time>2026-05-03T14:57:51.761Z</time></trkpt><trkpt lat="44.2882383" lon="10.66872"><ele>1300.2</ele><time>2026-05-03T14:57:52.761Z</time></trkpt><trkpt lat="44.2882667" lon="10.6688583"><ele>1299.0</ele><time>2026-05-03T14:57:53.761Z</time></trkpt><trkpt lat="44.2882933" lon="10.6689933"><ele>1298.3333333333333</ele><time>2026-05-03T14:57:54.761Z</time></trkpt><trkpt lat="44.28832" lon="10.669105"><ele>1297.6666666666667</ele><time>2026-05-03T14:57:55.761Z</time></trkpt><trkpt lat="44.2883583" lon="10.6692067"><ele>1297.0</ele><time>2026-05-03T14:57:56.76Z</time></trkpt><trkpt lat="44.2884117" lon="10.6692983"><ele>1296.3333333333335</ele><time>2026-05-03T14:57:57.761Z</time></trkpt><trkpt lat="44.2884833" lon="10.66939"><ele>1295.6666666666667</ele><time>2026-05-03T14:57:58.761Z</time></trkpt><trkpt lat="44.2885617" lon="10.6694633"><ele>1295.0</ele><time>2026-05-03T14:57:59.761Z</time></trkpt><trkpt lat="44.2886433" lon="10.669545"><ele>1295.0</ele><time>2026-05-03T14:58:00.761Z</time></trkpt><trkpt lat="44.28869" lon="10.6696367"><ele>1295.0</ele><time>2026-05-03T14:58:01.761Z</time></trkpt><trkpt lat="44.288735" lon="10.66975"><ele>1295.0</ele><time>2026-05-03T14:58:02.761Z</time></trkpt><trkpt lat="44.28878" lon="10.6698667"><ele>1295.0</ele><time>2026-05-03T14:58:03.761Z</time></trkpt><trkpt lat="44.288835" lon="10.6699883"><ele>1295.0</ele><time>2026-05-03T14:58:04.761Z</time></trkpt><trkpt lat="44.2888933" lon="10.6701083"><ele>1294.8</ele><time>2026-05-03T14:58:05.761Z</time></trkpt><trkpt lat="44.2889533" lon="10.6702217"><ele>1294.6</ele><time>2026-05-03T14:58:06.76Z</time></trkpt><trkpt lat="44.2890183" lon="10.67033"><ele>1294.4</ele><time>2026-05-03T14:58:07.761Z</time></trkpt><trkpt lat="44.2890867" lon="10.670425"><ele>1294.2</ele><time>2026-05-03T14:58:08.761Z</time></trkpt><trkpt lat="44.289175" lon="10.6705217"><ele>1294.0</ele><time>2026-05-03T14:58:09.761Z</time></trkpt><trkpt lat="44.2892717" lon="10.67063"><ele>1294.0</ele><time>2026-05-03T14:58:10.761Z</time></trkpt><trkpt lat="44.2893667" lon="10.670745"><ele>1294.0</ele><time>2026-05-03T14:58:11.76Z</time></trkpt><trkpt lat="44.2894617" lon="10.6708517"><ele>1294.0</ele><time>2026-05-03T14:58:12.76Z</time></trkpt><trkpt lat="44.289555" lon="10.6709533"><ele>1294.0</ele><time>2026-05-03T14:58:13.761Z</time></trkpt><trkpt lat="44.2896433" lon="10.6710617"><ele>1294.0</ele><time>2026-05-03T14:58:14.761Z</time></trkpt><trkpt lat="44.2897267" lon="10.6711717"><ele>1294.0</ele><time>2026-05-03T14:58:15.761Z</time></trkpt><trkpt lat="44.2898" lon="10.6712733"><ele>1294.0</ele><time>2026-05-03T14:58:16.761Z</time></trkpt><trkpt lat="44.28986" lon="10.671375"><ele>1294.0</ele><time>2026-05-03T14:58:17.76Z</time></trkpt><trkpt lat="44.289905" lon="10.6714683"><ele>1294.0</ele><time>2026-05-03T14:58:18.761Z</time></trkpt><trkpt lat="44.2899533" lon="10.6715383"><ele>1293.0</ele><time>2026-05-03T14:58:19.761Z</time></trkpt><trkpt lat="44.2900233" lon="10.6715717"><ele>1292.0</ele><time>2026-05-03T14:58:20.76Z</time></trkpt><trkpt lat="44.2900967" lon="10.6715733"><ele>1291.0</ele><time>2026-05-03T14:58:21.761Z</time></trkpt><trkpt lat="44.290175" lon="10.67152"><ele>1290.0</ele><time>2026-05-03T14:58:22.761Z</time></trkpt><trkpt lat="44.290255" lon="10.6714167"><ele>1289.0</ele><time>2026-05-03T14:58:23.76Z</time></trkpt><trkpt lat="44.2903333" lon="10.6712767"><ele>1289.0</ele><time>2026-05-03T14:58:24.76Z</time></trkpt><trkpt lat="44.2904117" lon="10.6711333"><ele>1289.0</ele><time>2026-05-03T14:58:25.761Z</time></trkpt><trkpt lat="44.2904917" lon="10.6709983"><ele>1289.0</ele><time>2026-05-03T14:58:26.761Z</time></trkpt><trkpt lat="44.2905667" lon="10.6708683"><ele>1289.0</ele><time>2026-05-03T14:58:27.761Z</time></trkpt><trkpt lat="44.290645" lon="10.6707383"><ele>1288.0</ele><time>2026-05-03T14:58:28.761Z</time></trkpt><trkpt lat="44.29073" lon="10.670625"><ele>1287.0</ele><time>2026-05-03T14:58:29.761Z</time></trkpt><trkpt lat="44.2908117" lon="10.6705067"><ele>1286.0</ele><time>2026-05-03T14:58:30.76Z</time></trkpt><trkpt lat="44.290905" lon="10.6703833"><ele>1285.0</ele><time>2026-05-03T14:58:31.761Z</time></trkpt><trkpt lat="44.2909883" lon="10.6702583"><ele>1284.0</ele><time>2026-05-03T14:58:32.761Z</time></trkpt><trkpt lat="44.2910717" lon="10.670145"><ele>1283.0</ele><time>2026-05-03T14:58:33.761Z</time></trkpt><trkpt lat="44.29116" lon="10.6700383"><ele>1282.0</ele><time>2026-05-03T14:58:34.76Z</time></trkpt><trkpt lat="44.291245" lon="10.6699417"><ele>1281.0</ele><time>2026-05-03T14:58:35.76Z</time></trkpt><trkpt lat="44.29133" lon="10.6698583"><ele>1280.0</ele><time>2026-05-03T14:58:36.761Z</time></trkpt><trkpt lat="44.29143" lon="10.6697883"><ele>1278.75</ele><time>2026-05-03T14:58:37.761Z</time></trkpt><trkpt lat="44.2915367" lon="10.6697317"><ele>1277.5</ele><time>2026-05-03T14:58:38.761Z</time></trkpt><trkpt lat="44.2916317" lon="10.66967"><ele>1276.25</ele><time>2026-05-03T14:58:39.761Z</time></trkpt><trkpt lat="44.2917417" lon="10.6695967"><ele>1275.0</ele><time>2026-05-03T14:58:40.761Z</time></trkpt><trkpt lat="44.2918567" lon="10.6695217"><ele>1275.25</ele><time>2026-05-03T14:58:41.761Z</time></trkpt><trkpt lat="44.29196" lon="10.6694417"><ele>1275.5</ele><time>2026-05-03T14:58:42.761Z</time></trkpt><trkpt lat="44.292055" lon="10.6693433"><ele>1275.75</ele><time>2026-05-03T14:58:43.761Z</time></trkpt><trkpt lat="44.292135" lon="10.6692317"><ele>1276.0</ele><time>2026-05-03T14:58:44.761Z</time></trkpt><trkpt lat="44.29222" lon="10.6690883"><ele>1274.0</ele><time>2026-05-03T14:58:45.761Z</time></trkpt><trkpt lat="44.292315" lon="10.6689767"><ele>1272.0</ele><time>2026-05-03T14:58:46.761Z</time></trkpt><trkpt lat="44.2924233" lon="10.668855"><ele>1270.0</ele><time>2026-05-03T14:58:47.761Z</time></trkpt><trkpt lat="44.2925217" lon="10.6687483"><ele>1268.0</ele><time>2026-05-03T14:58:48.761Z</time></trkpt><trkpt lat="44.29261" lon="10.6686433"><ele>1267.25</ele><time>2026-05-03T14:58:49.761Z</time></trkpt><trkpt lat="44.2927067" lon="10.6685367"><ele>1266.5</ele><time>2026-05-03T14:58:50.761Z</time></trkpt><trkpt lat="44.2928033" lon="10.66842"><ele>1265.75</ele><time>2026-05-03T14:58:51.761Z</time></trkpt><trkpt lat="44.2928983" lon="10.668315"><ele>1265.0</ele><time>2026-05-03T14:58:52.761Z</time></trkpt><trkpt lat="44.2929883" lon="10.6682233"><ele>1265.0</ele><time>2026-05-03T14:58:53.761Z</time></trkpt><trkpt lat="44.2930783" lon="10.6681367"><ele>1265.0</ele><time>2026-05-03T14:58:54.76Z</time></trkpt><trkpt lat="44.2931717" lon="10.6680667"><ele>1265.0</ele><time>2026-05-03T14:58:55.76Z</time></trkpt><trkpt lat="44.2932617" lon="10.6679983"><ele>1265.0</ele><time>2026-05-03T14:58:56.761Z</time></trkpt><trkpt lat="44.2933533" lon="10.6679283"><ele>1265.0</ele><time>2026-05-03T14:58:57.761Z</time></trkpt><trkpt lat="44.2934533" lon="10.6678683"><ele>1265.0</ele><time>2026-05-03T14:58:58.761Z</time></trkpt><trkpt lat="44.2935517" lon="10.667825"><ele>1265.0</ele><time>2026-05-03T14:58:59.761Z</time></trkpt><trkpt lat="44.2936483" lon="10.667795"><ele>1265.0</ele><time>2026-05-03T14:59:00.761Z</time></trkpt><trkpt lat="44.2937533" lon="10.6677783"><ele>1265.0</ele><time>2026-05-03T14:59:01.761Z</time></trkpt><trkpt lat="44.2938483" lon="10.6677517"><ele>1265.0</ele><time>2026-05-03T14:59:02.761Z</time></trkpt><trkpt lat="44.29394" lon="10.6677067"><ele>1264.0</ele><time>2026-05-03T14:59:03.761Z</time></trkpt><trkpt lat="44.2940333" lon="10.667655"><ele>1263.0</ele><time>2026-05-03T14:59:04.76Z</time></trkpt><trkpt lat="44.2941317" lon="10.6675917"><ele>1262.0</ele><time>2026-05-03T14:59:05.761Z</time></trkpt><trkpt lat="44.294225" lon="10.6675233"><ele>1261.0</ele><time>2026-05-03T14:59:06.761Z</time></trkpt><trkpt lat="44.2943117" lon="10.667435"><ele>1260.0</ele><time>2026-05-03T14:59:07.761Z</time></trkpt><trkpt lat="44.2943883" lon="10.6673433"><ele>1260.0</ele><time>2026-05-03T14:59:08.76Z</time></trkpt><trkpt lat="44.2944617" lon="10.6672567"><ele>1260.0</ele><time>2026-05-03T14:59:09.761Z</time></trkpt><trkpt lat="44.294535" lon="10.6671683"><ele>1260.0</ele><time>2026-05-03T14:59:10.76Z</time></trkpt><trkpt lat="44.2946033" lon="10.66708"><ele>1260.0</ele><time>2026-05-03T14:59:11.761Z</time></trkpt><trkpt lat="44.2946733" lon="10.666995"><ele>1260.0</ele><time>2026-05-03T14:59:12.761Z</time></trkpt><trkpt lat="44.2947517" lon="10.6669383"><ele>1259.5</ele><time>2026-05-03T14:59:13.761Z</time></trkpt><trkpt lat="44.2948283" lon="10.6669067"><ele>1259.0</ele><time>2026-05-03T14:59:14.76Z</time></trkpt><trkpt lat="44.2949033" lon="10.6669017"><ele>1258.5</ele><time>2026-05-03T14:59:15.761Z</time></trkpt><trkpt lat="44.2949883" lon="10.6669267"><ele>1258.0</ele><time>2026-05-03T14:59:16.761Z</time></trkpt><trkpt lat="44.2950883" lon="10.6669517"><ele>1257.5</ele><time>2026-05-03T14:59:17.76Z</time></trkpt><trkpt lat="44.2951883" lon="10.6669817"><ele>1257.0</ele><time>2026-05-03T14:59:18.761Z</time></trkpt><trkpt lat="44.295285" lon="10.6670067"><ele>1257.0</ele><time>2026-05-03T14:59:19.76Z</time></trkpt><trkpt lat="44.295375" lon="10.6670167"><ele>1257.0</ele><time>2026-05-03T14:59:20.761Z</time></trkpt><trkpt lat="44.2954617" lon="10.667015"><ele>1257.0</ele><time>2026-05-03T14:59:21.761Z</time></trkpt><trkpt lat="44.295545" lon="10.667"><ele>1257.0</ele><time>2026-05-03T14:59:22.761Z</time></trkpt><trkpt lat="44.2956183" lon="10.666965"><ele>1257.0</ele><time>2026-05-03T14:59:23.761Z</time></trkpt><trkpt lat="44.2956733" lon="10.6669083"><ele>1257.0</ele><time>2026-05-03T14:59:24.761Z</time></trkpt><trkpt lat="44.2957133" lon="10.66683"><ele>1255.8</ele><time>2026-05-03T14:59:25.761Z</time></trkpt><trkpt lat="44.2957417" lon="10.6667367"><ele>1254.6</ele><time>2026-05-03T14:59:26.76Z</time></trkpt><trkpt lat="44.2957583" lon="10.66662"><ele>1253.3999999999999</ele><time>2026-05-03T14:59:27.761Z</time></trkpt><trkpt lat="44.2957567" lon="10.6664783"><ele>1252.2</ele><time>2026-05-03T14:59:28.76Z</time></trkpt><trkpt lat="44.2957483" lon="10.666325"><ele>1251.0</ele><time>2026-05-03T14:59:29.761Z</time></trkpt><trkpt lat="44.2957367" lon="10.6661667"><ele>1249.5</ele><time>2026-05-03T14:59:30.761Z</time></trkpt><trkpt lat="44.295715" lon="10.6660217"><ele>1248.0</ele><time>2026-05-03T14:59:31.761Z</time></trkpt><trkpt lat="44.29569" lon="10.66588"><ele>1246.5</ele><time>2026-05-03T14:59:32.761Z</time></trkpt><trkpt lat="44.2956717" lon="10.6657617"><ele>1245.0</ele><time>2026-05-03T14:59:33.76Z</time></trkpt><trkpt lat="44.29565" lon="10.6656567"><ele>1243.5</ele><time>2026-05-03T14:59:34.76Z</time></trkpt><trkpt lat="44.29564" lon="10.66556"><ele>1242.0</ele><time>2026-05-03T14:59:35.761Z</time></trkpt><trkpt lat="44.2956517" lon="10.6654717"><ele>1242.0</ele><time>2026-05-03T14:59:36.761Z</time></trkpt><trkpt lat="44.2956867" lon="10.6653917"><ele>1242.0</ele><time>2026-05-03T14:59:37.76Z</time></trkpt><trkpt lat="44.2957467" lon="10.6653233"><ele>1242.0</ele><time>2026-05-03T14:59:38.761Z</time></trkpt><trkpt lat="44.2958283" lon="10.6652883"><ele>1242.0</ele><time>2026-05-03T14:59:39.76Z</time></trkpt><trkpt lat="44.2959233" lon="10.6652883"><ele>1242.0</ele><time>2026-05-03T14:59:40.761Z</time></trkpt><trkpt lat="44.29603" lon="10.6653333"><ele>1242.0</ele><time>2026-05-03T14:59:41.761Z</time></trkpt><trkpt lat="44.2961233" lon="10.6653967"><ele>1242.0</ele><time>2026-05-03T14:59:42.761Z</time></trkpt><trkpt lat="44.2962067" lon="10.6655017"><ele>1242.0</ele><time>2026-05-03T14:59:43.761Z</time></trkpt><trkpt lat="44.2962817" lon="10.6656067"><ele>1242.0</ele><time>2026-05-03T14:59:44.761Z</time></trkpt><trkpt lat="44.2963483" lon="10.6657233"><ele>1242.0</ele><time>2026-05-03T14:59:45.761Z</time></trkpt><trkpt lat="44.2964117" lon="10.665865"><ele>1242.0</ele><time>2026-05-03T14:59:46.76Z</time></trkpt><trkpt lat="44.2964833" lon="10.6659983"><ele>1240.75</ele><time>2026-05-03T14:59:47.761Z</time></trkpt><trkpt lat="44.2965567" lon="10.6661367"><ele>1239.5</ele><time>2026-05-03T14:59:48.761Z</time></trkpt><trkpt lat="44.29663" lon="10.6662633"><ele>1238.25</ele><time>2026-05-03T14:59:49.76Z</time></trkpt><trkpt lat="44.29672" lon="10.666395"><ele>1237.0</ele><time>2026-05-03T14:59:50.761Z</time></trkpt><trkpt lat="44.2967983" lon="10.6665267"><ele>1237.0</ele><time>2026-05-03T14:59:51.761Z</time></trkpt><trkpt lat="44.2968817" lon="10.6666567"><ele>1237.0</ele><time>2026-05-03T14:59:52.761Z</time></trkpt><trkpt lat="44.296975" lon="10.6667817"><ele>1237.0</ele><time>2026-05-03T14:59:53.761Z</time></trkpt><trkpt lat="44.297075" lon="10.6669"><ele>1237.0</ele><time>2026-05-03T14:59:54.761Z</time></trkpt><trkpt lat="44.2971733" lon="10.6670083"><ele>1234.2</ele><time>2026-05-03T14:59:55.761Z</time></trkpt><trkpt lat="44.2972717" lon="10.6671083"><ele>1231.4</ele><time>2026-05-03T14:59:56.761Z</time></trkpt><trkpt lat="44.2973583" lon="10.6672"><ele>1228.6</ele><time>2026-05-03T14:59:57.761Z</time></trkpt><trkpt lat="44.2974333" lon="10.667295"><ele>1225.8</ele><time>2026-05-03T14:59:58.76Z</time></trkpt><trkpt lat="44.2975033" lon="10.6673917"><ele>1223.0</ele><time>2026-05-03T14:59:59.761Z</time></trkpt><trkpt lat="44.2975517" lon="10.667495"><ele>1223.0</ele><time>2026-05-03T15:00:00.761Z</time></trkpt><trkpt lat="44.2975967" lon="10.6676083"><ele>1223.0</ele><time>2026-05-03T15:00:01.761Z</time></trkpt><trkpt lat="44.2976417" lon="10.6677367"><ele>1223.0</ele><time>2026-05-03T15:00:02.761Z</time></trkpt><trkpt lat="44.2977" lon="10.667835"><ele>1223.0</ele><time>2026-05-03T15:00:03.761Z</time></trkpt><trkpt lat="44.297765" lon="10.6679033"><ele>1223.0</ele><time>2026-05-03T15:00:04.761Z</time></trkpt><trkpt lat="44.2978533" lon="10.6679517"><ele>1222.6</ele><time>2026-05-03T15:00:05.761Z</time></trkpt><trkpt lat="44.2979517" lon="10.6679867"><ele>1222.1999999999998</ele><time>2026-05-03T15:00:06.761Z</time></trkpt><trkpt lat="44.298055" lon="10.6680333"><ele>1221.8</ele><time>2026-05-03T15:00:07.76Z</time></trkpt><trkpt lat="44.298165" lon="10.668085"><ele>1221.3999999999999</ele><time>2026-05-03T15:00:08.761Z</time></trkpt><trkpt lat="44.2982733" lon="10.6681383"><ele>1221.0</ele><time>2026-05-03T15:00:09.761Z</time></trkpt><trkpt lat="44.2983833" lon="10.668185"><ele>1219.3999999999999</ele><time>2026-05-03T15:00:10.761Z</time></trkpt><trkpt lat="44.2984917" lon="10.6682367"><ele>1217.8</ele><time>2026-05-03T15:00:11.76Z</time></trkpt><trkpt lat="44.2985833" lon="10.6682933"><ele>1216.1999999999998</ele><time>2026-05-03T15:00:12.761Z</time></trkpt><trkpt lat="44.2986783" lon="10.6683483"><ele>1214.6</ele><time>2026-05-03T15:00:13.761Z</time></trkpt><trkpt lat="44.2987683" lon="10.66841"><ele>1213.0</ele><time>2026-05-03T15:00:14.761Z</time></trkpt><trkpt lat="44.29885" lon="10.66847"><ele>1212.4</ele><time>2026-05-03T15:00:15.76Z</time></trkpt><trkpt lat="44.298925" lon="10.6685283"><ele>1211.8</ele><time>2026-05-03T15:00:16.761Z</time></trkpt><trkpt lat="44.2990033" lon="10.6685867"><ele>1211.2</ele><time>2026-05-03T15:00:17.76Z</time></trkpt><trkpt lat="44.2990867" lon="10.6686467"><ele>1210.6</ele><time>2026-05-03T15:00:18.76Z</time></trkpt><trkpt lat="44.2991717" lon="10.6687017"><ele>1210.0</ele><time>2026-05-03T15:00:19.761Z</time></trkpt><trkpt lat="44.2992667" lon="10.6687683"><ele>1210.0</ele><time>2026-05-03T15:00:20.761Z</time></trkpt><trkpt lat="44.2993533" lon="10.668835"><ele>1210.0</ele><time>2026-05-03T15:00:21.76Z</time></trkpt><trkpt lat="44.29944" lon="10.6689067"><ele>1210.0</ele><time>2026-05-03T15:00:22.761Z</time></trkpt><trkpt lat="44.2995167" lon="10.6689717"><ele>1210.0</ele><time>2026-05-03T15:00:23.761Z</time></trkpt><trkpt lat="44.2995983" lon="10.6690467"><ele>1210.0</ele><time>2026-05-03T15:00:24.761Z</time></trkpt><trkpt lat="44.2996783" lon="10.6691283"><ele>1208.6666666666665</ele><time>2026-05-03T15:00:25.761Z</time></trkpt><trkpt lat="44.2997567" lon="10.66921"><ele>1207.3333333333333</ele><time>2026-05-03T15:00:26.761Z</time></trkpt><trkpt lat="44.2998267" lon="10.6692733"><ele>1206.0</ele><time>2026-05-03T15:00:27.76Z</time></trkpt><trkpt lat="44.2998883" lon="10.66934"><ele>1204.6666666666667</ele><time>2026-05-03T15:00:28.761Z</time></trkpt><trkpt lat="44.2999467" lon="10.6694067"><ele>1203.3333333333335</ele><time>2026-05-03T15:00:29.76Z</time></trkpt><trkpt lat="44.3000067" lon="10.6694617"><ele>1202.0</ele><time>2026-05-03T15:00:30.761Z</time></trkpt><trkpt lat="44.300075" lon="10.6695133"><ele>1202.0</ele><time>2026-05-03T15:00:31.761Z</time></trkpt><trkpt lat="44.3001433" lon="10.6695683"><ele>1202.0</ele><time>2026-05-03T15:00:32.761Z</time></trkpt><trkpt lat="44.3002167" lon="10.6696283"><ele>1202.0</ele><time>2026-05-03T15:00:33.761Z</time></trkpt><trkpt lat="44.3002767" lon="10.6696867"><ele>1202.0</ele><time>2026-05-03T15:00:34.761Z</time></trkpt><trkpt lat="44.30034" lon="10.6697483"><ele>1202.0</ele><time>2026-05-03T15:00:35.761Z</time></trkpt><trkpt lat="44.3004" lon="10.6698033"><ele>1202.0</ele><time>2026-05-03T15:00:36.761Z</time></trkpt><trkpt lat="44.3004533" lon="10.669855"><ele>1202.0</ele><time>2026-05-03T15:00:37.761Z</time></trkpt><trkpt lat="44.3005533" lon="10.66995"><ele>1202.0</ele><time>2026-05-03T15:00:39.761Z</time></trkpt><trkpt lat="44.3006483" lon="10.6700317"><ele>1202.0</ele><time>2026-05-03T15:00:41.761Z</time></trkpt><trkpt lat="44.3007017" lon="10.6700983"><ele>1202.0</ele><time>2026-05-03T15:00:43.761Z</time></trkpt><trkpt lat="44.3007433" lon="10.6701683"><ele>1202.0</ele><time>2026-05-03T15:00:47.761Z</time></trkpt><trkpt lat="44.3008317" lon="10.6702217"><ele>1199.4</ele><time>2026-05-03T15:01:22.761Z</time></trkpt><trkpt lat="44.300865" lon="10.67036"><ele>1196.8000000000002</ele><time>2026-05-03T15:04:05.76Z</time></trkpt><trkpt lat="44.30088" lon="10.6704717"><ele>1194.2</ele><time>2026-05-03T15:04:06.76Z</time></trkpt><trkpt lat="44.3009033" lon="10.670595"><ele>1191.6000000000001</ele><time>2026-05-03T15:04:07.761Z</time></trkpt><trkpt lat="44.30095" lon="10.6707017"><ele>1189.0</ele><time>2026-05-03T15:04:08.761Z</time></trkpt><trkpt lat="44.3010233" lon="10.6708017"><ele>1189.0</ele><time>2026-05-03T15:04:09.76Z</time></trkpt><trkpt lat="44.3011017" lon="10.6708967"><ele>1189.0</ele><time>2026-05-03T15:04:10.761Z</time></trkpt><trkpt lat="44.30118" lon="10.670995"><ele>1189.0</ele><time>2026-05-03T15:04:11.76Z</time></trkpt><trkpt lat="44.3012567" lon="10.6711033"><ele>1189.0</ele><time>2026-05-03T15:04:12.76Z</time></trkpt><trkpt lat="44.30133" lon="10.6712117"><ele>1189.0</ele><time>2026-05-03T15:04:13.76Z</time></trkpt><trkpt lat="44.3013983" lon="10.6713183"><ele>1187.1666666666665</ele><time>2026-05-03T15:04:14.761Z</time></trkpt><trkpt lat="44.3014567" lon="10.67143"><ele>1185.3333333333333</ele><time>2026-05-03T15:04:15.761Z</time></trkpt><trkpt lat="44.3015033" lon="10.6715333"><ele>1183.5</ele><time>2026-05-03T15:04:16.761Z</time></trkpt><trkpt lat="44.3015417" lon="10.67163"><ele>1181.6666666666667</ele><time>2026-05-03T15:04:17.761Z</time></trkpt><trkpt lat="44.3015867" lon="10.6717283"><ele>1179.8333333333335</ele><time>2026-05-03T15:04:18.76Z</time></trkpt><trkpt lat="44.3016333" lon="10.67181"><ele>1178.0</ele><time>2026-05-03T15:04:19.761Z</time></trkpt><trkpt lat="44.301685" lon="10.671895"><ele>1177.4285714285713</ele><time>2026-05-03T15:04:20.761Z</time></trkpt><trkpt lat="44.3017283" lon="10.6719783"><ele>1176.8571428571427</ele><time>2026-05-03T15:04:21.761Z</time></trkpt><trkpt lat="44.3017683" lon="10.672055"><ele>1176.2857142857142</ele><time>2026-05-03T15:04:22.76Z</time></trkpt><trkpt lat="44.3018" lon="10.6721383"><ele>1175.7142857142858</ele><time>2026-05-03T15:04:23.761Z</time></trkpt><trkpt lat="44.30183" lon="10.6722267"><ele>1175.1428571428573</ele><time>2026-05-03T15:04:24.761Z</time></trkpt><trkpt lat="44.3018633" lon="10.6723267"><ele>1174.5714285714287</ele><time>2026-05-03T15:04:25.761Z</time></trkpt><trkpt lat="44.301895" lon="10.672435"><ele>1174.0</ele><time>2026-05-03T15:04:26.761Z</time></trkpt><trkpt lat="44.30193" lon="10.6725467"><ele>1174.0</ele><time>2026-05-03T15:04:27.761Z</time></trkpt><trkpt lat="44.301975" lon="10.672655"><ele>1174.0</ele><time>2026-05-03T15:04:28.761Z</time></trkpt><trkpt lat="44.3020283" lon="10.6727683"><ele>1174.0</ele><time>2026-05-03T15:04:29.761Z</time></trkpt><trkpt lat="44.3020883" lon="10.6728933"><ele>1174.0</ele><time>2026-05-03T15:04:30.761Z</time></trkpt><trkpt lat="44.3021517" lon="10.673015"><ele>1174.0</ele><time>2026-05-03T15:04:31.76Z</time></trkpt><trkpt lat="44.30222" lon="10.67314"><ele>1171.75</ele><time>2026-05-03T15:04:32.761Z</time></trkpt><trkpt lat="44.3022933" lon="10.6732567"><ele>1169.5</ele><time>2026-05-03T15:04:33.761Z</time></trkpt><trkpt lat="44.30237" lon="10.6733717"><ele>1167.25</ele><time>2026-05-03T15:04:34.761Z</time></trkpt><trkpt lat="44.302445" lon="10.6735117"><ele>1165.0</ele><time>2026-05-03T15:04:35.761Z</time></trkpt><trkpt lat="44.3025183" lon="10.673645"><ele>1164.6</ele><time>2026-05-03T15:04:36.761Z</time></trkpt><trkpt lat="44.30258" lon="10.6737533"><ele>1164.2</ele><time>2026-05-03T15:04:37.761Z</time></trkpt><trkpt lat="44.3026533" lon="10.6738783"><ele>1163.8</ele><time>2026-05-03T15:04:38.76Z</time></trkpt><trkpt lat="44.3027433" lon="10.674"><ele>1163.4</ele><time>2026-05-03T15:04:39.761Z</time></trkpt><trkpt lat="44.3028283" lon="10.674095"><ele>1163.0</ele><time>2026-05-03T15:04:40.761Z</time></trkpt><trkpt lat="44.3029067" lon="10.67419"><ele>1163.0</ele><time>2026-05-03T15:04:41.76Z</time></trkpt><trkpt lat="44.3029867" lon="10.67428"><ele>1163.0</ele><time>2026-05-03T15:04:42.76Z</time></trkpt><trkpt lat="44.3030783" lon="10.67435"><ele>1163.0</ele><time>2026-05-03T15:04:43.76Z</time></trkpt><trkpt lat="44.3031717" lon="10.674415"><ele>1163.0</ele><time>2026-05-03T15:04:44.761Z</time></trkpt><trkpt lat="44.3032533" lon="10.6744783"><ele>1163.0</ele><time>2026-05-03T15:04:45.761Z</time></trkpt><trkpt lat="44.3033417" lon="10.6745217"><ele>1162.1666666666667</ele><time>2026-05-03T15:04:46.761Z</time></trkpt><trkpt lat="44.3034233" lon="10.6745717"><ele>1161.3333333333335</ele><time>2026-05-03T15:04:47.76Z</time></trkpt><trkpt lat="44.3034867" lon="10.6746217"><ele>1160.5</ele><time>2026-05-03T15:04:48.761Z</time></trkpt><trkpt lat="44.3035383" lon="10.6746933"><ele>1159.6666666666667</ele><time>2026-05-03T15:04:49.761Z</time></trkpt><trkpt lat="44.3035867" lon="10.6747833"><ele>1158.8333333333333</ele><time>2026-05-03T15:04:50.76Z</time></trkpt><trkpt lat="44.3036233" lon="10.6748883"><ele>1158.0</ele><time>2026-05-03T15:04:51.761Z</time></trkpt><trkpt lat="44.3036533" lon="10.6750167"><ele>1158.0</ele><time>2026-05-03T15:04:52.76Z</time></trkpt><trkpt lat="44.303675" lon="10.6751567"><ele>1158.0</ele><time>2026-05-03T15:04:53.761Z</time></trkpt><trkpt lat="44.3036983" lon="10.6753017"><ele>1158.0</ele><time>2026-05-03T15:04:54.76Z</time></trkpt><trkpt lat="44.303715" lon="10.67544"><ele>1158.0</ele><time>2026-05-03T15:04:55.76Z</time></trkpt><trkpt lat="44.3037483" lon="10.6756"><ele>1158.0</ele><time>2026-05-03T15:04:56.76Z</time></trkpt><trkpt lat="44.3037767" lon="10.6757467"><ele>1157.2</ele><time>2026-05-03T15:04:57.761Z</time></trkpt><trkpt lat="44.303815" lon="10.6758917"><ele>1156.4</ele><time>2026-05-03T15:04:58.761Z</time></trkpt><trkpt lat="44.3038533" lon="10.6760217"><ele>1155.6000000000001</ele><time>2026-05-03T15:04:59.76Z</time></trkpt><trkpt lat="44.3039" lon="10.6761383"><ele>1154.8</ele><time>2026-05-03T15:05:00.76Z</time></trkpt><trkpt lat="44.3039633" lon="10.67624"><ele>1154.0</ele><time>2026-05-03T15:05:01.76Z</time></trkpt><trkpt lat="44.3040233" lon="10.67633"><ele>1154.0</ele><time>2026-05-03T15:05:02.76Z</time></trkpt><trkpt lat="44.3040667" lon="10.67641"><ele>1154.0</ele><time>2026-05-03T15:05:03.76Z</time></trkpt><trkpt lat="44.30409" lon="10.6765033"><ele>1154.0</ele><time>2026-05-03T15:05:04.76Z</time></trkpt><trkpt lat="44.3040917" lon="10.6765917"><ele>1154.0</ele><time>2026-05-03T15:05:05.76Z</time></trkpt><trkpt lat="44.3040633" lon="10.67669"><ele>1154.0</ele><time>2026-05-03T15:05:06.76Z</time></trkpt><trkpt lat="44.3039883" lon="10.6767783"><ele>1154.0</ele><time>2026-05-03T15:05:07.76Z</time></trkpt><trkpt lat="44.3039033" lon="10.6768583"><ele>1151.4</ele><time>2026-05-03T15:05:08.76Z</time></trkpt><trkpt lat="44.3038233" lon="10.6769033"><ele>1148.8000000000002</ele><time>2026-05-03T15:05:09.759Z</time></trkpt><trkpt lat="44.3037367" lon="10.6769017"><ele>1146.1999999999998</ele><time>2026-05-03T15:05:10.76Z</time></trkpt><trkpt lat="44.303665" lon="10.6768417"><ele>1143.6</ele><time>2026-05-03T15:05:11.759Z</time></trkpt><trkpt lat="44.3035933" lon="10.6767367"><ele>1141.0</ele><time>2026-05-03T15:05:12.76Z</time></trkpt><trkpt lat="44.3035217" lon="10.676605"><ele>1141.0</ele><time>2026-05-03T15:05:13.76Z</time></trkpt><trkpt lat="44.303445" lon="10.6764867"><ele>1141.0</ele><time>2026-05-03T15:05:14.759Z</time></trkpt><trkpt lat="44.3033617" lon="10.6763817"><ele>1141.0</ele><time>2026-05-03T15:05:15.76Z</time></trkpt><trkpt lat="44.3032817" lon="10.6762733"><ele>1141.0</ele><time>2026-05-03T15:05:16.76Z</time></trkpt><trkpt lat="44.3031967" lon="10.6761783"><ele>1141.0</ele><time>2026-05-03T15:05:17.76Z</time></trkpt><trkpt lat="44.3031167" lon="10.6760717"><ele>1138.8</ele><time>2026-05-03T15:05:18.759Z</time></trkpt><trkpt lat="44.3030417" lon="10.6759683"><ele>1136.6</ele><time>2026-05-03T15:05:19.76Z</time></trkpt><trkpt lat="44.3029667" lon="10.6758633"><ele>1134.4</ele><time>2026-05-03T15:05:20.76Z</time></trkpt><trkpt lat="44.3029" lon="10.6757583"><ele>1132.2</ele><time>2026-05-03T15:05:21.76Z</time></trkpt><trkpt lat="44.3028367" lon="10.67566"><ele>1130.0</ele><time>2026-05-03T15:05:22.76Z</time></trkpt><trkpt lat="44.3027667" lon="10.6755983"><ele>1130.0</ele><time>2026-05-03T15:05:23.76Z</time></trkpt><trkpt lat="44.3026967" lon="10.675565"><ele>1130.0</ele><time>2026-05-03T15:05:24.76Z</time></trkpt><trkpt lat="44.30257" lon="10.675595"><ele>1130.0</ele><time>2026-05-03T15:05:26.76Z</time></trkpt><trkpt lat="44.3024983" lon="10.6756983"><ele>1130.0</ele><time>2026-05-03T15:05:27.76Z</time></trkpt><trkpt lat="44.3024133" lon="10.6757867"><ele>1130.0</ele><time>2026-05-03T15:05:28.76Z</time></trkpt><trkpt lat="44.30233" lon="10.6758433"><ele>1127.2</ele><time>2026-05-03T15:05:29.76Z</time></trkpt><trkpt lat="44.30224" lon="10.6758517"><ele>1124.4</ele><time>2026-05-03T15:05:30.76Z</time></trkpt><trkpt lat="44.3021433" lon="10.6758"><ele>1121.6</ele><time>2026-05-03T15:05:31.76Z</time></trkpt><trkpt lat="44.302055" lon="10.6757067"><ele>1118.8</ele><time>2026-05-03T15:05:32.76Z</time></trkpt><trkpt lat="44.301965" lon="10.6756233"><ele>1116.0</ele><time>2026-05-03T15:05:33.76Z</time></trkpt><trkpt lat="44.3018617" lon="10.6755633"><ele>1116.0</ele><time>2026-05-03T15:05:34.76Z</time></trkpt><trkpt lat="44.3017517" lon="10.6755233"><ele>1116.0</ele><time>2026-05-03T15:05:35.76Z</time></trkpt><trkpt lat="44.3016533" lon="10.6755017"><ele>1116.0</ele><time>2026-05-03T15:05:36.76Z</time></trkpt><trkpt lat="44.30157" lon="10.6755033"><ele>1116.0</ele><time>2026-05-03T15:05:37.76Z</time></trkpt><trkpt lat="44.3014933" lon="10.67553"><ele>1116.0</ele><time>2026-05-03T15:05:38.76Z</time></trkpt><trkpt lat="44.3014267" lon="10.6755817"><ele>1114.8333333333333</ele><time>2026-05-03T15:05:39.759Z</time></trkpt><trkpt lat="44.3013767" lon="10.6756583"><ele>1113.6666666666667</ele><time>2026-05-03T15:05:40.76Z</time></trkpt><trkpt lat="44.30135" lon="10.6757733"><ele>1112.5</ele><time>2026-05-03T15:05:41.759Z</time></trkpt><trkpt lat="44.3013483" lon="10.6758983"><ele>1111.3333333333335</ele><time>2026-05-03T15:05:42.759Z</time></trkpt><trkpt lat="44.301375" lon="10.6760133"><ele>1110.1666666666667</ele><time>2026-05-03T15:05:43.76Z</time></trkpt><trkpt lat="44.3014117" lon="10.67612"><ele>1109.0</ele><time>2026-05-03T15:05:44.76Z</time></trkpt><trkpt lat="44.3014467" lon="10.6762383"><ele>1109.0</ele><time>2026-05-03T15:05:45.76Z</time></trkpt><trkpt lat="44.3014767" lon="10.67637"><ele>1109.0</ele><time>2026-05-03T15:05:46.76Z</time></trkpt><trkpt lat="44.3014967" lon="10.6764967"><ele>1109.0</ele><time>2026-05-03T15:05:47.76Z</time></trkpt><trkpt lat="44.30151" lon="10.676625"><ele>1109.0</ele><time>2026-05-03T15:05:48.759Z</time></trkpt><trkpt lat="44.3015233" lon="10.676755"><ele>1109.0</ele><time>2026-05-03T15:05:49.759Z</time></trkpt><trkpt lat="44.3015367" lon="10.67689"><ele>1107.8333333333335</ele><time>2026-05-03T15:05:50.76Z</time></trkpt><trkpt lat="44.3015417" lon="10.67701"><ele>1106.6666666666667</ele><time>2026-05-03T15:05:51.76Z</time></trkpt><trkpt lat="44.3015517" lon="10.67713"><ele>1105.5</ele><time>2026-05-03T15:05:52.76Z</time></trkpt><trkpt lat="44.301555" lon="10.6772517"><ele>1104.3333333333333</ele><time>2026-05-03T15:05:53.759Z</time></trkpt><trkpt lat="44.3015583" lon="10.6773667"><ele>1103.1666666666665</ele><time>2026-05-03T15:05:54.76Z</time></trkpt><trkpt lat="44.30156" lon="10.6774833"><ele>1102.0</ele><time>2026-05-03T15:05:55.759Z</time></trkpt><trkpt lat="44.3015583" lon="10.6775833"><ele>1102.0</ele><time>2026-05-03T15:05:56.76Z</time></trkpt><trkpt lat="44.301555" lon="10.6776983"><ele>1102.0</ele><time>2026-05-03T15:05:57.76Z</time></trkpt><trkpt lat="44.3015383" lon="10.6778117"><ele>1102.0</ele><time>2026-05-03T15:05:58.759Z</time></trkpt><trkpt lat="44.3015217" lon="10.67791"><ele>1102.0</ele><time>2026-05-03T15:05:59.759Z</time></trkpt><trkpt lat="44.3015067" lon="10.6780083"><ele>1102.0</ele><time>2026-05-03T15:06:00.76Z</time></trkpt><trkpt lat="44.30149" lon="10.6781083"><ele>1102.0</ele><time>2026-05-03T15:06:01.759Z</time></trkpt><trkpt lat="44.3014883" lon="10.678205"><ele>1102.2</ele><time>2026-05-03T15:06:02.76Z</time></trkpt><trkpt lat="44.3015033" lon="10.6782917"><ele>1102.4</ele><time>2026-05-03T15:06:03.76Z</time></trkpt><trkpt lat="44.30154" lon="10.6783917"><ele>1102.6</ele><time>2026-05-03T15:06:04.759Z</time></trkpt><trkpt lat="44.3015983" lon="10.678505"><ele>1102.8</ele><time>2026-05-03T15:06:05.759Z</time></trkpt><trkpt lat="44.3016583" lon="10.678625"><ele>1103.0</ele><time>2026-05-03T15:06:06.76Z</time></trkpt><trkpt lat="44.301725" lon="10.6787483"><ele>1103.0</ele><time>2026-05-03T15:06:07.759Z</time></trkpt><trkpt lat="44.3017833" lon="10.6788767"><ele>1103.0</ele><time>2026-05-03T15:06:08.76Z</time></trkpt><trkpt lat="44.301845" lon="10.6790167"><ele>1103.0</ele><time>2026-05-03T15:06:09.759Z</time></trkpt><trkpt lat="44.30191" lon="10.679165"><ele>1103.0</ele><time>2026-05-03T15:06:10.759Z</time></trkpt><trkpt lat="44.3019767" lon="10.6793"><ele>1104.5</ele><time>2026-05-03T15:06:11.76Z</time></trkpt><trkpt lat="44.3020433" lon="10.679435"><ele>1106.0</ele><time>2026-05-03T15:06:12.76Z</time></trkpt><trkpt lat="44.3021117" lon="10.679565"><ele>1107.5</ele><time>2026-05-03T15:06:13.76Z</time></trkpt><trkpt lat="44.3021817" lon="10.6797067"><ele>1109.0</ele><time>2026-05-03T15:06:14.76Z</time></trkpt><trkpt lat="44.3022583" lon="10.6798417"><ele>1102.0</ele><time>2026-05-03T15:06:15.76Z</time></trkpt><trkpt lat="44.302315" lon="10.6799583"><ele>1095.0</ele><time>2026-05-03T15:06:16.76Z</time></trkpt><trkpt lat="44.3023517" lon="10.6800833"><ele>1088.0</ele><time>2026-05-03T15:06:17.76Z</time></trkpt><trkpt lat="44.3023933" lon="10.680205"><ele>1081.0</ele><time>2026-05-03T15:06:18.76Z</time></trkpt><trkpt lat="44.30242" lon="10.68034"><ele>1074.0</ele><time>2026-05-03T15:06:19.759Z</time></trkpt><trkpt lat="44.3024317" lon="10.68051"><ele>1072.75</ele><time>2026-05-03T15:06:20.759Z</time></trkpt><trkpt lat="44.3024367" lon="10.6806783"><ele>1071.5</ele><time>2026-05-03T15:06:21.76Z</time></trkpt><trkpt lat="44.3024283" lon="10.680855"><ele>1070.25</ele><time>2026-05-03T15:06:22.76Z</time></trkpt><trkpt lat="44.30242" lon="10.6810317"><ele>1069.0</ele><time>2026-05-03T15:06:23.76Z</time></trkpt><trkpt lat="44.302425" lon="10.6812067"><ele>1067.75</ele><time>2026-05-03T15:06:24.76Z</time></trkpt><trkpt lat="44.3024317" lon="10.68138"><ele>1066.5</ele><time>2026-05-03T15:06:25.76Z</time></trkpt><trkpt lat="44.3024417" lon="10.6815633"><ele>1065.25</ele><time>2026-05-03T15:06:26.76Z</time></trkpt><trkpt lat="44.3024633" lon="10.6817333"><ele>1064.0</ele><time>2026-05-03T15:06:27.76Z</time></trkpt><trkpt lat="44.302505" lon="10.6819017"><ele>1063.5</ele><time>2026-05-03T15:06:28.76Z</time></trkpt><trkpt lat="44.30253" lon="10.68208"><ele>1063.0</ele><time>2026-05-03T15:06:29.759Z</time></trkpt><trkpt lat="44.3025517" lon="10.6822633"><ele>1062.5</ele><time>2026-05-03T15:06:30.76Z</time></trkpt><trkpt lat="44.3025717" lon="10.6824267"><ele>1062.0</ele><time>2026-05-03T15:06:31.76Z</time></trkpt><trkpt lat="44.3025867" lon="10.682585"><ele>1059.5</ele><time>2026-05-03T15:06:32.76Z</time></trkpt><trkpt lat="44.302595" lon="10.6827683"><ele>1057.0</ele><time>2026-05-03T15:06:33.759Z</time></trkpt><trkpt lat="44.30261" lon="10.6829533"><ele>1054.5</ele><time>2026-05-03T15:06:34.76Z</time></trkpt><trkpt lat="44.302645" lon="10.683135"><ele>1052.0</ele><time>2026-05-03T15:06:35.759Z</time></trkpt><trkpt lat="44.3026833" lon="10.6833017"><ele>1052.0</ele><time>2026-05-03T15:06:36.76Z</time></trkpt><trkpt lat="44.3027317" lon="10.6834683"><ele>1052.0</ele><time>2026-05-03T15:06:37.76Z</time></trkpt><trkpt lat="44.302765" lon="10.6836317"><ele>1052.0</ele><time>2026-05-03T15:06:38.759Z</time></trkpt><trkpt lat="44.3027933" lon="10.6838067"><ele>1052.0</ele><time>2026-05-03T15:06:39.76Z</time></trkpt><trkpt lat="44.3028133" lon="10.683965"><ele>1049.8</ele><time>2026-05-03T15:06:40.759Z</time></trkpt><trkpt lat="44.30283" lon="10.684105"><ele>1047.6</ele><time>2026-05-03T15:06:41.76Z</time></trkpt><trkpt lat="44.3028333" lon="10.6842517"><ele>1045.3999999999999</ele><time>2026-05-03T15:06:42.76Z</time></trkpt><trkpt lat="44.3028117" lon="10.684395"><ele>1043.2</ele><time>2026-05-03T15:06:43.76Z</time></trkpt><trkpt lat="44.3027783" lon="10.6845417"><ele>1041.0</ele><time>2026-05-03T15:06:44.76Z</time></trkpt><trkpt lat="44.3027267" lon="10.6846983"><ele>1038.0</ele><time>2026-05-03T15:06:45.759Z</time></trkpt><trkpt lat="44.3026683" lon="10.6848733"><ele>1035.0</ele><time>2026-05-03T15:06:46.76Z</time></trkpt><trkpt lat="44.3026117" lon="10.68504"><ele>1032.0</ele><time>2026-05-03T15:06:47.759Z</time></trkpt><trkpt lat="44.3025467" lon="10.6852017"><ele>1029.0</ele><time>2026-05-03T15:06:48.76Z</time></trkpt><trkpt lat="44.3024967" lon="10.6853617"><ele>1025.75</ele><time>2026-05-03T15:06:49.76Z</time></trkpt><trkpt lat="44.3024533" lon="10.685525"><ele>1022.5</ele><time>2026-05-03T15:06:50.76Z</time></trkpt><trkpt lat="44.3024083" lon="10.6857017"><ele>1019.25</ele><time>2026-05-03T15:06:51.759Z</time></trkpt><trkpt lat="44.3023533" lon="10.6858667"><ele>1016.0</ele><time>2026-05-03T15:06:52.76Z</time></trkpt><trkpt lat="44.302305" lon="10.6860133"><ele>1014.5000000000001</ele><time>2026-05-03T15:06:53.759Z</time></trkpt><trkpt lat="44.30228" lon="10.686145"><ele>1013.0</ele><time>2026-05-03T15:06:54.76Z</time></trkpt><trkpt lat="44.3022733" lon="10.6862717"><ele>1011.5</ele><time>2026-05-03T15:06:55.76Z</time></trkpt><trkpt lat="44.30226" lon="10.6863833"><ele>1010.0</ele><time>2026-05-03T15:06:56.76Z</time></trkpt><trkpt lat="44.3022683" lon="10.686495"><ele>1008.5000000000001</ele><time>2026-05-03T15:06:57.76Z</time></trkpt><trkpt lat="44.3023083" lon="10.6866133"><ele>1007.0</ele><time>2026-05-03T15:06:58.76Z</time></trkpt><trkpt lat="44.3023683" lon="10.6867217"><ele>1007.0</ele><time>2026-05-03T15:06:59.76Z</time></trkpt><trkpt lat="44.302435" lon="10.68683"><ele>1007.0</ele><time>2026-05-03T15:07:00.76Z</time></trkpt><trkpt lat="44.3025117" lon="10.6869283"><ele>1007.0</ele><time>2026-05-03T15:07:01.76Z</time></trkpt><trkpt lat="44.30259" lon="10.6870117"><ele>1007.0</ele><time>2026-05-03T15:07:02.76Z</time></trkpt><trkpt lat="44.3026667" lon="10.6870767"><ele>1007.0</ele><time>2026-05-03T15:07:03.759Z</time></trkpt><trkpt lat="44.3027633" lon="10.687105"><ele>1004.25</ele><time>2026-05-03T15:07:04.76Z</time></trkpt><trkpt lat="44.30288" lon="10.6871167"><ele>1001.5</ele><time>2026-05-03T15:07:05.76Z</time></trkpt><trkpt lat="44.303005" lon="10.6871333"><ele>998.75</ele><time>2026-05-03T15:07:06.76Z</time></trkpt><trkpt lat="44.3031217" lon="10.68715"><ele>996.0</ele><time>2026-05-03T15:07:07.76Z</time></trkpt><trkpt lat="44.30322" lon="10.68717"><ele>996.0</ele><time>2026-05-03T15:07:08.76Z</time></trkpt><trkpt lat="44.3033067" lon="10.6871617"><ele>995.9999999999999</ele><time>2026-05-03T15:07:09.76Z</time></trkpt><trkpt lat="44.3033867" lon="10.6871333"><ele>995.9999999999999</ele><time>2026-05-03T15:07:10.76Z</time></trkpt><trkpt lat="44.303445" lon="10.687065"><ele>996.0</ele><time>2026-05-03T15:07:11.76Z</time></trkpt><trkpt lat="44.3034933" lon="10.6869367"><ele>996.0</ele><time>2026-05-03T15:07:12.76Z</time></trkpt><trkpt lat="44.3035333" lon="10.6867733"><ele>997.4</ele><time>2026-05-03T15:07:13.76Z</time></trkpt><trkpt lat="44.3035717" lon="10.6866183"><ele>998.8</ele><time>2026-05-03T15:07:14.76Z</time></trkpt><trkpt lat="44.3036083" lon="10.6864583"><ele>1000.1999999999999</ele><time>2026-05-03T15:07:15.759Z</time></trkpt><trkpt lat="44.3036333" lon="10.6863217"><ele>1001.5999999999999</ele><time>2026-05-03T15:07:16.76Z</time></trkpt><trkpt lat="44.303665" lon="10.6862083"><ele>1003.0</ele><time>2026-05-03T15:07:17.76Z</time></trkpt><trkpt lat="44.303705" lon="10.6861183"><ele>1002.3333333333333</ele><time>2026-05-03T15:07:18.76Z</time></trkpt><trkpt lat="44.3037667" lon="10.6860467"><ele>1001.6666666666666</ele><time>2026-05-03T15:07:19.76Z</time></trkpt><trkpt lat="44.3038333" lon="10.6860167"><ele>1001.0</ele><time>2026-05-03T15:07:20.76Z</time></trkpt><trkpt lat="44.3039067" lon="10.6860283"><ele>1000.3333333333333</ele><time>2026-05-03T15:07:21.759Z</time></trkpt><trkpt lat="44.303985" lon="10.6860883"><ele>999.6666666666666</ele><time>2026-05-03T15:07:22.76Z</time></trkpt><trkpt lat="44.3040383" lon="10.6861767"><ele>999.0</ele><time>2026-05-03T15:07:23.76Z</time></trkpt><trkpt lat="44.304055" lon="10.6862867"><ele>998.4000000000001</ele><time>2026-05-03T15:07:24.76Z</time></trkpt><trkpt lat="44.3040733" lon="10.6864117"><ele>997.8000000000001</ele><time>2026-05-03T15:07:25.76Z</time></trkpt><trkpt lat="44.30411" lon="10.6865433"><ele>997.1999999999999</ele><time>2026-05-03T15:07:26.76Z</time></trkpt><trkpt lat="44.3041567" lon="10.6866933"><ele>996.5999999999999</ele><time>2026-05-03T15:07:27.76Z</time></trkpt><trkpt lat="44.3042083" lon="10.686845"><ele>996.0</ele><time>2026-05-03T15:07:28.76Z</time></trkpt><trkpt lat="44.3042517" lon="10.6870083"><ele>994.5</ele><time>2026-05-03T15:07:29.76Z</time></trkpt><trkpt lat="44.3042867" lon="10.687185"><ele>993.0</ele><time>2026-05-03T15:07:30.76Z</time></trkpt><trkpt lat="44.304315" lon="10.6873533"><ele>991.5</ele><time>2026-05-03T15:07:31.76Z</time></trkpt><trkpt lat="44.3043417" lon="10.6875133"><ele>990.0</ele><time>2026-05-03T15:07:32.76Z</time></trkpt><trkpt lat="44.304355" lon="10.6876717"><ele>989.0</ele><time>2026-05-03T15:07:33.759Z</time></trkpt><trkpt lat="44.30437" lon="10.687815"><ele>988.0</ele><time>2026-05-03T15:07:34.759Z</time></trkpt><trkpt lat="44.3044233" lon="10.687955"><ele>987.0</ele><time>2026-05-03T15:07:35.76Z</time></trkpt><trkpt lat="44.3044833" lon="10.6881017"><ele>986.0</ele><time>2026-05-03T15:07:36.76Z</time></trkpt><trkpt lat="44.3045483" lon="10.688245"><ele>986.0</ele><time>2026-05-03T15:07:37.76Z</time></trkpt><trkpt lat="44.30461" lon="10.6883717"><ele>985.9999999999999</ele><time>2026-05-03T15:07:38.76Z</time></trkpt><trkpt lat="44.304665" lon="10.6884833"><ele>985.9999999999999</ele><time>2026-05-03T15:07:39.76Z</time></trkpt><trkpt lat="44.3047017" lon="10.68858"><ele>986.0</ele><time>2026-05-03T15:07:40.76Z</time></trkpt><trkpt lat="44.304715" lon="10.6886733"><ele>986.0</ele><time>2026-05-03T15:07:41.76Z</time></trkpt><trkpt lat="44.3046567" lon="10.6887967"><ele>984.8</ele><time>2026-05-03T15:07:43.76Z</time></trkpt><trkpt lat="44.3045767" lon="10.688815"><ele>983.5999999999999</ele><time>2026-05-03T15:07:44.76Z</time></trkpt><trkpt lat="44.3044867" lon="10.6887967"><ele>982.4</ele><time>2026-05-03T15:07:45.76Z</time></trkpt><trkpt lat="44.3043883" lon="10.68876"><ele>981.2</ele><time>2026-05-03T15:07:46.76Z</time></trkpt><trkpt lat="44.3042883" lon="10.68873"><ele>980.0</ele><time>2026-05-03T15:07:47.76Z</time></trkpt><trkpt lat="44.3041933" lon="10.6887317"><ele>980.0000000000001</ele><time>2026-05-03T15:07:48.76Z</time></trkpt><trkpt lat="44.304115" lon="10.6887583"><ele>980.0</ele><time>2026-05-03T15:07:49.759Z</time></trkpt><trkpt lat="44.3040483" lon="10.6888133"><ele>980.0</ele><time>2026-05-03T15:07:50.76Z</time></trkpt><trkpt lat="44.3039883" lon="10.688895"><ele>980.0</ele><time>2026-05-03T15:07:51.76Z</time></trkpt><trkpt lat="44.303945" lon="10.689"><ele>980.0000000000001</ele><time>2026-05-03T15:07:52.76Z</time></trkpt><trkpt lat="44.3039133" lon="10.6891333"><ele>980.0</ele><time>2026-05-03T15:07:53.76Z</time></trkpt><trkpt lat="44.303905" lon="10.68928"><ele>980.0</ele><time>2026-05-03T15:07:54.76Z</time></trkpt><trkpt lat="44.3039267" lon="10.6894167"><ele>980.0</ele><time>2026-05-03T15:07:55.76Z</time></trkpt><trkpt lat="44.303965" lon="10.6895317"><ele>980.0</ele><time>2026-05-03T15:07:56.76Z</time></trkpt><trkpt lat="44.3040083" lon="10.6896467"><ele>980.0</ele><time>2026-05-03T15:07:57.76Z</time></trkpt><trkpt lat="44.30405" lon="10.689755"><ele>980.0</ele><time>2026-05-03T15:07:58.759Z</time></trkpt><trkpt lat="44.304085" lon="10.6898617"><ele>979.0000000000001</ele><time>2026-05-03T15:07:59.759Z</time></trkpt><trkpt lat="44.3041233" lon="10.68997"><ele>978.0</ele><time>2026-05-03T15:08:00.76Z</time></trkpt><trkpt lat="44.30416" lon="10.6900783"><ele>977.0</ele><time>2026-05-03T15:08:01.76Z</time></trkpt><trkpt lat="44.3041917" lon="10.69019"><ele>976.0</ele><time>2026-05-03T15:08:02.759Z</time></trkpt><trkpt lat="44.3042217" lon="10.6903033"><ele>975.0000000000001</ele><time>2026-05-03T15:08:03.76Z</time></trkpt><trkpt lat="44.3042533" lon="10.690415"><ele>974.0</ele><time>2026-05-03T15:08:04.76Z</time></trkpt><trkpt lat="44.3042833" lon="10.6905383"><ele>972.4000000000001</ele><time>2026-05-03T15:08:05.76Z</time></trkpt><trkpt lat="44.3043083" lon="10.69067"><ele>970.8000000000001</ele><time>2026-05-03T15:08:06.76Z</time></trkpt><trkpt lat="44.3043283" lon="10.690795"><ele>969.1999999999999</ele><time>2026-05-03T15:08:07.76Z</time></trkpt><trkpt lat="44.3043567" lon="10.6909217"><ele>967.5999999999999</ele><time>2026-05-03T15:08:08.76Z</time></trkpt><trkpt lat="44.3043867" lon="10.6910467"><ele>966.0</ele><time>2026-05-03T15:08:09.76Z</time></trkpt><trkpt lat="44.30442" lon="10.6911767"><ele>963.8</ele><time>2026-05-03T15:08:10.76Z</time></trkpt><trkpt lat="44.3044517" lon="10.6913033"><ele>961.5999999999999</ele><time>2026-05-03T15:08:11.76Z</time></trkpt><trkpt lat="44.3045033" lon="10.6914183"><ele>959.4</ele><time>2026-05-03T15:08:12.759Z</time></trkpt><trkpt lat="44.3045533" lon="10.691535"><ele>957.2</ele><time>2026-05-03T15:08:13.76Z</time></trkpt><trkpt lat="44.304595" lon="10.6916667"><ele>955.0</ele><time>2026-05-03T15:08:14.76Z</time></trkpt><trkpt lat="44.30462" lon="10.6918"><ele>953.8</ele><time>2026-05-03T15:08:15.76Z</time></trkpt><trkpt lat="44.3046567" lon="10.6919333"><ele>952.6</ele><time>2026-05-03T15:08:16.76Z</time></trkpt><trkpt lat="44.3047033" lon="10.6920567"><ele>951.4000000000001</ele><time>2026-05-03T15:08:17.76Z</time></trkpt><trkpt lat="44.3047633" lon="10.6921767"><ele>950.2</ele><time>2026-05-03T15:08:18.76Z</time></trkpt><trkpt lat="44.3048317" lon="10.692295"><ele>949.0</ele><time>2026-05-03T15:08:19.76Z</time></trkpt><trkpt lat="44.3049" lon="10.692395"><ele>953.0</ele><time>2026-05-03T15:08:20.76Z</time></trkpt><trkpt lat="44.3049833" lon="10.692475"><ele>957.0000000000001</ele><time>2026-05-03T15:08:21.76Z</time></trkpt><trkpt lat="44.3050683" lon="10.6925383"><ele>961.0000000000001</ele><time>2026-05-03T15:08:22.76Z</time></trkpt><trkpt lat="44.30517" lon="10.6925967"><ele>965.0</ele><time>2026-05-03T15:08:23.759Z</time></trkpt><trkpt lat="44.3052733" lon="10.69265"><ele>969.0</ele><time>2026-05-03T15:08:24.76Z</time></trkpt><trkpt lat="44.3053817" lon="10.6927"><ele>969.25</ele><time>2026-05-03T15:08:25.759Z</time></trkpt><trkpt lat="44.3054867" lon="10.6927583"><ele>969.5</ele><time>2026-05-03T15:08:26.76Z</time></trkpt><trkpt lat="44.30559" lon="10.69282"><ele>969.75</ele><time>2026-05-03T15:08:27.76Z</time></trkpt><trkpt lat="44.3056967" lon="10.6928817"><ele>970.0</ele><time>2026-05-03T15:08:28.76Z</time></trkpt><trkpt lat="44.3058" lon="10.692945"><ele>970.0</ele><time>2026-05-03T15:08:29.759Z</time></trkpt><trkpt lat="44.3059033" lon="10.6930033"><ele>970.0</ele><time>2026-05-03T15:08:30.76Z</time></trkpt><trkpt lat="44.3060033" lon="10.6930533"><ele>970.0</ele><time>2026-05-03T15:08:31.76Z</time></trkpt><trkpt lat="44.306095" lon="10.6931083"><ele>970.0</ele><time>2026-05-03T15:08:32.76Z</time></trkpt><trkpt lat="44.306175" lon="10.6931667"><ele>970.0</ele><time>2026-05-03T15:08:33.759Z</time></trkpt><trkpt lat="44.3062533" lon="10.693245"><ele>970.0</ele><time>2026-05-03T15:08:34.76Z</time></trkpt><trkpt lat="44.306315" lon="10.6933683"><ele>970.0</ele><time>2026-05-03T15:08:35.76Z</time></trkpt><trkpt lat="44.3063667" lon="10.69351"><ele>970.0</ele><time>2026-05-03T15:08:36.76Z</time></trkpt><trkpt lat="44.3063983" lon="10.6936683"><ele>970.0</ele><time>2026-05-03T15:08:37.76Z</time></trkpt><trkpt lat="44.306435" lon="10.6938183"><ele>971.8</ele><time>2026-05-03T15:08:38.76Z</time></trkpt><trkpt lat="44.3064717" lon="10.6939533"><ele>973.6</ele><time>2026-05-03T15:08:39.759Z</time></trkpt><trkpt lat="44.306495" lon="10.694085"><ele>975.4000000000001</ele><time>2026-05-03T15:08:40.76Z</time></trkpt><trkpt lat="44.3064967" lon="10.6942083"><ele>977.2</ele><time>2026-05-03T15:08:41.76Z</time></trkpt><trkpt lat="44.3064717" lon="10.69434"><ele>979.0</ele><time>2026-05-03T15:08:42.76Z</time></trkpt><trkpt lat="44.3064183" lon="10.6944533"><ele>975.2</ele><time>2026-05-03T15:08:43.76Z</time></trkpt><trkpt lat="44.3063633" lon="10.69454"><ele>971.4000000000001</ele><time>2026-05-03T15:08:44.76Z</time></trkpt><trkpt lat="44.3063117" lon="10.694645"><ele>967.6</ele><time>2026-05-03T15:08:45.76Z</time></trkpt><trkpt lat="44.3062767" lon="10.694755"><ele>963.8</ele><time>2026-05-03T15:08:46.76Z</time></trkpt><trkpt lat="44.30626" lon="10.6948817"><ele>960.0</ele><time>2026-05-03T15:08:47.76Z</time></trkpt><trkpt lat="44.3062567" lon="10.69503"><ele>960.0</ele><time>2026-05-03T15:08:48.76Z</time></trkpt><trkpt lat="44.3062483" lon="10.6952"><ele>960.0</ele><time>2026-05-03T15:08:49.76Z</time></trkpt><trkpt lat="44.3062317" lon="10.695365"><ele>960.0</ele><time>2026-05-03T15:08:50.759Z</time></trkpt><trkpt lat="44.306195" lon="10.6955383"><ele>960.0</ele><time>2026-05-03T15:08:51.76Z</time></trkpt><trkpt lat="44.30615" lon="10.6957033"><ele>960.0</ele><time>2026-05-03T15:08:52.759Z</time></trkpt><trkpt lat="44.306105" lon="10.6958633"><ele>960.0</ele><time>2026-05-03T15:08:53.76Z</time></trkpt><trkpt lat="44.3060667" lon="10.69602"><ele>960.0</ele><time>2026-05-03T15:08:54.76Z</time></trkpt><trkpt lat="44.3060383" lon="10.6961717"><ele>960.0</ele><time>2026-05-03T15:08:55.759Z</time></trkpt><trkpt lat="44.3060233" lon="10.6963233"><ele>960.0</ele><time>2026-05-03T15:08:56.76Z</time></trkpt><trkpt lat="44.3060233" lon="10.6964833"><ele>960.0</ele><time>2026-05-03T15:08:57.76Z</time></trkpt><trkpt lat="44.30603" lon="10.6966517"><ele>960.0</ele><time>2026-05-03T15:08:58.76Z</time></trkpt><trkpt lat="44.3060233" lon="10.696815"><ele>960.0</ele><time>2026-05-03T15:08:59.76Z</time></trkpt><trkpt lat="44.3060017" lon="10.696975"><ele>958.6</ele><time>2026-05-03T15:09:00.76Z</time></trkpt><trkpt lat="44.305985" lon="10.697135"><ele>957.2</ele><time>2026-05-03T15:09:01.76Z</time></trkpt><trkpt lat="44.3059683" lon="10.6972733"><ele>955.8</ele><time>2026-05-03T15:09:02.76Z</time></trkpt><trkpt lat="44.3059567" lon="10.6973967"><ele>954.4</ele><time>2026-05-03T15:09:03.759Z</time></trkpt><trkpt lat="44.30597" lon="10.697525"><ele>953.0</ele><time>2026-05-03T15:09:04.76Z</time></trkpt><trkpt lat="44.3059983" lon="10.6976517"><ele>949.25</ele><time>2026-05-03T15:09:05.76Z</time></trkpt><trkpt lat="44.3060467" lon="10.6977917"><ele>945.5</ele><time>2026-05-03T15:09:06.76Z</time></trkpt><trkpt lat="44.30609" lon="10.6979433"><ele>941.75</ele><time>2026-05-03T15:09:07.76Z</time></trkpt><trkpt lat="44.3061317" lon="10.6981117"><ele>938.0</ele><time>2026-05-03T15:09:08.759Z</time></trkpt><trkpt lat="44.30616" lon="10.6982733"><ele>938.0</ele><time>2026-05-03T15:09:09.76Z</time></trkpt><trkpt lat="44.30618" lon="10.6984333"><ele>938.0</ele><time>2026-05-03T15:09:10.76Z</time></trkpt><trkpt lat="44.3061933" lon="10.6985817"><ele>938.0</ele><time>2026-05-03T15:09:11.76Z</time></trkpt><trkpt lat="44.3062233" lon="10.6987033"><ele>938.0</ele><time>2026-05-03T15:09:12.759Z</time></trkpt><trkpt lat="44.3062867" lon="10.6988183"><ele>938.0</ele><time>2026-05-03T15:09:13.759Z</time></trkpt><trkpt lat="44.3063533" lon="10.6989383"><ele>937.8</ele><time>2026-05-03T15:09:14.759Z</time></trkpt><trkpt lat="44.3064217" lon="10.69908"><ele>937.5999999999999</ele><time>2026-05-03T15:09:15.76Z</time></trkpt><trkpt lat="44.3064783" lon="10.69921"><ele>937.4000000000001</ele><time>2026-05-03T15:09:16.76Z</time></trkpt><trkpt lat="44.3065217" lon="10.6993417"><ele>937.2</ele><time>2026-05-03T15:09:17.759Z</time></trkpt><trkpt lat="44.306535" lon="10.69948"><ele>937.0</ele><time>2026-05-03T15:09:18.759Z</time></trkpt><trkpt lat="44.3065167" lon="10.6996267"><ele>937.0</ele><time>2026-05-03T15:09:19.759Z</time></trkpt><trkpt lat="44.3064867" lon="10.6997767"><ele>937.0</ele><time>2026-05-03T15:09:20.76Z</time></trkpt><trkpt lat="44.3064517" lon="10.6999233"><ele>937.0</ele><time>2026-05-03T15:09:21.76Z</time></trkpt><trkpt lat="44.3064183" lon="10.7000683"><ele>937.0</ele><time>2026-05-03T15:09:22.76Z</time></trkpt><trkpt lat="44.3064083" lon="10.7001967"><ele>937.0</ele><time>2026-05-03T15:09:23.76Z</time></trkpt><trkpt lat="44.3064133" lon="10.7003067"><ele>933.6</ele><time>2026-05-03T15:09:24.76Z</time></trkpt><trkpt lat="44.306445" lon="10.7004017"><ele>930.2</ele><time>2026-05-03T15:09:25.76Z</time></trkpt><trkpt lat="44.306495" lon="10.7005117"><ele>926.8</ele><time>2026-05-03T15:09:26.76Z</time></trkpt><trkpt lat="44.30656" lon="10.70063"><ele>923.4</ele><time>2026-05-03T15:09:27.76Z</time></trkpt><trkpt lat="44.306625" lon="10.70077"><ele>920.0</ele><time>2026-05-03T15:09:28.76Z</time></trkpt><trkpt lat="44.3066867" lon="10.700925"><ele>920.0</ele><time>2026-05-03T15:09:29.759Z</time></trkpt><trkpt lat="44.3067267" lon="10.701075"><ele>920.0</ele><time>2026-05-03T15:09:30.76Z</time></trkpt><trkpt lat="44.3067467" lon="10.70123"><ele>920.0</ele><time>2026-05-03T15:09:31.76Z</time></trkpt><trkpt lat="44.3067683" lon="10.701375"><ele>920.0</ele><time>2026-05-03T15:09:32.76Z</time></trkpt><trkpt lat="44.3067867" lon="10.7015067"><ele>920.0</ele><time>2026-05-03T15:09:33.76Z</time></trkpt><trkpt lat="44.3068317" lon="10.701625"><ele>917.25</ele><time>2026-05-03T15:09:34.76Z</time></trkpt><trkpt lat="44.3068867" lon="10.70175"><ele>914.5</ele><time>2026-05-03T15:09:35.76Z</time></trkpt><trkpt lat="44.3069483" lon="10.7018833"><ele>911.75</ele><time>2026-05-03T15:09:36.76Z</time></trkpt><trkpt lat="44.30701" lon="10.7020233"><ele>909.0</ele><time>2026-05-03T15:09:37.76Z</time></trkpt><trkpt lat="44.30707" lon="10.7021617"><ele>905.75</ele><time>2026-05-03T15:09:38.76Z</time></trkpt><trkpt lat="44.3071383" lon="10.7023033"><ele>902.5</ele><time>2026-05-03T15:09:39.76Z</time></trkpt><trkpt lat="44.3071883" lon="10.70245"><ele>899.25</ele><time>2026-05-03T15:09:40.76Z</time></trkpt><trkpt lat="44.30723" lon="10.7026117"><ele>896.0</ele><time>2026-05-03T15:09:41.76Z</time></trkpt><trkpt lat="44.3072583" lon="10.70277"><ele>894.8</ele><time>2026-05-03T15:09:42.759Z</time></trkpt><trkpt lat="44.3072867" lon="10.702925"><ele>893.5999999999999</ele><time>2026-05-03T15:09:43.76Z</time></trkpt><trkpt lat="44.3073133" lon="10.703045"><ele>892.4</ele><time>2026-05-03T15:09:44.76Z</time></trkpt><trkpt lat="44.3073433" lon="10.7031467"><ele>891.2</ele><time>2026-05-03T15:09:45.76Z</time></trkpt><trkpt lat="44.3073867" lon="10.703245"><ele>890.0</ele><time>2026-05-03T15:09:46.76Z</time></trkpt><trkpt lat="44.3074533" lon="10.7033217"><ele>890.0</ele><time>2026-05-03T15:09:47.76Z</time></trkpt><trkpt lat="44.307535" lon="10.7033767"><ele>890.0</ele><time>2026-05-03T15:09:48.76Z</time></trkpt><trkpt lat="44.30763" lon="10.7034367"><ele>890.0</ele><time>2026-05-03T15:09:49.76Z</time></trkpt><trkpt lat="44.307735" lon="10.7035083"><ele>890.0</ele><time>2026-05-03T15:09:50.759Z</time></trkpt><trkpt lat="44.3078367" lon="10.7035967"><ele>890.0</ele><time>2026-05-03T15:09:51.76Z</time></trkpt><trkpt lat="44.3079367" lon="10.7037067"><ele>889.4</ele><time>2026-05-03T15:09:52.76Z</time></trkpt><trkpt lat="44.3080267" lon="10.7038283"><ele>888.8</ele><time>2026-05-03T15:09:53.759Z</time></trkpt><trkpt lat="44.3081117" lon="10.7039417"><ele>888.2</ele><time>2026-05-03T15:09:54.759Z</time></trkpt><trkpt lat="44.3081833" lon="10.7040517"><ele>887.6</ele><time>2026-05-03T15:09:55.76Z</time></trkpt><trkpt lat="44.3082317" lon="10.704155"><ele>887.0</ele><time>2026-05-03T15:09:56.76Z</time></trkpt><trkpt lat="44.30826" lon="10.7042683"><ele>887.0</ele><time>2026-05-03T15:09:57.76Z</time></trkpt><trkpt lat="44.3082667" lon="10.7043867"><ele>887.0</ele><time>2026-05-03T15:09:58.76Z</time></trkpt><trkpt lat="44.3082433" lon="10.7045283"><ele>887.0</ele><time>2026-05-03T15:09:59.76Z</time></trkpt><trkpt lat="44.3082183" lon="10.7046833"><ele>887.0</ele><time>2026-05-03T15:10:00.76Z</time></trkpt><trkpt lat="44.3081867" lon="10.7048233"><ele>887.0</ele><time>2026-05-03T15:10:01.759Z</time></trkpt><trkpt lat="44.3081783" lon="10.7049483"><ele>884.0</ele><time>2026-05-03T15:10:02.76Z</time></trkpt><trkpt lat="44.308185" lon="10.7050633"><ele>881.0</ele><time>2026-05-03T15:10:03.76Z</time></trkpt><trkpt lat="44.3082633" lon="10.7052083"><ele>878.0</ele><time>2026-05-03T15:10:05.76Z</time></trkpt><trkpt lat="44.3083433" lon="10.705235"><ele>875.0</ele><time>2026-05-03T15:10:06.76Z</time></trkpt><trkpt lat="44.3084433" lon="10.7052317"><ele>872.0</ele><time>2026-05-03T15:10:07.76Z</time></trkpt><trkpt lat="44.30854" lon="10.7052383"><ele>868.8</ele><time>2026-05-03T15:10:08.76Z</time></trkpt><trkpt lat="44.308625" lon="10.7052917"><ele>865.6</ele><time>2026-05-03T15:10:09.76Z</time></trkpt><trkpt lat="44.3086867" lon="10.705395"><ele>862.3999999999999</ele><time>2026-05-03T15:10:10.76Z</time></trkpt><trkpt lat="44.3087317" lon="10.7055217"><ele>859.1999999999999</ele><time>2026-05-03T15:10:11.76Z</time></trkpt><trkpt lat="44.30877" lon="10.705665"><ele>856.0</ele><time>2026-05-03T15:10:12.76Z</time></trkpt><trkpt lat="44.3088083" lon="10.7058183"><ele>856.0</ele><time>2026-05-03T15:10:13.759Z</time></trkpt><trkpt lat="44.3088433" lon="10.705965"><ele>855.9999999999999</ele><time>2026-05-03T15:10:14.759Z</time></trkpt><trkpt lat="44.30888" lon="10.7061083"><ele>855.9999999999999</ele><time>2026-05-03T15:10:15.759Z</time></trkpt><trkpt lat="44.308915" lon="10.70624"><ele>856.0</ele><time>2026-05-03T15:10:16.76Z</time></trkpt><trkpt lat="44.3089483" lon="10.7063533"><ele>856.0</ele><time>2026-05-03T15:10:17.76Z</time></trkpt><trkpt lat="44.3089967" lon="10.7064517"><ele>856.8</ele><time>2026-05-03T15:10:18.76Z</time></trkpt><trkpt lat="44.309065" lon="10.7065183"><ele>857.5999999999999</ele><time>2026-05-03T15:10:19.76Z</time></trkpt><trkpt lat="44.30915" lon="10.706555"><ele>858.4</ele><time>2026-05-03T15:10:20.759Z</time></trkpt><trkpt lat="44.3092533" lon="10.7065617"><ele>859.2</ele><time>2026-05-03T15:10:21.76Z</time></trkpt><trkpt lat="44.3093583" lon="10.706595"><ele>860.0</ele><time>2026-05-03T15:10:22.759Z</time></trkpt><trkpt lat="44.309455" lon="10.7066417"><ele>860.0</ele><time>2026-05-03T15:10:23.76Z</time></trkpt><trkpt lat="44.3095483" lon="10.70671"><ele>860.0</ele><time>2026-05-03T15:10:24.76Z</time></trkpt><trkpt lat="44.309635" lon="10.7067983"><ele>860.0</ele><time>2026-05-03T15:10:25.759Z</time></trkpt><trkpt lat="44.3097133" lon="10.7069"><ele>860.0</ele><time>2026-05-03T15:10:26.76Z</time></trkpt><trkpt lat="44.3097967" lon="10.7069983"><ele>860.0</ele><time>2026-05-03T15:10:27.76Z</time></trkpt><trkpt lat="44.3098767" lon="10.7071"><ele>858.8333333333334</ele><time>2026-05-03T15:10:28.76Z</time></trkpt><trkpt lat="44.3099567" lon="10.7072017"><ele>857.6666666666667</ele><time>2026-05-03T15:10:29.759Z</time></trkpt><trkpt lat="44.310015" lon="10.7072983"><ele>856.5</ele><time>2026-05-03T15:10:30.759Z</time></trkpt><trkpt lat="44.3100567" lon="10.7073917"><ele>855.3333333333333</ele><time>2026-05-03T15:10:31.76Z</time></trkpt><trkpt lat="44.3100717" lon="10.70749"><ele>854.1666666666666</ele><time>2026-05-03T15:10:32.759Z</time></trkpt><trkpt lat="44.3100617" lon="10.7075983"><ele>853.0</ele><time>2026-05-03T15:10:33.759Z</time></trkpt><trkpt lat="44.3100433" lon="10.7077083"><ele>851.2</ele><time>2026-05-03T15:10:34.76Z</time></trkpt><trkpt lat="44.3100183" lon="10.70784"><ele>849.4</ele><time>2026-05-03T15:10:35.76Z</time></trkpt><trkpt lat="44.3099983" lon="10.7079717"><ele>847.6</ele><time>2026-05-03T15:10:36.76Z</time></trkpt><trkpt lat="44.30999" lon="10.70811"><ele>845.8000000000001</ele><time>2026-05-03T15:10:37.76Z</time></trkpt><trkpt lat="44.3099933" lon="10.708245"><ele>844.0</ele><time>2026-05-03T15:10:38.76Z</time></trkpt><trkpt lat="44.310005" lon="10.7083567"><ele>843.9999999999999</ele><time>2026-05-03T15:10:39.76Z</time></trkpt><trkpt lat="44.3100183" lon="10.708465"><ele>844.0</ele><time>2026-05-03T15:10:40.759Z</time></trkpt><trkpt lat="44.31004" lon="10.708555"><ele>844.0</ele><time>2026-05-03T15:10:41.76Z</time></trkpt><trkpt lat="44.31007" lon="10.708655"><ele>844.0</ele><time>2026-05-03T15:10:42.76Z</time></trkpt><trkpt lat="44.310095" lon="10.7087667"><ele>843.9999999999999</ele><time>2026-05-03T15:10:43.76Z</time></trkpt><trkpt lat="44.3101183" lon="10.7088683"><ele>844.0</ele><time>2026-05-03T15:10:44.76Z</time></trkpt><trkpt lat="44.3101317" lon="10.7089617"><ele>841.9999999999999</ele><time>2026-05-03T15:10:45.759Z</time></trkpt><trkpt lat="44.3101433" lon="10.709055"><ele>840.0</ele><time>2026-05-03T15:10:46.76Z</time></trkpt><trkpt lat="44.310155" lon="10.7091433"><ele>838.0</ele><time>2026-05-03T15:10:47.76Z</time></trkpt><trkpt lat="44.3101483" lon="10.7092317"><ele>836.0</ele><time>2026-05-03T15:10:48.76Z</time></trkpt><trkpt lat="44.3101183" lon="10.7093867"><ele>833.9999999999999</ele><time>2026-05-03T15:10:50.76Z</time></trkpt><trkpt lat="44.3100333" lon="10.70946"><ele>832.0</ele><time>2026-05-03T15:10:52.76Z</time></trkpt><trkpt lat="44.3099317" lon="10.709435"><ele>832.0</ele><time>2026-05-03T15:10:54.76Z</time></trkpt><trkpt lat="44.3098783" lon="10.70938"><ele>832.0</ele><time>2026-05-03T15:10:55.76Z</time></trkpt><trkpt lat="44.3098167" lon="10.70925"><ele>832.0</ele><time>2026-05-03T15:10:57.76Z</time></trkpt><trkpt lat="44.309815" lon="10.7091083"><ele>832.0</ele><time>2026-05-03T15:10:59.76Z</time></trkpt><trkpt lat="44.3098233" lon="10.7089583"><ele>832.0</ele><time>2026-05-03T15:11:01.759Z</time></trkpt><trkpt lat="44.3098167" lon="10.7088"><ele>831.9999999999999</ele><time>2026-05-03T15:11:03.76Z</time></trkpt><trkpt lat="44.3097533" lon="10.7086383"><ele>832.0</ele><time>2026-05-03T15:11:05.76Z</time></trkpt><trkpt lat="44.3097017" lon="10.7085533"><ele>832.0</ele><time>2026-05-03T15:11:06.76Z</time></trkpt><trkpt lat="44.3096517" lon="10.7084733"><ele>832.0</ele><time>2026-05-03T15:11:07.759Z</time></trkpt><trkpt lat="44.309585" lon="10.7083967"><ele>831.9999999999999</ele><time>2026-05-03T15:11:08.76Z</time></trkpt><trkpt lat="44.3095283" lon="10.7083367"><ele>832.0</ele><time>2026-05-03T15:11:09.76Z</time></trkpt><trkpt lat="44.3094717" lon="10.70829"><ele>830.6</ele><time>2026-05-03T15:11:10.76Z</time></trkpt><trkpt lat="44.30935" lon="10.7082833"><ele>829.2</ele><time>2026-05-03T15:11:12.76Z</time></trkpt><trkpt lat="44.3092883" lon="10.708315"><ele>827.8</ele><time>2026-05-03T15:11:13.759Z</time></trkpt><trkpt lat="44.3092117" lon="10.7084367"><ele>826.4</ele><time>2026-05-03T15:11:15.76Z</time></trkpt><trkpt lat="44.3091917" lon="10.7085333"><ele>825.0</ele><time>2026-05-03T15:11:16.76Z</time></trkpt><trkpt lat="44.309185" lon="10.7086483"><ele>822.6</ele><time>2026-05-03T15:11:17.76Z</time></trkpt><trkpt lat="44.3092017" lon="10.708765"><ele>820.2</ele><time>2026-05-03T15:11:18.76Z</time></trkpt><trkpt lat="44.309235" lon="10.7088867"><ele>817.8</ele><time>2026-05-03T15:11:19.759Z</time></trkpt><trkpt lat="44.3092833" lon="10.709025"><ele>815.4</ele><time>2026-05-03T15:11:20.76Z</time></trkpt><trkpt lat="44.3093267" lon="10.7091617"><ele>813.0</ele><time>2026-05-03T15:11:21.76Z</time></trkpt><trkpt lat="44.3093667" lon="10.70931"><ele>809.5</ele><time>2026-05-03T15:11:22.76Z</time></trkpt><trkpt lat="44.309395" lon="10.7094617"><ele>806.0</ele><time>2026-05-03T15:11:23.76Z</time></trkpt><trkpt lat="44.30943" lon="10.7096167"><ele>802.5</ele><time>2026-05-03T15:11:24.76Z</time></trkpt><trkpt lat="44.3094633" lon="10.7097683"><ele>799.0</ele><time>2026-05-03T15:11:25.76Z</time></trkpt><trkpt lat="44.309495" lon="10.7099133"><ele>799.0</ele><time>2026-05-03T15:11:26.76Z</time></trkpt><trkpt lat="44.3095283" lon="10.710055"><ele>799.0</ele><time>2026-05-03T15:11:27.76Z</time></trkpt><trkpt lat="44.309575" lon="10.7102"><ele>799.0</ele><time>2026-05-03T15:11:28.759Z</time></trkpt><trkpt lat="44.309635" lon="10.7103417"><ele>799.0</ele><time>2026-05-03T15:11:29.76Z</time></trkpt><trkpt lat="44.3097033" lon="10.710485"><ele>799.75</ele><time>2026-05-03T15:11:30.76Z</time></trkpt><trkpt lat="44.3097783" lon="10.71062"><ele>800.5</ele><time>2026-05-03T15:11:31.76Z</time></trkpt><trkpt lat="44.3098533" lon="10.7107467"><ele>801.25</ele><time>2026-05-03T15:11:32.759Z</time></trkpt><trkpt lat="44.3099217" lon="10.7108867"><ele>802.0</ele><time>2026-05-03T15:11:33.759Z</time></trkpt><trkpt lat="44.3099817" lon="10.7110367"><ele>798.25</ele><time>2026-05-03T15:11:34.759Z</time></trkpt><trkpt lat="44.3100417" lon="10.7111933"><ele>794.5</ele><time>2026-05-03T15:11:35.759Z</time></trkpt><trkpt lat="44.3101033" lon="10.7113383"><ele>790.75</ele><time>2026-05-03T15:11:36.759Z</time></trkpt><trkpt lat="44.3101767" lon="10.7114683"><ele>787.0</ele><time>2026-05-03T15:11:37.759Z</time></trkpt><trkpt lat="44.3102567" lon="10.7115883"><ele>787.0</ele><time>2026-05-03T15:11:38.758Z</time></trkpt><trkpt lat="44.31034" lon="10.7116933"><ele>787.0</ele><time>2026-05-03T15:11:39.759Z</time></trkpt><trkpt lat="44.3104133" lon="10.711795"><ele>787.0</ele><time>2026-05-03T15:11:40.759Z</time></trkpt><trkpt lat="44.3104733" lon="10.71191"><ele>787.0</ele><time>2026-05-03T15:11:41.758Z</time></trkpt><trkpt lat="44.3105333" lon="10.71203"><ele>787.0</ele><time>2026-05-03T15:11:42.758Z</time></trkpt><trkpt lat="44.310585" lon="10.7121483"><ele>786.4000000000001</ele><time>2026-05-03T15:11:43.759Z</time></trkpt><trkpt lat="44.3106283" lon="10.712275"><ele>785.8000000000001</ele><time>2026-05-03T15:11:44.759Z</time></trkpt><trkpt lat="44.3106633" lon="10.7124083"><ele>785.2</ele><time>2026-05-03T15:11:45.759Z</time></trkpt><trkpt lat="44.3106983" lon="10.7125433"><ele>784.6</ele><time>2026-05-03T15:11:46.758Z</time></trkpt><trkpt lat="44.3107317" lon="10.7126783"><ele>784.0</ele><time>2026-05-03T15:11:47.759Z</time></trkpt><trkpt lat="44.31076" lon="10.7128067"><ele>783.1666666666666</ele><time>2026-05-03T15:11:48.759Z</time></trkpt><trkpt lat="44.31078" lon="10.7129517"><ele>782.3333333333333</ele><time>2026-05-03T15:11:49.759Z</time></trkpt><trkpt lat="44.3108083" lon="10.71308"><ele>781.5</ele><time>2026-05-03T15:11:50.758Z</time></trkpt><trkpt lat="44.31084" lon="10.713195"><ele>780.6666666666667</ele><time>2026-05-03T15:11:51.759Z</time></trkpt><trkpt lat="44.3108733" lon="10.7132983"><ele>779.8333333333334</ele><time>2026-05-03T15:11:52.759Z</time></trkpt><trkpt lat="44.3109017" lon="10.7133833"><ele>779.0</ele><time>2026-05-03T15:11:53.759Z</time></trkpt><trkpt lat="44.310935" lon="10.71348"><ele>779.0000000000001</ele><time>2026-05-03T15:11:55.758Z</time></trkpt><trkpt lat="44.31092" lon="10.7135667"><ele>779.0</ele><time>2026-05-03T15:12:12.758Z</time></trkpt><trkpt lat="44.3109317" lon="10.7136967"><ele>779.0</ele><time>2026-05-03T15:12:53.759Z</time></trkpt><trkpt lat="44.3109283" lon="10.7138117"><ele>779.0</ele><time>2026-05-03T15:12:54.759Z</time></trkpt><trkpt lat="44.3109133" lon="10.7139283"><ele>779.0000000000001</ele><time>2026-05-03T15:12:55.759Z</time></trkpt><trkpt lat="44.3108933" lon="10.7140333"><ele>779.0</ele><time>2026-05-03T15:12:56.759Z</time></trkpt><trkpt lat="44.310875" lon="10.7141217"><ele>778.3333333333334</ele><time>2026-05-03T15:12:57.759Z</time></trkpt><trkpt lat="44.3108633" lon="10.71422"><ele>777.6666666666667</ele><time>2026-05-03T15:12:58.759Z</time></trkpt><trkpt lat="44.310845" lon="10.7143367"><ele>777.0</ele><time>2026-05-03T15:12:59.759Z</time></trkpt><trkpt lat="44.31083" lon="10.7144733"><ele>776.3333333333333</ele><time>2026-05-03T15:13:00.759Z</time></trkpt><trkpt lat="44.31081" lon="10.7146117"><ele>775.6666666666666</ele><time>2026-05-03T15:13:01.759Z</time></trkpt><trkpt lat="44.3107617" lon="10.7147133"><ele>775.0</ele><time>2026-05-03T15:13:02.759Z</time></trkpt><trkpt lat="44.3107133" lon="10.714785"><ele>773.4</ele><time>2026-05-03T15:13:03.759Z</time></trkpt><trkpt lat="44.3105917" lon="10.7147983"><ele>771.8</ele><time>2026-05-03T15:13:05.759Z</time></trkpt><trkpt lat="44.3105133" lon="10.7147117"><ele>770.2</ele><time>2026-05-03T15:13:06.758Z</time></trkpt><trkpt lat="44.3104433" lon="10.7146083"><ele>768.6</ele><time>2026-05-03T15:13:07.759Z</time></trkpt><trkpt lat="44.31038" lon="10.7144817"><ele>767.0</ele><time>2026-05-03T15:13:08.759Z</time></trkpt><trkpt lat="44.3103167" lon="10.7143383"><ele>766.75</ele><time>2026-05-03T15:13:09.759Z</time></trkpt><trkpt lat="44.310275" lon="10.71419"><ele>766.5</ele><time>2026-05-03T15:13:10.759Z</time></trkpt><trkpt lat="44.3102567" lon="10.7140267"><ele>766.25</ele><time>2026-05-03T15:13:11.759Z</time></trkpt><trkpt lat="44.3102617" lon="10.713845"><ele>766.0</ele><time>2026-05-03T15:13:12.759Z</time></trkpt><trkpt lat="44.3102783" lon="10.7136583"><ele>766.0</ele><time>2026-05-03T15:13:13.759Z</time></trkpt><trkpt lat="44.3103033" lon="10.71347"><ele>766.0</ele><time>2026-05-03T15:13:14.759Z</time></trkpt><trkpt lat="44.3103317" lon="10.7132817"><ele>766.0</ele><time>2026-05-03T15:13:15.759Z</time></trkpt><trkpt lat="44.3103617" lon="10.7131183"><ele>766.0</ele><time>2026-05-03T15:13:16.759Z</time></trkpt><trkpt lat="44.31036" lon="10.7129717"><ele>766.0</ele><time>2026-05-03T15:13:17.759Z</time></trkpt><trkpt lat="44.310325" lon="10.7128283"><ele>766.0</ele><time>2026-05-03T15:13:18.759Z</time></trkpt><trkpt lat="44.3102517" lon="10.7126833"><ele>766.0</ele><time>2026-05-03T15:13:19.759Z</time></trkpt><trkpt lat="44.310155" lon="10.7125733"><ele>766.0</ele><time>2026-05-03T15:13:20.759Z</time></trkpt><trkpt lat="44.3100417" lon="10.7124967"><ele>765.25</ele><time>2026-05-03T15:13:21.759Z</time></trkpt><trkpt lat="44.309915" lon="10.7124417"><ele>764.5</ele><time>2026-05-03T15:13:22.759Z</time></trkpt><trkpt lat="44.309775" lon="10.7124233"><ele>763.75</ele><time>2026-05-03T15:13:23.758Z</time></trkpt><trkpt lat="44.3096217" lon="10.7124383"><ele>763.0</ele><time>2026-05-03T15:13:24.758Z</time></trkpt><trkpt lat="44.309475" lon="10.7124567"><ele>763.0</ele><time>2026-05-03T15:13:25.759Z</time></trkpt><trkpt lat="44.30933" lon="10.7124733"><ele>763.0</ele><time>2026-05-03T15:13:26.759Z</time></trkpt><trkpt lat="44.3091983" lon="10.712485"><ele>763.0</ele><time>2026-05-03T15:13:27.758Z</time></trkpt><trkpt lat="44.3090633" lon="10.7124683"><ele>763.0</ele><time>2026-05-03T15:13:28.759Z</time></trkpt><trkpt lat="44.3089383" lon="10.7124217"><ele>760.75</ele><time>2026-05-03T15:13:29.759Z</time></trkpt><trkpt lat="44.3088117" lon="10.712355"><ele>758.5</ele><time>2026-05-03T15:13:30.759Z</time></trkpt><trkpt lat="44.3086783" lon="10.71228"><ele>756.25</ele><time>2026-05-03T15:13:31.759Z</time></trkpt><trkpt lat="44.3085317" lon="10.7122283"><ele>754.0</ele><time>2026-05-03T15:13:32.758Z</time></trkpt><trkpt lat="44.3083833" lon="10.7121967"><ele>754.0</ele><time>2026-05-03T15:13:33.758Z</time></trkpt><trkpt lat="44.30824" lon="10.7121617"><ele>754.0</ele><time>2026-05-03T15:13:34.759Z</time></trkpt><trkpt lat="44.3081033" lon="10.71212"><ele>754.0</ele><time>2026-05-03T15:13:35.759Z</time></trkpt><trkpt lat="44.3079683" lon="10.7120417"><ele>754.0</ele><time>2026-05-03T15:13:36.759Z</time></trkpt><trkpt lat="44.30784" lon="10.711935"><ele>753.0</ele><time>2026-05-03T15:13:37.759Z</time></trkpt><trkpt lat="44.3077133" lon="10.71181"><ele>752.0</ele><time>2026-05-03T15:13:38.759Z</time></trkpt><trkpt lat="44.307585" lon="10.7116633"><ele>751.0</ele><time>2026-05-03T15:13:39.759Z</time></trkpt><trkpt lat="44.30746" lon="10.71151"><ele>751.0</ele><time>2026-05-03T15:13:40.758Z</time></trkpt><trkpt lat="44.3073517" lon="10.7113483"><ele>751.0</ele><time>2026-05-03T15:13:41.759Z</time></trkpt><trkpt lat="44.3072517" lon="10.7111867"><ele>751.0</ele><time>2026-05-03T15:13:42.759Z</time></trkpt><trkpt lat="44.3071533" lon="10.7110417"><ele>750.75</ele><time>2026-05-03T15:13:43.759Z</time></trkpt><trkpt lat="44.3070533" lon="10.7109317"><ele>750.5</ele><time>2026-05-03T15:13:44.759Z</time></trkpt><trkpt lat="44.3069483" lon="10.7108683"><ele>750.25</ele><time>2026-05-03T15:13:45.759Z</time></trkpt><trkpt lat="44.3068333" lon="10.7108467"><ele>750.0</ele><time>2026-05-03T15:13:46.759Z</time></trkpt><trkpt lat="44.306705" lon="10.71087"><ele>750.0</ele><time>2026-05-03T15:13:47.759Z</time></trkpt><trkpt lat="44.30657" lon="10.71091"><ele>750.0</ele><time>2026-05-03T15:13:48.759Z</time></trkpt><trkpt lat="44.3064267" lon="10.7109583"><ele>750.0</ele><time>2026-05-03T15:13:49.759Z</time></trkpt><trkpt lat="44.3062883" lon="10.71099"><ele>750.0</ele><time>2026-05-03T15:13:50.759Z</time></trkpt><trkpt lat="44.3061583" lon="10.7109867"><ele>748.25</ele><time>2026-05-03T15:13:51.759Z</time></trkpt><trkpt lat="44.30602" lon="10.7109333"><ele>746.5</ele><time>2026-05-03T15:13:52.759Z</time></trkpt><trkpt lat="44.305895" lon="10.71084"><ele>744.75</ele><time>2026-05-03T15:13:53.758Z</time></trkpt><trkpt lat="44.3057767" lon="10.7107217"><ele>743.0</ele><time>2026-05-03T15:13:54.759Z</time></trkpt><trkpt lat="44.3056567" lon="10.7105783"><ele>743.6666666666666</ele><time>2026-05-03T15:13:55.759Z</time></trkpt><trkpt lat="44.3055433" lon="10.7104117"><ele>744.3333333333334</ele><time>2026-05-03T15:13:56.759Z</time></trkpt><trkpt lat="44.30543" lon="10.7102583"><ele>745.0</ele><time>2026-05-03T15:13:57.759Z</time></trkpt><trkpt lat="44.30532" lon="10.7101217"><ele>745.0</ele><time>2026-05-03T15:13:58.758Z</time></trkpt><trkpt lat="44.30522" lon="10.7100267"><ele>745.0</ele><time>2026-05-03T15:13:59.759Z</time></trkpt><trkpt lat="44.3051017" lon="10.7099583"><ele>745.0</ele><time>2026-05-03T15:14:00.759Z</time></trkpt><trkpt lat="44.3049817" lon="10.7099233"><ele>745.0</ele><time>2026-05-03T15:14:01.759Z</time></trkpt><trkpt lat="44.304855" lon="10.7099367"><ele>744.5</ele><time>2026-05-03T15:14:02.759Z</time></trkpt><trkpt lat="44.3047267" lon="10.7099867"><ele>744.0</ele><time>2026-05-03T15:14:03.759Z</time></trkpt><trkpt lat="44.304615" lon="10.7100683"><ele>743.5</ele><time>2026-05-03T15:14:04.759Z</time></trkpt><trkpt lat="44.3045317" lon="10.7102"><ele>743.0</ele><time>2026-05-03T15:14:05.759Z</time></trkpt><trkpt lat="44.3044533" lon="10.7103533"><ele>742.0</ele><time>2026-05-03T15:14:06.759Z</time></trkpt><trkpt lat="44.304375" lon="10.7105117"><ele>741.0</ele><time>2026-05-03T15:14:07.758Z</time></trkpt><trkpt lat="44.3043083" lon="10.71067"><ele>740.0</ele><time>2026-05-03T15:14:08.759Z</time></trkpt><trkpt lat="44.3042483" lon="10.7108017"><ele>739.0</ele><time>2026-05-03T15:14:09.758Z</time></trkpt><trkpt lat="44.3042283" lon="10.7109367"><ele>742.6666666666667</ele><time>2026-05-03T15:14:10.758Z</time></trkpt><trkpt lat="44.3043667" lon="10.711305"><ele>746.3333333333334</ele><time>2026-05-03T15:14:13.758Z</time></trkpt><trkpt lat="44.304485" lon="10.7113833"><ele>750.0</ele><time>2026-05-03T15:14:14.759Z</time></trkpt><trkpt lat="44.3046117" lon="10.7114717"><ele>750.0</ele><time>2026-05-03T15:14:15.759Z</time></trkpt><trkpt lat="44.3047217" lon="10.7115683"><ele>750.0</ele><time>2026-05-03T15:14:16.758Z</time></trkpt><trkpt lat="44.3048017" lon="10.7116967"><ele>750.0</ele><time>2026-05-03T15:14:17.759Z</time></trkpt><trkpt lat="44.3048617" lon="10.711865"><ele>750.0</ele><time>2026-05-03T15:14:18.759Z</time></trkpt><trkpt lat="44.3049283" lon="10.7120483"><ele>749.0</ele><time>2026-05-03T15:14:19.759Z</time></trkpt><trkpt lat="44.3050233" lon="10.7122333"><ele>748.0</ele><time>2026-05-03T15:14:20.759Z</time></trkpt><trkpt lat="44.305135" lon="10.71243"><ele>747.0</ele><time>2026-05-03T15:14:21.759Z</time></trkpt><trkpt lat="44.3052517" lon="10.7126083"><ele>747.75</ele><time>2026-05-03T15:14:22.759Z</time></trkpt><trkpt lat="44.3053517" lon="10.712785"><ele>748.5</ele><time>2026-05-03T15:14:23.759Z</time></trkpt><trkpt lat="44.30544" lon="10.7129467"><ele>749.25</ele><time>2026-05-03T15:14:24.759Z</time></trkpt><trkpt lat="44.3054967" lon="10.7131183"><ele>750.0</ele><time>2026-05-03T15:14:25.759Z</time></trkpt><trkpt lat="44.305515" lon="10.713295"><ele>750.0</ele><time>2026-05-03T15:14:26.759Z</time></trkpt><trkpt lat="44.30549" lon="10.7134717"><ele>750.0</ele><time>2026-05-03T15:14:27.759Z</time></trkpt><trkpt lat="44.3054417" lon="10.71366"><ele>750.0</ele><time>2026-05-03T15:14:28.759Z</time></trkpt><trkpt lat="44.3053917" lon="10.7138717"><ele>750.0</ele><time>2026-05-03T15:14:29.759Z</time></trkpt><trkpt lat="44.3053717" lon="10.7141083"><ele>751.0</ele><time>2026-05-03T15:14:30.759Z</time></trkpt><trkpt lat="44.3053683" lon="10.71434"><ele>752.0</ele><time>2026-05-03T15:14:31.759Z</time></trkpt><trkpt lat="44.3053983" lon="10.714565"><ele>753.0</ele><time>2026-05-03T15:14:32.759Z</time></trkpt><trkpt lat="44.3054367" lon="10.7147933"><ele>753.3333333333334</ele><time>2026-05-03T15:14:33.759Z</time></trkpt><trkpt lat="44.3055017" lon="10.7150267"><ele>753.6666666666667</ele><time>2026-05-03T15:14:34.759Z</time></trkpt><trkpt lat="44.30557" lon="10.715265"><ele>754.0</ele><time>2026-05-03T15:14:35.758Z</time></trkpt><trkpt lat="44.3056467" lon="10.7155"><ele>754.0</ele><time>2026-05-03T15:14:36.758Z</time></trkpt><trkpt lat="44.30574" lon="10.7157217"><ele>754.0</ele><time>2026-05-03T15:14:37.759Z</time></trkpt><trkpt lat="44.30585" lon="10.71592"><ele>754.0</ele><time>2026-05-03T15:14:38.758Z</time></trkpt><trkpt lat="44.30598" lon="10.7161033"><ele>758.6666666666667</ele><time>2026-05-03T15:14:39.759Z</time></trkpt><trkpt lat="44.30611" lon="10.7162817"><ele>763.3333333333334</ele><time>2026-05-03T15:14:40.759Z</time></trkpt><trkpt lat="44.3062217" lon="10.7164517"><ele>768.0</ele><time>2026-05-03T15:14:41.759Z</time></trkpt><trkpt lat="44.3062983" lon="10.7166217"><ele>768.0</ele><time>2026-05-03T15:14:42.758Z</time></trkpt><trkpt lat="44.306345" lon="10.7167783"><ele>768.0</ele><time>2026-05-03T15:14:43.759Z</time></trkpt><trkpt lat="44.30634" lon="10.71694"><ele>768.0</ele><time>2026-05-03T15:14:44.759Z</time></trkpt><trkpt lat="44.3062817" lon="10.7171"><ele>768.0</ele><time>2026-05-03T15:14:45.759Z</time></trkpt><trkpt lat="44.3062083" lon="10.7172483"><ele>768.75</ele><time>2026-05-03T15:14:46.759Z</time></trkpt><trkpt lat="44.306125" lon="10.7173983"><ele>769.5</ele><time>2026-05-03T15:14:47.759Z</time></trkpt><trkpt lat="44.30604" lon="10.7175733"><ele>770.25</ele><time>2026-05-03T15:14:48.759Z</time></trkpt><trkpt lat="44.3059717" lon="10.71777"><ele>771.0</ele><time>2026-05-03T15:14:49.759Z</time></trkpt><trkpt lat="44.3059317" lon="10.7179967"><ele>771.0</ele><time>2026-05-03T15:14:50.758Z</time></trkpt><trkpt lat="44.30591" lon="10.7182367"><ele>771.0</ele><time>2026-05-03T15:14:51.759Z</time></trkpt><trkpt lat="44.3059117" lon="10.7184783"><ele>771.0</ele><time>2026-05-03T15:14:52.759Z</time></trkpt><trkpt lat="44.30593" lon="10.718695"><ele>773.6666666666667</ele><time>2026-05-03T15:14:53.759Z</time></trkpt><trkpt lat="44.3059783" lon="10.718905"><ele>776.3333333333334</ele><time>2026-05-03T15:14:54.759Z</time></trkpt><trkpt lat="44.3060567" lon="10.7191083"><ele>779.0</ele><time>2026-05-03T15:14:55.759Z</time></trkpt><trkpt lat="44.3061333" lon="10.7193017"><ele>776.75</ele><time>2026-05-03T15:14:56.759Z</time></trkpt><trkpt lat="44.306235" lon="10.7194633"><ele>774.5</ele><time>2026-05-03T15:14:57.759Z</time></trkpt><trkpt lat="44.30635" lon="10.7195717"><ele>772.25</ele><time>2026-05-03T15:14:58.758Z</time></trkpt><trkpt lat="44.3064567" lon="10.719655"><ele>770.0</ele><time>2026-05-03T15:14:59.759Z</time></trkpt><trkpt lat="44.3065467" lon="10.7197383"><ele>770.0</ele><time>2026-05-03T15:15:00.759Z</time></trkpt><trkpt lat="44.3066033" lon="10.71985"><ele>770.0</ele><time>2026-05-03T15:15:01.759Z</time></trkpt><trkpt lat="44.3066167" lon="10.7199867"><ele>770.0</ele><time>2026-05-03T15:15:02.759Z</time></trkpt><trkpt lat="44.30659" lon="10.7201417"><ele>770.0</ele><time>2026-05-03T15:15:03.759Z</time></trkpt><trkpt lat="44.306545" lon="10.7203117"><ele>770.0</ele><time>2026-05-03T15:15:04.759Z</time></trkpt><trkpt lat="44.306505" lon="10.720495"><ele>772.4</ele><time>2026-05-03T15:15:05.758Z</time></trkpt><trkpt lat="44.306475" lon="10.720665"><ele>774.8</ele><time>2026-05-03T15:15:06.759Z</time></trkpt><trkpt lat="44.3064933" lon="10.7208183"><ele>777.2</ele><time>2026-05-03T15:15:07.759Z</time></trkpt><trkpt lat="44.3065317" lon="10.7209433"><ele>779.6</ele><time>2026-05-03T15:15:08.759Z</time></trkpt><trkpt lat="44.3065933" lon="10.72104"><ele>782.0</ele><time>2026-05-03T15:15:09.759Z</time></trkpt><trkpt lat="44.3067" lon="10.7210983"><ele>785.0</ele><time>2026-05-03T15:15:10.759Z</time></trkpt><trkpt lat="44.30682" lon="10.7211467"><ele>788.0</ele><time>2026-05-03T15:15:11.759Z</time></trkpt><trkpt lat="44.3069317" lon="10.721205"><ele>791.0</ele><time>2026-05-03T15:15:12.758Z</time></trkpt><trkpt lat="44.3070167" lon="10.7213067"><ele>794.0</ele><time>2026-05-03T15:15:13.759Z</time></trkpt><trkpt lat="44.3070533" lon="10.7214533"><ele>794.0</ele><time>2026-05-03T15:15:14.759Z</time></trkpt><trkpt lat="44.3070733" lon="10.7216367"><ele>794.0</ele><time>2026-05-03T15:15:15.759Z</time></trkpt><trkpt lat="44.30713" lon="10.721805"><ele>794.0</ele><time>2026-05-03T15:15:16.759Z</time></trkpt><trkpt lat="44.30721" lon="10.72195"><ele>794.0</ele><time>2026-05-03T15:15:17.759Z</time></trkpt><trkpt lat="44.3073117" lon="10.7221083"><ele>790.3333333333334</ele><time>2026-05-03T15:15:18.759Z</time></trkpt><trkpt lat="44.3074017" lon="10.72229"><ele>786.6666666666667</ele><time>2026-05-03T15:15:19.759Z</time></trkpt><trkpt lat="44.3074617" lon="10.7224933"><ele>783.0</ele><time>2026-05-03T15:15:20.759Z</time></trkpt><trkpt lat="44.3074983" lon="10.722705"><ele>785.0</ele><time>2026-05-03T15:15:21.759Z</time></trkpt><trkpt lat="44.307515" lon="10.7229317"><ele>787.0</ele><time>2026-05-03T15:15:22.758Z</time></trkpt><trkpt lat="44.307535" lon="10.7231767"><ele>789.0</ele><time>2026-05-03T15:15:23.758Z</time></trkpt><trkpt lat="44.3075517" lon="10.723425"><ele>793.6666666666667</ele><time>2026-05-03T15:15:24.758Z</time></trkpt><trkpt lat="44.3075717" lon="10.7236817"><ele>798.3333333333334</ele><time>2026-05-03T15:15:25.759Z</time></trkpt><trkpt lat="44.3076083" lon="10.7239283"><ele>803.0</ele><time>2026-05-03T15:15:26.759Z</time></trkpt><trkpt lat="44.307655" lon="10.7241633"><ele>803.0</ele><time>2026-05-03T15:15:27.759Z</time></trkpt><trkpt lat="44.3077083" lon="10.7243817"><ele>803.0</ele><time>2026-05-03T15:15:28.758Z</time></trkpt><trkpt lat="44.3077633" lon="10.72459"><ele>803.0</ele><time>2026-05-03T15:15:29.759Z</time></trkpt><trkpt lat="44.3078067" lon="10.7247783"><ele>804.25</ele><time>2026-05-03T15:15:30.759Z</time></trkpt><trkpt lat="44.3078167" lon="10.72495"><ele>805.5</ele><time>2026-05-03T15:15:31.759Z</time></trkpt><trkpt lat="44.3077717" lon="10.72512"><ele>806.75</ele><time>2026-05-03T15:15:32.759Z</time></trkpt><trkpt lat="44.307695" lon="10.7252783"><ele>808.0</ele><time>2026-05-03T15:15:33.759Z</time></trkpt><trkpt lat="44.3076083" lon="10.7254433"><ele>804.3333333333333</ele><time>2026-05-03T15:15:34.759Z</time></trkpt><trkpt lat="44.3075133" lon="10.7256217"><ele>800.6666666666667</ele><time>2026-05-03T15:15:35.759Z</time></trkpt><trkpt lat="44.3074233" lon="10.7258167"><ele>797.0</ele><time>2026-05-03T15:15:36.759Z</time></trkpt><trkpt lat="44.3073533" lon="10.72601"><ele>795.6666666666667</ele><time>2026-05-03T15:15:37.759Z</time></trkpt><trkpt lat="44.3072983" lon="10.7262067"><ele>794.3333333333333</ele><time>2026-05-03T15:15:38.758Z</time></trkpt><trkpt lat="44.30727" lon="10.7264183"><ele>793.0</ele><time>2026-05-03T15:15:39.759Z</time></trkpt><trkpt lat="44.3072717" lon="10.7266383"><ele>793.0</ele><time>2026-05-03T15:15:40.759Z</time></trkpt><trkpt lat="44.3072883" lon="10.72687"><ele>793.0</ele><time>2026-05-03T15:15:41.759Z</time></trkpt><trkpt lat="44.30731" lon="10.7270967"><ele>793.0</ele><time>2026-05-03T15:15:42.758Z</time></trkpt><trkpt lat="44.30734" lon="10.72731"><ele>796.0</ele><time>2026-05-03T15:15:43.759Z</time></trkpt><trkpt lat="44.30742" lon="10.72751"><ele>799.0</ele><time>2026-05-03T15:15:44.759Z</time></trkpt><trkpt lat="44.3075233" lon="10.727705"><ele>802.0</ele><time>2026-05-03T15:15:45.759Z</time></trkpt><trkpt lat="44.3076283" lon="10.72789"><ele>805.25</ele><time>2026-05-03T15:15:46.759Z</time></trkpt><trkpt lat="44.307725" lon="10.7280583"><ele>808.5</ele><time>2026-05-03T15:15:47.758Z</time></trkpt><trkpt lat="44.30779" lon="10.7282333"><ele>811.75</ele><time>2026-05-03T15:15:48.758Z</time></trkpt><trkpt lat="44.3078267" lon="10.7284117"><ele>815.0</ele><time>2026-05-03T15:15:49.759Z</time></trkpt><trkpt lat="44.3078417" lon="10.7286083"><ele>818.25</ele><time>2026-05-03T15:15:50.759Z</time></trkpt><trkpt lat="44.3078533" lon="10.728805"><ele>821.5</ele><time>2026-05-03T15:15:51.758Z</time></trkpt><trkpt lat="44.3078767" lon="10.72898"><ele>824.75</ele><time>2026-05-03T15:15:52.759Z</time></trkpt><trkpt lat="44.3079033" lon="10.72914"><ele>828.0</ele><time>2026-05-03T15:15:53.759Z</time></trkpt><trkpt lat="44.3079283" lon="10.729285"><ele>829.0</ele><time>2026-05-03T15:15:54.759Z</time></trkpt><trkpt lat="44.3079717" lon="10.7294133"><ele>830.0</ele><time>2026-05-03T15:15:55.759Z</time></trkpt><trkpt lat="44.3080267" lon="10.729535"><ele>831.0</ele><time>2026-05-03T15:15:56.759Z</time></trkpt><trkpt lat="44.3080917" lon="10.7296417"><ele>832.0</ele><time>2026-05-03T15:15:57.759Z</time></trkpt><trkpt lat="44.3081517" lon="10.7297433"><ele>833.0</ele><time>2026-05-03T15:15:58.759Z</time></trkpt><trkpt lat="44.308215" lon="10.7298383"><ele>830.1666666666667</ele><time>2026-05-03T15:15:59.758Z</time></trkpt><trkpt lat="44.3082567" lon="10.7299383"><ele>827.3333333333334</ele><time>2026-05-03T15:16:00.759Z</time></trkpt><trkpt lat="44.3083017" lon="10.73004"><ele>824.5</ele><time>2026-05-03T15:16:01.759Z</time></trkpt><trkpt lat="44.3083333" lon="10.7301517"><ele>821.6666666666667</ele><time>2026-05-03T15:16:02.759Z</time></trkpt><trkpt lat="44.308355" lon="10.730245"><ele>818.8333333333334</ele><time>2026-05-03T15:16:03.759Z</time></trkpt><trkpt lat="44.308395" lon="10.7303217"><ele>816.0</ele><time>2026-05-03T15:16:04.759Z</time></trkpt><trkpt lat="44.3084367" lon="10.730395"><ele>816.0</ele><time>2026-05-03T15:16:05.759Z</time></trkpt><trkpt lat="44.3085133" lon="10.7304833"><ele>816.0</ele><time>2026-05-03T15:16:07.758Z</time></trkpt><trkpt lat="44.3085967" lon="10.730485"><ele>816.0</ele><time>2026-05-03T15:16:09.759Z</time></trkpt><trkpt lat="44.3087233" lon="10.7304617"><ele>816.0</ele><time>2026-05-03T15:16:11.759Z</time></trkpt><trkpt lat="44.3087883" lon="10.73046"><ele>816.0</ele><time>2026-05-03T15:16:12.759Z</time></trkpt><trkpt lat="44.3088567" lon="10.7304633"><ele>816.0</ele><time>2026-05-03T15:16:13.759Z</time></trkpt><trkpt lat="44.3089267" lon="10.7304583"><ele>814.1666666666666</ele><time>2026-05-03T15:16:14.759Z</time></trkpt><trkpt lat="44.3090083" lon="10.73044"><ele>812.3333333333333</ele><time>2026-05-03T15:16:15.759Z</time></trkpt><trkpt lat="44.309085" lon="10.7304183"><ele>810.5</ele><time>2026-05-03T15:16:16.759Z</time></trkpt><trkpt lat="44.3091617" lon="10.730405"><ele>808.6666666666666</ele><time>2026-05-03T15:16:17.759Z</time></trkpt><trkpt lat="44.3092333" lon="10.7304083"><ele>806.8333333333333</ele><time>2026-05-03T15:16:18.759Z</time></trkpt><trkpt lat="44.3093033" lon="10.730415"><ele>805.0</ele><time>2026-05-03T15:16:19.759Z</time></trkpt><trkpt lat="44.3093883" lon="10.7303767"><ele>805.0</ele><time>2026-05-03T15:16:20.759Z</time></trkpt><trkpt lat="44.3094767" lon="10.7303717"><ele>805.0</ele><time>2026-05-03T15:16:21.759Z</time></trkpt><trkpt lat="44.30957" lon="10.7303683"><ele>805.0</ele><time>2026-05-03T15:16:22.758Z</time></trkpt><trkpt lat="44.30967" lon="10.7303767"><ele>805.0</ele><time>2026-05-03T15:16:23.759Z</time></trkpt><trkpt lat="44.3097767" lon="10.73039"><ele>805.0</ele><time>2026-05-03T15:16:24.759Z</time></trkpt><trkpt lat="44.3098917" lon="10.7303933"><ele>802.0</ele><time>2026-05-03T15:16:25.759Z</time></trkpt><trkpt lat="44.3099917" lon="10.7304033"><ele>799.0</ele><time>2026-05-03T15:16:26.759Z</time></trkpt><trkpt lat="44.3100817" lon="10.7304117"><ele>796.0</ele><time>2026-05-03T15:16:27.758Z</time></trkpt><trkpt lat="44.310165" lon="10.7304133"><ele>793.0</ele><time>2026-05-03T15:16:28.758Z</time></trkpt><trkpt lat="44.310255" lon="10.7304217"><ele>790.0</ele><time>2026-05-03T15:16:29.758Z</time></trkpt><trkpt lat="44.3103433" lon="10.73046"><ele>789.9999999999999</ele><time>2026-05-03T15:16:30.759Z</time></trkpt><trkpt lat="44.3104317" lon="10.730515"><ele>790.0</ele><time>2026-05-03T15:16:31.759Z</time></trkpt><trkpt lat="44.3105183" lon="10.7305483"><ele>790.0</ele><time>2026-05-03T15:16:32.758Z</time></trkpt><trkpt lat="44.3105833" lon="10.7305717"><ele>790.0</ele><time>2026-05-03T15:16:33.759Z</time></trkpt><trkpt lat="44.3106767" lon="10.7306017"><ele>789.9999999999999</ele><time>2026-05-03T15:16:35.759Z</time></trkpt><trkpt lat="44.3107483" lon="10.730635"><ele>790.0</ele><time>2026-05-03T15:16:40.758Z</time></trkpt><trkpt lat="44.3108317" lon="10.7305533"><ele>787.6</ele><time>2026-05-03T15:19:32.757Z</time></trkpt><trkpt lat="44.3109967" lon="10.73049"><ele>785.2</ele><time>2026-05-03T15:19:35.758Z</time></trkpt><trkpt lat="44.3110667" lon="10.730495"><ele>782.8</ele><time>2026-05-03T15:19:36.758Z</time></trkpt><trkpt lat="44.3111367" lon="10.7305167"><ele>780.4</ele><time>2026-05-03T15:19:37.758Z</time></trkpt><trkpt lat="44.3112017" lon="10.7305567"><ele>778.0</ele><time>2026-05-03T15:19:38.757Z</time></trkpt><trkpt lat="44.3112667" lon="10.7306167"><ele>777.9999999999999</ele><time>2026-05-03T15:19:39.758Z</time></trkpt><trkpt lat="44.311325" lon="10.7306767"><ele>778.0</ele><time>2026-05-03T15:19:40.757Z</time></trkpt><trkpt lat="44.3113783" lon="10.7307333"><ele>778.0</ele><time>2026-05-03T15:19:41.758Z</time></trkpt><trkpt lat="44.3114267" lon="10.7307917"><ele>778.0</ele><time>2026-05-03T15:19:42.757Z</time></trkpt><trkpt lat="44.3115" lon="10.7308717"><ele>777.9999999999999</ele><time>2026-05-03T15:19:44.758Z</time></trkpt><trkpt lat="44.3115717" lon="10.730865"><ele>778.0</ele><time>2026-05-03T15:20:20.758Z</time></trkpt><trkpt lat="44.3116667" lon="10.730875"><ele>777.6666666666666</ele><time>2026-05-03T15:20:22.758Z</time></trkpt><trkpt lat="44.3117333" lon="10.7308917"><ele>777.3333333333333</ele><time>2026-05-03T15:20:23.758Z</time></trkpt><trkpt lat="44.3118117" lon="10.7309067"><ele>777.0</ele><time>2026-05-03T15:20:24.758Z</time></trkpt><trkpt lat="44.3119" lon="10.730935"><ele>776.6666666666667</ele><time>2026-05-03T15:20:25.758Z</time></trkpt><trkpt lat="44.311995" lon="10.7309583"><ele>776.3333333333334</ele><time>2026-05-03T15:20:26.757Z</time></trkpt><trkpt lat="44.3120883" lon="10.731"><ele>776.0</ele><time>2026-05-03T15:20:27.758Z</time></trkpt><trkpt lat="44.3121767" lon="10.7310567"><ele>776.5999999999999</ele><time>2026-05-03T15:20:28.758Z</time></trkpt><trkpt lat="44.3122583" lon="10.7311433"><ele>777.2</ele><time>2026-05-03T15:20:29.758Z</time></trkpt><trkpt lat="44.3123417" lon="10.731255"><ele>777.8</ele><time>2026-05-03T15:20:30.758Z</time></trkpt><trkpt lat="44.31242" lon="10.731375"><ele>778.4000000000001</ele><time>2026-05-03T15:20:31.758Z</time></trkpt><trkpt lat="44.3124917" lon="10.7314917"><ele>779.0</ele><time>2026-05-03T15:20:32.758Z</time></trkpt><trkpt lat="44.312635" lon="10.731725"><ele>779.0</ele><time>2026-05-03T15:20:34.757Z</time></trkpt><trkpt lat="44.3127133" lon="10.7318517"><ele>779.0</ele><time>2026-05-03T15:20:35.758Z</time></trkpt><trkpt lat="44.3127933" lon="10.7319917"><ele>779.0</ele><time>2026-05-03T15:20:36.758Z</time></trkpt><trkpt lat="44.3128767" lon="10.7321317"><ele>779.0</ele><time>2026-05-03T15:20:37.757Z</time></trkpt><trkpt lat="44.3129683" lon="10.7322583"><ele>779.75</ele><time>2026-05-03T15:20:38.758Z</time></trkpt><trkpt lat="44.3130717" lon="10.7323733"><ele>780.5</ele><time>2026-05-03T15:20:39.757Z</time></trkpt><trkpt lat="44.3131833" lon="10.73247"><ele>781.25</ele><time>2026-05-03T15:20:40.758Z</time></trkpt><trkpt lat="44.3133" lon="10.7325583"><ele>782.0</ele><time>2026-05-03T15:20:41.758Z</time></trkpt><trkpt lat="44.3134083" lon="10.732645"><ele>782.0</ele><time>2026-05-03T15:20:42.758Z</time></trkpt><trkpt lat="44.3135267" lon="10.7326933"><ele>782.0</ele><time>2026-05-03T15:20:43.758Z</time></trkpt><trkpt lat="44.313785" lon="10.7326867"><ele>782.0</ele><time>2026-05-03T15:20:45.758Z</time></trkpt><trkpt lat="44.3140217" lon="10.7326383"><ele>782.75</ele><time>2026-05-03T15:20:47.758Z</time></trkpt><trkpt lat="44.3142233" lon="10.7325933"><ele>783.5</ele><time>2026-05-03T15:20:49.758Z</time></trkpt><trkpt lat="44.3143183" lon="10.732575"><ele>784.25</ele><time>2026-05-03T15:20:50.757Z</time></trkpt><trkpt lat="44.3144133" lon="10.732545"><ele>785.0</ele><time>2026-05-03T15:20:51.758Z</time></trkpt><trkpt lat="44.3145083" lon="10.732495"><ele>785.0</ele><time>2026-05-03T15:20:52.758Z</time></trkpt><trkpt lat="44.31467" lon="10.73235"><ele>785.0</ele><time>2026-05-03T15:20:54.757Z</time></trkpt><trkpt lat="44.314835" lon="10.7321667"><ele>785.0</ele><time>2026-05-03T15:20:56.757Z</time></trkpt><trkpt lat="44.314915" lon="10.7320767"><ele>788.0</ele><time>2026-05-03T15:20:57.758Z</time></trkpt><trkpt lat="44.315" lon="10.7319967"><ele>791.0</ele><time>2026-05-03T15:20:58.758Z</time></trkpt><trkpt lat="44.3150917" lon="10.7319483"><ele>794.0</ele><time>2026-05-03T15:20:59.758Z</time></trkpt><trkpt lat="44.31519" lon="10.731925"><ele>797.0</ele><time>2026-05-03T15:21:00.758Z</time></trkpt><trkpt lat="44.3152983" lon="10.731935"><ele>800.0</ele><time>2026-05-03T15:21:01.758Z</time></trkpt><trkpt lat="44.31542" lon="10.731955"><ele>800.0</ele><time>2026-05-03T15:21:02.758Z</time></trkpt><trkpt lat="44.3155417" lon="10.731995"><ele>800.0</ele><time>2026-05-03T15:21:03.757Z</time></trkpt><trkpt lat="44.31566" lon="10.7320633"><ele>800.0</ele><time>2026-05-03T15:21:04.758Z</time></trkpt><trkpt lat="44.3157783" lon="10.7321383"><ele>800.0</ele><time>2026-05-03T15:21:05.757Z</time></trkpt><trkpt lat="44.3158917" lon="10.73221"><ele>799.0</ele><time>2026-05-03T15:21:06.758Z</time></trkpt><trkpt lat="44.316145" lon="10.732295"><ele>798.0</ele><time>2026-05-03T15:21:08.758Z</time></trkpt><trkpt lat="44.316275" lon="10.73233"><ele>797.0</ele><time>2026-05-03T15:21:09.758Z</time></trkpt><trkpt lat="44.3165483" lon="10.7324"><ele>797.0</ele><time>2026-05-03T15:21:11.758Z</time></trkpt><trkpt lat="44.3166883" lon="10.732425"><ele>797.0</ele><time>2026-05-03T15:21:12.758Z</time></trkpt><trkpt lat="44.3169317" lon="10.7325683"><ele>797.0</ele><time>2026-05-03T15:21:14.757Z</time></trkpt><trkpt lat="44.3172383" lon="10.7328083"><ele>799.0</ele><time>2026-05-03T15:21:17.758Z</time></trkpt><trkpt lat="44.31741" lon="10.7330267"><ele>801.0</ele><time>2026-05-03T15:21:19.758Z</time></trkpt><trkpt lat="44.3174533" lon="10.73314"><ele>803.0</ele><time>2026-05-03T15:21:20.758Z</time></trkpt><trkpt lat="44.31757" lon="10.7332933"><ele>803.0</ele><time>2026-05-03T15:21:22.757Z</time></trkpt><trkpt lat="44.3177067" lon="10.7332783"><ele>803.0</ele><time>2026-05-03T15:21:24.758Z</time></trkpt><trkpt lat="44.3178083" lon="10.7331933"><ele>803.0</ele><time>2026-05-03T15:21:25.757Z</time></trkpt><trkpt lat="44.3180483" lon="10.7330433"><ele>804.6666666666667</ele><time>2026-05-03T15:21:27.758Z</time></trkpt><trkpt lat="44.3182617" lon="10.732895"><ele>806.3333333333333</ele><time>2026-05-03T15:21:29.758Z</time></trkpt><trkpt lat="44.3183433" lon="10.732795"><ele>808.0</ele><time>2026-05-03T15:21:30.758Z</time></trkpt><trkpt lat="44.3184233" lon="10.732665"><ele>803.8</ele><time>2026-05-03T15:21:31.758Z</time></trkpt><trkpt lat="44.3184867" lon="10.73256"><ele>799.5999999999999</ele><time>2026-05-03T15:21:32.758Z</time></trkpt><trkpt lat="44.31855" lon="10.73248"><ele>795.4000000000001</ele><time>2026-05-03T15:21:33.758Z</time></trkpt><trkpt lat="44.31862" lon="10.73242"><ele>791.2</ele><time>2026-05-03T15:21:34.758Z</time></trkpt><trkpt lat="44.318705" lon="10.7324017"><ele>787.0</ele><time>2026-05-03T15:21:35.758Z</time></trkpt><trkpt lat="44.318915" lon="10.7324683"><ele>786.0</ele><time>2026-05-03T15:21:37.757Z</time></trkpt><trkpt lat="44.319035" lon="10.7325367"><ele>785.0</ele><time>2026-05-03T15:21:38.757Z</time></trkpt><trkpt lat="44.3193067" lon="10.7326467"><ele>784.0</ele><time>2026-05-03T15:21:40.758Z</time></trkpt><trkpt lat="44.3196" lon="10.7326883"><ele>787.0</ele><time>2026-05-03T15:21:42.758Z</time></trkpt><trkpt lat="44.3198867" lon="10.73271"><ele>790.0</ele><time>2026-05-03T15:21:44.758Z</time></trkpt><trkpt lat="44.3200183" lon="10.7327183"><ele>793.0</ele><time>2026-05-03T15:21:45.758Z</time></trkpt><trkpt lat="44.3202667" lon="10.7327833"><ele>793.0</ele><time>2026-05-03T15:21:47.758Z</time></trkpt><trkpt lat="44.3204967" lon="10.732915"><ele>793.0</ele><time>2026-05-03T15:21:49.758Z</time></trkpt><trkpt lat="44.320605" lon="10.7329733"><ele>793.0</ele><time>2026-05-03T15:21:50.758Z</time></trkpt><trkpt lat="44.3207117" lon="10.7330283"><ele>790.25</ele><time>2026-05-03T15:21:51.758Z</time></trkpt><trkpt lat="44.3208167" lon="10.7330667"><ele>787.5</ele><time>2026-05-03T15:21:52.757Z</time></trkpt><trkpt lat="44.321015" lon="10.7330467"><ele>784.75</ele><time>2026-05-03T15:21:54.758Z</time></trkpt><trkpt lat="44.3211033" lon="10.73301"><ele>782.0</ele><time>2026-05-03T15:21:55.758Z</time></trkpt><trkpt lat="44.3211933" lon="10.73298"><ele>782.0</ele><time>2026-05-03T15:21:56.758Z</time></trkpt><trkpt lat="44.3212817" lon="10.7329483"><ele>782.0</ele><time>2026-05-03T15:21:57.757Z</time></trkpt><trkpt lat="44.32137" lon="10.7329617"><ele>782.0</ele><time>2026-05-03T15:21:58.758Z</time></trkpt><trkpt lat="44.32146" lon="10.73301"><ele>782.0</ele><time>2026-05-03T15:21:59.758Z</time></trkpt><trkpt lat="44.3215583" lon="10.7330667"><ele>782.0</ele><time>2026-05-03T15:22:00.758Z</time></trkpt><trkpt lat="44.3216617" lon="10.7331167"><ele>777.75</ele><time>2026-05-03T15:22:01.758Z</time></trkpt><trkpt lat="44.3217683" lon="10.733175"><ele>773.5</ele><time>2026-05-03T15:22:02.757Z</time></trkpt><trkpt lat="44.3218817" lon="10.73325"><ele>769.25</ele><time>2026-05-03T15:22:03.758Z</time></trkpt><trkpt lat="44.3219917" lon="10.7333333"><ele>765.0</ele><time>2026-05-03T15:22:04.758Z</time></trkpt><trkpt lat="44.3221017" lon="10.7334267"><ele>765.0</ele><time>2026-05-03T15:22:05.758Z</time></trkpt><trkpt lat="44.322225" lon="10.7335283"><ele>765.0</ele><time>2026-05-03T15:22:06.758Z</time></trkpt><trkpt lat="44.3223467" lon="10.7336317"><ele>765.0</ele><time>2026-05-03T15:22:07.758Z</time></trkpt><trkpt lat="44.322475" lon="10.73373"><ele>765.0</ele><time>2026-05-03T15:22:08.758Z</time></trkpt><trkpt lat="44.3226067" lon="10.73382"><ele>762.5</ele><time>2026-05-03T15:22:09.758Z</time></trkpt><trkpt lat="44.32273" lon="10.7338967"><ele>760.0</ele><time>2026-05-03T15:22:10.758Z</time></trkpt><trkpt lat="44.3228517" lon="10.7339567"><ele>757.5</ele><time>2026-05-03T15:22:11.758Z</time></trkpt><trkpt lat="44.3229617" lon="10.734"><ele>755.0</ele><time>2026-05-03T15:22:12.758Z</time></trkpt><trkpt lat="44.32306" lon="10.7340433"><ele>749.8</ele><time>2026-05-03T15:22:13.757Z</time></trkpt><trkpt lat="44.3231417" lon="10.7340733"><ele>744.6</ele><time>2026-05-03T15:22:14.757Z</time></trkpt><trkpt lat="44.3232083" lon="10.73409"><ele>739.4000000000001</ele><time>2026-05-03T15:22:15.758Z</time></trkpt><trkpt lat="44.3233183" lon="10.7340233"><ele>734.2</ele><time>2026-05-03T15:22:17.758Z</time></trkpt><trkpt lat="44.323355" lon="10.7339217"><ele>729.0</ele><time>2026-05-03T15:22:18.758Z</time></trkpt><trkpt lat="44.32338" lon="10.7337683"><ele>729.0</ele><time>2026-05-03T15:22:19.757Z</time></trkpt><trkpt lat="44.323395" lon="10.73358"><ele>729.0</ele><time>2026-05-03T15:22:20.758Z</time></trkpt><trkpt lat="44.323425" lon="10.7334067"><ele>729.0</ele><time>2026-05-03T15:22:21.758Z</time></trkpt><trkpt lat="44.3234533" lon="10.7332717"><ele>729.0</ele><time>2026-05-03T15:22:22.757Z</time></trkpt><trkpt lat="44.3234967" lon="10.73317"><ele>729.0</ele><time>2026-05-03T15:22:23.758Z</time></trkpt><trkpt lat="44.32356" lon="10.73311"><ele>727.2</ele><time>2026-05-03T15:22:24.758Z</time></trkpt><trkpt lat="44.3236383" lon="10.7330917"><ele>725.4000000000001</ele><time>2026-05-03T15:22:25.758Z</time></trkpt><trkpt lat="44.3237083" lon="10.733125"><ele>723.6</ele><time>2026-05-03T15:22:26.758Z</time></trkpt><trkpt lat="44.3237517" lon="10.7332183"><ele>721.8</ele><time>2026-05-03T15:22:27.758Z</time></trkpt><trkpt lat="44.32375" lon="10.7333767"><ele>720.0</ele><time>2026-05-03T15:22:28.757Z</time></trkpt><trkpt lat="44.3237383" lon="10.73354"><ele>721.8</ele><time>2026-05-03T15:22:29.758Z</time></trkpt><trkpt lat="44.3237267" lon="10.7337117"><ele>723.6</ele><time>2026-05-03T15:22:30.758Z</time></trkpt><trkpt lat="44.3237217" lon="10.7338783"><ele>725.4000000000001</ele><time>2026-05-03T15:22:31.758Z</time></trkpt><trkpt lat="44.32373" lon="10.7340283"><ele>727.2</ele><time>2026-05-03T15:22:32.758Z</time></trkpt><trkpt lat="44.3237567" lon="10.7341617"><ele>729.0</ele><time>2026-05-03T15:22:33.757Z</time></trkpt><trkpt lat="44.3238183" lon="10.7342767"><ele>729.0</ele><time>2026-05-03T15:22:34.757Z</time></trkpt><trkpt lat="44.3238967" lon="10.73437"><ele>729.0</ele><time>2026-05-03T15:22:35.757Z</time></trkpt><trkpt lat="44.3239983" lon="10.734425"><ele>729.0</ele><time>2026-05-03T15:22:36.758Z</time></trkpt><trkpt lat="44.3241183" lon="10.73448"><ele>729.0</ele><time>2026-05-03T15:22:37.758Z</time></trkpt><trkpt lat="44.3242383" lon="10.7345317"><ele>727.25</ele><time>2026-05-03T15:22:38.757Z</time></trkpt><trkpt lat="44.32437" lon="10.73456"><ele>725.5</ele><time>2026-05-03T15:22:39.758Z</time></trkpt><trkpt lat="44.32451" lon="10.73457"><ele>723.75</ele><time>2026-05-03T15:22:40.758Z</time></trkpt><trkpt lat="44.3246483" lon="10.7345733"><ele>722.0</ele><time>2026-05-03T15:22:41.758Z</time></trkpt><trkpt lat="44.3247917" lon="10.7345633"><ele>719.0</ele><time>2026-05-03T15:22:42.758Z</time></trkpt><trkpt lat="44.3249217" lon="10.7345533"><ele>716.0</ele><time>2026-05-03T15:22:43.758Z</time></trkpt><trkpt lat="44.325045" lon="10.7345317"><ele>713.0</ele><time>2026-05-03T15:22:44.758Z</time></trkpt><trkpt lat="44.3251667" lon="10.734535"><ele>710.0</ele><time>2026-05-03T15:22:45.758Z</time></trkpt><trkpt lat="44.3252783" lon="10.73456"><ele>710.0</ele><time>2026-05-03T15:22:46.757Z</time></trkpt><trkpt lat="44.325355" lon="10.7346217"><ele>710.0</ele><time>2026-05-03T15:22:47.758Z</time></trkpt><trkpt lat="44.3254017" lon="10.73472"><ele>710.0</ele><time>2026-05-03T15:22:48.758Z</time></trkpt><trkpt lat="44.3254417" lon="10.7348417"><ele>710.0</ele><time>2026-05-03T15:22:49.758Z</time></trkpt><trkpt lat="44.325485" lon="10.7349783"><ele>710.0</ele><time>2026-05-03T15:22:50.758Z</time></trkpt><trkpt lat="44.3255417" lon="10.7351033"><ele>708.5</ele><time>2026-05-03T15:22:51.757Z</time></trkpt><trkpt lat="44.3256183" lon="10.73519"><ele>707.0</ele><time>2026-05-03T15:22:52.758Z</time></trkpt><trkpt lat="44.32572" lon="10.7352283"><ele>705.5</ele><time>2026-05-03T15:22:53.757Z</time></trkpt><trkpt lat="44.3258433" lon="10.73524"><ele>704.0</ele><time>2026-05-03T15:22:54.758Z</time></trkpt><trkpt lat="44.32598" lon="10.7352767"><ele>707.0</ele><time>2026-05-03T15:22:55.758Z</time></trkpt><trkpt lat="44.3261017" lon="10.7353383"><ele>710.0</ele><time>2026-05-03T15:22:56.758Z</time></trkpt><trkpt lat="44.326225" lon="10.7354083"><ele>713.0</ele><time>2026-05-03T15:22:57.758Z</time></trkpt><trkpt lat="44.3263467" lon="10.7354783"><ele>716.0</ele><time>2026-05-03T15:22:58.758Z</time></trkpt><trkpt lat="44.326465" lon="10.7355533"><ele>716.0</ele><time>2026-05-03T15:22:59.758Z</time></trkpt><trkpt lat="44.3265783" lon="10.7356233"><ele>716.0</ele><time>2026-05-03T15:23:00.758Z</time></trkpt><trkpt lat="44.3266833" lon="10.7357133"><ele>716.0</ele><time>2026-05-03T15:23:01.758Z</time></trkpt><trkpt lat="44.3267967" lon="10.7357933"><ele>716.0</ele><time>2026-05-03T15:23:02.758Z</time></trkpt><trkpt lat="44.3269233" lon="10.73586"><ele>716.0</ele><time>2026-05-03T15:23:03.757Z</time></trkpt><trkpt lat="44.327055" lon="10.735925"><ele>716.0</ele><time>2026-05-03T15:23:04.757Z</time></trkpt><trkpt lat="44.3271833" lon="10.7359867"><ele>716.0</ele><time>2026-05-03T15:23:05.758Z</time></trkpt><trkpt lat="44.3273017" lon="10.7360567"><ele>716.0</ele><time>2026-05-03T15:23:06.758Z</time></trkpt><trkpt lat="44.3274017" lon="10.736145"><ele>717.25</ele><time>2026-05-03T15:23:07.757Z</time></trkpt><trkpt lat="44.327495" lon="10.7362633"><ele>718.5</ele><time>2026-05-03T15:23:08.758Z</time></trkpt><trkpt lat="44.327585" lon="10.7363917"><ele>719.75</ele><time>2026-05-03T15:23:09.758Z</time></trkpt><trkpt lat="44.3276733" lon="10.7365317"><ele>721.0</ele><time>2026-05-03T15:23:10.758Z</time></trkpt><trkpt lat="44.3277717" lon="10.7366617"><ele>721.0</ele><time>2026-05-03T15:23:11.758Z</time></trkpt><trkpt lat="44.3278767" lon="10.7367883"><ele>721.0</ele><time>2026-05-03T15:23:12.758Z</time></trkpt><trkpt lat="44.327985" lon="10.736905"><ele>721.0</ele><time>2026-05-03T15:23:13.758Z</time></trkpt><trkpt lat="44.3281017" lon="10.737"><ele>721.0</ele><time>2026-05-03T15:23:14.758Z</time></trkpt><trkpt lat="44.3282183" lon="10.7370767"><ele>721.0</ele><time>2026-05-03T15:23:15.758Z</time></trkpt><trkpt lat="44.3283367" lon="10.7371517"><ele>721.0</ele><time>2026-05-03T15:23:16.758Z</time></trkpt><trkpt lat="44.328455" lon="10.7372033"><ele>721.0</ele><time>2026-05-03T15:23:17.757Z</time></trkpt><trkpt lat="44.3285633" lon="10.73726"><ele>721.0</ele><time>2026-05-03T15:23:18.757Z</time></trkpt><trkpt lat="44.3286633" lon="10.7373217"><ele>721.0</ele><time>2026-05-03T15:23:19.757Z</time></trkpt><trkpt lat="44.3287283" lon="10.7373817"><ele>721.0</ele><time>2026-05-03T15:23:20.757Z</time></trkpt><trkpt lat="44.328765" lon="10.7374633"><ele>721.0</ele><time>2026-05-03T15:23:21.757Z</time></trkpt><trkpt lat="44.32877" lon="10.7375667"><ele>721.0</ele><time>2026-05-03T15:23:22.757Z</time></trkpt><trkpt lat="44.32875" lon="10.737685"><ele>721.0</ele><time>2026-05-03T15:23:23.757Z</time></trkpt><trkpt lat="44.3287167" lon="10.7378233"><ele>721.0</ele><time>2026-05-03T15:23:24.757Z</time></trkpt><trkpt lat="44.32868" lon="10.737975"><ele>721.25</ele><time>2026-05-03T15:23:25.756Z</time></trkpt><trkpt lat="44.3286467" lon="10.73814"><ele>721.5</ele><time>2026-05-03T15:23:26.757Z</time></trkpt><trkpt lat="44.328615" lon="10.7383067"><ele>721.75</ele><time>2026-05-03T15:23:27.757Z</time></trkpt><trkpt lat="44.3285983" lon="10.7384617"><ele>722.0</ele><time>2026-05-03T15:23:28.756Z</time></trkpt><trkpt lat="44.32859" lon="10.73862"><ele>722.0</ele><time>2026-05-03T15:23:29.757Z</time></trkpt><trkpt lat="44.3285967" lon="10.738775"><ele>722.0</ele><time>2026-05-03T15:23:30.757Z</time></trkpt><trkpt lat="44.328605" lon="10.7389283"><ele>722.0</ele><time>2026-05-03T15:23:31.757Z</time></trkpt><trkpt lat="44.328615" lon="10.7390867"><ele>722.0</ele><time>2026-05-03T15:23:32.757Z</time></trkpt><trkpt lat="44.3286233" lon="10.7392417"><ele>722.0</ele><time>2026-05-03T15:23:33.756Z</time></trkpt><trkpt lat="44.3286333" lon="10.7393717"><ele>722.8</ele><time>2026-05-03T15:23:34.757Z</time></trkpt><trkpt lat="44.3286617" lon="10.739485"><ele>723.6</ele><time>2026-05-03T15:23:35.756Z</time></trkpt><trkpt lat="44.328715" lon="10.7395717"><ele>724.4</ele><time>2026-05-03T15:23:36.757Z</time></trkpt><trkpt lat="44.3288033" lon="10.7396217"><ele>725.1999999999999</ele><time>2026-05-03T15:23:37.757Z</time></trkpt><trkpt lat="44.3289167" lon="10.7396367"><ele>726.0</ele><time>2026-05-03T15:23:38.756Z</time></trkpt><trkpt lat="44.3290433" lon="10.7396333"><ele>721.0</ele><time>2026-05-03T15:23:39.757Z</time></trkpt><trkpt lat="44.32917" lon="10.7396233"><ele>716.0</ele><time>2026-05-03T15:23:40.756Z</time></trkpt><trkpt lat="44.329295" lon="10.739625"><ele>711.0</ele><time>2026-05-03T15:23:41.756Z</time></trkpt><trkpt lat="44.329405" lon="10.73964"><ele>706.0</ele><time>2026-05-03T15:23:42.756Z</time></trkpt><trkpt lat="44.3294983" lon="10.7396783"><ele>706.0</ele><time>2026-05-03T15:23:43.757Z</time></trkpt><trkpt lat="44.3295817" lon="10.7397567"><ele>706.0</ele><time>2026-05-03T15:23:44.757Z</time></trkpt><trkpt lat="44.329645" lon="10.7398717"><ele>706.0</ele><time>2026-05-03T15:23:45.757Z</time></trkpt><trkpt lat="44.3297017" lon="10.7400233"><ele>706.0</ele><time>2026-05-03T15:23:46.757Z</time></trkpt><trkpt lat="44.3297533" lon="10.7401883"><ele>703.5999999999999</ele><time>2026-05-03T15:23:47.757Z</time></trkpt><trkpt lat="44.3298" lon="10.7403517"><ele>701.2</ele><time>2026-05-03T15:23:48.757Z</time></trkpt><trkpt lat="44.329855" lon="10.7404983"><ele>698.8</ele><time>2026-05-03T15:23:49.757Z</time></trkpt><trkpt lat="44.3298983" lon="10.7406333"><ele>696.4000000000001</ele><time>2026-05-03T15:23:50.757Z</time></trkpt><trkpt lat="44.3299517" lon="10.740735"><ele>694.0</ele><time>2026-05-03T15:23:51.757Z</time></trkpt><trkpt lat="44.3300017" lon="10.7408017"><ele>694.0</ele><time>2026-05-03T15:23:52.757Z</time></trkpt><trkpt lat="44.3301067" lon="10.740875"><ele>694.0</ele><time>2026-05-03T15:23:54.756Z</time></trkpt><trkpt lat="44.330175" lon="10.7408967"><ele>694.0</ele><time>2026-05-03T15:23:55.757Z</time></trkpt><trkpt lat="44.3302533" lon="10.7409067"><ele>694.0</ele><time>2026-05-03T15:23:56.757Z</time></trkpt><trkpt lat="44.3303517" lon="10.740915"><ele>694.0</ele><time>2026-05-03T15:23:57.757Z</time></trkpt><trkpt lat="44.3304667" lon="10.7409333"><ele>690.75</ele><time>2026-05-03T15:23:58.757Z</time></trkpt><trkpt lat="44.3305833" lon="10.7409567"><ele>687.5</ele><time>2026-05-03T15:23:59.757Z</time></trkpt><trkpt lat="44.330705" lon="10.7409583"><ele>684.25</ele><time>2026-05-03T15:24:00.757Z</time></trkpt><trkpt lat="44.3308217" lon="10.7409683"><ele>681.0</ele><time>2026-05-03T15:24:01.757Z</time></trkpt><trkpt lat="44.3309317" lon="10.740985"><ele>681.0</ele><time>2026-05-03T15:24:02.757Z</time></trkpt><trkpt lat="44.3310283" lon="10.74101"><ele>681.0</ele><time>2026-05-03T15:24:03.757Z</time></trkpt><trkpt lat="44.3311017" lon="10.7410633"><ele>681.0</ele><time>2026-05-03T15:24:04.757Z</time></trkpt><trkpt lat="44.3311617" lon="10.74115"><ele>681.0</ele><time>2026-05-03T15:24:05.756Z</time></trkpt><trkpt lat="44.3311917" lon="10.74128"><ele>681.0</ele><time>2026-05-03T15:24:06.757Z</time></trkpt><trkpt lat="44.3312133" lon="10.7414583"><ele>682.25</ele><time>2026-05-03T15:24:07.757Z</time></trkpt><trkpt lat="44.33123" lon="10.7416383"><ele>683.5</ele><time>2026-05-03T15:24:08.757Z</time></trkpt><trkpt lat="44.331245" lon="10.7418233"><ele>684.75</ele><time>2026-05-03T15:24:09.757Z</time></trkpt><trkpt lat="44.331265" lon="10.7419917"><ele>686.0</ele><time>2026-05-03T15:24:10.756Z</time></trkpt><trkpt lat="44.3312817" lon="10.742165"><ele>686.25</ele><time>2026-05-03T15:24:11.757Z</time></trkpt><trkpt lat="44.3312967" lon="10.7423333"><ele>686.5</ele><time>2026-05-03T15:24:12.756Z</time></trkpt><trkpt lat="44.3313" lon="10.7425133"><ele>686.75</ele><time>2026-05-03T15:24:13.757Z</time></trkpt><trkpt lat="44.331285" lon="10.7426933"><ele>687.0</ele><time>2026-05-03T15:24:14.757Z</time></trkpt><trkpt lat="44.3312667" lon="10.7428583"><ele>687.4000000000001</ele><time>2026-05-03T15:24:15.757Z</time></trkpt><trkpt lat="44.3312533" lon="10.742995"><ele>687.8000000000001</ele><time>2026-05-03T15:24:16.756Z</time></trkpt><trkpt lat="44.3312483" lon="10.7431067"><ele>688.2</ele><time>2026-05-03T15:24:17.757Z</time></trkpt><trkpt lat="44.3312733" lon="10.7432783"><ele>688.6</ele><time>2026-05-03T15:24:19.757Z</time></trkpt><trkpt lat="44.3313217" lon="10.74334"><ele>689.0</ele><time>2026-05-03T15:24:20.757Z</time></trkpt><trkpt lat="44.3314033" lon="10.7433567"><ele>683.75</ele><time>2026-05-03T15:24:21.757Z</time></trkpt><trkpt lat="44.3315233" lon="10.7432983"><ele>678.5</ele><time>2026-05-03T15:24:22.756Z</time></trkpt><trkpt lat="44.33166" lon="10.743225"><ele>673.25</ele><time>2026-05-03T15:24:23.757Z</time></trkpt><trkpt lat="44.3317783" lon="10.7431483"><ele>668.0</ele><time>2026-05-03T15:24:24.757Z</time></trkpt><trkpt lat="44.33188" lon="10.7430633"><ele>668.0</ele><time>2026-05-03T15:24:25.757Z</time></trkpt><trkpt lat="44.3319667" lon="10.7429883"><ele>668.0</ele><time>2026-05-03T15:24:26.757Z</time></trkpt><trkpt lat="44.3320433" lon="10.7429117"><ele>668.0</ele><time>2026-05-03T15:24:27.756Z</time></trkpt><trkpt lat="44.3321133" lon="10.7428167"><ele>668.0</ele><time>2026-05-03T15:24:28.757Z</time></trkpt><trkpt lat="44.332175" lon="10.7427017"><ele>668.0</ele><time>2026-05-03T15:24:29.757Z</time></trkpt><trkpt lat="44.3322433" lon="10.742565"><ele>662.25</ele><time>2026-05-03T15:24:30.757Z</time></trkpt><trkpt lat="44.33231" lon="10.7424267"><ele>656.5</ele><time>2026-05-03T15:24:31.757Z</time></trkpt><trkpt lat="44.3323817" lon="10.74228"><ele>650.75</ele><time>2026-05-03T15:24:32.757Z</time></trkpt><trkpt lat="44.3324417" lon="10.7421417"><ele>645.0</ele><time>2026-05-03T15:24:33.757Z</time></trkpt><trkpt lat="44.3325" lon="10.74202"><ele>645.0</ele><time>2026-05-03T15:24:34.756Z</time></trkpt><trkpt lat="44.3325383" lon="10.7419183"><ele>645.0</ele><time>2026-05-03T15:24:35.756Z</time></trkpt><trkpt lat="44.3325683" lon="10.7418183"><ele>645.0</ele><time>2026-05-03T15:24:36.757Z</time></trkpt><trkpt lat="44.332585" lon="10.7417233"><ele>645.0</ele><time>2026-05-03T15:24:37.757Z</time></trkpt><trkpt lat="44.3325717" lon="10.741615"><ele>645.0</ele><time>2026-05-03T15:24:38.756Z</time></trkpt><trkpt lat="44.33254" lon="10.741505"><ele>645.0</ele><time>2026-05-03T15:24:39.757Z</time></trkpt><trkpt lat="44.3324867" lon="10.7413883"><ele>642.75</ele><time>2026-05-03T15:24:40.757Z</time></trkpt><trkpt lat="44.332425" lon="10.74125"><ele>640.5</ele><time>2026-05-03T15:24:41.757Z</time></trkpt><trkpt lat="44.33236" lon="10.7411"><ele>638.25</ele><time>2026-05-03T15:24:42.757Z</time></trkpt><trkpt lat="44.3322983" lon="10.7409467"><ele>636.0</ele><time>2026-05-03T15:24:43.757Z</time></trkpt><trkpt lat="44.332255" lon="10.7407917"><ele>638.0</ele><time>2026-05-03T15:24:44.757Z</time></trkpt><trkpt lat="44.332225" lon="10.7406167"><ele>640.0</ele><time>2026-05-03T15:24:45.757Z</time></trkpt><trkpt lat="44.3322033" lon="10.74044"><ele>642.0</ele><time>2026-05-03T15:24:46.757Z</time></trkpt><trkpt lat="44.3321867" lon="10.740275"><ele>644.0</ele><time>2026-05-03T15:24:47.757Z</time></trkpt><trkpt lat="44.33216" lon="10.7401033"><ele>644.0</ele><time>2026-05-03T15:24:48.757Z</time></trkpt><trkpt lat="44.3321133" lon="10.73994"><ele>644.0</ele><time>2026-05-03T15:24:49.757Z</time></trkpt><trkpt lat="44.3320617" lon="10.739775"><ele>644.0</ele><time>2026-05-03T15:24:50.756Z</time></trkpt><trkpt lat="44.3320117" lon="10.7396133"><ele>644.0</ele><time>2026-05-03T15:24:51.757Z</time></trkpt><trkpt lat="44.3319483" lon="10.7394433"><ele>640.75</ele><time>2026-05-03T15:24:52.757Z</time></trkpt><trkpt lat="44.3318917" lon="10.7392767"><ele>637.5</ele><time>2026-05-03T15:24:53.757Z</time></trkpt><trkpt lat="44.3318567" lon="10.7391067"><ele>634.25</ele><time>2026-05-03T15:24:54.757Z</time></trkpt><trkpt lat="44.3318383" lon="10.738945"><ele>631.0</ele><time>2026-05-03T15:24:55.757Z</time></trkpt><trkpt lat="44.331835" lon="10.7388117"><ele>631.0</ele><time>2026-05-03T15:24:56.757Z</time></trkpt><trkpt lat="44.331855" lon="10.7386933"><ele>631.0</ele><time>2026-05-03T15:24:57.757Z</time></trkpt><trkpt lat="44.3319033" lon="10.7385967"><ele>631.0</ele><time>2026-05-03T15:24:58.757Z</time></trkpt><trkpt lat="44.33197" lon="10.7385117"><ele>631.0</ele><time>2026-05-03T15:24:59.757Z</time></trkpt><trkpt lat="44.3320633" lon="10.738435"><ele>631.0</ele><time>2026-05-03T15:25:00.757Z</time></trkpt><trkpt lat="44.332165" lon="10.738355"><ele>627.2</ele><time>2026-05-03T15:25:01.757Z</time></trkpt><trkpt lat="44.332265" lon="10.7382917"><ele>623.4000000000001</ele><time>2026-05-03T15:25:02.757Z</time></trkpt><trkpt lat="44.332365" lon="10.7382683"><ele>619.6</ele><time>2026-05-03T15:25:03.757Z</time></trkpt><trkpt lat="44.33247" lon="10.7382733"><ele>615.8000000000001</ele><time>2026-05-03T15:25:04.757Z</time></trkpt><trkpt lat="44.332575" lon="10.7383383"><ele>612.0</ele><time>2026-05-03T15:25:05.757Z</time></trkpt><trkpt lat="44.3326817" lon="10.7384267"><ele>612.0</ele><time>2026-05-03T15:25:06.757Z</time></trkpt><trkpt lat="44.3327883" lon="10.7385317"><ele>612.0</ele><time>2026-05-03T15:25:07.756Z</time></trkpt><trkpt lat="44.3328967" lon="10.7386267"><ele>612.0</ele><time>2026-05-03T15:25:08.757Z</time></trkpt><trkpt lat="44.3329933" lon="10.738725"><ele>612.0</ele><time>2026-05-03T15:25:09.756Z</time></trkpt><trkpt lat="44.33309" lon="10.7388217"><ele>609.25</ele><time>2026-05-03T15:25:10.757Z</time></trkpt><trkpt lat="44.333185" lon="10.73894"><ele>606.5</ele><time>2026-05-03T15:25:11.756Z</time></trkpt><trkpt lat="44.333275" lon="10.7390667"><ele>603.75</ele><time>2026-05-03T15:25:12.757Z</time></trkpt><trkpt lat="44.3333683" lon="10.7391983"><ele>601.0</ele><time>2026-05-03T15:25:13.757Z</time></trkpt><trkpt lat="44.333465" lon="10.739335"><ele>600.8</ele><time>2026-05-03T15:25:14.757Z</time></trkpt><trkpt lat="44.3335517" lon="10.7394667"><ele>600.6</ele><time>2026-05-03T15:25:15.756Z</time></trkpt><trkpt lat="44.333625" lon="10.7395717"><ele>600.4</ele><time>2026-05-03T15:25:16.757Z</time></trkpt><trkpt lat="44.3337017" lon="10.7396517"><ele>600.2</ele><time>2026-05-03T15:25:17.757Z</time></trkpt><trkpt lat="44.33377" lon="10.739705"><ele>600.0</ele><time>2026-05-03T15:25:18.757Z</time></trkpt><trkpt lat="44.333855" lon="10.7397233"><ele>597.8</ele><time>2026-05-03T15:25:19.756Z</time></trkpt><trkpt lat="44.3339467" lon="10.739705"><ele>595.6</ele><time>2026-05-03T15:25:20.756Z</time></trkpt><trkpt lat="44.3340383" lon="10.73965"><ele>593.4</ele><time>2026-05-03T15:25:21.757Z</time></trkpt><trkpt lat="44.3341" lon="10.7395583"><ele>591.2</ele><time>2026-05-03T15:25:22.757Z</time></trkpt><trkpt lat="44.3341383" lon="10.7394317"><ele>589.0</ele><time>2026-05-03T15:25:23.757Z</time></trkpt><trkpt lat="44.3341483" lon="10.7392733"><ele>589.0</ele><time>2026-05-03T15:25:24.757Z</time></trkpt><trkpt lat="44.3341467" lon="10.7391033"><ele>589.0</ele><time>2026-05-03T15:25:25.757Z</time></trkpt><trkpt lat="44.3341517" lon="10.7389283"><ele>589.0</ele><time>2026-05-03T15:25:26.757Z</time></trkpt><trkpt lat="44.334145" lon="10.738755"><ele>589.0</ele><time>2026-05-03T15:25:27.757Z</time></trkpt><trkpt lat="44.3341467" lon="10.7385783"><ele>588.5</ele><time>2026-05-03T15:25:28.757Z</time></trkpt><trkpt lat="44.33415" lon="10.7383967"><ele>588.0</ele><time>2026-05-03T15:25:29.757Z</time></trkpt><trkpt lat="44.3341517" lon="10.7382117"><ele>587.5</ele><time>2026-05-03T15:25:30.757Z</time></trkpt><trkpt lat="44.334145" lon="10.738025"><ele>587.0</ele><time>2026-05-03T15:25:31.757Z</time></trkpt><trkpt lat="44.33414" lon="10.73787"><ele>587.0</ele><time>2026-05-03T15:25:32.756Z</time></trkpt><trkpt lat="44.3341417" lon="10.737725"><ele>587.0</ele><time>2026-05-03T15:25:33.757Z</time></trkpt><trkpt lat="44.3342067" lon="10.7375333"><ele>587.0</ele><time>2026-05-03T15:25:35.757Z</time></trkpt><trkpt lat="44.3342783" lon="10.7374833"><ele>587.0</ele><time>2026-05-03T15:25:36.757Z</time></trkpt><trkpt lat="44.334365" lon="10.7375067"><ele>587.0</ele><time>2026-05-03T15:25:37.757Z</time></trkpt><trkpt lat="44.3344367" lon="10.737585"><ele>587.0</ele><time>2026-05-03T15:25:38.757Z</time></trkpt><trkpt lat="44.3345067" lon="10.73769"><ele>587.0</ele><time>2026-05-03T15:25:39.757Z</time></trkpt><trkpt lat="44.3345733" lon="10.73782"><ele>587.0</ele><time>2026-05-03T15:25:40.757Z</time></trkpt><trkpt lat="44.3346433" lon="10.7379633"><ele>587.0</ele><time>2026-05-03T15:25:41.756Z</time></trkpt><trkpt lat="44.3347217" lon="10.7381017"><ele>583.25</ele><time>2026-05-03T15:25:42.757Z</time></trkpt><trkpt lat="44.3347933" lon="10.73823"><ele>579.5</ele><time>2026-05-03T15:25:43.757Z</time></trkpt><trkpt lat="44.3348683" lon="10.7383567"><ele>575.75</ele><time>2026-05-03T15:25:44.756Z</time></trkpt><trkpt lat="44.3349467" lon="10.7384967"><ele>572.0</ele><time>2026-05-03T15:25:45.757Z</time></trkpt><trkpt lat="44.3350267" lon="10.7386367"><ele>571.75</ele><time>2026-05-03T15:25:46.757Z</time></trkpt><trkpt lat="44.33509" lon="10.7387783"><ele>571.5</ele><time>2026-05-03T15:25:47.757Z</time></trkpt><trkpt lat="44.3351433" lon="10.7389317"><ele>571.25</ele><time>2026-05-03T15:25:48.757Z</time></trkpt><trkpt lat="44.33519" lon="10.7390917"><ele>571.0</ele><time>2026-05-03T15:25:49.757Z</time></trkpt><trkpt lat="44.3352317" lon="10.7392367"><ele>571.0</ele><time>2026-05-03T15:25:50.756Z</time></trkpt><trkpt lat="44.3352483" lon="10.7393667"><ele>571.0</ele><time>2026-05-03T15:25:51.757Z</time></trkpt><trkpt lat="44.3352517" lon="10.7395033"><ele>571.0</ele><time>2026-05-03T15:25:52.757Z</time></trkpt><trkpt lat="44.3352233" lon="10.739625"><ele>571.0</ele><time>2026-05-03T15:25:53.756Z</time></trkpt><trkpt lat="44.3351783" lon="10.7397433"><ele>571.0</ele><time>2026-05-03T15:25:54.757Z</time></trkpt><trkpt lat="44.3351233" lon="10.7398817"><ele>571.1666666666667</ele><time>2026-05-03T15:25:55.756Z</time></trkpt><trkpt lat="44.3350683" lon="10.7400117"><ele>571.3333333333334</ele><time>2026-05-03T15:25:56.756Z</time></trkpt><trkpt lat="44.3350217" lon="10.7401267"><ele>571.5</ele><time>2026-05-03T15:25:57.757Z</time></trkpt><trkpt lat="44.3349833" lon="10.740235"><ele>571.6666666666666</ele><time>2026-05-03T15:25:58.757Z</time></trkpt><trkpt lat="44.3349717" lon="10.7403417"><ele>571.8333333333333</ele><time>2026-05-03T15:25:59.757Z</time></trkpt><trkpt lat="44.3349933" lon="10.7404333"><ele>572.0</ele><time>2026-05-03T15:26:00.757Z</time></trkpt><trkpt lat="44.3350967" lon="10.7405033"><ele>572.0</ele><time>2026-05-03T15:26:02.757Z</time></trkpt><trkpt lat="44.33518" lon="10.74049"><ele>572.0</ele><time>2026-05-03T15:26:03.757Z</time></trkpt><trkpt lat="44.3352933" lon="10.7404367"><ele>572.0</ele><time>2026-05-03T15:26:04.757Z</time></trkpt><trkpt lat="44.335405" lon="10.7403717"><ele>572.0</ele><time>2026-05-03T15:26:05.757Z</time></trkpt><trkpt lat="44.3355133" lon="10.7403117"><ele>572.0</ele><time>2026-05-03T15:26:06.757Z</time></trkpt><trkpt lat="44.3356167" lon="10.740275"><ele>571.2</ele><time>2026-05-03T15:26:07.757Z</time></trkpt><trkpt lat="44.3357317" lon="10.7402733"><ele>570.4000000000001</ele><time>2026-05-03T15:26:08.757Z</time></trkpt><trkpt lat="44.335835" lon="10.7403117"><ele>569.5999999999999</ele><time>2026-05-03T15:26:09.757Z</time></trkpt><trkpt lat="44.33594" lon="10.7403733"><ele>568.8</ele><time>2026-05-03T15:26:10.757Z</time></trkpt><trkpt lat="44.33603" lon="10.740435"><ele>568.0</ele><time>2026-05-03T15:26:11.757Z</time></trkpt><trkpt lat="44.3360933" lon="10.740495"><ele>568.0</ele><time>2026-05-03T15:26:12.756Z</time></trkpt><trkpt lat="44.336145" lon="10.7405567"><ele>568.0</ele><time>2026-05-03T15:26:13.757Z</time></trkpt><trkpt lat="44.3362233" lon="10.7406517"><ele>568.0</ele><time>2026-05-03T15:26:15.757Z</time></trkpt><trkpt lat="44.3362767" lon="10.7407217"><ele>568.0</ele><time>2026-05-03T15:26:18.757Z</time></trkpt><trkpt lat="44.3363517" lon="10.74079"><ele>568.0</ele><time>2026-05-03T15:26:21.756Z</time></trkpt><trkpt lat="44.33646" lon="10.7408833"><ele>568.6666666666667</ele><time>2026-05-03T15:26:23.757Z</time></trkpt><trkpt lat="44.3365217" lon="10.7409433"><ele>569.3333333333334</ele><time>2026-05-03T15:26:24.757Z</time></trkpt><trkpt lat="44.3366017" lon="10.7409883"><ele>570.0</ele><time>2026-05-03T15:26:25.756Z</time></trkpt><trkpt lat="44.3366833" lon="10.741035"><ele>570.6666666666666</ele><time>2026-05-03T15:26:26.757Z</time></trkpt><trkpt lat="44.336765" lon="10.741075"><ele>571.3333333333333</ele><time>2026-05-03T15:26:27.757Z</time></trkpt><trkpt lat="44.3368617" lon="10.7411017"><ele>572.0</ele><time>2026-05-03T15:26:28.756Z</time></trkpt><trkpt lat="44.336965" lon="10.7411317"><ele>572.0</ele><time>2026-05-03T15:26:29.756Z</time></trkpt><trkpt lat="44.3370533" lon="10.741195"><ele>572.0</ele><time>2026-05-03T15:26:30.757Z</time></trkpt><trkpt lat="44.3371467" lon="10.74129"><ele>572.0</ele><time>2026-05-03T15:26:31.757Z</time></trkpt><trkpt lat="44.3372267" lon="10.74142"><ele>572.0</ele><time>2026-05-03T15:26:32.757Z</time></trkpt><trkpt lat="44.3372983" lon="10.7415567"><ele>573.0</ele><time>2026-05-03T15:26:33.757Z</time></trkpt><trkpt lat="44.337385" lon="10.74169"><ele>574.0</ele><time>2026-05-03T15:26:34.757Z</time></trkpt><trkpt lat="44.337495" lon="10.7418133"><ele>575.0</ele><time>2026-05-03T15:26:35.757Z</time></trkpt><trkpt lat="44.3376017" lon="10.7419367"><ele>576.0</ele><time>2026-05-03T15:26:36.757Z</time></trkpt><trkpt lat="44.3377183" lon="10.742045"><ele>576.0</ele><time>2026-05-03T15:26:37.757Z</time></trkpt><trkpt lat="44.3378317" lon="10.7421533"><ele>576.0</ele><time>2026-05-03T15:26:38.756Z</time></trkpt><trkpt lat="44.3379383" lon="10.7422833"><ele>576.0</ele><time>2026-05-03T15:26:39.756Z</time></trkpt><trkpt lat="44.3380333" lon="10.7424233"><ele>576.0</ele><time>2026-05-03T15:26:40.757Z</time></trkpt><trkpt lat="44.33812" lon="10.7425817"><ele>575.75</ele><time>2026-05-03T15:26:41.757Z</time></trkpt><trkpt lat="44.3382067" lon="10.74275"><ele>575.5</ele><time>2026-05-03T15:26:42.757Z</time></trkpt><trkpt lat="44.3382867" lon="10.7429183"><ele>575.25</ele><time>2026-05-03T15:26:43.757Z</time></trkpt><trkpt lat="44.3383733" lon="10.74308"><ele>575.0</ele><time>2026-05-03T15:26:44.757Z</time></trkpt><trkpt lat="44.33846" lon="10.7432483"><ele>578.0</ele><time>2026-05-03T15:26:45.756Z</time></trkpt><trkpt lat="44.3385983" lon="10.7436133"><ele>581.0</ele><time>2026-05-03T15:26:47.757Z</time></trkpt><trkpt lat="44.3386817" lon="10.74379"><ele>584.0</ele><time>2026-05-03T15:26:48.757Z</time></trkpt><trkpt lat="44.3387717" lon="10.74396"><ele>584.0</ele><time>2026-05-03T15:26:49.757Z</time></trkpt><trkpt lat="44.3388717" lon="10.74411"><ele>584.0</ele><time>2026-05-03T15:26:50.757Z</time></trkpt><trkpt lat="44.338965" lon="10.74427"><ele>584.0</ele><time>2026-05-03T15:26:51.757Z</time></trkpt><trkpt lat="44.3390333" lon="10.7444467"><ele>584.0</ele><time>2026-05-03T15:26:52.757Z</time></trkpt><trkpt lat="44.3390617" lon="10.7446317"><ele>585.75</ele><time>2026-05-03T15:26:53.757Z</time></trkpt><trkpt lat="44.339105" lon="10.7448267"><ele>587.5</ele><time>2026-05-03T15:26:54.757Z</time></trkpt><trkpt lat="44.339165" lon="10.745"><ele>589.25</ele><time>2026-05-03T15:26:55.757Z</time></trkpt><trkpt lat="44.3392483" lon="10.74516"><ele>591.0</ele><time>2026-05-03T15:26:56.757Z</time></trkpt><trkpt lat="44.33936" lon="10.7452833"><ele>591.0</ele><time>2026-05-03T15:26:57.756Z</time></trkpt><trkpt lat="44.3394883" lon="10.7453867"><ele>591.0</ele><time>2026-05-03T15:26:58.757Z</time></trkpt><trkpt lat="44.339635" lon="10.7454783"><ele>591.0</ele><time>2026-05-03T15:26:59.757Z</time></trkpt><trkpt lat="44.33978" lon="10.7455617"><ele>585.6666666666666</ele><time>2026-05-03T15:27:00.756Z</time></trkpt><trkpt lat="44.3399217" lon="10.7456467"><ele>580.3333333333333</ele><time>2026-05-03T15:27:01.756Z</time></trkpt><trkpt lat="44.3400633" lon="10.745735"><ele>575.0</ele><time>2026-05-03T15:27:02.757Z</time></trkpt><trkpt lat="44.3402033" lon="10.74582"><ele>575.0</ele><time>2026-05-03T15:27:03.757Z</time></trkpt><trkpt lat="44.3403383" lon="10.74591"><ele>575.0</ele><time>2026-05-03T15:27:04.757Z</time></trkpt><trkpt lat="44.3404583" lon="10.7460217"><ele>575.0</ele><time>2026-05-03T15:27:05.757Z</time></trkpt><trkpt lat="44.3405567" lon="10.7461617"><ele>575.0</ele><time>2026-05-03T15:27:06.757Z</time></trkpt><trkpt lat="44.340625" lon="10.746335"><ele>574.25</ele><time>2026-05-03T15:27:07.756Z</time></trkpt><trkpt lat="44.3406733" lon="10.74651"><ele>573.5</ele><time>2026-05-03T15:27:08.757Z</time></trkpt><trkpt lat="44.3406933" lon="10.7466983"><ele>572.75</ele><time>2026-05-03T15:27:09.757Z</time></trkpt><trkpt lat="44.3407033" lon="10.7468917"><ele>572.0</ele><time>2026-05-03T15:27:10.756Z</time></trkpt><trkpt lat="44.3407183" lon="10.7470917"><ele>573.0</ele><time>2026-05-03T15:27:11.757Z</time></trkpt><trkpt lat="44.3407217" lon="10.7472817"><ele>574.0</ele><time>2026-05-03T15:27:12.756Z</time></trkpt><trkpt lat="44.340715" lon="10.747465"><ele>575.0</ele><time>2026-05-03T15:27:13.757Z</time></trkpt><trkpt lat="44.3406633" lon="10.7476333"><ele>576.0</ele><time>2026-05-03T15:27:14.756Z</time></trkpt><trkpt lat="44.3405933" lon="10.7477917"><ele>580.75</ele><time>2026-05-03T15:27:15.757Z</time></trkpt><trkpt lat="44.3405267" lon="10.74794"><ele>585.5</ele><time>2026-05-03T15:27:16.757Z</time></trkpt><trkpt lat="44.3404667" lon="10.748085"><ele>590.25</ele><time>2026-05-03T15:27:17.756Z</time></trkpt><trkpt lat="44.3404217" lon="10.748235"><ele>595.0</ele><time>2026-05-03T15:27:18.757Z</time></trkpt><trkpt lat="44.3404083" lon="10.74838"><ele>595.0</ele><time>2026-05-03T15:27:19.756Z</time></trkpt><trkpt lat="44.3404333" lon="10.7485283"><ele>595.0</ele><time>2026-05-03T15:27:20.757Z</time></trkpt><trkpt lat="44.3405067" lon="10.7486667"><ele>595.0</ele><time>2026-05-03T15:27:21.757Z</time></trkpt><trkpt lat="44.340605" lon="10.7487933"><ele>595.0</ele><time>2026-05-03T15:27:22.757Z</time></trkpt><trkpt lat="44.3407217" lon="10.7489033"><ele>591.5</ele><time>2026-05-03T15:27:23.756Z</time></trkpt><trkpt lat="44.3408417" lon="10.74901"><ele>588.0</ele><time>2026-05-03T15:27:24.756Z</time></trkpt><trkpt lat="44.34097" lon="10.7491133"><ele>584.5</ele><time>2026-05-03T15:27:25.757Z</time></trkpt><trkpt lat="44.3410967" lon="10.7492083"><ele>581.0</ele><time>2026-05-03T15:27:26.757Z</time></trkpt><trkpt lat="44.3412267" lon="10.749275"><ele>581.0</ele><time>2026-05-03T15:27:27.756Z</time></trkpt><trkpt lat="44.3413717" lon="10.7493133"><ele>581.0</ele><time>2026-05-03T15:27:28.756Z</time></trkpt><trkpt lat="44.3415217" lon="10.74934"><ele>581.0</ele><time>2026-05-03T15:27:29.756Z</time></trkpt><trkpt lat="44.34166" lon="10.749365"><ele>581.0</ele><time>2026-05-03T15:27:30.756Z</time></trkpt><trkpt lat="44.3418033" lon="10.7493867"><ele>583.0</ele><time>2026-05-03T15:27:31.757Z</time></trkpt><trkpt lat="44.3419583" lon="10.7494067"><ele>585.0</ele><time>2026-05-03T15:27:32.756Z</time></trkpt><trkpt lat="44.3421083" lon="10.74943"><ele>587.0</ele><time>2026-05-03T15:27:33.757Z</time></trkpt><trkpt lat="44.3422417" lon="10.7494633"><ele>589.0</ele><time>2026-05-03T15:27:34.757Z</time></trkpt><trkpt lat="44.3423783" lon="10.7495017"><ele>589.0</ele><time>2026-05-03T15:27:35.757Z</time></trkpt><trkpt lat="44.3425067" lon="10.7495567"><ele>589.0</ele><time>2026-05-03T15:27:36.757Z</time></trkpt><trkpt lat="44.3426283" lon="10.7496533"><ele>589.0</ele><time>2026-05-03T15:27:37.757Z</time></trkpt><trkpt lat="44.3427533" lon="10.74976"><ele>589.0</ele><time>2026-05-03T15:27:38.757Z</time></trkpt><trkpt lat="44.342865" lon="10.749865"><ele>589.0</ele><time>2026-05-03T15:27:39.757Z</time></trkpt><trkpt lat="44.3429783" lon="10.7499617"><ele>589.0</ele><time>2026-05-03T15:27:40.757Z</time></trkpt><trkpt lat="44.3430867" lon="10.750035"><ele>589.0</ele><time>2026-05-03T15:27:41.757Z</time></trkpt><trkpt lat="44.3431883" lon="10.7501183"><ele>589.0</ele><time>2026-05-03T15:27:42.757Z</time></trkpt><trkpt lat="44.343275" lon="10.75019"><ele>589.4</ele><time>2026-05-03T15:27:43.756Z</time></trkpt><trkpt lat="44.34335" lon="10.7502667"><ele>589.8</ele><time>2026-05-03T15:27:44.757Z</time></trkpt><trkpt lat="44.3434133" lon="10.7503483"><ele>590.2</ele><time>2026-05-03T15:27:45.757Z</time></trkpt><trkpt lat="44.3434717" lon="10.750445"><ele>590.6</ele><time>2026-05-03T15:27:46.757Z</time></trkpt><trkpt lat="44.3435417" lon="10.7505433"><ele>591.0</ele><time>2026-05-03T15:27:47.757Z</time></trkpt><trkpt lat="44.343605" lon="10.75063"><ele>591.0</ele><time>2026-05-03T15:27:48.756Z</time></trkpt><trkpt lat="44.3436583" lon="10.750715"><ele>591.0</ele><time>2026-05-03T15:27:49.757Z</time></trkpt><trkpt lat="44.3437067" lon="10.7507867"><ele>591.0</ele><time>2026-05-03T15:27:50.757Z</time></trkpt><trkpt lat="44.3437933" lon="10.7508933"><ele>591.0</ele><time>2026-05-03T15:27:52.757Z</time></trkpt><trkpt lat="44.343785" lon="10.7509867"><ele>591.0</ele><time>2026-05-03T15:27:55.757Z</time></trkpt><trkpt lat="44.3437383" lon="10.7509083"><ele>591.0</ele><time>2026-05-03T15:27:57.756Z</time></trkpt><trkpt lat="44.343645" lon="10.7508117"><ele>591.0</ele><time>2026-05-03T15:27:59.757Z</time></trkpt><trkpt lat="44.3435817" lon="10.7507883"><ele>591.0</ele><time>2026-05-03T15:28:00.757Z</time></trkpt><trkpt lat="44.343515" lon="10.750795"><ele>591.0</ele><time>2026-05-03T15:28:01.757Z</time></trkpt><trkpt lat="44.3434383" lon="10.7508167"><ele>591.0</ele><time>2026-05-03T15:28:02.757Z</time></trkpt><trkpt lat="44.3433617" lon="10.75085"><ele>591.0</ele><time>2026-05-03T15:28:03.757Z</time></trkpt><trkpt lat="44.34328" lon="10.7508783"><ele>591.0</ele><time>2026-05-03T15:28:04.757Z</time></trkpt><trkpt lat="44.3431983" lon="10.750885"><ele>591.0</ele><time>2026-05-03T15:28:05.756Z</time></trkpt><trkpt lat="44.3431167" lon="10.7508733"><ele>591.0</ele><time>2026-05-03T15:28:06.757Z</time></trkpt><trkpt lat="44.34303" lon="10.7508483"><ele>591.0</ele><time>2026-05-03T15:28:07.757Z</time></trkpt><trkpt lat="44.3429367" lon="10.7508183"><ele>591.0</ele><time>2026-05-03T15:28:08.756Z</time></trkpt><trkpt lat="44.342845" lon="10.7507933"><ele>591.0</ele><time>2026-05-03T15:28:09.756Z</time></trkpt><trkpt lat="44.3427533" lon="10.750785"><ele>593.6</ele><time>2026-05-03T15:28:10.757Z</time></trkpt><trkpt lat="44.34266" lon="10.750805"><ele>596.2</ele><time>2026-05-03T15:28:11.757Z</time></trkpt><trkpt lat="44.3425683" lon="10.7508383"><ele>598.8</ele><time>2026-05-03T15:28:12.756Z</time></trkpt><trkpt lat="44.3424767" lon="10.750885"><ele>601.4</ele><time>2026-05-03T15:28:13.756Z</time></trkpt><trkpt lat="44.3423917" lon="10.7509183"><ele>604.0</ele><time>2026-05-03T15:28:14.757Z</time></trkpt><trkpt lat="44.3423133" lon="10.7509433"><ele>604.0</ele><time>2026-05-03T15:28:15.757Z</time></trkpt><trkpt lat="44.3422167" lon="10.75097"><ele>604.0</ele><time>2026-05-03T15:28:16.757Z</time></trkpt><trkpt lat="44.3421317" lon="10.7509983"><ele>604.0</ele><time>2026-05-03T15:28:17.756Z</time></trkpt><trkpt lat="44.3420533" lon="10.75104"><ele>604.0</ele><time>2026-05-03T15:28:18.757Z</time></trkpt><trkpt lat="44.3419917" lon="10.7511017"><ele>604.0</ele><time>2026-05-03T15:28:19.757Z</time></trkpt><trkpt lat="44.341945" lon="10.7511883"><ele>604.0</ele><time>2026-05-03T15:28:20.756Z</time></trkpt><trkpt lat="44.3419" lon="10.7512883"><ele>606.5</ele><time>2026-05-03T15:28:21.756Z</time></trkpt><trkpt lat="44.3418467" lon="10.75138"><ele>609.0</ele><time>2026-05-03T15:28:22.756Z</time></trkpt><trkpt lat="44.34178" lon="10.751445"><ele>611.5</ele><time>2026-05-03T15:28:23.756Z</time></trkpt><trkpt lat="44.3417017" lon="10.7515067"><ele>614.0</ele><time>2026-05-03T15:28:24.757Z</time></trkpt><trkpt lat="44.3416183" lon="10.7515567"><ele>616.5</ele><time>2026-05-03T15:28:25.757Z</time></trkpt><trkpt lat="44.3415617" lon="10.7516233"><ele>619.0</ele><time>2026-05-03T15:28:26.757Z</time></trkpt><trkpt lat="44.3415183" lon="10.7517117"><ele>619.0</ele><time>2026-05-03T15:28:27.757Z</time></trkpt><trkpt lat="44.3415017" lon="10.7518183"><ele>619.0</ele><time>2026-05-03T15:28:28.757Z</time></trkpt><trkpt lat="44.3415" lon="10.7519317"><ele>619.0</ele><time>2026-05-03T15:28:29.757Z</time></trkpt><trkpt lat="44.3415033" lon="10.7520567"><ele>619.0</ele><time>2026-05-03T15:28:30.757Z</time></trkpt><trkpt lat="44.3415033" lon="10.75218"><ele>619.0</ele><time>2026-05-03T15:28:31.756Z</time></trkpt><trkpt lat="44.3415" lon="10.7522967"><ele>619.0</ele><time>2026-05-03T15:28:32.755Z</time></trkpt><trkpt lat="44.341505" lon="10.7523917"><ele>619.7142857142857</ele><time>2026-05-03T15:28:33.756Z</time></trkpt><trkpt lat="44.3414983" lon="10.7524833"><ele>620.4285714285714</ele><time>2026-05-03T15:28:34.755Z</time></trkpt><trkpt lat="44.3414767" lon="10.7525717"><ele>621.1428571428571</ele><time>2026-05-03T15:28:35.755Z</time></trkpt><trkpt lat="44.3414367" lon="10.7526433"><ele>621.8571428571429</ele><time>2026-05-03T15:28:36.756Z</time></trkpt><trkpt lat="44.3413917" lon="10.752705"><ele>622.5714285714286</ele><time>2026-05-03T15:28:37.756Z</time></trkpt><trkpt lat="44.3413367" lon="10.75276"><ele>623.2857142857143</ele><time>2026-05-03T15:28:38.755Z</time></trkpt><trkpt lat="44.34128" lon="10.7528033"><ele>624.0</ele><time>2026-05-03T15:28:39.755Z</time></trkpt><trkpt lat="44.3412183" lon="10.7528333"><ele>628.1666666666666</ele><time>2026-05-03T15:28:40.756Z</time></trkpt><trkpt lat="44.3411133" lon="10.7527633"><ele>632.3333333333334</ele><time>2026-05-03T15:28:42.756Z</time></trkpt><trkpt lat="44.3410717" lon="10.752685"><ele>636.5</ele><time>2026-05-03T15:28:43.756Z</time></trkpt><trkpt lat="44.341045" lon="10.7526033"><ele>640.6666666666667</ele><time>2026-05-03T15:28:44.756Z</time></trkpt><trkpt lat="44.3409983" lon="10.75249"><ele>644.8333333333334</ele><time>2026-05-03T15:28:46.756Z</time></trkpt><trkpt lat="44.340945" lon="10.7525733"><ele>649.0</ele><time>2026-05-03T15:28:50.755Z</time></trkpt><trkpt lat="44.340985" lon="10.7527167"><ele>649.5</ele><time>2026-05-03T15:34:49.755Z</time></trkpt><trkpt lat="44.34099" lon="10.7528083"><ele>650.0</ele><time>2026-05-03T15:34:50.755Z</time></trkpt><trkpt lat="44.3409933" lon="10.7529083"><ele>650.5</ele><time>2026-05-03T15:34:51.755Z</time></trkpt><trkpt lat="44.341" lon="10.7530167"><ele>651.0</ele><time>2026-05-03T15:34:52.755Z</time></trkpt><trkpt lat="44.3410217" lon="10.7531283"><ele>651.5</ele><time>2026-05-03T15:34:53.755Z</time></trkpt><trkpt lat="44.3410483" lon="10.753245"><ele>652.0</ele><time>2026-05-03T15:34:54.755Z</time></trkpt><trkpt lat="44.3410767" lon="10.7533667"><ele>652.0</ele><time>2026-05-03T15:34:55.754Z</time></trkpt><trkpt lat="44.3411" lon="10.7534967"><ele>652.0</ele><time>2026-05-03T15:34:56.755Z</time></trkpt><trkpt lat="44.3411283" lon="10.7536467"><ele>652.0</ele><time>2026-05-03T15:34:57.755Z</time></trkpt><trkpt lat="44.3411617" lon="10.7537983"><ele>652.0</ele><time>2026-05-03T15:34:58.755Z</time></trkpt><trkpt lat="44.3412033" lon="10.7539517"><ele>652.0</ele><time>2026-05-03T15:34:59.754Z</time></trkpt><trkpt lat="44.3412533" lon="10.7541017"><ele>651.25</ele><time>2026-05-03T15:35:00.755Z</time></trkpt><trkpt lat="44.341295" lon="10.7542617"><ele>650.5</ele><time>2026-05-03T15:35:01.755Z</time></trkpt><trkpt lat="44.3413283" lon="10.7544217"><ele>649.75</ele><time>2026-05-03T15:35:02.754Z</time></trkpt><trkpt lat="44.34137" lon="10.7545767"><ele>649.0</ele><time>2026-05-03T15:35:03.755Z</time></trkpt><trkpt lat="44.341415" lon="10.754735"><ele>649.0</ele><time>2026-05-03T15:35:04.755Z</time></trkpt><trkpt lat="44.3414583" lon="10.75489"><ele>649.0</ele><time>2026-05-03T15:35:05.755Z</time></trkpt><trkpt lat="44.3414817" lon="10.7550483"><ele>649.0</ele><time>2026-05-03T15:35:06.755Z</time></trkpt><trkpt lat="44.3415033" lon="10.7552117"><ele>649.0</ele><time>2026-05-03T15:35:07.755Z</time></trkpt><trkpt lat="44.341525" lon="10.7553633"><ele>652.4000000000001</ele><time>2026-05-03T15:35:08.755Z</time></trkpt><trkpt lat="44.3415467" lon="10.7555117"><ele>655.8</ele><time>2026-05-03T15:35:09.755Z</time></trkpt><trkpt lat="44.3415683" lon="10.7556483"><ele>659.2</ele><time>2026-05-03T15:35:10.755Z</time></trkpt><trkpt lat="44.3415833" lon="10.7557917"><ele>662.5999999999999</ele><time>2026-05-03T15:35:11.755Z</time></trkpt><trkpt lat="44.34159" lon="10.7559133"><ele>666.0</ele><time>2026-05-03T15:35:12.754Z</time></trkpt><trkpt lat="44.3415817" lon="10.7560417"><ele>668.1999999999999</ele><time>2026-05-03T15:35:13.755Z</time></trkpt><trkpt lat="44.3415633" lon="10.7561783"><ele>670.4</ele><time>2026-05-03T15:35:14.755Z</time></trkpt><trkpt lat="44.3415433" lon="10.756315"><ele>672.6</ele><time>2026-05-03T15:35:15.755Z</time></trkpt><trkpt lat="44.3415417" lon="10.7564433"><ele>674.8</ele><time>2026-05-03T15:35:16.755Z</time></trkpt><trkpt lat="44.341565" lon="10.756565"><ele>677.0</ele><time>2026-05-03T15:35:17.755Z</time></trkpt><trkpt lat="44.341605" lon="10.75667"><ele>677.0</ele><time>2026-05-03T15:35:18.755Z</time></trkpt><trkpt lat="44.341655" lon="10.7567667"><ele>677.0</ele><time>2026-05-03T15:35:19.754Z</time></trkpt><trkpt lat="44.341705" lon="10.7568633"><ele>677.0</ele><time>2026-05-03T15:35:20.754Z</time></trkpt><trkpt lat="44.3417617" lon="10.7569583"><ele>677.0</ele><time>2026-05-03T15:35:21.754Z</time></trkpt><trkpt lat="44.3418183" lon="10.7570517"><ele>677.0</ele><time>2026-05-03T15:35:22.755Z</time></trkpt><trkpt lat="44.3418717" lon="10.7571417"><ele>677.0</ele><time>2026-05-03T15:35:23.755Z</time></trkpt><trkpt lat="44.34193" lon="10.7572283"><ele>679.5</ele><time>2026-05-03T15:35:24.755Z</time></trkpt><trkpt lat="44.34198" lon="10.7573183"><ele>682.0</ele><time>2026-05-03T15:35:25.754Z</time></trkpt><trkpt lat="44.34202" lon="10.75742"><ele>684.5</ele><time>2026-05-03T15:35:26.754Z</time></trkpt><trkpt lat="44.3420567" lon="10.7575233"><ele>687.0</ele><time>2026-05-03T15:35:27.754Z</time></trkpt><trkpt lat="44.34208" lon="10.7576267"><ele>689.5</ele><time>2026-05-03T15:35:28.755Z</time></trkpt><trkpt lat="44.3421133" lon="10.7577383"><ele>692.0</ele><time>2026-05-03T15:35:29.755Z</time></trkpt><trkpt lat="44.3421483" lon="10.7578483"><ele>691.6666666666666</ele><time>2026-05-03T15:35:30.754Z</time></trkpt><trkpt lat="44.3421933" lon="10.757955"><ele>691.3333333333333</ele><time>2026-05-03T15:35:31.755Z</time></trkpt><trkpt lat="44.342235" lon="10.7580533"><ele>691.0</ele><time>2026-05-03T15:35:32.755Z</time></trkpt><trkpt lat="44.3422617" lon="10.7581517"><ele>690.6666666666666</ele><time>2026-05-03T15:35:33.755Z</time></trkpt><trkpt lat="44.3422533" lon="10.75824"><ele>690.3333333333334</ele><time>2026-05-03T15:35:34.755Z</time></trkpt><trkpt lat="44.3422467" lon="10.7583533"><ele>690.0</ele><time>2026-05-03T15:35:35.754Z</time></trkpt><trkpt lat="44.3422283" lon="10.758455"><ele>692.4</ele><time>2026-05-03T15:35:36.755Z</time></trkpt><trkpt lat="44.3422017" lon="10.7585517"><ele>694.8</ele><time>2026-05-03T15:35:37.755Z</time></trkpt><trkpt lat="44.3421717" lon="10.758655"><ele>697.2</ele><time>2026-05-03T15:35:38.755Z</time></trkpt><trkpt lat="44.3421367" lon="10.7587667"><ele>699.6</ele><time>2026-05-03T15:35:39.754Z</time></trkpt><trkpt lat="44.3420883" lon="10.7588883"><ele>702.0</ele><time>2026-05-03T15:35:40.754Z</time></trkpt><trkpt lat="44.3420183" lon="10.759015"><ele>702.0</ele><time>2026-05-03T15:35:41.755Z</time></trkpt><trkpt lat="44.3419267" lon="10.7591417"><ele>702.0</ele><time>2026-05-03T15:35:42.755Z</time></trkpt><trkpt lat="44.3418517" lon="10.7592583"><ele>702.0</ele><time>2026-05-03T15:35:43.755Z</time></trkpt><trkpt lat="44.3417983" lon="10.759395"><ele>702.0</ele><time>2026-05-03T15:35:44.755Z</time></trkpt><trkpt lat="44.34174" lon="10.759535"><ele>698.25</ele><time>2026-05-03T15:35:45.755Z</time></trkpt><trkpt lat="44.3416917" lon="10.7596867"><ele>694.5</ele><time>2026-05-03T15:35:46.755Z</time></trkpt><trkpt lat="44.3416383" lon="10.7598533"><ele>690.75</ele><time>2026-05-03T15:35:47.755Z</time></trkpt><trkpt lat="44.3416017" lon="10.7600167"><ele>687.0</ele><time>2026-05-03T15:35:48.755Z</time></trkpt><trkpt lat="44.3415767" lon="10.7601867"><ele>685.25</ele><time>2026-05-03T15:35:49.755Z</time></trkpt><trkpt lat="44.34157" lon="10.760355"><ele>683.5</ele><time>2026-05-03T15:35:50.755Z</time></trkpt><trkpt lat="44.3415617" lon="10.7605217"><ele>681.75</ele><time>2026-05-03T15:35:51.755Z</time></trkpt><trkpt lat="44.341555" lon="10.7606867"><ele>680.0</ele><time>2026-05-03T15:35:52.755Z</time></trkpt><trkpt lat="44.3415317" lon="10.7608433"><ele>680.0</ele><time>2026-05-03T15:35:53.755Z</time></trkpt><trkpt lat="44.341485" lon="10.7609933"><ele>680.0</ele><time>2026-05-03T15:35:54.754Z</time></trkpt><trkpt lat="44.3414233" lon="10.7611383"><ele>680.0</ele><time>2026-05-03T15:35:55.755Z</time></trkpt><trkpt lat="44.3413467" lon="10.7612883"><ele>680.0</ele><time>2026-05-03T15:35:56.755Z</time></trkpt><trkpt lat="44.3412733" lon="10.7614517"><ele>684.5</ele><time>2026-05-03T15:35:57.755Z</time></trkpt><trkpt lat="44.34121" lon="10.761625"><ele>689.0</ele><time>2026-05-03T15:35:58.754Z</time></trkpt><trkpt lat="44.3411483" lon="10.7617633"><ele>693.5</ele><time>2026-05-03T15:35:59.755Z</time></trkpt><trkpt lat="44.3410933" lon="10.7618933"><ele>698.0</ele><time>2026-05-03T15:36:00.755Z</time></trkpt><trkpt lat="44.3410583" lon="10.762015"><ele>698.0</ele><time>2026-05-03T15:36:01.755Z</time></trkpt><trkpt lat="44.34104" lon="10.7621433"><ele>698.0</ele><time>2026-05-03T15:36:02.754Z</time></trkpt><trkpt lat="44.3410433" lon="10.7622833"><ele>698.0</ele><time>2026-05-03T15:36:03.755Z</time></trkpt><trkpt lat="44.3410633" lon="10.762455"><ele>698.0</ele><time>2026-05-03T15:36:04.755Z</time></trkpt><trkpt lat="44.341085" lon="10.7626317"><ele>698.0</ele><time>2026-05-03T15:36:05.755Z</time></trkpt><trkpt lat="44.3411033" lon="10.762805"><ele>695.75</ele><time>2026-05-03T15:36:06.755Z</time></trkpt><trkpt lat="44.3411583" lon="10.7629733"><ele>693.5</ele><time>2026-05-03T15:36:07.755Z</time></trkpt><trkpt lat="44.341225" lon="10.7631183"><ele>691.25</ele><time>2026-05-03T15:36:08.754Z</time></trkpt><trkpt lat="44.341295" lon="10.76325"><ele>689.0</ele><time>2026-05-03T15:36:09.755Z</time></trkpt><trkpt lat="44.3413683" lon="10.7633517"><ele>689.6</ele><time>2026-05-03T15:36:10.755Z</time></trkpt><trkpt lat="44.3414583" lon="10.76343"><ele>690.2</ele><time>2026-05-03T15:36:11.755Z</time></trkpt><trkpt lat="44.3415467" lon="10.7634983"><ele>690.8000000000001</ele><time>2026-05-03T15:36:12.755Z</time></trkpt><trkpt lat="44.3416483" lon="10.7635467"><ele>691.4000000000001</ele><time>2026-05-03T15:36:13.755Z</time></trkpt><trkpt lat="44.341735" lon="10.7635917"><ele>692.0</ele><time>2026-05-03T15:36:14.754Z</time></trkpt><trkpt lat="44.3418167" lon="10.7636333"><ele>692.0</ele><time>2026-05-03T15:36:15.754Z</time></trkpt><trkpt lat="44.3419" lon="10.763675"><ele>692.0</ele><time>2026-05-03T15:36:16.755Z</time></trkpt><trkpt lat="44.3419817" lon="10.7637183"><ele>692.0</ele><time>2026-05-03T15:36:17.755Z</time></trkpt><trkpt lat="44.3420567" lon="10.7637733"><ele>692.0</ele><time>2026-05-03T15:36:18.754Z</time></trkpt><trkpt lat="44.3421217" lon="10.7638467"><ele>692.0</ele><time>2026-05-03T15:36:19.755Z</time></trkpt><trkpt lat="44.3421767" lon="10.7639467"><ele>692.0</ele><time>2026-05-03T15:36:20.754Z</time></trkpt><trkpt lat="44.3422267" lon="10.7640533"><ele>689.6</ele><time>2026-05-03T15:36:21.755Z</time></trkpt><trkpt lat="44.34229" lon="10.76415"><ele>687.2</ele><time>2026-05-03T15:36:22.755Z</time></trkpt><trkpt lat="44.3423783" lon="10.7642283"><ele>684.8</ele><time>2026-05-03T15:36:23.755Z</time></trkpt><trkpt lat="44.34248" lon="10.7642883"><ele>682.4</ele><time>2026-05-03T15:36:24.755Z</time></trkpt><trkpt lat="44.3425917" lon="10.7643583"><ele>680.0</ele><time>2026-05-03T15:36:25.755Z</time></trkpt><trkpt lat="44.3427133" lon="10.7644183"><ele>682.25</ele><time>2026-05-03T15:36:26.755Z</time></trkpt><trkpt lat="44.34283" lon="10.7644767"><ele>684.5</ele><time>2026-05-03T15:36:27.755Z</time></trkpt><trkpt lat="44.3429383" lon="10.7645367"><ele>686.75</ele><time>2026-05-03T15:36:28.755Z</time></trkpt><trkpt lat="44.34304" lon="10.764605"><ele>689.0</ele><time>2026-05-03T15:36:29.755Z</time></trkpt><trkpt lat="44.3431267" lon="10.7647"><ele>689.0</ele><time>2026-05-03T15:36:30.754Z</time></trkpt><trkpt lat="44.3431967" lon="10.7648033"><ele>689.0</ele><time>2026-05-03T15:36:31.755Z</time></trkpt><trkpt lat="44.34325" lon="10.764925"><ele>689.0</ele><time>2026-05-03T15:36:32.755Z</time></trkpt><trkpt lat="44.34331" lon="10.7650467"><ele>689.0</ele><time>2026-05-03T15:36:33.755Z</time></trkpt><trkpt lat="44.3433517" lon="10.7651867"><ele>689.0</ele><time>2026-05-03T15:36:34.754Z</time></trkpt><trkpt lat="44.343395" lon="10.7653167"><ele>692.6</ele><time>2026-05-03T15:36:35.755Z</time></trkpt><trkpt lat="44.3434517" lon="10.7654283"><ele>696.2</ele><time>2026-05-03T15:36:36.755Z</time></trkpt><trkpt lat="44.3435067" lon="10.765525"><ele>699.8000000000001</ele><time>2026-05-03T15:36:37.754Z</time></trkpt><trkpt lat="44.34357" lon="10.76563"><ele>703.4000000000001</ele><time>2026-05-03T15:36:38.755Z</time></trkpt><trkpt lat="44.3436283" lon="10.7657633"><ele>707.0</ele><time>2026-05-03T15:36:39.755Z</time></trkpt><trkpt lat="44.34369" lon="10.765895"><ele>707.0</ele><time>2026-05-03T15:36:40.755Z</time></trkpt><trkpt lat="44.3437667" lon="10.7659883"><ele>707.0</ele><time>2026-05-03T15:36:41.755Z</time></trkpt><trkpt lat="44.3438317" lon="10.766055"><ele>707.0</ele><time>2026-05-03T15:36:42.754Z</time></trkpt><trkpt lat="44.3438983" lon="10.7660933"><ele>707.0</ele><time>2026-05-03T15:36:43.755Z</time></trkpt><trkpt lat="44.3439867" lon="10.76612"><ele>707.0</ele><time>2026-05-03T15:36:44.755Z</time></trkpt><trkpt lat="44.344085" lon="10.766145"><ele>707.0</ele><time>2026-05-03T15:36:45.755Z</time></trkpt><trkpt lat="44.3441833" lon="10.766175"><ele>708.8</ele><time>2026-05-03T15:36:46.755Z</time></trkpt><trkpt lat="44.34428" lon="10.7661933"><ele>710.6</ele><time>2026-05-03T15:36:47.754Z</time></trkpt><trkpt lat="44.3443733" lon="10.7662083"><ele>712.4</ele><time>2026-05-03T15:36:48.755Z</time></trkpt><trkpt lat="44.3444733" lon="10.7662217"><ele>714.1999999999999</ele><time>2026-05-03T15:36:49.755Z</time></trkpt><trkpt lat="44.34457" lon="10.7662483"><ele>716.0</ele><time>2026-05-03T15:36:50.755Z</time></trkpt><trkpt lat="44.3446617" lon="10.7662783"><ele>717.0</ele><time>2026-05-03T15:36:51.755Z</time></trkpt><trkpt lat="44.34475" lon="10.7663217"><ele>718.0</ele><time>2026-05-03T15:36:52.755Z</time></trkpt><trkpt lat="44.3448467" lon="10.76638"><ele>719.0</ele><time>2026-05-03T15:36:53.755Z</time></trkpt><trkpt lat="44.34493" lon="10.7664517"><ele>720.0</ele><time>2026-05-03T15:36:54.755Z</time></trkpt><trkpt lat="44.3450167" lon="10.76653"><ele>721.0</ele><time>2026-05-03T15:36:55.755Z</time></trkpt><trkpt lat="44.3450983" lon="10.7666017"><ele>721.0</ele><time>2026-05-03T15:36:56.755Z</time></trkpt><trkpt lat="44.3451783" lon="10.7666733"><ele>721.0</ele><time>2026-05-03T15:36:57.755Z</time></trkpt><trkpt lat="44.3452517" lon="10.7667333"><ele>721.0</ele><time>2026-05-03T15:36:58.754Z</time></trkpt><trkpt lat="44.3453217" lon="10.7668017"><ele>721.0</ele><time>2026-05-03T15:36:59.755Z</time></trkpt><trkpt lat="44.3453867" lon="10.7668683"><ele>721.0</ele><time>2026-05-03T15:37:00.754Z</time></trkpt><trkpt lat="44.3454567" lon="10.766925"><ele>721.0</ele><time>2026-05-03T15:37:01.754Z</time></trkpt><trkpt lat="44.345535" lon="10.766975"><ele>722.8333333333334</ele><time>2026-05-03T15:37:02.755Z</time></trkpt><trkpt lat="44.3456067" lon="10.767"><ele>724.6666666666667</ele><time>2026-05-03T15:37:03.755Z</time></trkpt><trkpt lat="44.3456683" lon="10.76702"><ele>726.5</ele><time>2026-05-03T15:37:04.755Z</time></trkpt><trkpt lat="44.3457467" lon="10.7670517"><ele>728.3333333333334</ele><time>2026-05-03T15:37:06.754Z</time></trkpt><trkpt lat="44.345815" lon="10.76708"><ele>730.1666666666666</ele><time>2026-05-03T15:37:34.754Z</time></trkpt><trkpt lat="44.34591" lon="10.767105"><ele>732.0</ele><time>2026-05-03T15:37:36.755Z</time></trkpt><trkpt lat="44.346005" lon="10.76715"><ele>732.0</ele><time>2026-05-03T15:37:38.755Z</time></trkpt><trkpt lat="44.34608" lon="10.7672517"><ele>732.0</ele><time>2026-05-03T15:37:40.755Z</time></trkpt><trkpt lat="44.3460967" lon="10.7673833"><ele>732.0</ele><time>2026-05-03T15:37:42.754Z</time></trkpt><trkpt lat="44.34606" lon="10.767515"><ele>732.0</ele><time>2026-05-03T15:37:44.755Z</time></trkpt><trkpt lat="44.34604" lon="10.7676633"><ele>732.0</ele><time>2026-05-03T15:37:46.755Z</time></trkpt><trkpt lat="44.3460367" lon="10.767755"><ele>731.8333333333334</ele><time>2026-05-03T15:37:47.755Z</time></trkpt><trkpt lat="44.3460467" lon="10.7678517"><ele>731.6666666666666</ele><time>2026-05-03T15:37:48.754Z</time></trkpt><trkpt lat="44.34604" lon="10.7679467"><ele>731.5</ele><time>2026-05-03T15:37:49.755Z</time></trkpt><trkpt lat="44.3460383" lon="10.7680533"><ele>731.3333333333333</ele><time>2026-05-03T15:37:50.755Z</time></trkpt><trkpt lat="44.34604" lon="10.7681683"><ele>731.1666666666666</ele><time>2026-05-03T15:37:51.755Z</time></trkpt><trkpt lat="44.3460567" lon="10.7682933"><ele>731.0</ele><time>2026-05-03T15:37:52.755Z</time></trkpt><trkpt lat="44.3460783" lon="10.7684367"><ele>729.3333333333333</ele><time>2026-05-03T15:37:53.755Z</time></trkpt><trkpt lat="44.3460883" lon="10.7685733"><ele>727.6666666666666</ele><time>2026-05-03T15:37:54.755Z</time></trkpt><trkpt lat="44.3460917" lon="10.7687067"><ele>726.0</ele><time>2026-05-03T15:37:55.754Z</time></trkpt><trkpt lat="44.34609" lon="10.76883"><ele>724.3333333333334</ele><time>2026-05-03T15:37:56.754Z</time></trkpt><trkpt lat="44.346075" lon="10.768945"><ele>722.6666666666667</ele><time>2026-05-03T15:37:57.755Z</time></trkpt><trkpt lat="44.3460767" lon="10.7690533"><ele>721.0</ele><time>2026-05-03T15:37:58.755Z</time></trkpt><trkpt lat="44.346095" lon="10.7691433"><ele>721.0</ele><time>2026-05-03T15:37:59.754Z</time></trkpt><trkpt lat="44.3461417" lon="10.7692233"><ele>721.0</ele><time>2026-05-03T15:38:00.755Z</time></trkpt><trkpt lat="44.3462033" lon="10.7692617"><ele>721.0</ele><time>2026-05-03T15:38:01.755Z</time></trkpt><trkpt lat="44.3462833" lon="10.76926"><ele>721.0</ele><time>2026-05-03T15:38:02.755Z</time></trkpt><trkpt lat="44.34638" lon="10.76925"><ele>721.0</ele><time>2026-05-03T15:38:03.755Z</time></trkpt><trkpt lat="44.3464717" lon="10.7692517"><ele>721.0</ele><time>2026-05-03T15:38:04.755Z</time></trkpt><trkpt lat="44.34654" lon="10.7692933"><ele>717.5999999999999</ele><time>2026-05-03T15:38:05.755Z</time></trkpt><trkpt lat="44.3465983" lon="10.769365"><ele>714.2</ele><time>2026-05-03T15:38:06.755Z</time></trkpt><trkpt lat="44.346645" lon="10.7694833"><ele>710.8</ele><time>2026-05-03T15:38:07.754Z</time></trkpt><trkpt lat="44.3466867" lon="10.76963"><ele>707.4000000000001</ele><time>2026-05-03T15:38:08.755Z</time></trkpt><trkpt lat="44.3467267" lon="10.7697733"><ele>704.0</ele><time>2026-05-03T15:38:09.754Z</time></trkpt><trkpt lat="44.34677" lon="10.76991"><ele>704.0</ele><time>2026-05-03T15:38:10.755Z</time></trkpt><trkpt lat="44.34681" lon="10.7700417"><ele>704.0</ele><time>2026-05-03T15:38:11.755Z</time></trkpt><trkpt lat="44.34686" lon="10.7701833"><ele>704.0</ele><time>2026-05-03T15:38:12.755Z</time></trkpt><trkpt lat="44.3469133" lon="10.7703133"><ele>704.0</ele><time>2026-05-03T15:38:13.754Z</time></trkpt><trkpt lat="44.346975" lon="10.77045"><ele>704.0</ele><time>2026-05-03T15:38:14.755Z</time></trkpt><trkpt lat="44.34704" lon="10.77059"><ele>702.25</ele><time>2026-05-03T15:38:15.755Z</time></trkpt><trkpt lat="44.3471067" lon="10.7707367"><ele>700.5</ele><time>2026-05-03T15:38:16.754Z</time></trkpt><trkpt lat="44.347175" lon="10.7708733"><ele>698.75</ele><time>2026-05-03T15:38:17.755Z</time></trkpt><trkpt lat="44.347235" lon="10.7710017"><ele>697.0</ele><time>2026-05-03T15:38:18.754Z</time></trkpt><trkpt lat="44.3472783" lon="10.77114"><ele>695.6</ele><time>2026-05-03T15:38:19.755Z</time></trkpt><trkpt lat="44.3472967" lon="10.7712817"><ele>694.2</ele><time>2026-05-03T15:38:20.754Z</time></trkpt><trkpt lat="44.3473" lon="10.7714267"><ele>692.8</ele><time>2026-05-03T15:38:21.755Z</time></trkpt><trkpt lat="44.3472783" lon="10.771575"><ele>691.4</ele><time>2026-05-03T15:38:22.754Z</time></trkpt><trkpt lat="44.3472383" lon="10.77172"><ele>690.0</ele><time>2026-05-03T15:38:23.755Z</time></trkpt><trkpt lat="44.3471867" lon="10.7718233"><ele>689.1666666666666</ele><time>2026-05-03T15:38:24.754Z</time></trkpt><trkpt lat="44.34714" lon="10.7719283"><ele>688.3333333333334</ele><time>2026-05-03T15:38:25.755Z</time></trkpt><trkpt lat="44.3471067" lon="10.7720317"><ele>687.5</ele><time>2026-05-03T15:38:26.755Z</time></trkpt><trkpt lat="44.3470933" lon="10.7721333"><ele>686.6666666666667</ele><time>2026-05-03T15:38:27.755Z</time></trkpt><trkpt lat="44.3471033" lon="10.77223"><ele>685.8333333333334</ele><time>2026-05-03T15:38:28.755Z</time></trkpt><trkpt lat="44.3471467" lon="10.7723067"><ele>685.0</ele><time>2026-05-03T15:38:29.755Z</time></trkpt><trkpt lat="44.3472183" lon="10.77238"><ele>681.8</ele><time>2026-05-03T15:38:30.755Z</time></trkpt><trkpt lat="44.347315" lon="10.7724433"><ele>678.6</ele><time>2026-05-03T15:38:31.754Z</time></trkpt><trkpt lat="44.347415" lon="10.772505"><ele>675.4000000000001</ele><time>2026-05-03T15:38:32.755Z</time></trkpt><trkpt lat="44.3475133" lon="10.772555"><ele>672.2</ele><time>2026-05-03T15:38:33.755Z</time></trkpt><trkpt lat="44.34761" lon="10.772595"><ele>669.0</ele><time>2026-05-03T15:38:34.754Z</time></trkpt><trkpt lat="44.3477067" lon="10.77262"><ele>669.0</ele><time>2026-05-03T15:38:35.755Z</time></trkpt><trkpt lat="44.3477917" lon="10.772645"><ele>669.0</ele><time>2026-05-03T15:38:36.755Z</time></trkpt><trkpt lat="44.3478583" lon="10.7727"><ele>669.0</ele><time>2026-05-03T15:38:37.755Z</time></trkpt><trkpt lat="44.3479083" lon="10.7727667"><ele>669.0</ele><time>2026-05-03T15:38:38.755Z</time></trkpt><trkpt lat="44.3479317" lon="10.7728567"><ele>669.0</ele><time>2026-05-03T15:38:39.755Z</time></trkpt><trkpt lat="44.34792" lon="10.7729533"><ele>669.0</ele><time>2026-05-03T15:38:40.755Z</time></trkpt><trkpt lat="44.347875" lon="10.773065"><ele>667.5</ele><time>2026-05-03T15:38:41.755Z</time></trkpt><trkpt lat="44.3478033" lon="10.7731833"><ele>666.0</ele><time>2026-05-03T15:38:42.755Z</time></trkpt><trkpt lat="44.3477167" lon="10.7733133"><ele>664.5</ele><time>2026-05-03T15:38:43.755Z</time></trkpt><trkpt lat="44.34765" lon="10.7734733"><ele>663.0</ele><time>2026-05-03T15:38:44.755Z</time></trkpt><trkpt lat="44.3476067" lon="10.773635"><ele>661.25</ele><time>2026-05-03T15:38:45.754Z</time></trkpt><trkpt lat="44.3475783" lon="10.77378"><ele>659.5</ele><time>2026-05-03T15:38:46.755Z</time></trkpt><trkpt lat="44.3475717" lon="10.7739317"><ele>657.75</ele><time>2026-05-03T15:38:47.755Z</time></trkpt><trkpt lat="44.34759" lon="10.774095"><ele>656.0</ele><time>2026-05-03T15:38:48.755Z</time></trkpt><trkpt lat="44.3476267" lon="10.7742733"><ele>653.75</ele><time>2026-05-03T15:38:49.755Z</time></trkpt><trkpt lat="44.3476617" lon="10.7744483"><ele>651.5</ele><time>2026-05-03T15:38:50.755Z</time></trkpt><trkpt lat="44.3476933" lon="10.774605"><ele>649.25</ele><time>2026-05-03T15:38:51.754Z</time></trkpt><trkpt lat="44.3477217" lon="10.77477"><ele>647.0</ele><time>2026-05-03T15:38:52.755Z</time></trkpt><trkpt lat="44.3477133" lon="10.7749383"><ele>647.0</ele><time>2026-05-03T15:38:53.755Z</time></trkpt><trkpt lat="44.34769" lon="10.7751117"><ele>647.0</ele><time>2026-05-03T15:38:54.755Z</time></trkpt><trkpt lat="44.3476467" lon="10.7752933"><ele>647.0</ele><time>2026-05-03T15:38:55.755Z</time></trkpt><trkpt lat="44.3475417" lon="10.7756133"><ele>645.8</ele><time>2026-05-03T15:38:57.755Z</time></trkpt><trkpt lat="44.3474967" lon="10.775745"><ele>644.6</ele><time>2026-05-03T15:38:58.755Z</time></trkpt><trkpt lat="44.34746" lon="10.7758633"><ele>643.4</ele><time>2026-05-03T15:38:59.755Z</time></trkpt><trkpt lat="44.3474433" lon="10.7759817"><ele>642.1999999999999</ele><time>2026-05-03T15:39:00.755Z</time></trkpt><trkpt lat="44.3474583" lon="10.77611"><ele>641.0</ele><time>2026-05-03T15:39:01.755Z</time></trkpt><trkpt lat="44.3475" lon="10.7762467"><ele>640.4</ele><time>2026-05-03T15:39:02.755Z</time></trkpt><trkpt lat="44.3475483" lon="10.7763783"><ele>639.8</ele><time>2026-05-03T15:39:03.754Z</time></trkpt><trkpt lat="44.3475983" lon="10.77651"><ele>639.1999999999999</ele><time>2026-05-03T15:39:04.755Z</time></trkpt><trkpt lat="44.3476533" lon="10.77663"><ele>638.5999999999999</ele><time>2026-05-03T15:39:05.754Z</time></trkpt><trkpt lat="44.347705" lon="10.7767333"><ele>638.0</ele><time>2026-05-03T15:39:06.754Z</time></trkpt><trkpt lat="44.347755" lon="10.7768283"><ele>636.8333333333333</ele><time>2026-05-03T15:39:07.755Z</time></trkpt><trkpt lat="44.3477883" lon="10.7769267"><ele>635.6666666666666</ele><time>2026-05-03T15:39:08.755Z</time></trkpt><trkpt lat="44.3477883" lon="10.7770683"><ele>634.5</ele><time>2026-05-03T15:39:10.754Z</time></trkpt><trkpt lat="44.3478017" lon="10.77721"><ele>633.3333333333334</ele><time>2026-05-03T15:39:17.755Z</time></trkpt><trkpt lat="44.34785" lon="10.7772683"><ele>632.1666666666667</ele><time>2026-05-03T15:39:18.755Z</time></trkpt><trkpt lat="44.3479133" lon="10.7773217"><ele>631.0</ele><time>2026-05-03T15:39:19.754Z</time></trkpt><trkpt lat="44.3479833" lon="10.77736"><ele>629.6</ele><time>2026-05-03T15:39:20.755Z</time></trkpt><trkpt lat="44.3480583" lon="10.7774117"><ele>628.2</ele><time>2026-05-03T15:39:21.754Z</time></trkpt><trkpt lat="44.348145" lon="10.77745"><ele>626.8</ele><time>2026-05-03T15:39:22.755Z</time></trkpt><trkpt lat="44.34824" lon="10.7774967"><ele>625.4</ele><time>2026-05-03T15:39:23.755Z</time></trkpt><trkpt lat="44.3483383" lon="10.777555"><ele>624.0</ele><time>2026-05-03T15:39:24.755Z</time></trkpt><trkpt lat="44.3484367" lon="10.7776233"><ele>624.1666666666666</ele><time>2026-05-03T15:39:25.755Z</time></trkpt><trkpt lat="44.3485333" lon="10.777695"><ele>624.3333333333334</ele><time>2026-05-03T15:39:26.754Z</time></trkpt><trkpt lat="44.3486183" lon="10.7777633"><ele>624.5</ele><time>2026-05-03T15:39:27.754Z</time></trkpt><trkpt lat="44.34869" lon="10.7778167"><ele>624.6666666666667</ele><time>2026-05-03T15:39:28.755Z</time></trkpt><trkpt lat="44.34876" lon="10.7778467"><ele>624.8333333333334</ele><time>2026-05-03T15:39:29.755Z</time></trkpt><trkpt lat="44.348845" lon="10.77786"><ele>625.0</ele><time>2026-05-03T15:39:30.754Z</time></trkpt><trkpt lat="44.3489467" lon="10.7778283"><ele>619.25</ele><time>2026-05-03T15:39:31.755Z</time></trkpt><trkpt lat="44.34905" lon="10.7777933"><ele>613.5</ele><time>2026-05-03T15:39:32.755Z</time></trkpt><trkpt lat="44.3491633" lon="10.7777533"><ele>607.75</ele><time>2026-05-03T15:39:33.754Z</time></trkpt><trkpt lat="44.349275" lon="10.777725"><ele>602.0</ele><time>2026-05-03T15:39:34.755Z</time></trkpt><trkpt lat="44.3493867" lon="10.7776983"><ele>603.0</ele><time>2026-05-03T15:39:35.755Z</time></trkpt><trkpt lat="44.3494967" lon="10.7776517"><ele>604.0</ele><time>2026-05-03T15:39:36.755Z</time></trkpt><trkpt lat="44.349605" lon="10.7776133"><ele>605.0</ele><time>2026-05-03T15:39:37.754Z</time></trkpt><trkpt lat="44.349715" lon="10.777575"><ele>606.0</ele><time>2026-05-03T15:39:38.754Z</time></trkpt><trkpt lat="44.349815" lon="10.7775417"><ele>607.0</ele><time>2026-05-03T15:39:39.753Z</time></trkpt><trkpt lat="44.3499" lon="10.77751"><ele>604.7142857142857</ele><time>2026-05-03T15:39:40.754Z</time></trkpt><trkpt lat="44.34997" lon="10.7774933"><ele>602.4285714285714</ele><time>2026-05-03T15:39:41.754Z</time></trkpt><trkpt lat="44.3500417" lon="10.7774867"><ele>600.1428571428571</ele><time>2026-05-03T15:39:42.754Z</time></trkpt><trkpt lat="44.3501067" lon="10.7774983"><ele>597.8571428571429</ele><time>2026-05-03T15:39:43.754Z</time></trkpt><trkpt lat="44.3501683" lon="10.7775433"><ele>595.5714285714286</ele><time>2026-05-03T15:39:44.754Z</time></trkpt><trkpt lat="44.35021" lon="10.77763"><ele>593.2857142857142</ele><time>2026-05-03T15:39:45.753Z</time></trkpt><trkpt lat="44.3502233" lon="10.77776"><ele>591.0</ele><time>2026-05-03T15:39:46.754Z</time></trkpt><trkpt lat="44.3502183" lon="10.77792"><ele>589.6</ele><time>2026-05-03T15:39:47.754Z</time></trkpt><trkpt lat="44.3502183" lon="10.77809"><ele>588.2</ele><time>2026-05-03T15:39:48.753Z</time></trkpt><trkpt lat="44.3502217" lon="10.778245"><ele>586.8</ele><time>2026-05-03T15:39:49.754Z</time></trkpt><trkpt lat="44.35023" lon="10.7783833"><ele>585.4</ele><time>2026-05-03T15:39:50.754Z</time></trkpt><trkpt lat="44.35021" lon="10.7785183"><ele>584.0</ele><time>2026-05-03T15:39:51.754Z</time></trkpt><trkpt lat="44.3501767" lon="10.7786533"><ele>581.25</ele><time>2026-05-03T15:39:52.754Z</time></trkpt><trkpt lat="44.3501417" lon="10.7787933"><ele>578.5</ele><time>2026-05-03T15:39:53.754Z</time></trkpt><trkpt lat="44.3501067" lon="10.7789383"><ele>575.75</ele><time>2026-05-03T15:39:54.754Z</time></trkpt><trkpt lat="44.3500967" lon="10.7791017"><ele>573.0</ele><time>2026-05-03T15:39:55.753Z</time></trkpt><trkpt lat="44.3501017" lon="10.7792667"><ele>569.75</ele><time>2026-05-03T15:39:56.754Z</time></trkpt><trkpt lat="44.35012" lon="10.779435"><ele>566.5</ele><time>2026-05-03T15:39:57.754Z</time></trkpt><trkpt lat="44.3501517" lon="10.779605"><ele>563.25</ele><time>2026-05-03T15:39:58.754Z</time></trkpt><trkpt lat="44.350175" lon="10.779775"><ele>560.0</ele><time>2026-05-03T15:39:59.754Z</time></trkpt><trkpt lat="44.3501817" lon="10.7799417"><ele>560.0</ele><time>2026-05-03T15:40:00.754Z</time></trkpt><trkpt lat="44.3501733" lon="10.7801067"><ele>560.0</ele><time>2026-05-03T15:40:01.754Z</time></trkpt><trkpt lat="44.350155" lon="10.78027"><ele>560.0</ele><time>2026-05-03T15:40:02.754Z</time></trkpt><trkpt lat="44.3501567" lon="10.78044"><ele>560.0</ele><time>2026-05-03T15:40:03.754Z</time></trkpt><trkpt lat="44.3501733" lon="10.7806083"><ele>558.6</ele><time>2026-05-03T15:40:04.754Z</time></trkpt><trkpt lat="44.3502033" lon="10.7807717"><ele>557.2</ele><time>2026-05-03T15:40:05.753Z</time></trkpt><trkpt lat="44.3502317" lon="10.7809183"><ele>555.8</ele><time>2026-05-03T15:40:06.754Z</time></trkpt><trkpt lat="44.350265" lon="10.7810633"><ele>554.4</ele><time>2026-05-03T15:40:07.754Z</time></trkpt><trkpt lat="44.350305" lon="10.7812033"><ele>553.0</ele><time>2026-05-03T15:40:08.754Z</time></trkpt><trkpt lat="44.3503633" lon="10.7813433"><ele>551.6</ele><time>2026-05-03T15:40:09.753Z</time></trkpt><trkpt lat="44.3504167" lon="10.7814783"><ele>550.1999999999999</ele><time>2026-05-03T15:40:10.754Z</time></trkpt><trkpt lat="44.3504667" lon="10.7816067"><ele>548.8</ele><time>2026-05-03T15:40:11.754Z</time></trkpt><trkpt lat="44.35049" lon="10.7817283"><ele>547.4</ele><time>2026-05-03T15:40:12.754Z</time></trkpt><trkpt lat="44.350495" lon="10.78186"><ele>546.0</ele><time>2026-05-03T15:40:13.753Z</time></trkpt><trkpt lat="44.3504683" lon="10.78197"><ele>545.0</ele><time>2026-05-03T15:40:14.754Z</time></trkpt><trkpt lat="44.3504083" lon="10.782075"><ele>544.0</ele><time>2026-05-03T15:40:15.754Z</time></trkpt><trkpt lat="44.3503517" lon="10.7821667"><ele>543.0</ele><time>2026-05-03T15:40:16.754Z</time></trkpt><trkpt lat="44.3503083" lon="10.78226"><ele>542.0</ele><time>2026-05-03T15:40:17.754Z</time></trkpt><trkpt lat="44.3502917" lon="10.78236"><ele>541.0</ele><time>2026-05-03T15:40:18.754Z</time></trkpt><trkpt lat="44.3503033" lon="10.7824717"><ele>540.0</ele><time>2026-05-03T15:40:19.753Z</time></trkpt><trkpt lat="44.350345" lon="10.78258"><ele>540.0</ele><time>2026-05-03T15:40:20.754Z</time></trkpt><trkpt lat="44.3504133" lon="10.78268"><ele>540.0</ele><time>2026-05-03T15:40:21.754Z</time></trkpt><trkpt lat="44.350485" lon="10.7827633"><ele>540.0</ele><time>2026-05-03T15:40:22.754Z</time></trkpt><trkpt lat="44.3505767" lon="10.7828167"><ele>540.0</ele><time>2026-05-03T15:40:23.754Z</time></trkpt><trkpt lat="44.3506733" lon="10.78285"><ele>540.0</ele><time>2026-05-03T15:40:24.754Z</time></trkpt><trkpt lat="44.3507717" lon="10.7828633"><ele>538.0</ele><time>2026-05-03T15:40:25.754Z</time></trkpt><trkpt lat="44.3508783" lon="10.7828633"><ele>536.0</ele><time>2026-05-03T15:40:26.754Z</time></trkpt><trkpt lat="44.3509883" lon="10.782845"><ele>534.0</ele><time>2026-05-03T15:40:27.753Z</time></trkpt><trkpt lat="44.35109" lon="10.7828"><ele>532.0</ele><time>2026-05-03T15:40:28.754Z</time></trkpt><trkpt lat="44.3511917" lon="10.78272"><ele>530.0</ele><time>2026-05-03T15:40:29.754Z</time></trkpt><trkpt lat="44.3512933" lon="10.782635"><ele>527.4</ele><time>2026-05-03T15:40:30.754Z</time></trkpt><trkpt lat="44.3514" lon="10.7825667"><ele>524.8</ele><time>2026-05-03T15:40:31.754Z</time></trkpt><trkpt lat="44.3515033" lon="10.782505"><ele>522.2</ele><time>2026-05-03T15:40:32.754Z</time></trkpt><trkpt lat="44.3516017" lon="10.7824433"><ele>519.6</ele><time>2026-05-03T15:40:33.753Z</time></trkpt><trkpt lat="44.351695" lon="10.782375"><ele>517.0</ele><time>2026-05-03T15:40:34.754Z</time></trkpt><trkpt lat="44.3517867" lon="10.7823083"><ele>517.0</ele><time>2026-05-03T15:40:35.754Z</time></trkpt><trkpt lat="44.3518717" lon="10.78223"><ele>517.0</ele><time>2026-05-03T15:40:36.753Z</time></trkpt><trkpt lat="44.3519583" lon="10.7821517"><ele>517.0</ele><time>2026-05-03T15:40:37.754Z</time></trkpt><trkpt lat="44.3520417" lon="10.7820717"><ele>517.0</ele><time>2026-05-03T15:40:38.753Z</time></trkpt><trkpt lat="44.3521167" lon="10.7820017"><ele>517.0</ele><time>2026-05-03T15:40:39.754Z</time></trkpt><trkpt lat="44.3521833" lon="10.7819317"><ele>516.0</ele><time>2026-05-03T15:40:40.754Z</time></trkpt><trkpt lat="44.352245" lon="10.7818717"><ele>515.0</ele><time>2026-05-03T15:40:41.754Z</time></trkpt><trkpt lat="44.352335" lon="10.78185"><ele>514.0</ele><time>2026-05-03T15:40:43.753Z</time></trkpt><trkpt lat="44.3523933" lon="10.78196"><ele>513.0</ele><time>2026-05-03T15:40:45.754Z</time></trkpt><trkpt lat="44.3524183" lon="10.7820433"><ele>512.0</ele><time>2026-05-03T15:40:46.753Z</time></trkpt><trkpt lat="44.3524517" lon="10.7822083"><ele>512.0</ele><time>2026-05-03T15:40:48.754Z</time></trkpt><trkpt lat="44.3524667" lon="10.782295"><ele>512.0</ele><time>2026-05-03T15:40:49.753Z</time></trkpt><trkpt lat="44.3524633" lon="10.78246"><ele>512.0</ele><time>2026-05-03T15:40:51.754Z</time></trkpt><trkpt lat="44.3524083" lon="10.782615"><ele>512.0</ele><time>2026-05-03T15:40:53.753Z</time></trkpt><trkpt lat="44.3523733" lon="10.7826983"><ele>512.0</ele><time>2026-05-03T15:40:54.754Z</time></trkpt><trkpt lat="44.3523383" lon="10.7827917"><ele>512.6666666666666</ele><time>2026-05-03T15:40:55.754Z</time></trkpt><trkpt lat="44.3523017" lon="10.782895"><ele>513.3333333333333</ele><time>2026-05-03T15:40:56.754Z</time></trkpt><trkpt lat="44.352275" lon="10.782995"><ele>514.0</ele><time>2026-05-03T15:40:57.754Z</time></trkpt><trkpt lat="44.3522583" lon="10.78315"><ele>514.6666666666666</ele><time>2026-05-03T15:40:59.754Z</time></trkpt><trkpt lat="44.3522633" lon="10.783245"><ele>515.3333333333334</ele><time>2026-05-03T15:41:00.754Z</time></trkpt><trkpt lat="44.35227" lon="10.7833583"><ele>516.0</ele><time>2026-05-03T15:41:01.754Z</time></trkpt><trkpt lat="44.3522733" lon="10.7834833"><ele>515.6666666666666</ele><time>2026-05-03T15:41:02.754Z</time></trkpt><trkpt lat="44.3522683" lon="10.783605"><ele>515.3333333333334</ele><time>2026-05-03T15:41:03.754Z</time></trkpt><trkpt lat="44.352255" lon="10.7837133"><ele>515.0</ele><time>2026-05-03T15:41:04.754Z</time></trkpt><trkpt lat="44.3522383" lon="10.7838283"><ele>514.6666666666667</ele><time>2026-05-03T15:41:05.754Z</time></trkpt><trkpt lat="44.3522133" lon="10.7839367"><ele>514.3333333333334</ele><time>2026-05-03T15:41:06.754Z</time></trkpt><trkpt lat="44.3521833" lon="10.7840333"><ele>514.0</ele><time>2026-05-03T15:41:07.754Z</time></trkpt><trkpt lat="44.3521433" lon="10.7841267"><ele>514.0</ele><time>2026-05-03T15:41:08.753Z</time></trkpt><trkpt lat="44.352105" lon="10.78421"><ele>514.0</ele><time>2026-05-03T15:41:09.754Z</time></trkpt><trkpt lat="44.3520533" lon="10.784275"><ele>514.0</ele><time>2026-05-03T15:41:10.753Z</time></trkpt><trkpt lat="44.3519967" lon="10.784325"><ele>514.0</ele><time>2026-05-03T15:41:11.754Z</time></trkpt><trkpt lat="44.3519283" lon="10.7843767"><ele>514.0</ele><time>2026-05-03T15:41:12.753Z</time></trkpt><trkpt lat="44.35186" lon="10.78442"><ele>514.0</ele><time>2026-05-03T15:41:13.754Z</time></trkpt><trkpt lat="44.3517983" lon="10.7844517"><ele>514.0</ele><time>2026-05-03T15:41:14.754Z</time></trkpt><trkpt lat="44.3516983" lon="10.7844867"><ele>514.6666666666667</ele><time>2026-05-03T15:41:16.754Z</time></trkpt><trkpt lat="44.3516117" lon="10.7845167"><ele>515.3333333333334</ele><time>2026-05-03T15:41:50.754Z</time></trkpt><trkpt lat="44.35155" lon="10.7845783"><ele>516.0</ele><time>2026-05-03T15:41:52.753Z</time></trkpt><trkpt lat="44.3515067" lon="10.78466"><ele>516.6666666666666</ele><time>2026-05-03T15:41:54.753Z</time></trkpt><trkpt lat="44.3514683" lon="10.7847617"><ele>517.3333333333333</ele><time>2026-05-03T15:41:57.754Z</time></trkpt><trkpt lat="44.3514083" lon="10.7848267"><ele>518.0</ele><time>2026-05-03T15:41:59.754Z</time></trkpt><trkpt lat="44.351345" lon="10.7848767"><ele>518.0</ele><time>2026-05-03T15:42:01.753Z</time></trkpt><trkpt lat="44.3512933" lon="10.7849483"><ele>518.0</ele><time>2026-05-03T15:42:03.754Z</time></trkpt><trkpt lat="44.35126" lon="10.785035"><ele>518.0</ele><time>2026-05-03T15:42:05.754Z</time></trkpt><trkpt lat="44.3512417" lon="10.7851433"><ele>518.0</ele><time>2026-05-03T15:42:07.754Z</time></trkpt><trkpt lat="44.3512267" lon="10.7852617"><ele>518.0</ele><time>2026-05-03T15:42:09.754Z</time></trkpt><trkpt lat="44.351205" lon="10.785355"><ele>518.0</ele><time>2026-05-03T15:42:11.754Z</time></trkpt><trkpt lat="44.351155" lon="10.7854233"><ele>518.0</ele><time>2026-05-03T15:42:13.753Z</time></trkpt><trkpt lat="44.3510833" lon="10.7854067"><ele>518.1666666666666</ele><time>2026-05-03T15:42:16.754Z</time></trkpt><trkpt lat="44.3510383" lon="10.7853267"><ele>518.3333333333333</ele><time>2026-05-03T15:42:19.754Z</time></trkpt><trkpt lat="44.3509733" lon="10.7852417"><ele>518.5</ele><time>2026-05-03T15:43:56.753Z</time></trkpt><trkpt lat="44.35088" lon="10.78521"><ele>518.6666666666666</ele><time>2026-05-03T15:43:58.754Z</time></trkpt><trkpt lat="44.3507967" lon="10.785255"><ele>518.8333333333334</ele><time>2026-05-03T15:44:00.754Z</time></trkpt><trkpt lat="44.3507233" lon="10.7853167"><ele>519.0</ele><time>2026-05-03T15:44:02.753Z</time></trkpt><trkpt lat="44.350635" lon="10.785395"><ele>518.8333333333334</ele><time>2026-05-03T15:44:04.753Z</time></trkpt><trkpt lat="44.3505383" lon="10.7854883"><ele>518.6666666666666</ele><time>2026-05-03T15:44:06.754Z</time></trkpt><trkpt lat="44.3504333" lon="10.7855833"><ele>518.5</ele><time>2026-05-03T15:44:08.754Z</time></trkpt><trkpt lat="44.3503817" lon="10.7856467"><ele>518.3333333333333</ele><time>2026-05-03T15:44:09.753Z</time></trkpt><trkpt lat="44.350335" lon="10.78571"><ele>518.1666666666666</ele><time>2026-05-03T15:44:10.754Z</time></trkpt><trkpt lat="44.3502867" lon="10.7857783"><ele>518.0</ele><time>2026-05-03T15:44:11.754Z</time></trkpt><trkpt lat="44.3502367" lon="10.785835"><ele>518.0</ele><time>2026-05-03T15:44:12.754Z</time></trkpt><trkpt lat="44.3501183" lon="10.785925"><ele>518.0</ele><time>2026-05-03T15:44:14.754Z</time></trkpt><trkpt lat="44.3500467" lon="10.785955"><ele>518.0</ele><time>2026-05-03T15:44:15.754Z</time></trkpt><trkpt lat="44.34997" lon="10.7859883"><ele>518.0</ele><time>2026-05-03T15:44:16.753Z</time></trkpt><trkpt lat="44.349905" lon="10.786015"><ele>518.0</ele><time>2026-05-03T15:44:17.754Z</time></trkpt><trkpt lat="44.3498467" lon="10.7860483"><ele>518.0</ele><time>2026-05-03T15:44:18.754Z</time></trkpt><trkpt lat="44.3497417" lon="10.7861217"><ele>518.5714285714286</ele><time>2026-05-03T15:44:20.753Z</time></trkpt><trkpt lat="44.349685" lon="10.7861767"><ele>519.1428571428571</ele><time>2026-05-03T15:44:21.754Z</time></trkpt><trkpt lat="44.34963" lon="10.7862317"><ele>519.7142857142858</ele><time>2026-05-03T15:44:22.754Z</time></trkpt><trkpt lat="44.3495783" lon="10.7863017"><ele>520.2857142857142</ele><time>2026-05-03T15:44:23.754Z</time></trkpt><trkpt lat="44.3495333" lon="10.786375"><ele>520.8571428571429</ele><time>2026-05-03T15:44:24.754Z</time></trkpt><trkpt lat="44.349495" lon="10.7864533"><ele>521.4285714285714</ele><time>2026-05-03T15:44:25.754Z</time></trkpt><trkpt lat="44.3494617" lon="10.7865367"><ele>522.0</ele><time>2026-05-03T15:44:26.754Z</time></trkpt><trkpt lat="44.3494283" lon="10.7866317"><ele>522.0</ele><time>2026-05-03T15:44:27.754Z</time></trkpt><trkpt lat="44.3493983" lon="10.7867383"><ele>522.0</ele><time>2026-05-03T15:44:28.754Z</time></trkpt><trkpt lat="44.3493783" lon="10.786825"><ele>522.0</ele><time>2026-05-03T15:44:29.754Z</time></trkpt><trkpt lat="44.3493733" lon="10.7869817"><ele>522.0</ele><time>2026-05-03T15:44:31.754Z</time></trkpt><trkpt lat="44.34944" lon="10.7870867"><ele>522.0</ele><time>2026-05-03T15:44:33.754Z</time></trkpt><trkpt lat="44.3495033" lon="10.7871367"><ele>522.0</ele><time>2026-05-03T15:44:34.754Z</time></trkpt><trkpt lat="44.3495717" lon="10.78718"><ele>522.3333333333334</ele><time>2026-05-03T15:44:35.753Z</time></trkpt><trkpt lat="44.3496467" lon="10.78721"><ele>522.6666666666666</ele><time>2026-05-03T15:44:36.754Z</time></trkpt><trkpt lat="44.3497217" lon="10.7872517"><ele>523.0</ele><time>2026-05-03T15:44:37.753Z</time></trkpt><trkpt lat="44.34979" lon="10.7872883"><ele>523.3333333333333</ele><time>2026-05-03T15:44:38.753Z</time></trkpt><trkpt lat="44.3498583" lon="10.7873217"><ele>523.6666666666666</ele><time>2026-05-03T15:44:39.754Z</time></trkpt><trkpt lat="44.3499333" lon="10.78736"><ele>524.0</ele><time>2026-05-03T15:44:40.753Z</time></trkpt><trkpt lat="44.3500033" lon="10.7874033"><ele>525.5</ele><time>2026-05-03T15:44:41.754Z</time></trkpt><trkpt lat="44.350075" lon="10.7874467"><ele>527.0</ele><time>2026-05-03T15:44:42.754Z</time></trkpt><trkpt lat="44.3501467" lon="10.78749"><ele>528.5</ele><time>2026-05-03T15:44:43.754Z</time></trkpt><trkpt lat="44.3502167" lon="10.7875317"><ele>530.0</ele><time>2026-05-03T15:44:44.754Z</time></trkpt><trkpt lat="44.35029" lon="10.7875717"><ele>531.5</ele><time>2026-05-03T15:44:45.754Z</time></trkpt><trkpt lat="44.350365" lon="10.7876017"><ele>533.0</ele><time>2026-05-03T15:44:46.754Z</time></trkpt><trkpt lat="44.3504433" lon="10.7876333"><ele>533.0</ele><time>2026-05-03T15:44:47.754Z</time></trkpt><trkpt lat="44.3505167" lon="10.78767"><ele>533.0</ele><time>2026-05-03T15:44:48.754Z</time></trkpt><trkpt lat="44.3505917" lon="10.787705"><ele>533.0</ele><time>2026-05-03T15:44:49.754Z</time></trkpt><trkpt lat="44.3506633" lon="10.7877483"><ele>533.0</ele><time>2026-05-03T15:44:50.752Z</time></trkpt><trkpt lat="44.35073" lon="10.7877983"><ele>533.0</ele><time>2026-05-03T15:44:51.753Z</time></trkpt><trkpt lat="44.3507967" lon="10.787845"><ele>533.0</ele><time>2026-05-03T15:44:52.753Z</time></trkpt><trkpt lat="44.3508633" lon="10.7878883"><ele>535.4</ele><time>2026-05-03T15:44:53.753Z</time></trkpt><trkpt lat="44.3509283" lon="10.7879267"><ele>537.8</ele><time>2026-05-03T15:44:54.753Z</time></trkpt><trkpt lat="44.3509933" lon="10.7880417"><ele>540.2</ele><time>2026-05-03T15:44:56.753Z</time></trkpt><trkpt lat="44.3509867" lon="10.7882167"><ele>542.6</ele><time>2026-05-03T15:44:58.752Z</time></trkpt><trkpt lat="44.3509783" lon="10.7883217"><ele>545.0</ele><time>2026-05-03T15:44:59.752Z</time></trkpt><trkpt lat="44.350985" lon="10.788425"><ele>546.8333333333333</ele><time>2026-05-03T15:45:00.752Z</time></trkpt><trkpt lat="44.3510133" lon="10.7885383"><ele>548.6666666666666</ele><time>2026-05-03T15:45:01.753Z</time></trkpt><trkpt lat="44.35105" lon="10.7886533"><ele>550.5</ele><time>2026-05-03T15:45:02.753Z</time></trkpt><trkpt lat="44.3510833" lon="10.7887633"><ele>552.3333333333334</ele><time>2026-05-03T15:45:03.752Z</time></trkpt><trkpt lat="44.3511033" lon="10.788865"><ele>554.1666666666667</ele><time>2026-05-03T15:45:04.753Z</time></trkpt><trkpt lat="44.351105" lon="10.7889633"><ele>556.0</ele><time>2026-05-03T15:45:05.752Z</time></trkpt><trkpt lat="44.35109" lon="10.7890517"><ele>556.0</ele><time>2026-05-03T15:45:06.753Z</time></trkpt><trkpt lat="44.3510733" lon="10.7891833"><ele>556.0</ele><time>2026-05-03T15:45:08.753Z</time></trkpt><trkpt lat="44.3511267" lon="10.78925"><ele>556.0</ele><time>2026-05-03T15:45:11.753Z</time></trkpt><trkpt lat="44.3511867" lon="10.78928"><ele>556.0</ele><time>2026-05-03T15:45:22.752Z</time></trkpt><trkpt lat="44.3513067" lon="10.7893533"><ele>556.0</ele><time>2026-05-03T15:45:24.753Z</time></trkpt><trkpt lat="44.351385" lon="10.7893783"><ele>556.0</ele><time>2026-05-03T15:45:25.753Z</time></trkpt><trkpt lat="44.3514567" lon="10.7894083"><ele>557.3333333333334</ele><time>2026-05-03T15:45:26.753Z</time></trkpt><trkpt lat="44.3515267" lon="10.789445"><ele>558.6666666666667</ele><time>2026-05-03T15:45:27.753Z</time></trkpt><trkpt lat="44.3515983" lon="10.7894883"><ele>560.0</ele><time>2026-05-03T15:45:28.753Z</time></trkpt><trkpt lat="44.3516583" lon="10.7895317"><ele>561.3333333333334</ele><time>2026-05-03T15:45:29.753Z</time></trkpt><trkpt lat="44.3517683" lon="10.7895483"><ele>562.6666666666666</ele><time>2026-05-03T15:45:31.752Z</time></trkpt><trkpt lat="44.3518583" lon="10.789455"><ele>564.0</ele><time>2026-05-03T15:45:33.753Z</time></trkpt><trkpt lat="44.3518883" lon="10.7893767"><ele>562.3333333333334</ele><time>2026-05-03T15:45:34.752Z</time></trkpt><trkpt lat="44.35191" lon="10.78927"><ele>560.6666666666666</ele><time>2026-05-03T15:45:35.753Z</time></trkpt><trkpt lat="44.351915" lon="10.7891567"><ele>559.0</ele><time>2026-05-03T15:45:36.753Z</time></trkpt><trkpt lat="44.35192" lon="10.789025"><ele>557.3333333333333</ele><time>2026-05-03T15:45:37.752Z</time></trkpt><trkpt lat="44.3519317" lon="10.7888933"><ele>555.6666666666666</ele><time>2026-05-03T15:45:38.752Z</time></trkpt><trkpt lat="44.3519533" lon="10.788775"><ele>554.0</ele><time>2026-05-03T15:45:39.753Z</time></trkpt><trkpt lat="44.3519867" lon="10.7886467"><ele>554.0</ele><time>2026-05-03T15:45:40.752Z</time></trkpt><trkpt lat="44.3520117" lon="10.7885133"><ele>554.0</ele><time>2026-05-03T15:45:41.753Z</time></trkpt><trkpt lat="44.352035" lon="10.7883683"><ele>554.0</ele><time>2026-05-03T15:45:42.753Z</time></trkpt><trkpt lat="44.3520583" lon="10.78823"><ele>554.0</ele><time>2026-05-03T15:45:43.753Z</time></trkpt><trkpt lat="44.352085" lon="10.7880867"><ele>554.0</ele><time>2026-05-03T15:45:44.753Z</time></trkpt><trkpt lat="44.3521117" lon="10.7879517"><ele>554.8333333333333</ele><time>2026-05-03T15:45:45.753Z</time></trkpt><trkpt lat="44.3521417" lon="10.7878483"><ele>555.6666666666666</ele><time>2026-05-03T15:45:46.753Z</time></trkpt><trkpt lat="44.3521817" lon="10.7877567"><ele>556.5</ele><time>2026-05-03T15:45:47.753Z</time></trkpt><trkpt lat="44.3522383" lon="10.78767"><ele>557.3333333333334</ele><time>2026-05-03T15:45:48.753Z</time></trkpt><trkpt lat="44.3523083" lon="10.787585"><ele>558.1666666666667</ele><time>2026-05-03T15:45:49.753Z</time></trkpt><trkpt lat="44.3523783" lon="10.787505"><ele>559.0</ele><time>2026-05-03T15:45:50.753Z</time></trkpt><trkpt lat="44.3524467" lon="10.7874083"><ele>559.0</ele><time>2026-05-03T15:45:51.752Z</time></trkpt><trkpt lat="44.3525183" lon="10.787325"><ele>559.0</ele><time>2026-05-03T15:45:52.753Z</time></trkpt><trkpt lat="44.3525833" lon="10.78724"><ele>559.0</ele><time>2026-05-03T15:45:53.752Z</time></trkpt><trkpt lat="44.3526433" lon="10.787155"><ele>559.0</ele><time>2026-05-03T15:45:54.753Z</time></trkpt><trkpt lat="44.3527083" lon="10.7870717"><ele>559.0</ele><time>2026-05-03T15:45:55.753Z</time></trkpt><trkpt lat="44.3527683" lon="10.7869933"><ele>559.0</ele><time>2026-05-03T15:45:56.753Z</time></trkpt><trkpt lat="44.352825" lon="10.7869167"><ele>557.6666666666667</ele><time>2026-05-03T15:45:57.753Z</time></trkpt><trkpt lat="44.3528833" lon="10.7868433"><ele>556.3333333333334</ele><time>2026-05-03T15:45:58.753Z</time></trkpt><trkpt lat="44.35295" lon="10.7867533"><ele>555.0</ele><time>2026-05-03T15:45:59.753Z</time></trkpt><trkpt lat="44.3530133" lon="10.7866817"><ele>553.6666666666666</ele><time>2026-05-03T15:46:00.753Z</time></trkpt><trkpt lat="44.3530617" lon="10.7866017"><ele>552.3333333333333</ele><time>2026-05-03T15:46:01.753Z</time></trkpt><trkpt lat="44.3530967" lon="10.78652"><ele>551.0</ele><time>2026-05-03T15:46:02.753Z</time></trkpt><trkpt lat="44.3531183" lon="10.7864233"><ele>553.8333333333333</ele><time>2026-05-03T15:46:03.753Z</time></trkpt><trkpt lat="44.3531317" lon="10.7863217"><ele>556.6666666666666</ele><time>2026-05-03T15:46:04.752Z</time></trkpt><trkpt lat="44.3531367" lon="10.7862117"><ele>559.5</ele><time>2026-05-03T15:46:05.752Z</time></trkpt><trkpt lat="44.35314" lon="10.7860933"><ele>562.3333333333334</ele><time>2026-05-03T15:46:06.753Z</time></trkpt><trkpt lat="44.3531417" lon="10.7859667"><ele>565.1666666666667</ele><time>2026-05-03T15:46:07.753Z</time></trkpt><trkpt lat="44.35315" lon="10.7858417"><ele>568.0</ele><time>2026-05-03T15:46:08.753Z</time></trkpt><trkpt lat="44.35317" lon="10.78572"><ele>568.0</ele><time>2026-05-03T15:46:09.753Z</time></trkpt><trkpt lat="44.3532133" lon="10.7855883"><ele>568.0</ele><time>2026-05-03T15:46:10.753Z</time></trkpt><trkpt lat="44.3532733" lon="10.785475"><ele>568.0</ele><time>2026-05-03T15:46:11.753Z</time></trkpt><trkpt lat="44.3533383" lon="10.7853717"><ele>568.0</ele><time>2026-05-03T15:46:12.753Z</time></trkpt><trkpt lat="44.3534133" lon="10.7852667"><ele>568.0</ele><time>2026-05-03T15:46:13.752Z</time></trkpt><trkpt lat="44.3534883" lon="10.785165"><ele>565.8</ele><time>2026-05-03T15:46:14.752Z</time></trkpt><trkpt lat="44.3535617" lon="10.785075"><ele>563.5999999999999</ele><time>2026-05-03T15:46:15.753Z</time></trkpt><trkpt lat="44.3536467" lon="10.784985"><ele>561.4000000000001</ele><time>2026-05-03T15:46:16.752Z</time></trkpt><trkpt lat="44.3537317" lon="10.7849033"><ele>559.2</ele><time>2026-05-03T15:46:17.753Z</time></trkpt><trkpt lat="44.3538133" lon="10.7848317"><ele>557.0</ele><time>2026-05-03T15:46:18.753Z</time></trkpt><trkpt lat="44.3538917" lon="10.78476"><ele>560.0</ele><time>2026-05-03T15:46:19.753Z</time></trkpt><trkpt lat="44.3539683" lon="10.7846733"><ele>563.0</ele><time>2026-05-03T15:46:20.753Z</time></trkpt><trkpt lat="44.354055" lon="10.7845667"><ele>566.0</ele><time>2026-05-03T15:46:21.753Z</time></trkpt><trkpt lat="44.35413" lon="10.7844733"><ele>569.0</ele><time>2026-05-03T15:46:22.753Z</time></trkpt><trkpt lat="44.3542083" lon="10.78437"><ele>572.0</ele><time>2026-05-03T15:46:23.753Z</time></trkpt><trkpt lat="44.3542817" lon="10.78427"><ele>572.0</ele><time>2026-05-03T15:46:24.753Z</time></trkpt><trkpt lat="44.35434" lon="10.784165"><ele>572.0</ele><time>2026-05-03T15:46:25.753Z</time></trkpt><trkpt lat="44.3543883" lon="10.7840683"><ele>572.0</ele><time>2026-05-03T15:46:26.753Z</time></trkpt><trkpt lat="44.3544333" lon="10.78399"><ele>572.0</ele><time>2026-05-03T15:46:27.752Z</time></trkpt><trkpt lat="44.3545217" lon="10.7839467"><ele>572.0</ele><time>2026-05-03T15:46:29.753Z</time></trkpt><trkpt lat="44.3546183" lon="10.7840383"><ele>572.0</ele><time>2026-05-03T15:46:31.753Z</time></trkpt><trkpt lat="44.3546883" lon="10.7841183"><ele>572.0</ele><time>2026-05-03T15:46:32.753Z</time></trkpt><trkpt lat="44.35476" lon="10.784175"><ele>572.0</ele><time>2026-05-03T15:46:33.753Z</time></trkpt><trkpt lat="44.35482" lon="10.7842533"><ele>572.0</ele><time>2026-05-03T15:46:34.753Z</time></trkpt><trkpt lat="44.3548733" lon="10.7843433"><ele>572.0</ele><time>2026-05-03T15:46:35.752Z</time></trkpt><trkpt lat="44.35491" lon="10.7844417"><ele>572.0</ele><time>2026-05-03T15:46:36.753Z</time></trkpt><trkpt lat="44.3549567" lon="10.78453"><ele>577.0</ele><time>2026-05-03T15:46:37.753Z</time></trkpt><trkpt lat="44.3550167" lon="10.7846017"><ele>582.0</ele><time>2026-05-03T15:46:38.753Z</time></trkpt><trkpt lat="44.35509" lon="10.7846717"><ele>587.0</ele><time>2026-05-03T15:46:39.752Z</time></trkpt><trkpt lat="44.355165" lon="10.7847567"><ele>592.0</ele><time>2026-05-03T15:46:40.753Z</time></trkpt><trkpt lat="44.3552367" lon="10.784835"><ele>597.0</ele><time>2026-05-03T15:46:41.753Z</time></trkpt><trkpt lat="44.3552967" lon="10.784895"><ele>602.0</ele><time>2026-05-03T15:46:42.752Z</time></trkpt><trkpt lat="44.3553433" lon="10.78496"><ele>602.0</ele><time>2026-05-03T15:46:43.753Z</time></trkpt><trkpt lat="44.3553867" lon="10.7850367"><ele>602.0</ele><time>2026-05-03T15:46:44.753Z</time></trkpt><trkpt lat="44.35544" lon="10.7851167"><ele>602.0</ele><time>2026-05-03T15:46:45.752Z</time></trkpt><trkpt lat="44.3555" lon="10.785205"><ele>602.0</ele><time>2026-05-03T15:46:46.752Z</time></trkpt><trkpt lat="44.3555517" lon="10.7852983"><ele>602.0</ele><time>2026-05-03T15:46:47.752Z</time></trkpt><trkpt lat="44.3556033" lon="10.785395"><ele>602.0</ele><time>2026-05-03T15:46:48.753Z</time></trkpt><trkpt lat="44.3556517" lon="10.785495"><ele>602.0</ele><time>2026-05-03T15:46:49.753Z</time></trkpt><trkpt lat="44.3557" lon="10.7855917"><ele>602.0</ele><time>2026-05-03T15:46:50.753Z</time></trkpt><trkpt lat="44.3557233" lon="10.78569"><ele>602.0</ele><time>2026-05-03T15:46:51.753Z</time></trkpt><trkpt lat="44.3557333" lon="10.785795"><ele>602.0</ele><time>2026-05-03T15:46:52.752Z</time></trkpt><trkpt lat="44.3557283" lon="10.7858883"><ele>602.0</ele><time>2026-05-03T15:46:53.753Z</time></trkpt><trkpt lat="44.3556733" lon="10.785985"><ele>602.0</ele><time>2026-05-03T15:46:55.753Z</time></trkpt><trkpt lat="44.3556083" lon="10.7859983"><ele>603.3333333333333</ele><time>2026-05-03T15:46:57.753Z</time></trkpt><trkpt lat="44.3555217" lon="10.7859933"><ele>604.6666666666666</ele><time>2026-05-03T15:47:00.753Z</time></trkpt><trkpt lat="44.3554133" lon="10.7859717"><ele>606.0</ele><time>2026-05-03T15:47:02.753Z</time></trkpt><trkpt lat="44.3553467" lon="10.7859617"><ele>607.3333333333334</ele><time>2026-05-03T15:47:03.752Z</time></trkpt><trkpt lat="44.35528" lon="10.785955"><ele>608.6666666666667</ele><time>2026-05-03T15:47:04.753Z</time></trkpt><trkpt lat="44.3552117" lon="10.78595"><ele>610.0</ele><time>2026-05-03T15:47:05.753Z</time></trkpt><trkpt lat="44.355135" lon="10.7859433"><ele>610.0</ele><time>2026-05-03T15:47:06.752Z</time></trkpt><trkpt lat="44.35506" lon="10.785925"><ele>610.0</ele><time>2026-05-03T15:47:07.752Z</time></trkpt><trkpt lat="44.3549933" lon="10.7859217"><ele>610.0</ele><time>2026-05-03T15:47:08.753Z</time></trkpt><trkpt lat="44.354925" lon="10.785975"><ele>610.0</ele><time>2026-05-03T15:47:10.752Z</time></trkpt><trkpt lat="44.3549483" lon="10.78612"><ele>610.0</ele><time>2026-05-03T15:47:12.753Z</time></trkpt><trkpt lat="44.3549883" lon="10.7862017"><ele>610.0</ele><time>2026-05-03T15:47:13.753Z</time></trkpt><trkpt lat="44.3550283" lon="10.7863"><ele>611.0</ele><time>2026-05-03T15:47:14.752Z</time></trkpt><trkpt lat="44.3550717" lon="10.7864017"><ele>612.0</ele><time>2026-05-03T15:47:15.753Z</time></trkpt><trkpt lat="44.355115" lon="10.78651"><ele>613.0</ele><time>2026-05-03T15:47:16.753Z</time></trkpt><trkpt lat="44.3551583" lon="10.7866183"><ele>614.0</ele><time>2026-05-03T15:47:17.753Z</time></trkpt><trkpt lat="44.3552067" lon="10.7867167"><ele>615.0</ele><time>2026-05-03T15:47:18.752Z</time></trkpt><trkpt lat="44.355245" lon="10.786825"><ele>616.0</ele><time>2026-05-03T15:47:19.753Z</time></trkpt><trkpt lat="44.35529" lon="10.7869283"><ele>617.3333333333334</ele><time>2026-05-03T15:47:20.753Z</time></trkpt><trkpt lat="44.3553367" lon="10.787025"><ele>618.6666666666667</ele><time>2026-05-03T15:47:21.753Z</time></trkpt><trkpt lat="44.3553967" lon="10.7871167"><ele>620.0</ele><time>2026-05-03T15:47:22.752Z</time></trkpt><trkpt lat="44.3554617" lon="10.787195"><ele>621.3333333333334</ele><time>2026-05-03T15:47:23.752Z</time></trkpt><trkpt lat="44.3555267" lon="10.78727"><ele>622.6666666666666</ele><time>2026-05-03T15:47:24.752Z</time></trkpt><trkpt lat="44.3555833" lon="10.7873433"><ele>624.0</ele><time>2026-05-03T15:47:25.752Z</time></trkpt><trkpt lat="44.3556383" lon="10.78742"><ele>626.0</ele><time>2026-05-03T15:47:26.753Z</time></trkpt><trkpt lat="44.3556833" lon="10.7874917"><ele>628.0</ele><time>2026-05-03T15:47:27.753Z</time></trkpt><trkpt lat="44.3557533" lon="10.78762"><ele>630.0</ele><time>2026-05-03T15:47:30.753Z</time></trkpt><trkpt lat="44.3558133" lon="10.787735"><ele>632.0</ele><time>2026-05-03T15:47:54.753Z</time></trkpt><trkpt lat="44.3558817" lon="10.78785"><ele>634.0</ele><time>2026-05-03T15:47:56.752Z</time></trkpt><trkpt lat="44.3559433" lon="10.7879933"><ele>636.4</ele><time>2026-05-03T15:47:58.753Z</time></trkpt><trkpt lat="44.3559717" lon="10.7881617"><ele>638.8</ele><time>2026-05-03T15:48:00.753Z</time></trkpt><trkpt lat="44.355985" lon="10.7883067"><ele>641.1999999999999</ele><time>2026-05-03T15:48:02.753Z</time></trkpt><trkpt lat="44.356025" lon="10.78843"><ele>643.5999999999999</ele><time>2026-05-03T15:48:04.753Z</time></trkpt><trkpt lat="44.35609" lon="10.7885367"><ele>646.0</ele><time>2026-05-03T15:48:06.753Z</time></trkpt><trkpt lat="44.35617" lon="10.7886433"><ele>646.5999999999999</ele><time>2026-05-03T15:48:08.753Z</time></trkpt><trkpt lat="44.3562717" lon="10.7887117"><ele>647.2</ele><time>2026-05-03T15:48:10.753Z</time></trkpt><trkpt lat="44.3563933" lon="10.78876"><ele>647.8</ele><time>2026-05-03T15:48:12.753Z</time></trkpt><trkpt lat="44.3565017" lon="10.7888517"><ele>648.4000000000001</ele><time>2026-05-03T15:48:14.753Z</time></trkpt><trkpt lat="44.3565633" lon="10.788905"><ele>649.0</ele><time>2026-05-03T15:48:15.753Z</time></trkpt><trkpt lat="44.356625" lon="10.7889683"><ele>651.1666666666667</ele><time>2026-05-03T15:48:16.752Z</time></trkpt><trkpt lat="44.35668" lon="10.7890483"><ele>653.3333333333334</ele><time>2026-05-03T15:48:17.752Z</time></trkpt><trkpt lat="44.3567333" lon="10.78914"><ele>655.5</ele><time>2026-05-03T15:48:18.753Z</time></trkpt><trkpt lat="44.35678" lon="10.789235"><ele>657.6666666666666</ele><time>2026-05-03T15:48:19.752Z</time></trkpt><trkpt lat="44.3568283" lon="10.789335"><ele>659.8333333333333</ele><time>2026-05-03T15:48:20.753Z</time></trkpt><trkpt lat="44.3568817" lon="10.7894467"><ele>662.0</ele><time>2026-05-03T15:48:21.753Z</time></trkpt><trkpt lat="44.3569383" lon="10.7895683"><ele>663.6</ele><time>2026-05-03T15:48:22.753Z</time></trkpt><trkpt lat="44.356995" lon="10.7896933"><ele>665.2</ele><time>2026-05-03T15:48:23.753Z</time></trkpt><trkpt lat="44.35705" lon="10.7898217"><ele>666.8</ele><time>2026-05-03T15:48:24.752Z</time></trkpt><trkpt lat="44.3571117" lon="10.7899483"><ele>668.4</ele><time>2026-05-03T15:48:25.752Z</time></trkpt><trkpt lat="44.357175" lon="10.7900617"><ele>670.0</ele><time>2026-05-03T15:48:26.753Z</time></trkpt><trkpt lat="44.35724" lon="10.7901717"><ele>674.8</ele><time>2026-05-03T15:48:27.753Z</time></trkpt><trkpt lat="44.357315" lon="10.7902717"><ele>679.6</ele><time>2026-05-03T15:48:28.753Z</time></trkpt><trkpt lat="44.3573967" lon="10.7903683"><ele>684.4000000000001</ele><time>2026-05-03T15:48:29.753Z</time></trkpt><trkpt lat="44.3574867" lon="10.790455"><ele>689.2</ele><time>2026-05-03T15:48:30.753Z</time></trkpt><trkpt lat="44.35758" lon="10.7905283"><ele>694.0</ele><time>2026-05-03T15:48:31.752Z</time></trkpt><trkpt lat="44.3576717" lon="10.7906033"><ele>694.0</ele><time>2026-05-03T15:48:32.753Z</time></trkpt><trkpt lat="44.3577617" lon="10.790685"><ele>694.0</ele><time>2026-05-03T15:48:33.753Z</time></trkpt><trkpt lat="44.3578483" lon="10.7907667"><ele>694.0</ele><time>2026-05-03T15:48:34.753Z</time></trkpt><trkpt lat="44.357935" lon="10.79082"><ele>694.0</ele><time>2026-05-03T15:48:35.753Z</time></trkpt><trkpt lat="44.3580283" lon="10.7908683"><ele>694.0</ele><time>2026-05-03T15:48:36.753Z</time></trkpt><trkpt lat="44.3581317" lon="10.7909367"><ele>699.25</ele><time>2026-05-03T15:48:37.752Z</time></trkpt><trkpt lat="44.3582333" lon="10.7910183"><ele>704.5</ele><time>2026-05-03T15:48:38.753Z</time></trkpt><trkpt lat="44.3583383" lon="10.7911183"><ele>709.75</ele><time>2026-05-03T15:48:39.753Z</time></trkpt><trkpt lat="44.35843" lon="10.79122"><ele>715.0</ele><time>2026-05-03T15:48:40.752Z</time></trkpt><trkpt lat="44.3585167" lon="10.7913083"><ele>715.0</ele><time>2026-05-03T15:48:41.753Z</time></trkpt><trkpt lat="44.358605" lon="10.79138"><ele>715.0</ele><time>2026-05-03T15:48:42.753Z</time></trkpt><trkpt lat="44.3587117" lon="10.7913983"><ele>715.0</ele><time>2026-05-03T15:48:43.752Z</time></trkpt><trkpt lat="44.35882" lon="10.7914"><ele>715.0</ele><time>2026-05-03T15:48:44.753Z</time></trkpt><trkpt lat="44.3589283" lon="10.7914017"><ele>715.0</ele><time>2026-05-03T15:48:45.753Z</time></trkpt><trkpt lat="44.3590367" lon="10.79144"><ele>717.25</ele><time>2026-05-03T15:48:46.753Z</time></trkpt><trkpt lat="44.3591433" lon="10.7915067"><ele>719.5</ele><time>2026-05-03T15:48:47.753Z</time></trkpt><trkpt lat="44.3592467" lon="10.7915883"><ele>721.75</ele><time>2026-05-03T15:48:48.753Z</time></trkpt><trkpt lat="44.35935" lon="10.7916933"><ele>724.0</ele><time>2026-05-03T15:48:49.753Z</time></trkpt><trkpt lat="44.35944" lon="10.7918117"><ele>725.25</ele><time>2026-05-03T15:48:50.753Z</time></trkpt><trkpt lat="44.3595383" lon="10.791935"><ele>726.5</ele><time>2026-05-03T15:48:51.752Z</time></trkpt><trkpt lat="44.359625" lon="10.7920633"><ele>727.75</ele><time>2026-05-03T15:48:52.752Z</time></trkpt><trkpt lat="44.3597117" lon="10.792185"><ele>729.0</ele><time>2026-05-03T15:48:53.753Z</time></trkpt><trkpt lat="44.3597833" lon="10.792285"><ele>730.6666666666666</ele><time>2026-05-03T15:48:54.753Z</time></trkpt><trkpt lat="44.3598367" lon="10.7923883"><ele>732.3333333333334</ele><time>2026-05-03T15:48:55.752Z</time></trkpt><trkpt lat="44.35987" lon="10.7924917"><ele>734.0</ele><time>2026-05-03T15:48:56.752Z</time></trkpt><trkpt lat="44.35989" lon="10.792605"><ele>735.6666666666667</ele><time>2026-05-03T15:48:57.752Z</time></trkpt><trkpt lat="44.3599083" lon="10.792715"><ele>737.3333333333334</ele><time>2026-05-03T15:48:58.753Z</time></trkpt><trkpt lat="44.35993" lon="10.79282"><ele>739.0</ele><time>2026-05-03T15:48:59.753Z</time></trkpt><trkpt lat="44.3599817" lon="10.792905"><ele>739.8000000000001</ele><time>2026-05-03T15:49:00.752Z</time></trkpt><trkpt lat="44.360065" lon="10.7929833"><ele>740.6</ele><time>2026-05-03T15:49:01.753Z</time></trkpt><trkpt lat="44.36016" lon="10.793045"><ele>741.4</ele><time>2026-05-03T15:49:02.753Z</time></trkpt><trkpt lat="44.3602483" lon="10.793105"><ele>742.2</ele><time>2026-05-03T15:49:03.753Z</time></trkpt><trkpt lat="44.36035" lon="10.7931583"><ele>743.0</ele><time>2026-05-03T15:49:04.753Z</time></trkpt><trkpt lat="44.3604517" lon="10.7932183"><ele>744.5</ele><time>2026-05-03T15:49:05.752Z</time></trkpt><trkpt lat="44.3605617" lon="10.7932717"><ele>746.0</ele><time>2026-05-03T15:49:06.753Z</time></trkpt><trkpt lat="44.3606767" lon="10.793325"><ele>747.5</ele><time>2026-05-03T15:49:07.753Z</time></trkpt><trkpt lat="44.3608" lon="10.79338"><ele>749.0</ele><time>2026-05-03T15:49:08.753Z</time></trkpt><trkpt lat="44.360915" lon="10.79344"><ele>749.3333333333333</ele><time>2026-05-03T15:49:09.753Z</time></trkpt><trkpt lat="44.3610083" lon="10.7935067"><ele>749.6666666666666</ele><time>2026-05-03T15:49:10.752Z</time></trkpt><trkpt lat="44.3610967" lon="10.7935783"><ele>750.0</ele><time>2026-05-03T15:49:11.753Z</time></trkpt><trkpt lat="44.3611633" lon="10.7936583"><ele>750.3333333333334</ele><time>2026-05-03T15:49:12.752Z</time></trkpt><trkpt lat="44.3612183" lon="10.7937267"><ele>750.6666666666667</ele><time>2026-05-03T15:49:13.753Z</time></trkpt><trkpt lat="44.3612667" lon="10.79379"><ele>751.0</ele><time>2026-05-03T15:49:14.753Z</time></trkpt><trkpt lat="44.3613133" lon="10.7938683"><ele>751.0</ele><time>2026-05-03T15:49:15.752Z</time></trkpt><trkpt lat="44.3613517" lon="10.7939667"><ele>751.0</ele><time>2026-05-03T15:49:16.753Z</time></trkpt><trkpt lat="44.3613983" lon="10.794075"><ele>751.0</ele><time>2026-05-03T15:49:17.753Z</time></trkpt><trkpt lat="44.3614583" lon="10.7941983"><ele>751.0</ele><time>2026-05-03T15:49:18.753Z</time></trkpt><trkpt lat="44.36152" lon="10.794335"><ele>751.0</ele><time>2026-05-03T15:49:19.753Z</time></trkpt><trkpt lat="44.3615983" lon="10.79447"><ele>750.25</ele><time>2026-05-03T15:49:20.752Z</time></trkpt><trkpt lat="44.3616733" lon="10.7946067"><ele>749.5</ele><time>2026-05-03T15:49:21.753Z</time></trkpt><trkpt lat="44.361755" lon="10.7947533"><ele>748.75</ele><time>2026-05-03T15:49:22.753Z</time></trkpt><trkpt lat="44.36183" lon="10.7948967"><ele>748.0</ele><time>2026-05-03T15:49:23.753Z</time></trkpt><trkpt lat="44.3618983" lon="10.7950467"><ele>748.0</ele><time>2026-05-03T15:49:24.753Z</time></trkpt><trkpt lat="44.3619667" lon="10.79521"><ele>748.0</ele><time>2026-05-03T15:49:25.752Z</time></trkpt><trkpt lat="44.3620117" lon="10.795385"><ele>748.0</ele><time>2026-05-03T15:49:26.753Z</time></trkpt><trkpt lat="44.36206" lon="10.7955483"><ele>748.0</ele><time>2026-05-03T15:49:27.753Z</time></trkpt><trkpt lat="44.3621" lon="10.7957183"><ele>748.0</ele><time>2026-05-03T15:49:28.753Z</time></trkpt><trkpt lat="44.362145" lon="10.79589"><ele>748.0</ele><time>2026-05-03T15:49:29.753Z</time></trkpt><trkpt lat="44.3621883" lon="10.7960683"><ele>748.0</ele><time>2026-05-03T15:49:30.753Z</time></trkpt><trkpt lat="44.36224" lon="10.79624"><ele>748.0</ele><time>2026-05-03T15:49:31.753Z</time></trkpt><trkpt lat="44.36229" lon="10.796415"><ele>749.25</ele><time>2026-05-03T15:49:32.753Z</time></trkpt><trkpt lat="44.3623367" lon="10.7965867"><ele>750.5</ele><time>2026-05-03T15:49:33.753Z</time></trkpt><trkpt lat="44.3623883" lon="10.7967567"><ele>751.75</ele><time>2026-05-03T15:49:34.753Z</time></trkpt><trkpt lat="44.3624383" lon="10.7969217"><ele>753.0</ele><time>2026-05-03T15:49:35.753Z</time></trkpt><trkpt lat="44.3624783" lon="10.7970817"><ele>753.0</ele><time>2026-05-03T15:49:36.753Z</time></trkpt><trkpt lat="44.3625383" lon="10.7972417"><ele>753.0</ele><time>2026-05-03T15:49:37.753Z</time></trkpt><trkpt lat="44.362585" lon="10.797395"><ele>753.0</ele><time>2026-05-03T15:49:38.753Z</time></trkpt><trkpt lat="44.362625" lon="10.7975433"><ele>753.0</ele><time>2026-05-03T15:49:39.752Z</time></trkpt><trkpt lat="44.36266" lon="10.7977033"><ele>752.5</ele><time>2026-05-03T15:49:40.753Z</time></trkpt><trkpt lat="44.3626983" lon="10.7978617"><ele>752.0</ele><time>2026-05-03T15:49:41.753Z</time></trkpt><trkpt lat="44.3627483" lon="10.7980017"><ele>751.5</ele><time>2026-05-03T15:49:42.753Z</time></trkpt><trkpt lat="44.3628133" lon="10.7981383"><ele>751.0</ele><time>2026-05-03T15:49:43.753Z</time></trkpt><trkpt lat="44.3628933" lon="10.7982567"><ele>751.0</ele><time>2026-05-03T15:49:44.753Z</time></trkpt><trkpt lat="44.3629717" lon="10.7983633"><ele>751.0</ele><time>2026-05-03T15:49:45.753Z</time></trkpt><trkpt lat="44.3631433" lon="10.7985067"><ele>751.0</ele><time>2026-05-03T15:49:47.753Z</time></trkpt><trkpt lat="44.3632383" lon="10.79856"><ele>751.0</ele><time>2026-05-03T15:49:48.752Z</time></trkpt><trkpt lat="44.3633283" lon="10.79862"><ele>751.0</ele><time>2026-05-03T15:49:49.753Z</time></trkpt><trkpt lat="44.3634183" lon="10.7986717"><ele>751.0</ele><time>2026-05-03T15:49:50.752Z</time></trkpt><trkpt lat="44.3635" lon="10.7987467"><ele>751.0</ele><time>2026-05-03T15:49:51.752Z</time></trkpt><trkpt lat="44.363565" lon="10.7988283"><ele>751.0</ele><time>2026-05-03T15:49:52.753Z</time></trkpt><trkpt lat="44.3636267" lon="10.7989233"><ele>751.0</ele><time>2026-05-03T15:49:53.752Z</time></trkpt><trkpt lat="44.3637" lon="10.7990033"><ele>751.0</ele><time>2026-05-03T15:49:54.752Z</time></trkpt><trkpt lat="44.3637767" lon="10.7990733"><ele>751.0</ele><time>2026-05-03T15:49:55.752Z</time></trkpt><trkpt lat="44.3638517" lon="10.799155"><ele>751.0</ele><time>2026-05-03T15:49:56.752Z</time></trkpt><trkpt lat="44.3639383" lon="10.7992433"><ele>751.0</ele><time>2026-05-03T15:49:57.752Z</time></trkpt><trkpt lat="44.3640267" lon="10.7993383"><ele>751.0</ele><time>2026-05-03T15:49:58.751Z</time></trkpt><trkpt lat="44.3641283" lon="10.7994333"><ele>749.25</ele><time>2026-05-03T15:49:59.752Z</time></trkpt><trkpt lat="44.3642383" lon="10.7995367"><ele>747.5</ele><time>2026-05-03T15:50:00.752Z</time></trkpt><trkpt lat="44.3643417" lon="10.799655"><ele>745.75</ele><time>2026-05-03T15:50:01.752Z</time></trkpt><trkpt lat="44.36444" lon="10.7997783"><ele>744.0</ele><time>2026-05-03T15:50:02.752Z</time></trkpt><trkpt lat="44.3645483" lon="10.7998967"><ele>744.0</ele><time>2026-05-03T15:50:03.752Z</time></trkpt><trkpt lat="44.36466" lon="10.800025"><ele>744.0</ele><time>2026-05-03T15:50:04.752Z</time></trkpt><trkpt lat="44.3647767" lon="10.8001517"><ele>744.0</ele><time>2026-05-03T15:50:05.751Z</time></trkpt><trkpt lat="44.3648867" lon="10.8002817"><ele>744.0</ele><time>2026-05-03T15:50:06.751Z</time></trkpt><trkpt lat="44.3650017" lon="10.8003967"><ele>742.75</ele><time>2026-05-03T15:50:07.752Z</time></trkpt><trkpt lat="44.3651217" lon="10.80051"><ele>741.5</ele><time>2026-05-03T15:50:08.751Z</time></trkpt><trkpt lat="44.3652433" lon="10.8006217"><ele>740.25</ele><time>2026-05-03T15:50:09.751Z</time></trkpt><trkpt lat="44.36536" lon="10.800735"><ele>739.0</ele><time>2026-05-03T15:50:10.752Z</time></trkpt><trkpt lat="44.3654783" lon="10.8008433"><ele>738.25</ele><time>2026-05-03T15:50:11.751Z</time></trkpt><trkpt lat="44.3655883" lon="10.8009567"><ele>737.5</ele><time>2026-05-03T15:50:12.751Z</time></trkpt><trkpt lat="44.3657167" lon="10.8010567"><ele>736.75</ele><time>2026-05-03T15:50:13.752Z</time></trkpt><trkpt lat="44.3658317" lon="10.801155"><ele>736.0</ele><time>2026-05-03T15:50:14.752Z</time></trkpt><trkpt lat="44.36597" lon="10.8012267"><ele>735.3333333333334</ele><time>2026-05-03T15:50:15.752Z</time></trkpt><trkpt lat="44.36612" lon="10.8012783"><ele>734.6666666666666</ele><time>2026-05-03T15:50:16.752Z</time></trkpt><trkpt lat="44.3662683" lon="10.801335"><ele>734.0</ele><time>2026-05-03T15:50:17.752Z</time></trkpt><trkpt lat="44.3664317" lon="10.80139"><ele>733.6666666666666</ele><time>2026-05-03T15:50:18.752Z</time></trkpt><trkpt lat="44.3665933" lon="10.8014633"><ele>733.3333333333334</ele><time>2026-05-03T15:50:19.752Z</time></trkpt><trkpt lat="44.3667433" lon="10.801565"><ele>733.0</ele><time>2026-05-03T15:50:20.752Z</time></trkpt><trkpt lat="44.36689" lon="10.801675"><ele>733.0</ele><time>2026-05-03T15:50:21.752Z</time></trkpt><trkpt lat="44.3670367" lon="10.8017783"><ele>733.0</ele><time>2026-05-03T15:50:22.752Z</time></trkpt><trkpt lat="44.36719" lon="10.8018733"><ele>733.0</ele><time>2026-05-03T15:50:23.752Z</time></trkpt><trkpt lat="44.3673367" lon="10.8019483"><ele>731.25</ele><time>2026-05-03T15:50:24.752Z</time></trkpt><trkpt lat="44.3674817" lon="10.8020183"><ele>729.5</ele><time>2026-05-03T15:50:25.752Z</time></trkpt><trkpt lat="44.3676233" lon="10.80206"><ele>727.75</ele><time>2026-05-03T15:50:26.752Z</time></trkpt><trkpt lat="44.3677717" lon="10.8020883"><ele>726.0</ele><time>2026-05-03T15:50:27.752Z</time></trkpt><trkpt lat="44.3679333" lon="10.802105"><ele>725.6666666666666</ele><time>2026-05-03T15:50:28.752Z</time></trkpt><trkpt lat="44.3681033" lon="10.8021"><ele>725.3333333333333</ele><time>2026-05-03T15:50:29.751Z</time></trkpt><trkpt lat="44.3682717" lon="10.8021017"><ele>725.0</ele><time>2026-05-03T15:50:30.752Z</time></trkpt><trkpt lat="44.3684367" lon="10.8021033"><ele>725.0</ele><time>2026-05-03T15:50:31.752Z</time></trkpt><trkpt lat="44.3686017" lon="10.8021033"><ele>725.0</ele><time>2026-05-03T15:50:32.752Z</time></trkpt><trkpt lat="44.3687633" lon="10.8021"><ele>725.0</ele><time>2026-05-03T15:50:33.752Z</time></trkpt><trkpt lat="44.368925" lon="10.8021033"><ele>726.3333333333333</ele><time>2026-05-03T15:50:34.752Z</time></trkpt><trkpt lat="44.36908" lon="10.802125"><ele>727.6666666666666</ele><time>2026-05-03T15:50:35.752Z</time></trkpt><trkpt lat="44.3692267" lon="10.80216"><ele>729.0</ele><time>2026-05-03T15:50:36.752Z</time></trkpt><trkpt lat="44.3693767" lon="10.802205"><ele>729.0</ele><time>2026-05-03T15:50:37.752Z</time></trkpt><trkpt lat="44.3695233" lon="10.8022717"><ele>729.0</ele><time>2026-05-03T15:50:38.752Z</time></trkpt><trkpt lat="44.3696717" lon="10.8023333"><ele>729.0</ele><time>2026-05-03T15:50:39.752Z</time></trkpt><trkpt lat="44.3698167" lon="10.8024067"><ele>729.0</ele><time>2026-05-03T15:50:40.751Z</time></trkpt><trkpt lat="44.3699617" lon="10.8024917"><ele>729.0</ele><time>2026-05-03T15:50:41.751Z</time></trkpt><trkpt lat="44.3700983" lon="10.8025883"><ele>729.0</ele><time>2026-05-03T15:50:42.751Z</time></trkpt><trkpt lat="44.3702333" lon="10.80268"><ele>729.0</ele><time>2026-05-03T15:50:43.752Z</time></trkpt><trkpt lat="44.37037" lon="10.802775"><ele>729.0</ele><time>2026-05-03T15:50:44.751Z</time></trkpt><trkpt lat="44.3705117" lon="10.80286"><ele>729.0</ele><time>2026-05-03T15:50:45.752Z</time></trkpt><trkpt lat="44.3706517" lon="10.8029433"><ele>729.0</ele><time>2026-05-03T15:50:46.752Z</time></trkpt><trkpt lat="44.3707967" lon="10.8030233"><ele>729.0</ele><time>2026-05-03T15:50:47.751Z</time></trkpt><trkpt lat="44.3709467" lon="10.8031067"><ele>729.0</ele><time>2026-05-03T15:50:48.751Z</time></trkpt><trkpt lat="44.3710867" lon="10.8031833"><ele>729.0</ele><time>2026-05-03T15:50:49.752Z</time></trkpt><trkpt lat="44.3712417" lon="10.8032683"><ele>729.0</ele><time>2026-05-03T15:50:50.752Z</time></trkpt><trkpt lat="44.3713867" lon="10.8033433"><ele>729.0</ele><time>2026-05-03T15:50:51.752Z</time></trkpt><trkpt lat="44.3715333" lon="10.8034117"><ele>728.3333333333334</ele><time>2026-05-03T15:50:52.752Z</time></trkpt><trkpt lat="44.3716883" lon="10.8034933"><ele>727.6666666666667</ele><time>2026-05-03T15:50:53.752Z</time></trkpt><trkpt lat="44.3718417" lon="10.80358"><ele>727.0</ele><time>2026-05-03T15:50:54.752Z</time></trkpt><trkpt lat="44.372005" lon="10.8036533"><ele>727.0</ele><time>2026-05-03T15:50:55.752Z</time></trkpt><trkpt lat="44.37216" lon="10.80372"><ele>727.0</ele><time>2026-05-03T15:50:56.751Z</time></trkpt><trkpt lat="44.3723117" lon="10.8037667"><ele>727.0</ele><time>2026-05-03T15:50:57.752Z</time></trkpt><trkpt lat="44.37247" lon="10.803815"><ele>728.0</ele><time>2026-05-03T15:50:58.751Z</time></trkpt><trkpt lat="44.372635" lon="10.8038667"><ele>729.0</ele><time>2026-05-03T15:50:59.751Z</time></trkpt><trkpt lat="44.3728" lon="10.8039033"><ele>730.0</ele><time>2026-05-03T15:51:00.751Z</time></trkpt><trkpt lat="44.372935" lon="10.80394"><ele>730.75</ele><time>2026-05-03T15:51:01.751Z</time></trkpt><trkpt lat="44.3730667" lon="10.8039717"><ele>731.5</ele><time>2026-05-03T15:51:02.751Z</time></trkpt><trkpt lat="44.3731917" lon="10.804"><ele>732.25</ele><time>2026-05-03T15:51:03.752Z</time></trkpt><trkpt lat="44.373295" lon="10.8040333"><ele>733.0</ele><time>2026-05-03T15:51:04.752Z</time></trkpt><trkpt lat="44.373395" lon="10.8040517"><ele>733.0</ele><time>2026-05-03T15:51:05.752Z</time></trkpt><trkpt lat="44.3734867" lon="10.8040567"><ele>733.0</ele><time>2026-05-03T15:51:06.751Z</time></trkpt><trkpt lat="44.3735617" lon="10.8040633"><ele>733.0</ele><time>2026-05-03T15:51:07.752Z</time></trkpt><trkpt lat="44.3736333" lon="10.8040983"><ele>733.0</ele><time>2026-05-03T15:51:08.751Z</time></trkpt><trkpt lat="44.3736917" lon="10.80416"><ele>733.0</ele><time>2026-05-03T15:51:09.752Z</time></trkpt><trkpt lat="44.373755" lon="10.8042383"><ele>733.0</ele><time>2026-05-03T15:51:10.752Z</time></trkpt><trkpt lat="44.3738317" lon="10.8043117"><ele>732.5</ele><time>2026-05-03T15:51:11.752Z</time></trkpt><trkpt lat="44.37393" lon="10.8043617"><ele>732.0</ele><time>2026-05-03T15:51:12.752Z</time></trkpt><trkpt lat="44.374035" lon="10.8043883"><ele>731.5</ele><time>2026-05-03T15:51:13.751Z</time></trkpt><trkpt lat="44.3741567" lon="10.8043933"><ele>731.0</ele><time>2026-05-03T15:51:14.751Z</time></trkpt><trkpt lat="44.3742883" lon="10.8043683"><ele>733.25</ele><time>2026-05-03T15:51:15.752Z</time></trkpt><trkpt lat="44.3744167" lon="10.80431"><ele>735.5</ele><time>2026-05-03T15:51:16.752Z</time></trkpt><trkpt lat="44.37454" lon="10.8042433"><ele>737.75</ele><time>2026-05-03T15:51:17.752Z</time></trkpt><trkpt lat="44.374665" lon="10.8041883"><ele>740.0</ele><time>2026-05-03T15:51:18.751Z</time></trkpt><trkpt lat="44.374785" lon="10.8041783"><ele>740.0</ele><time>2026-05-03T15:51:19.752Z</time></trkpt><trkpt lat="44.37489" lon="10.8042117"><ele>740.0</ele><time>2026-05-03T15:51:20.752Z</time></trkpt><trkpt lat="44.374995" lon="10.8042783"><ele>740.0</ele><time>2026-05-03T15:51:21.752Z</time></trkpt><trkpt lat="44.3750967" lon="10.8043533"><ele>740.0</ele><time>2026-05-03T15:51:22.751Z</time></trkpt><trkpt lat="44.3751983" lon="10.80445"><ele>740.0</ele><time>2026-05-03T15:51:23.751Z</time></trkpt><trkpt lat="44.3752933" lon="10.8045617"><ele>740.0</ele><time>2026-05-03T15:51:24.752Z</time></trkpt><trkpt lat="44.3753783" lon="10.8046933"><ele>740.0</ele><time>2026-05-03T15:51:25.751Z</time></trkpt><trkpt lat="44.3754417" lon="10.804855"><ele>740.0</ele><time>2026-05-03T15:51:26.752Z</time></trkpt><trkpt lat="44.3755067" lon="10.8050167"><ele>740.75</ele><time>2026-05-03T15:51:27.752Z</time></trkpt><trkpt lat="44.37557" lon="10.8051817"><ele>741.5</ele><time>2026-05-03T15:51:28.752Z</time></trkpt><trkpt lat="44.37563" lon="10.8053583"><ele>742.25</ele><time>2026-05-03T15:51:29.752Z</time></trkpt><trkpt lat="44.3756733" lon="10.80553"><ele>743.0</ele><time>2026-05-03T15:51:30.752Z</time></trkpt><trkpt lat="44.3757033" lon="10.8056933"><ele>743.0</ele><time>2026-05-03T15:51:31.752Z</time></trkpt><trkpt lat="44.3757067" lon="10.8058633"><ele>743.0</ele><time>2026-05-03T15:51:32.751Z</time></trkpt><trkpt lat="44.3756867" lon="10.806035"><ele>743.0</ele><time>2026-05-03T15:51:33.751Z</time></trkpt><trkpt lat="44.3756583" lon="10.8062167"><ele>743.0</ele><time>2026-05-03T15:51:34.752Z</time></trkpt><trkpt lat="44.37562" lon="10.806415"><ele>742.5</ele><time>2026-05-03T15:51:35.752Z</time></trkpt><trkpt lat="44.3755883" lon="10.8066033"><ele>742.0</ele><time>2026-05-03T15:51:36.752Z</time></trkpt><trkpt lat="44.3755717" lon="10.8067783"><ele>741.5</ele><time>2026-05-03T15:51:37.752Z</time></trkpt><trkpt lat="44.3755783" lon="10.80694"><ele>741.0</ele><time>2026-05-03T15:51:38.751Z</time></trkpt><trkpt lat="44.3756117" lon="10.8070983"><ele>741.0</ele><time>2026-05-03T15:51:39.752Z</time></trkpt><trkpt lat="44.3756567" lon="10.8072383"><ele>741.0</ele><time>2026-05-03T15:51:40.751Z</time></trkpt><trkpt lat="44.3757383" lon="10.8073817"><ele>741.0</ele><time>2026-05-03T15:51:41.752Z</time></trkpt><trkpt lat="44.3758367" lon="10.8075233"><ele>741.0</ele><time>2026-05-03T15:51:42.752Z</time></trkpt><trkpt lat="44.3759367" lon="10.8076617"><ele>739.25</ele><time>2026-05-03T15:51:43.751Z</time></trkpt><trkpt lat="44.37604" lon="10.8078117"><ele>737.5</ele><time>2026-05-03T15:51:44.752Z</time></trkpt><trkpt lat="44.3761333" lon="10.8079667"><ele>735.75</ele><time>2026-05-03T15:51:45.752Z</time></trkpt><trkpt lat="44.3762167" lon="10.808125"><ele>734.0</ele><time>2026-05-03T15:51:46.751Z</time></trkpt><trkpt lat="44.3763" lon="10.80829"><ele>734.75</ele><time>2026-05-03T15:51:47.752Z</time></trkpt><trkpt lat="44.3763933" lon="10.808445"><ele>735.5</ele><time>2026-05-03T15:51:48.752Z</time></trkpt><trkpt lat="44.3764967" lon="10.8085983"><ele>736.25</ele><time>2026-05-03T15:51:49.752Z</time></trkpt><trkpt lat="44.37659" lon="10.80874"><ele>737.0</ele><time>2026-05-03T15:51:50.751Z</time></trkpt><trkpt lat="44.3766967" lon="10.8088717"><ele>737.0</ele><time>2026-05-03T15:51:51.752Z</time></trkpt><trkpt lat="44.3768117" lon="10.8089933"><ele>737.0</ele><time>2026-05-03T15:51:52.752Z</time></trkpt><trkpt lat="44.37693" lon="10.8091067"><ele>737.0</ele><time>2026-05-03T15:51:53.752Z</time></trkpt><trkpt lat="44.3770433" lon="10.8092067"><ele>737.0</ele><time>2026-05-03T15:51:54.752Z</time></trkpt><trkpt lat="44.3771733" lon="10.8092983"><ele>735.75</ele><time>2026-05-03T15:51:55.751Z</time></trkpt><trkpt lat="44.3773067" lon="10.8093717"><ele>734.5</ele><time>2026-05-03T15:51:56.752Z</time></trkpt><trkpt lat="44.3774417" lon="10.8094383"><ele>733.25</ele><time>2026-05-03T15:51:57.751Z</time></trkpt><trkpt lat="44.3775783" lon="10.809515"><ele>732.0</ele><time>2026-05-03T15:51:58.751Z</time></trkpt><trkpt lat="44.3777133" lon="10.8095917"><ele>732.0</ele><time>2026-05-03T15:51:59.752Z</time></trkpt><trkpt lat="44.3778367" lon="10.8096717"><ele>732.0</ele><time>2026-05-03T15:52:00.752Z</time></trkpt><trkpt lat="44.377965" lon="10.8097683"><ele>732.0</ele><time>2026-05-03T15:52:01.752Z</time></trkpt><trkpt lat="44.3780717" lon="10.80989"><ele>732.0</ele><time>2026-05-03T15:52:02.752Z</time></trkpt><trkpt lat="44.378175" lon="10.81002"><ele>731.0</ele><time>2026-05-03T15:52:03.751Z</time></trkpt><trkpt lat="44.3782583" lon="10.8101483"><ele>730.0</ele><time>2026-05-03T15:52:04.752Z</time></trkpt><trkpt lat="44.378345" lon="10.810265"><ele>729.0</ele><time>2026-05-03T15:52:05.752Z</time></trkpt><trkpt lat="44.3784267" lon="10.810385"><ele>728.0</ele><time>2026-05-03T15:52:06.752Z</time></trkpt><trkpt lat="44.3785133" lon="10.8104833"><ele>727.8</ele><time>2026-05-03T15:52:07.752Z</time></trkpt><trkpt lat="44.3786033" lon="10.81057"><ele>727.5999999999999</ele><time>2026-05-03T15:52:08.751Z</time></trkpt><trkpt lat="44.37869" lon="10.8106433"><ele>727.4000000000001</ele><time>2026-05-03T15:52:09.751Z</time></trkpt><trkpt lat="44.3787733" lon="10.8106967"><ele>727.2</ele><time>2026-05-03T15:52:10.751Z</time></trkpt><trkpt lat="44.3788617" lon="10.8107283"><ele>727.0</ele><time>2026-05-03T15:52:11.751Z</time></trkpt><trkpt lat="44.3789483" lon="10.81075"><ele>727.0</ele><time>2026-05-03T15:52:12.752Z</time></trkpt><trkpt lat="44.3790433" lon="10.8107583"><ele>727.0</ele><time>2026-05-03T15:52:13.752Z</time></trkpt><trkpt lat="44.3791333" lon="10.8107867"><ele>727.0</ele><time>2026-05-03T15:52:14.752Z</time></trkpt><trkpt lat="44.3792183" lon="10.8108233"><ele>727.0</ele><time>2026-05-03T15:52:15.752Z</time></trkpt><trkpt lat="44.3793033" lon="10.81086"><ele>727.0</ele><time>2026-05-03T15:52:16.751Z</time></trkpt><trkpt lat="44.3793917" lon="10.8108983"><ele>727.0</ele><time>2026-05-03T15:52:17.752Z</time></trkpt><trkpt lat="44.379465" lon="10.8109383"><ele>727.0</ele><time>2026-05-03T15:52:18.752Z</time></trkpt><trkpt lat="44.379535" lon="10.8109617"><ele>727.0</ele><time>2026-05-03T15:52:19.752Z</time></trkpt><trkpt lat="44.3796067" lon="10.8109783"><ele>727.0</ele><time>2026-05-03T15:52:20.752Z</time></trkpt><trkpt lat="44.3796817" lon="10.811005"><ele>727.0</ele><time>2026-05-03T15:52:21.751Z</time></trkpt><trkpt lat="44.3797617" lon="10.8110333"><ele>727.0</ele><time>2026-05-03T15:52:22.752Z</time></trkpt><trkpt lat="44.3798467" lon="10.8110617"><ele>726.4000000000001</ele><time>2026-05-03T15:52:23.752Z</time></trkpt><trkpt lat="44.3799433" lon="10.8110833"><ele>725.8000000000001</ele><time>2026-05-03T15:52:24.751Z</time></trkpt><trkpt lat="44.3800333" lon="10.8111133"><ele>725.2</ele><time>2026-05-03T15:52:25.752Z</time></trkpt><trkpt lat="44.3801333" lon="10.811135"><ele>724.6</ele><time>2026-05-03T15:52:26.752Z</time></trkpt><trkpt lat="44.380235" lon="10.811155"><ele>724.0</ele><time>2026-05-03T15:52:27.752Z</time></trkpt><trkpt lat="44.3803333" lon="10.811175"><ele>724.0</ele><time>2026-05-03T15:52:28.752Z</time></trkpt><trkpt lat="44.3804267" lon="10.8111783"><ele>724.0</ele><time>2026-05-03T15:52:29.752Z</time></trkpt><trkpt lat="44.38053" lon="10.8111833"><ele>724.0</ele><time>2026-05-03T15:52:30.751Z</time></trkpt><trkpt lat="44.3806433" lon="10.8111883"><ele>724.0</ele><time>2026-05-03T15:52:31.752Z</time></trkpt><trkpt lat="44.380765" lon="10.8111833"><ele>724.0</ele><time>2026-05-03T15:52:32.752Z</time></trkpt><trkpt lat="44.3808783" lon="10.81118"><ele>725.4000000000001</ele><time>2026-05-03T15:52:33.751Z</time></trkpt><trkpt lat="44.38099" lon="10.8111817"><ele>726.8</ele><time>2026-05-03T15:52:34.752Z</time></trkpt><trkpt lat="44.3810883" lon="10.8111917"><ele>728.2</ele><time>2026-05-03T15:52:35.752Z</time></trkpt><trkpt lat="44.3811867" lon="10.8112167"><ele>729.5999999999999</ele><time>2026-05-03T15:52:36.752Z</time></trkpt><trkpt lat="44.3812967" lon="10.8112633"><ele>731.0</ele><time>2026-05-03T15:52:37.752Z</time></trkpt><trkpt lat="44.381405" lon="10.8113317"><ele>732.75</ele><time>2026-05-03T15:52:38.752Z</time></trkpt><trkpt lat="44.3815217" lon="10.8114017"><ele>734.5</ele><time>2026-05-03T15:52:39.752Z</time></trkpt><trkpt lat="44.3816367" lon="10.8114767"><ele>736.25</ele><time>2026-05-03T15:52:40.752Z</time></trkpt><trkpt lat="44.3817467" lon="10.8115467"><ele>738.0</ele><time>2026-05-03T15:52:41.752Z</time></trkpt><trkpt lat="44.3818433" lon="10.8116117"><ele>738.0</ele><time>2026-05-03T15:52:42.752Z</time></trkpt><trkpt lat="44.3819433" lon="10.8116517"><ele>738.0</ele><time>2026-05-03T15:52:43.752Z</time></trkpt><trkpt lat="44.3820383" lon="10.8116583"><ele>738.0</ele><time>2026-05-03T15:52:44.752Z</time></trkpt><trkpt lat="44.38213" lon="10.8116383"><ele>738.0</ele><time>2026-05-03T15:52:45.752Z</time></trkpt><trkpt lat="44.3822217" lon="10.8116033"><ele>738.0</ele><time>2026-05-03T15:52:46.752Z</time></trkpt><trkpt lat="44.38232" lon="10.8115767"><ele>739.8</ele><time>2026-05-03T15:52:47.751Z</time></trkpt><trkpt lat="44.382425" lon="10.811575"><ele>741.5999999999999</ele><time>2026-05-03T15:52:48.752Z</time></trkpt><trkpt lat="44.3825233" lon="10.811595"><ele>743.4000000000001</ele><time>2026-05-03T15:52:49.752Z</time></trkpt><trkpt lat="44.3826067" lon="10.8116267"><ele>745.2</ele><time>2026-05-03T15:52:50.752Z</time></trkpt><trkpt lat="44.3826783" lon="10.8116783"><ele>747.0</ele><time>2026-05-03T15:52:51.752Z</time></trkpt><trkpt lat="44.3827633" lon="10.8117433"><ele>747.0</ele><time>2026-05-03T15:52:52.751Z</time></trkpt><trkpt lat="44.3828483" lon="10.8118083"><ele>747.0</ele><time>2026-05-03T15:52:53.752Z</time></trkpt><trkpt lat="44.3829367" lon="10.81188"><ele>747.0</ele><time>2026-05-03T15:52:54.751Z</time></trkpt><trkpt lat="44.3830333" lon="10.8119617"><ele>747.0</ele><time>2026-05-03T15:52:55.752Z</time></trkpt><trkpt lat="44.3831383" lon="10.8120417"><ele>747.0</ele><time>2026-05-03T15:52:56.752Z</time></trkpt><trkpt lat="44.3832467" lon="10.8121233"><ele>750.4000000000001</ele><time>2026-05-03T15:52:57.752Z</time></trkpt><trkpt lat="44.3833433" lon="10.812215"><ele>753.8000000000001</ele><time>2026-05-03T15:52:58.752Z</time></trkpt><trkpt lat="44.3834133" lon="10.81228"><ele>757.2</ele><time>2026-05-03T15:52:59.752Z</time></trkpt><trkpt lat="44.383475" lon="10.8123483"><ele>760.6</ele><time>2026-05-03T15:53:00.752Z</time></trkpt><trkpt lat="44.383545" lon="10.8124333"><ele>764.0</ele><time>2026-05-03T15:53:01.752Z</time></trkpt><trkpt lat="44.3836233" lon="10.8125267"><ele>764.0</ele><time>2026-05-03T15:53:02.752Z</time></trkpt><trkpt lat="44.3837083" lon="10.8126167"><ele>764.0</ele><time>2026-05-03T15:53:03.752Z</time></trkpt><trkpt lat="44.3838183" lon="10.8127117"><ele>764.0</ele><time>2026-05-03T15:53:04.751Z</time></trkpt><trkpt lat="44.3839183" lon="10.81279"><ele>764.0</ele><time>2026-05-03T15:53:05.751Z</time></trkpt><trkpt lat="44.384" lon="10.8128533"><ele>764.0</ele><time>2026-05-03T15:53:06.752Z</time></trkpt><trkpt lat="44.384095" lon="10.8129067"><ele>763.0</ele><time>2026-05-03T15:53:07.752Z</time></trkpt><trkpt lat="44.384205" lon="10.8129483"><ele>762.0</ele><time>2026-05-03T15:53:08.752Z</time></trkpt><trkpt lat="44.3843067" lon="10.813005"><ele>761.0</ele><time>2026-05-03T15:53:09.752Z</time></trkpt><trkpt lat="44.3844033" lon="10.81306"><ele>760.0</ele><time>2026-05-03T15:53:10.752Z</time></trkpt><trkpt lat="44.3845067" lon="10.8131267"><ele>759.0</ele><time>2026-05-03T15:53:11.751Z</time></trkpt><trkpt lat="44.3846083" lon="10.8132033"><ele>758.2</ele><time>2026-05-03T15:53:12.752Z</time></trkpt><trkpt lat="44.38471" lon="10.81327"><ele>757.4000000000001</ele><time>2026-05-03T15:53:13.752Z</time></trkpt><trkpt lat="44.3848133" lon="10.81334"><ele>756.6</ele><time>2026-05-03T15:53:14.752Z</time></trkpt><trkpt lat="44.384915" lon="10.8134017"><ele>755.8</ele><time>2026-05-03T15:53:15.752Z</time></trkpt><trkpt lat="44.3850133" lon="10.8134683"><ele>755.0</ele><time>2026-05-03T15:53:16.752Z</time></trkpt><trkpt lat="44.3851067" lon="10.81353"><ele>754.6666666666666</ele><time>2026-05-03T15:53:17.752Z</time></trkpt><trkpt lat="44.3851767" lon="10.8135933"><ele>754.3333333333333</ele><time>2026-05-03T15:53:18.751Z</time></trkpt><trkpt lat="44.3852383" lon="10.8136683"><ele>754.0</ele><time>2026-05-03T15:53:19.752Z</time></trkpt><trkpt lat="44.3853033" lon="10.8137667"><ele>753.6666666666666</ele><time>2026-05-03T15:53:20.752Z</time></trkpt><trkpt lat="44.38536" lon="10.8138667"><ele>753.3333333333334</ele><time>2026-05-03T15:53:21.752Z</time></trkpt><trkpt lat="44.3854017" lon="10.8139583"><ele>753.0</ele><time>2026-05-03T15:53:22.752Z</time></trkpt><trkpt lat="44.385465" lon="10.8140767"><ele>753.0</ele><time>2026-05-03T15:53:24.752Z</time></trkpt><trkpt lat="44.385495" lon="10.8141617"><ele>753.0</ele><time>2026-05-03T15:53:26.752Z</time></trkpt><trkpt lat="44.38555" lon="10.8142433"><ele>753.0</ele><time>2026-05-03T15:53:52.752Z</time></trkpt><trkpt lat="44.3856217" lon="10.8144"><ele>753.0</ele><time>2026-05-03T15:53:54.752Z</time></trkpt><trkpt lat="44.3856633" lon="10.8144833"><ele>753.0</ele><time>2026-05-03T15:53:55.752Z</time></trkpt><trkpt lat="44.38571" lon="10.8145633"><ele>753.0</ele><time>2026-05-03T15:53:56.752Z</time></trkpt><trkpt lat="44.3857683" lon="10.8146417"><ele>754.1666666666666</ele><time>2026-05-03T15:53:57.752Z</time></trkpt><trkpt lat="44.3858167" lon="10.8147133"><ele>755.3333333333334</ele><time>2026-05-03T15:53:58.752Z</time></trkpt><trkpt lat="44.3858783" lon="10.8147633"><ele>756.5</ele><time>2026-05-03T15:53:59.751Z</time></trkpt><trkpt lat="44.3859433" lon="10.8147967"><ele>757.6666666666667</ele><time>2026-05-03T15:54:00.752Z</time></trkpt><trkpt lat="44.386065" lon="10.81483"><ele>758.8333333333334</ele><time>2026-05-03T15:54:02.751Z</time></trkpt><trkpt lat="44.3861367" lon="10.8148517"><ele>760.0</ele><time>2026-05-03T15:54:03.752Z</time></trkpt><trkpt lat="44.3862067" lon="10.8148833"><ele>760.0</ele><time>2026-05-03T15:54:04.752Z</time></trkpt><trkpt lat="44.3862783" lon="10.8149017"><ele>760.0</ele><time>2026-05-03T15:54:05.752Z</time></trkpt><trkpt lat="44.3863533" lon="10.8149183"><ele>760.0</ele><time>2026-05-03T15:54:06.752Z</time></trkpt><trkpt lat="44.38643" lon="10.8149333"><ele>760.0</ele><time>2026-05-03T15:54:07.751Z</time></trkpt><trkpt lat="44.386515" lon="10.8149333"><ele>760.0</ele><time>2026-05-03T15:54:08.752Z</time></trkpt><trkpt lat="44.3865933" lon="10.81494"><ele>760.0</ele><time>2026-05-03T15:54:09.752Z</time></trkpt><trkpt lat="44.3866817" lon="10.8149467"><ele>760.4</ele><time>2026-05-03T15:54:10.752Z</time></trkpt><trkpt lat="44.3867617" lon="10.8149533"><ele>760.8</ele><time>2026-05-03T15:54:11.752Z</time></trkpt><trkpt lat="44.3868567" lon="10.8149783"><ele>761.2</ele><time>2026-05-03T15:54:13.752Z</time></trkpt><trkpt lat="44.3869533" lon="10.8149633"><ele>761.6</ele><time>2026-05-03T15:54:21.752Z</time></trkpt><trkpt lat="44.3870283" lon="10.8149017"><ele>762.0</ele><time>2026-05-03T15:54:22.752Z</time></trkpt><trkpt lat="44.3871" lon="10.8148267"><ele>762.0</ele><time>2026-05-03T15:54:23.751Z</time></trkpt><trkpt lat="44.387175" lon="10.8147533"><ele>762.0</ele><time>2026-05-03T15:54:24.751Z</time></trkpt><trkpt lat="44.387255" lon="10.8146733"><ele>762.0</ele><time>2026-05-03T15:54:25.751Z</time></trkpt><trkpt lat="44.3873367" lon="10.814605"><ele>762.0</ele><time>2026-05-03T15:54:26.752Z</time></trkpt><trkpt lat="44.38743" lon="10.8145267"><ele>762.0</ele><time>2026-05-03T15:54:27.752Z</time></trkpt><trkpt lat="44.3875233" lon="10.81445"><ele>762.75</ele><time>2026-05-03T15:54:28.752Z</time></trkpt><trkpt lat="44.387615" lon="10.8143617"><ele>763.5</ele><time>2026-05-03T15:54:29.752Z</time></trkpt><trkpt lat="44.3877067" lon="10.8142733"><ele>764.25</ele><time>2026-05-03T15:54:30.752Z</time></trkpt><trkpt lat="44.3878017" lon="10.8141883"><ele>765.0</ele><time>2026-05-03T15:54:31.751Z</time></trkpt><trkpt lat="44.387895" lon="10.8140883"><ele>765.0</ele><time>2026-05-03T15:54:32.752Z</time></trkpt><trkpt lat="44.3879967" lon="10.8139917"><ele>765.0</ele><time>2026-05-03T15:54:33.752Z</time></trkpt><trkpt lat="44.3881033" lon="10.8139033"><ele>765.0</ele><time>2026-05-03T15:54:34.751Z</time></trkpt><trkpt lat="44.388205" lon="10.8138"><ele>765.0</ele><time>2026-05-03T15:54:35.752Z</time></trkpt><trkpt lat="44.3883133" lon="10.8137"><ele>764.25</ele><time>2026-05-03T15:54:36.752Z</time></trkpt><trkpt lat="44.3884367" lon="10.813595"><ele>763.5</ele><time>2026-05-03T15:54:37.752Z</time></trkpt><trkpt lat="44.38855" lon="10.8134933"><ele>762.75</ele><time>2026-05-03T15:54:38.752Z</time></trkpt><trkpt lat="44.3886633" lon="10.8133883"><ele>762.0</ele><time>2026-05-03T15:54:39.752Z</time></trkpt><trkpt lat="44.38877" lon="10.8132767"><ele>763.0</ele><time>2026-05-03T15:54:40.752Z</time></trkpt><trkpt lat="44.3888783" lon="10.81317"><ele>764.0</ele><time>2026-05-03T15:54:41.752Z</time></trkpt><trkpt lat="44.38898" lon="10.81307"><ele>765.0</ele><time>2026-05-03T15:54:42.752Z</time></trkpt><trkpt lat="44.3890733" lon="10.81298"><ele>766.0</ele><time>2026-05-03T15:54:43.752Z</time></trkpt><trkpt lat="44.3891617" lon="10.8128983"><ele>766.0</ele><time>2026-05-03T15:54:44.752Z</time></trkpt><trkpt lat="44.38924" lon="10.8128117"><ele>766.0</ele><time>2026-05-03T15:54:45.752Z</time></trkpt><trkpt lat="44.3893217" lon="10.8127217"><ele>766.0</ele><time>2026-05-03T15:54:46.752Z</time></trkpt><trkpt lat="44.3894017" lon="10.8126283"><ele>766.0</ele><time>2026-05-03T15:54:47.751Z</time></trkpt><trkpt lat="44.3894783" lon="10.812545"><ele>766.0</ele><time>2026-05-03T15:54:48.752Z</time></trkpt><trkpt lat="44.389545" lon="10.8124667"><ele>766.0</ele><time>2026-05-03T15:54:49.752Z</time></trkpt><trkpt lat="44.3895983" lon="10.812395"><ele>766.0</ele><time>2026-05-03T15:54:50.752Z</time></trkpt><trkpt lat="44.3896967" lon="10.8123483"><ele>766.0</ele><time>2026-05-03T15:54:52.751Z</time></trkpt><trkpt lat="44.3898017" lon="10.8124083"><ele>766.0</ele><time>2026-05-03T15:54:54.752Z</time></trkpt><trkpt lat="44.3898633" lon="10.812445"><ele>766.0</ele><time>2026-05-03T15:54:55.752Z</time></trkpt><trkpt lat="44.3899267" lon="10.81248"><ele>766.0</ele><time>2026-05-03T15:54:56.751Z</time></trkpt><trkpt lat="44.3899917" lon="10.8124833"><ele>766.0</ele><time>2026-05-03T15:54:57.751Z</time></trkpt><trkpt lat="44.39006" lon="10.8124717"><ele>766.0</ele><time>2026-05-03T15:54:58.752Z</time></trkpt><trkpt lat="44.3901283" lon="10.8124383"><ele>766.0</ele><time>2026-05-03T15:54:59.752Z</time></trkpt><trkpt lat="44.3902133" lon="10.8123917"><ele>766.0</ele><time>2026-05-03T15:55:00.752Z</time></trkpt><trkpt lat="44.3902967" lon="10.8123467"><ele>766.0</ele><time>2026-05-03T15:55:01.751Z</time></trkpt><trkpt lat="44.390375" lon="10.8122983"><ele>766.0</ele><time>2026-05-03T15:55:02.75Z</time></trkpt><trkpt lat="44.39045" lon="10.8122583"><ele>765.8</ele><time>2026-05-03T15:55:03.751Z</time></trkpt><trkpt lat="44.3905367" lon="10.8122233"><ele>765.5999999999999</ele><time>2026-05-03T15:55:04.75Z</time></trkpt><trkpt lat="44.390625" lon="10.8121933"><ele>765.4</ele><time>2026-05-03T15:55:05.75Z</time></trkpt><trkpt lat="44.3907267" lon="10.81219"><ele>765.2</ele><time>2026-05-03T15:55:06.75Z</time></trkpt><trkpt lat="44.3908383" lon="10.8121933"><ele>765.0</ele><time>2026-05-03T15:55:07.751Z</time></trkpt><trkpt lat="44.39095" lon="10.8121933"><ele>765.0</ele><time>2026-05-03T15:55:08.751Z</time></trkpt><trkpt lat="44.3910467" lon="10.81218"><ele>765.0</ele><time>2026-05-03T15:55:09.751Z</time></trkpt><trkpt lat="44.3911533" lon="10.8121517"><ele>765.0</ele><time>2026-05-03T15:55:10.751Z</time></trkpt><trkpt lat="44.391255" lon="10.8121183"><ele>765.0</ele><time>2026-05-03T15:55:11.751Z</time></trkpt><trkpt lat="44.39136" lon="10.8120717"><ele>765.0</ele><time>2026-05-03T15:55:12.75Z</time></trkpt><trkpt lat="44.3914633" lon="10.8120317"><ele>764.4</ele><time>2026-05-03T15:55:13.751Z</time></trkpt><trkpt lat="44.391565" lon="10.8119733"><ele>763.8</ele><time>2026-05-03T15:55:14.751Z</time></trkpt><trkpt lat="44.391665" lon="10.811925"><ele>763.2</ele><time>2026-05-03T15:55:15.751Z</time></trkpt><trkpt lat="44.3917717" lon="10.811895"><ele>762.6</ele><time>2026-05-03T15:55:16.751Z</time></trkpt><trkpt lat="44.3918767" lon="10.81186"><ele>762.0</ele><time>2026-05-03T15:55:17.751Z</time></trkpt><trkpt lat="44.3919883" lon="10.8118233"><ele>763.2</ele><time>2026-05-03T15:55:18.75Z</time></trkpt><trkpt lat="44.3920833" lon="10.8117867"><ele>764.4000000000001</ele><time>2026-05-03T15:55:19.751Z</time></trkpt><trkpt lat="44.3921733" lon="10.811745"><ele>765.5999999999999</ele><time>2026-05-03T15:55:20.751Z</time></trkpt><trkpt lat="44.3922483" lon="10.8117317"><ele>766.8</ele><time>2026-05-03T15:55:21.751Z</time></trkpt><trkpt lat="44.3923117" lon="10.8117067"><ele>768.0</ele><time>2026-05-03T15:55:22.751Z</time></trkpt><trkpt lat="44.3924267" lon="10.8116733"><ele>768.0</ele><time>2026-05-03T15:55:24.751Z</time></trkpt><trkpt lat="44.392505" lon="10.8116567"><ele>768.0</ele><time>2026-05-03T15:55:25.751Z</time></trkpt><trkpt lat="44.3925967" lon="10.81164"><ele>768.0</ele><time>2026-05-03T15:55:26.751Z</time></trkpt><trkpt lat="44.3926983" lon="10.8116233"><ele>768.0</ele><time>2026-05-03T15:55:27.751Z</time></trkpt><trkpt lat="44.39281" lon="10.8115917"><ele>768.0</ele><time>2026-05-03T15:55:28.751Z</time></trkpt><trkpt lat="44.3929283" lon="10.8115533"><ele>767.5999999999999</ele><time>2026-05-03T15:55:29.751Z</time></trkpt><trkpt lat="44.3930317" lon="10.8115233"><ele>767.1999999999999</ele><time>2026-05-03T15:55:30.751Z</time></trkpt><trkpt lat="44.3931167" lon="10.8115033"><ele>766.8</ele><time>2026-05-03T15:55:31.751Z</time></trkpt><trkpt lat="44.3932117" lon="10.811475"><ele>766.4</ele><time>2026-05-03T15:55:32.751Z</time></trkpt><trkpt lat="44.393305" lon="10.8114583"><ele>766.0</ele><time>2026-05-03T15:55:33.751Z</time></trkpt><trkpt lat="44.3934083" lon="10.8114583"><ele>766.0</ele><time>2026-05-03T15:55:34.751Z</time></trkpt><trkpt lat="44.3935133" lon="10.8114733"><ele>766.0</ele><time>2026-05-03T15:55:35.751Z</time></trkpt><trkpt lat="44.3936217" lon="10.811485"><ele>766.0</ele><time>2026-05-03T15:55:36.751Z</time></trkpt><trkpt lat="44.3937233" lon="10.8115"><ele>766.0</ele><time>2026-05-03T15:55:37.75Z</time></trkpt><trkpt lat="44.39382" lon="10.8115183"><ele>766.0</ele><time>2026-05-03T15:55:38.751Z</time></trkpt><trkpt lat="44.3939117" lon="10.811525"><ele>766.4</ele><time>2026-05-03T15:55:39.751Z</time></trkpt><trkpt lat="44.3940033" lon="10.8115167"><ele>766.8</ele><time>2026-05-03T15:55:40.751Z</time></trkpt><trkpt lat="44.3941" lon="10.8115017"><ele>767.1999999999999</ele><time>2026-05-03T15:55:41.751Z</time></trkpt><trkpt lat="44.3942033" lon="10.8114867"><ele>767.5999999999999</ele><time>2026-05-03T15:55:42.75Z</time></trkpt><trkpt lat="44.3943067" lon="10.81147"><ele>768.0</ele><time>2026-05-03T15:55:43.751Z</time></trkpt><trkpt lat="44.3944133" lon="10.8114533"><ele>768.0</ele><time>2026-05-03T15:55:44.751Z</time></trkpt><trkpt lat="44.3945133" lon="10.81143"><ele>768.0</ele><time>2026-05-03T15:55:45.75Z</time></trkpt><trkpt lat="44.39462" lon="10.811415"><ele>768.0</ele><time>2026-05-03T15:55:46.751Z</time></trkpt><trkpt lat="44.3947217" lon="10.8113833"><ele>768.0</ele><time>2026-05-03T15:55:47.751Z</time></trkpt><trkpt lat="44.3948133" lon="10.8113583"><ele>768.0</ele><time>2026-05-03T15:55:48.751Z</time></trkpt><trkpt lat="44.3949167" lon="10.81133"><ele>767.0</ele><time>2026-05-03T15:55:49.75Z</time></trkpt><trkpt lat="44.3950133" lon="10.81129"><ele>766.0</ele><time>2026-05-03T15:55:50.751Z</time></trkpt><trkpt lat="44.39511" lon="10.8112333"><ele>765.0</ele><time>2026-05-03T15:55:51.75Z</time></trkpt><trkpt lat="44.3952133" lon="10.8111567"><ele>764.0</ele><time>2026-05-03T15:55:52.75Z</time></trkpt><trkpt lat="44.3953233" lon="10.811075"><ele>763.0</ele><time>2026-05-03T15:55:53.751Z</time></trkpt><trkpt lat="44.3954267" lon="10.811005"><ele>762.5999999999999</ele><time>2026-05-03T15:55:54.75Z</time></trkpt><trkpt lat="44.39553" lon="10.810935"><ele>762.1999999999999</ele><time>2026-05-03T15:55:55.751Z</time></trkpt><trkpt lat="44.395615" lon="10.8108683"><ele>761.8</ele><time>2026-05-03T15:55:56.751Z</time></trkpt><trkpt lat="44.3956883" lon="10.810785"><ele>761.4</ele><time>2026-05-03T15:55:57.751Z</time></trkpt><trkpt lat="44.39576" lon="10.8106883"><ele>761.0</ele><time>2026-05-03T15:55:58.751Z</time></trkpt><trkpt lat="44.395955" lon="10.8105383"><ele>761.0</ele><time>2026-05-03T15:56:00.751Z</time></trkpt><trkpt lat="44.396145" lon="10.8103983"><ele>761.0</ele><time>2026-05-03T15:56:02.751Z</time></trkpt><trkpt lat="44.3962433" lon="10.8103467"><ele>761.0</ele><time>2026-05-03T15:56:03.751Z</time></trkpt><trkpt lat="44.3963467" lon="10.81029"><ele>761.0</ele><time>2026-05-03T15:56:04.751Z</time></trkpt><trkpt lat="44.3964667" lon="10.8102517"><ele>760.0</ele><time>2026-05-03T15:56:05.751Z</time></trkpt><trkpt lat="44.396595" lon="10.8102083"><ele>759.0</ele><time>2026-05-03T15:56:06.751Z</time></trkpt><trkpt lat="44.39672" lon="10.810155"><ele>758.0</ele><time>2026-05-03T15:56:07.75Z</time></trkpt><trkpt lat="44.396835" lon="10.8100983"><ele>757.0</ele><time>2026-05-03T15:56:08.751Z</time></trkpt><trkpt lat="44.3969317" lon="10.8100383"><ele>757.0</ele><time>2026-05-03T15:56:09.751Z</time></trkpt><trkpt lat="44.3970117" lon="10.8099867"><ele>757.0</ele><time>2026-05-03T15:56:10.751Z</time></trkpt><trkpt lat="44.3970833" lon="10.8099533"><ele>757.0</ele><time>2026-05-03T15:56:11.751Z</time></trkpt><trkpt lat="44.3971917" lon="10.8099"><ele>757.0</ele><time>2026-05-03T15:56:13.751Z</time></trkpt><trkpt lat="44.39728" lon="10.8098317"><ele>757.0</ele><time>2026-05-03T15:56:15.751Z</time></trkpt><trkpt lat="44.3973333" lon="10.8097683"><ele>757.0</ele><time>2026-05-03T15:56:16.751Z</time></trkpt><trkpt lat="44.397405" lon="10.80969"><ele>757.0</ele><time>2026-05-03T15:56:17.751Z</time></trkpt><trkpt lat="44.397495" lon="10.8096133"><ele>757.0</ele><time>2026-05-03T15:56:18.751Z</time></trkpt><trkpt lat="44.39759" lon="10.809525"><ele>757.0</ele><time>2026-05-03T15:56:19.751Z</time></trkpt><trkpt lat="44.3976833" lon="10.8094367"><ele>757.0</ele><time>2026-05-03T15:56:20.75Z</time></trkpt><trkpt lat="44.3977883" lon="10.8093167"><ele>757.0</ele><time>2026-05-03T15:56:21.751Z</time></trkpt><trkpt lat="44.3978967" lon="10.8091667"><ele>757.0</ele><time>2026-05-03T15:56:22.751Z</time></trkpt><trkpt lat="44.397985" lon="10.809015"><ele>757.0</ele><time>2026-05-03T15:56:23.751Z</time></trkpt><trkpt lat="44.398075" lon="10.808855"><ele>757.0</ele><time>2026-05-03T15:56:24.751Z</time></trkpt><trkpt lat="44.3981667" lon="10.8086833"><ele>755.6666666666667</ele><time>2026-05-03T15:56:25.75Z</time></trkpt><trkpt lat="44.3982633" lon="10.80851"><ele>754.3333333333334</ele><time>2026-05-03T15:56:26.751Z</time></trkpt><trkpt lat="44.398355" lon="10.8083317"><ele>753.0</ele><time>2026-05-03T15:56:27.751Z</time></trkpt><trkpt lat="44.3984483" lon="10.80816"><ele>752.75</ele><time>2026-05-03T15:56:28.75Z</time></trkpt><trkpt lat="44.3985383" lon="10.8080017"><ele>752.5</ele><time>2026-05-03T15:56:29.751Z</time></trkpt><trkpt lat="44.3986283" lon="10.8078667"><ele>752.25</ele><time>2026-05-03T15:56:30.751Z</time></trkpt><trkpt lat="44.3987283" lon="10.8077483"><ele>752.0</ele><time>2026-05-03T15:56:31.751Z</time></trkpt><trkpt lat="44.398845" lon="10.8076433"><ele>750.25</ele><time>2026-05-03T15:56:32.75Z</time></trkpt><trkpt lat="44.39897" lon="10.8075667"><ele>748.5</ele><time>2026-05-03T15:56:33.75Z</time></trkpt><trkpt lat="44.3991133" lon="10.8074967"><ele>746.75</ele><time>2026-05-03T15:56:34.75Z</time></trkpt><trkpt lat="44.399265" lon="10.8074233"><ele>745.0</ele><time>2026-05-03T15:56:35.751Z</time></trkpt><trkpt lat="44.3994167" lon="10.8073583"><ele>745.0</ele><time>2026-05-03T15:56:36.751Z</time></trkpt><trkpt lat="44.3995683" lon="10.807295"><ele>745.0</ele><time>2026-05-03T15:56:37.751Z</time></trkpt><trkpt lat="44.39972" lon="10.8072267"><ele>745.0</ele><time>2026-05-03T15:56:38.751Z</time></trkpt><trkpt lat="44.3998683" lon="10.8071617"><ele>742.6666666666667</ele><time>2026-05-03T15:56:39.75Z</time></trkpt><trkpt lat="44.4000217" lon="10.8070967"><ele>740.3333333333334</ele><time>2026-05-03T15:56:40.751Z</time></trkpt><trkpt lat="44.4001717" lon="10.80703"><ele>738.0</ele><time>2026-05-03T15:56:41.751Z</time></trkpt><trkpt lat="44.40032" lon="10.8069633"><ele>738.0</ele><time>2026-05-03T15:56:42.751Z</time></trkpt><trkpt lat="44.40047" lon="10.8069067"><ele>738.0</ele><time>2026-05-03T15:56:43.751Z</time></trkpt><trkpt lat="44.4006233" lon="10.8068433"><ele>738.0</ele><time>2026-05-03T15:56:44.751Z</time></trkpt><trkpt lat="44.400785" lon="10.80679"><ele>734.6666666666666</ele><time>2026-05-03T15:56:45.751Z</time></trkpt><trkpt lat="44.40095" lon="10.8067383"><ele>731.3333333333333</ele><time>2026-05-03T15:56:46.751Z</time></trkpt><trkpt lat="44.401125" lon="10.8066917"><ele>728.0</ele><time>2026-05-03T15:56:47.751Z</time></trkpt><trkpt lat="44.4013" lon="10.8066383"><ele>726.3333333333333</ele><time>2026-05-03T15:56:48.751Z</time></trkpt><trkpt lat="44.401465" lon="10.8065867"><ele>724.6666666666666</ele><time>2026-05-03T15:56:49.751Z</time></trkpt><trkpt lat="44.4016117" lon="10.8065533"><ele>723.0</ele><time>2026-05-03T15:56:50.751Z</time></trkpt><trkpt lat="44.4017617" lon="10.80651"><ele>723.0</ele><time>2026-05-03T15:56:51.751Z</time></trkpt><trkpt lat="44.4019033" lon="10.8064583"><ele>723.0</ele><time>2026-05-03T15:56:52.751Z</time></trkpt><trkpt lat="44.4020317" lon="10.8063933"><ele>723.0</ele><time>2026-05-03T15:56:53.751Z</time></trkpt><trkpt lat="44.4021483" lon="10.8063"><ele>723.0</ele><time>2026-05-03T15:56:54.75Z</time></trkpt><trkpt lat="44.402255" lon="10.8062017"><ele>722.5</ele><time>2026-05-03T15:56:55.751Z</time></trkpt><trkpt lat="44.4023567" lon="10.8061083"><ele>722.0</ele><time>2026-05-03T15:56:56.751Z</time></trkpt><trkpt lat="44.4024483" lon="10.80602"><ele>721.5</ele><time>2026-05-03T15:56:57.751Z</time></trkpt><trkpt lat="44.4025383" lon="10.8059267"><ele>721.0</ele><time>2026-05-03T15:56:58.75Z</time></trkpt><trkpt lat="44.40263" lon="10.805835"><ele>719.8333333333334</ele><time>2026-05-03T15:56:59.751Z</time></trkpt><trkpt lat="44.402705" lon="10.8057433"><ele>718.6666666666667</ele><time>2026-05-03T15:57:00.751Z</time></trkpt><trkpt lat="44.4027617" lon="10.80565"><ele>717.5</ele><time>2026-05-03T15:57:01.75Z</time></trkpt><trkpt lat="44.4027917" lon="10.8055367"><ele>716.3333333333334</ele><time>2026-05-03T15:57:02.751Z</time></trkpt><trkpt lat="44.402795" lon="10.805415"><ele>715.1666666666666</ele><time>2026-05-03T15:57:03.75Z</time></trkpt><trkpt lat="44.40278" lon="10.8053067"><ele>714.0</ele><time>2026-05-03T15:57:04.751Z</time></trkpt><trkpt lat="44.4027667" lon="10.8052167"><ele>712.8333333333334</ele><time>2026-05-03T15:57:05.751Z</time></trkpt><trkpt lat="44.402775" lon="10.8051283"><ele>711.6666666666666</ele><time>2026-05-03T15:57:06.751Z</time></trkpt><trkpt lat="44.4028133" lon="10.8050567"><ele>710.5</ele><time>2026-05-03T15:57:07.751Z</time></trkpt><trkpt lat="44.4028733" lon="10.80499"><ele>709.3333333333333</ele><time>2026-05-03T15:57:08.751Z</time></trkpt><trkpt lat="44.4029483" lon="10.8049133"><ele>708.1666666666666</ele><time>2026-05-03T15:57:09.751Z</time></trkpt><trkpt lat="44.403025" lon="10.8048433"><ele>707.0</ele><time>2026-05-03T15:57:10.75Z</time></trkpt><trkpt lat="44.4030967" lon="10.8047867"><ele>706.6666666666666</ele><time>2026-05-03T15:57:11.751Z</time></trkpt><trkpt lat="44.403175" lon="10.8047467"><ele>706.3333333333333</ele><time>2026-05-03T15:57:12.751Z</time></trkpt><trkpt lat="44.4032533" lon="10.8047117"><ele>706.0</ele><time>2026-05-03T15:57:13.75Z</time></trkpt><trkpt lat="44.4033283" lon="10.8046883"><ele>705.6666666666666</ele><time>2026-05-03T15:57:14.75Z</time></trkpt><trkpt lat="44.403395" lon="10.8047"><ele>705.3333333333334</ele><time>2026-05-03T15:57:15.751Z</time></trkpt><trkpt lat="44.4034567" lon="10.8047433"><ele>705.0</ele><time>2026-05-03T15:57:16.751Z</time></trkpt><trkpt lat="44.4035167" lon="10.80482"><ele>705.0</ele><time>2026-05-03T15:57:17.751Z</time></trkpt><trkpt lat="44.4035817" lon="10.8049233"><ele>705.0</ele><time>2026-05-03T15:57:18.75Z</time></trkpt><trkpt lat="44.40365" lon="10.8050633"><ele>705.0</ele><time>2026-05-03T15:57:19.751Z</time></trkpt><trkpt lat="44.403715" lon="10.805235"><ele>705.0</ele><time>2026-05-03T15:57:20.751Z</time></trkpt><trkpt lat="44.403785" lon="10.805405"><ele>703.5</ele><time>2026-05-03T15:57:21.751Z</time></trkpt><trkpt lat="44.4038667" lon="10.8055567"><ele>702.0</ele><time>2026-05-03T15:57:22.751Z</time></trkpt><trkpt lat="44.4039733" lon="10.8057033"><ele>700.5</ele><time>2026-05-03T15:57:23.751Z</time></trkpt><trkpt lat="44.4040767" lon="10.8058467"><ele>699.0</ele><time>2026-05-03T15:57:24.75Z</time></trkpt><trkpt lat="44.4041683" lon="10.805985"><ele>697.75</ele><time>2026-05-03T15:57:25.751Z</time></trkpt><trkpt lat="44.4042417" lon="10.8061317"><ele>696.5</ele><time>2026-05-03T15:57:26.751Z</time></trkpt><trkpt lat="44.4043067" lon="10.8062967"><ele>695.25</ele><time>2026-05-03T15:57:27.751Z</time></trkpt><trkpt lat="44.4043567" lon="10.8064667"><ele>694.0</ele><time>2026-05-03T15:57:28.751Z</time></trkpt><trkpt lat="44.4044" lon="10.8066383"><ele>694.0</ele><time>2026-05-03T15:57:29.751Z</time></trkpt><trkpt lat="44.404455" lon="10.806805"><ele>694.0</ele><time>2026-05-03T15:57:30.75Z</time></trkpt><trkpt lat="44.4045133" lon="10.80697"><ele>694.0</ele><time>2026-05-03T15:57:31.751Z</time></trkpt><trkpt lat="44.4045667" lon="10.8071133"><ele>694.0</ele><time>2026-05-03T15:57:32.751Z</time></trkpt><trkpt lat="44.4046317" lon="10.807225"><ele>692.25</ele><time>2026-05-03T15:57:33.75Z</time></trkpt><trkpt lat="44.404715" lon="10.807325"><ele>690.5</ele><time>2026-05-03T15:57:34.751Z</time></trkpt><trkpt lat="44.4048188" lon="10.8074199"><ele>688.75</ele><time>2026-05-03T15:57:35.75Z</time></trkpt><trkpt lat="44.4049382" lon="10.8075093"><ele>687.0</ele><time>2026-05-03T15:57:36.751Z</time></trkpt><trkpt lat="44.4050635" lon="10.8075972"><ele>687.25</ele><time>2026-05-03T15:57:37.751Z</time></trkpt><trkpt lat="44.4051866" lon="10.8076768"><ele>687.5</ele><time>2026-05-03T15:57:38.751Z</time></trkpt><trkpt lat="44.4053071" lon="10.8077439"><ele>687.75</ele><time>2026-05-03T15:57:39.751Z</time></trkpt><trkpt lat="44.4054245" lon="10.8077897"><ele>688.0</ele><time>2026-05-03T15:57:40.751Z</time></trkpt><trkpt lat="44.405535" lon="10.8078156"><ele>688.0</ele><time>2026-05-03T15:57:41.751Z</time></trkpt><trkpt lat="44.405628" lon="10.8078329"><ele>688.0</ele><time>2026-05-03T15:57:42.751Z</time></trkpt><trkpt lat="44.4057164" lon="10.8078671"><ele>688.0</ele><time>2026-05-03T15:57:43.751Z</time></trkpt><trkpt lat="44.4058059" lon="10.8079211"><ele>688.0</ele><time>2026-05-03T15:57:44.751Z</time></trkpt><trkpt lat="44.405892" lon="10.8079916"><ele>688.0</ele><time>2026-05-03T15:57:45.751Z</time></trkpt><trkpt lat="44.4059628" lon="10.8080773"><ele>688.0</ele><time>2026-05-03T15:57:46.751Z</time></trkpt><trkpt lat="44.4060292" lon="10.8081889"><ele>688.0</ele><time>2026-05-03T15:57:47.75Z</time></trkpt><trkpt lat="44.4060927" lon="10.8083231"><ele>688.0</ele><time>2026-05-03T15:57:48.75Z</time></trkpt><trkpt lat="44.4061599" lon="10.808471"><ele>688.0</ele><time>2026-05-03T15:57:49.751Z</time></trkpt><trkpt lat="44.4062298" lon="10.8086163"><ele>688.2</ele><time>2026-05-03T15:57:50.75Z</time></trkpt><trkpt lat="44.4062965" lon="10.8087431"><ele>688.4</ele><time>2026-05-03T15:57:51.751Z</time></trkpt><trkpt lat="44.4063457" lon="10.8088438"><ele>688.6</ele><time>2026-05-03T15:57:52.751Z</time></trkpt><trkpt lat="44.4063996" lon="10.808913"><ele>688.8000000000001</ele><time>2026-05-03T15:57:53.751Z</time></trkpt><trkpt lat="44.4064561" lon="10.8089549"><ele>689.0</ele><time>2026-05-03T15:57:54.751Z</time></trkpt><trkpt lat="44.4065777" lon="10.8089894"><ele>686.8000000000001</ele><time>2026-05-03T15:57:56.75Z</time></trkpt><trkpt lat="44.4066554" lon="10.8089814"><ele>684.6</ele><time>2026-05-03T15:57:57.751Z</time></trkpt><trkpt lat="44.406738" lon="10.80895"><ele>682.4</ele><time>2026-05-03T15:57:58.751Z</time></trkpt><trkpt lat="44.4068255" lon="10.8089037"><ele>680.2</ele><time>2026-05-03T15:57:59.751Z</time></trkpt><trkpt lat="44.4069045" lon="10.8088406"><ele>678.0</ele><time>2026-05-03T15:58:00.751Z</time></trkpt><trkpt lat="44.4069844" lon="10.808736"><ele>678.0</ele><time>2026-05-03T15:58:01.751Z</time></trkpt><trkpt lat="44.4070714" lon="10.8086055"><ele>678.0</ele><time>2026-05-03T15:58:02.751Z</time></trkpt><trkpt lat="44.4071676" lon="10.8084676"><ele>678.0</ele><time>2026-05-03T15:58:03.751Z</time></trkpt><trkpt lat="44.4072668" lon="10.8083387"><ele>678.0</ele><time>2026-05-03T15:58:04.751Z</time></trkpt><trkpt lat="44.4073593" lon="10.8082256"><ele>678.2</ele><time>2026-05-03T15:58:05.751Z</time></trkpt><trkpt lat="44.4074413" lon="10.8081132"><ele>678.4</ele><time>2026-05-03T15:58:06.751Z</time></trkpt><trkpt lat="44.4075135" lon="10.8079983"><ele>678.6</ele><time>2026-05-03T15:58:07.751Z</time></trkpt><trkpt lat="44.4075736" lon="10.8078831"><ele>678.8000000000001</ele><time>2026-05-03T15:58:08.751Z</time></trkpt><trkpt lat="44.4076212" lon="10.8077647"><ele>679.0</ele><time>2026-05-03T15:58:09.751Z</time></trkpt><trkpt lat="44.4076587" lon="10.8076616"><ele>679.6666666666667</ele><time>2026-05-03T15:58:10.751Z</time></trkpt><trkpt lat="44.4076925" lon="10.8075748"><ele>680.3333333333334</ele><time>2026-05-03T15:58:11.751Z</time></trkpt><trkpt lat="44.4077729" lon="10.8074732"><ele>681.0</ele><time>2026-05-03T15:58:13.751Z</time></trkpt><trkpt lat="44.4078498" lon="10.8074152"><ele>681.6666666666666</ele><time>2026-05-03T15:58:15.751Z</time></trkpt><trkpt lat="44.4078875" lon="10.8073312"><ele>682.3333333333333</ele><time>2026-05-03T15:58:17.751Z</time></trkpt><trkpt lat="44.4079171" lon="10.8072089"><ele>683.0</ele><time>2026-05-03T15:58:19.75Z</time></trkpt><trkpt lat="44.4079647" lon="10.8070441"><ele>683.0</ele><time>2026-05-03T15:58:21.751Z</time></trkpt><trkpt lat="44.4079862" lon="10.8069449"><ele>683.0</ele><time>2026-05-03T15:58:22.751Z</time></trkpt><trkpt lat="44.4080067" lon="10.8068433"><ele>683.0</ele><time>2026-05-03T15:58:23.751Z</time></trkpt><trkpt lat="44.408035" lon="10.8067433"><ele>683.0</ele><time>2026-05-03T15:58:24.751Z</time></trkpt><trkpt lat="44.408065" lon="10.80666"><ele>683.0</ele><time>2026-05-03T15:58:25.751Z</time></trkpt><trkpt lat="44.408105" lon="10.8065767"><ele>683.0</ele><time>2026-05-03T15:58:26.751Z</time></trkpt><trkpt lat="44.40816" lon="10.8065017"><ele>683.0</ele><time>2026-05-03T15:58:27.751Z</time></trkpt><trkpt lat="44.4082217" lon="10.806435"><ele>682.5</ele><time>2026-05-03T15:58:28.75Z</time></trkpt><trkpt lat="44.408265" lon="10.8063683"><ele>682.0</ele><time>2026-05-03T15:58:29.751Z</time></trkpt><trkpt lat="44.4082933" lon="10.80628"><ele>681.5</ele><time>2026-05-03T15:58:30.75Z</time></trkpt><trkpt lat="44.4083" lon="10.8061667"><ele>681.0</ele><time>2026-05-03T15:58:31.751Z</time></trkpt><trkpt lat="44.4082983" lon="10.8060417"><ele>680.5</ele><time>2026-05-03T15:58:32.751Z</time></trkpt><trkpt lat="44.4082867" lon="10.80591"><ele>680.0</ele><time>2026-05-03T15:58:33.75Z</time></trkpt><trkpt lat="44.4082917" lon="10.80579"><ele>679.8</ele><time>2026-05-03T15:58:34.751Z</time></trkpt><trkpt lat="44.4083083" lon="10.8056933"><ele>679.6</ele><time>2026-05-03T15:58:35.751Z</time></trkpt><trkpt lat="44.4083517" lon="10.805555"><ele>679.4000000000001</ele><time>2026-05-03T15:58:37.751Z</time></trkpt><trkpt lat="44.4084517" lon="10.8055117"><ele>679.2</ele><time>2026-05-03T15:58:39.751Z</time></trkpt><trkpt lat="44.4085233" lon="10.8055367"><ele>679.0</ele><time>2026-05-03T15:58:40.751Z</time></trkpt><trkpt lat="44.40862" lon="10.80559"><ele>679.0</ele><time>2026-05-03T15:58:41.75Z</time></trkpt><trkpt lat="44.4087217" lon="10.80564"><ele>679.0</ele><time>2026-05-03T15:58:42.751Z</time></trkpt><trkpt lat="44.4088283" lon="10.80568"><ele>679.0</ele><time>2026-05-03T15:58:43.751Z</time></trkpt><trkpt lat="44.4089383" lon="10.805705"><ele>679.0</ele><time>2026-05-03T15:58:44.751Z</time></trkpt><trkpt lat="44.4090517" lon="10.8057183"><ele>679.0</ele><time>2026-05-03T15:58:45.751Z</time></trkpt><trkpt lat="44.40916" lon="10.8057333"><ele>680.6</ele><time>2026-05-03T15:58:46.751Z</time></trkpt><trkpt lat="44.4092667" lon="10.8057583"><ele>682.2</ele><time>2026-05-03T15:58:47.751Z</time></trkpt><trkpt lat="44.409365" lon="10.8057883"><ele>683.8000000000001</ele><time>2026-05-03T15:58:48.75Z</time></trkpt><trkpt lat="44.4094633" lon="10.805825"><ele>685.4000000000001</ele><time>2026-05-03T15:58:49.751Z</time></trkpt><trkpt lat="44.40954" lon="10.8058683"><ele>687.0</ele><time>2026-05-03T15:58:50.751Z</time></trkpt><trkpt lat="44.4096167" lon="10.805885"><ele>688.0</ele><time>2026-05-03T15:58:51.75Z</time></trkpt><trkpt lat="44.40969" lon="10.805895"><ele>689.0</ele><time>2026-05-03T15:58:52.751Z</time></trkpt><trkpt lat="44.4097617" lon="10.8059167"><ele>690.0</ele><time>2026-05-03T15:58:53.751Z</time></trkpt><trkpt lat="44.4098567" lon="10.8059233"><ele>691.0</ele><time>2026-05-03T15:58:55.75Z</time></trkpt><trkpt lat="44.4099233" lon="10.805945"><ele>692.0</ele><time>2026-05-03T15:59:05.751Z</time></trkpt><trkpt lat="44.41002" lon="10.8059883"><ele>693.0</ele><time>2026-05-03T15:59:07.75Z</time></trkpt><trkpt lat="44.410085" lon="10.8059933"><ele>693.0</ele><time>2026-05-03T15:59:09.751Z</time></trkpt><trkpt lat="44.41013" lon="10.80591"><ele>693.0</ele><time>2026-05-03T15:59:12.751Z</time></trkpt><trkpt lat="44.410205" lon="10.8058767"><ele>693.0</ele><time>2026-05-03T15:59:15.751Z</time></trkpt><trkpt lat="44.4102733" lon="10.8058867"><ele>693.0</ele><time>2026-05-03T15:59:17.751Z</time></trkpt><trkpt lat="44.4103583" lon="10.8058917"><ele>693.0</ele><time>2026-05-03T15:59:19.75Z</time></trkpt><trkpt lat="44.410475" lon="10.8058783"><ele>693.0</ele><time>2026-05-03T15:59:21.751Z</time></trkpt><trkpt lat="44.4105433" lon="10.8058667"><ele>692.4</ele><time>2026-05-03T15:59:22.751Z</time></trkpt><trkpt lat="44.4106067" lon="10.805845"><ele>691.8</ele><time>2026-05-03T15:59:23.75Z</time></trkpt><trkpt lat="44.4106767" lon="10.8058267"><ele>691.2</ele><time>2026-05-03T15:59:24.751Z</time></trkpt><trkpt lat="44.4108283" lon="10.8058017"><ele>690.6</ele><time>2026-05-03T15:59:26.751Z</time></trkpt><trkpt lat="44.4109483" lon="10.8058017"><ele>690.0</ele><time>2026-05-03T15:59:28.751Z</time></trkpt><trkpt lat="44.41105" lon="10.8057683"><ele>690.0</ele><time>2026-05-03T15:59:30.75Z</time></trkpt><trkpt lat="44.411105" lon="10.8057167"><ele>690.0</ele><time>2026-05-03T15:59:31.75Z</time></trkpt><trkpt lat="44.4111667" lon="10.8056433"><ele>690.0</ele><time>2026-05-03T15:59:32.751Z</time></trkpt><trkpt lat="44.4112283" lon="10.80556"><ele>690.0</ele><time>2026-05-03T15:59:33.751Z</time></trkpt><trkpt lat="44.411285" lon="10.8054667"><ele>690.0</ele><time>2026-05-03T15:59:34.751Z</time></trkpt><trkpt lat="44.4113483" lon="10.805365"><ele>690.0</ele><time>2026-05-03T15:59:35.75Z</time></trkpt><trkpt lat="44.4114083" lon="10.8052683"><ele>690.8333333333334</ele><time>2026-05-03T15:59:36.75Z</time></trkpt><trkpt lat="44.4114683" lon="10.8051867"><ele>691.6666666666666</ele><time>2026-05-03T15:59:37.751Z</time></trkpt><trkpt lat="44.4115267" lon="10.8050883"><ele>692.5</ele><time>2026-05-03T15:59:38.751Z</time></trkpt><trkpt lat="44.4115767" lon="10.8050033"><ele>693.3333333333333</ele><time>2026-05-03T15:59:39.751Z</time></trkpt><trkpt lat="44.4116133" lon="10.80493"><ele>694.1666666666666</ele><time>2026-05-03T15:59:40.751Z</time></trkpt><trkpt lat="44.4116433" lon="10.8048333"><ele>695.0</ele><time>2026-05-03T15:59:42.751Z</time></trkpt><trkpt lat="44.4116233" lon="10.8047467"><ele>695.25</ele><time>2026-05-03T15:59:52.751Z</time></trkpt><trkpt lat="44.4116617" lon="10.8045517"><ele>695.5</ele><time>2026-05-03T15:59:54.751Z</time></trkpt><trkpt lat="44.41169" lon="10.8044283"><ele>695.75</ele><time>2026-05-03T15:59:55.751Z</time></trkpt><trkpt lat="44.4117217" lon="10.8042867"><ele>696.0</ele><time>2026-05-03T15:59:56.751Z</time></trkpt><trkpt lat="44.4117383" lon="10.8041317"><ele>696.0</ele><time>2026-05-03T15:59:57.751Z</time></trkpt><trkpt lat="44.4117517" lon="10.8039783"><ele>696.0</ele><time>2026-05-03T15:59:58.751Z</time></trkpt><trkpt lat="44.4117633" lon="10.8038117"><ele>696.0</ele><time>2026-05-03T15:59:59.751Z</time></trkpt><trkpt lat="44.41178" lon="10.80365"><ele>696.0</ele><time>2026-05-03T16:00:00.751Z</time></trkpt><trkpt lat="44.4117967" lon="10.8035033"><ele>695.6666666666666</ele><time>2026-05-03T16:00:01.751Z</time></trkpt><trkpt lat="44.4118133" lon="10.8033817"><ele>695.3333333333334</ele><time>2026-05-03T16:00:02.751Z</time></trkpt><trkpt lat="44.41184" lon="10.8032767"><ele>695.0</ele><time>2026-05-03T16:00:03.751Z</time></trkpt><trkpt lat="44.4118783" lon="10.803195"><ele>694.6666666666667</ele><time>2026-05-03T16:00:04.751Z</time></trkpt><trkpt lat="44.4119883" lon="10.80311"><ele>694.3333333333334</ele><time>2026-05-03T16:00:06.751Z</time></trkpt><trkpt lat="44.41206" lon="10.8030567"><ele>694.0</ele><time>2026-05-03T16:00:07.75Z</time></trkpt><trkpt lat="44.4121283" lon="10.80299"><ele>695.0</ele><time>2026-05-03T16:00:08.75Z</time></trkpt><trkpt lat="44.4121917" lon="10.8029133"><ele>696.0</ele><time>2026-05-03T16:00:09.751Z</time></trkpt><trkpt lat="44.4122433" lon="10.80283"><ele>697.0</ele><time>2026-05-03T16:00:10.75Z</time></trkpt><trkpt lat="44.412305" lon="10.8027333"><ele>698.0</ele><time>2026-05-03T16:00:11.75Z</time></trkpt><trkpt lat="44.4123517" lon="10.80263"><ele>699.0</ele><time>2026-05-03T16:00:12.75Z</time></trkpt><trkpt lat="44.4123933" lon="10.8025117"><ele>700.0</ele><time>2026-05-03T16:00:13.75Z</time></trkpt><trkpt lat="44.4124283" lon="10.802385"><ele>700.0</ele><time>2026-05-03T16:00:14.75Z</time></trkpt><trkpt lat="44.41246" lon="10.802275"><ele>700.0</ele><time>2026-05-03T16:00:15.75Z</time></trkpt><trkpt lat="44.4124933" lon="10.8021917"><ele>700.0</ele><time>2026-05-03T16:00:16.75Z</time></trkpt><trkpt lat="44.4125683" lon="10.8020417"><ele>700.0</ele><time>2026-05-03T16:00:18.75Z</time></trkpt><trkpt lat="44.4126033" lon="10.8019533"><ele>700.0</ele><time>2026-05-03T16:00:19.749Z</time></trkpt><trkpt lat="44.4126333" lon="10.80187"><ele>700.0</ele><time>2026-05-03T16:00:20.75Z</time></trkpt><trkpt lat="44.4126783" lon="10.801795"><ele>700.0</ele><time>2026-05-03T16:00:21.75Z</time></trkpt><trkpt lat="44.4127217" lon="10.8017167"><ele>700.0</ele><time>2026-05-03T16:00:22.75Z</time></trkpt><trkpt lat="44.41276" lon="10.80162"><ele>700.0</ele><time>2026-05-03T16:00:23.75Z</time></trkpt><trkpt lat="44.4128033" lon="10.801525"><ele>700.0</ele><time>2026-05-03T16:00:24.75Z</time></trkpt><trkpt lat="44.4128417" lon="10.80141"><ele>700.0</ele><time>2026-05-03T16:00:25.75Z</time></trkpt><trkpt lat="44.41288" lon="10.8012917"><ele>700.0</ele><time>2026-05-03T16:00:26.75Z</time></trkpt><trkpt lat="44.412925" lon="10.8011667"><ele>700.0</ele><time>2026-05-03T16:00:27.75Z</time></trkpt><trkpt lat="44.412965" lon="10.801045"><ele>700.0</ele><time>2026-05-03T16:00:28.75Z</time></trkpt><trkpt lat="44.413015" lon="10.8009133"><ele>700.0</ele><time>2026-05-03T16:00:29.75Z</time></trkpt><trkpt lat="44.413065" lon="10.8007867"><ele>700.0</ele><time>2026-05-03T16:00:30.75Z</time></trkpt><trkpt lat="44.41312" lon="10.80066"><ele>700.0</ele><time>2026-05-03T16:00:31.749Z</time></trkpt><trkpt lat="44.4131817" lon="10.80053"><ele>701.0</ele><time>2026-05-03T16:00:32.75Z</time></trkpt><trkpt lat="44.4132283" lon="10.8003883"><ele>702.0</ele><time>2026-05-03T16:00:33.75Z</time></trkpt><trkpt lat="44.4132733" lon="10.8002317"><ele>703.0</ele><time>2026-05-03T16:00:34.749Z</time></trkpt><trkpt lat="44.4133" lon="10.8000583"><ele>704.0</ele><time>2026-05-03T16:00:35.75Z</time></trkpt><trkpt lat="44.4133333" lon="10.7998733"><ele>704.25</ele><time>2026-05-03T16:00:36.75Z</time></trkpt><trkpt lat="44.4133583" lon="10.7996933"><ele>704.5</ele><time>2026-05-03T16:00:37.75Z</time></trkpt><trkpt lat="44.413385" lon="10.7995167"><ele>704.75</ele><time>2026-05-03T16:00:38.75Z</time></trkpt><trkpt lat="44.4134083" lon="10.7993367"><ele>705.0</ele><time>2026-05-03T16:00:39.749Z</time></trkpt><trkpt lat="44.413435" lon="10.7991583"><ele>705.0</ele><time>2026-05-03T16:00:40.749Z</time></trkpt><trkpt lat="44.41346" lon="10.7989833"><ele>705.0</ele><time>2026-05-03T16:00:41.75Z</time></trkpt><trkpt lat="44.4134833" lon="10.7988033"><ele>705.0</ele><time>2026-05-03T16:00:42.75Z</time></trkpt><trkpt lat="44.4135117" lon="10.7986283"><ele>705.0</ele><time>2026-05-03T16:00:43.749Z</time></trkpt><trkpt lat="44.4135367" lon="10.7984533"><ele>705.75</ele><time>2026-05-03T16:00:44.75Z</time></trkpt><trkpt lat="44.4135633" lon="10.79828"><ele>706.5</ele><time>2026-05-03T16:00:45.75Z</time></trkpt><trkpt lat="44.4135883" lon="10.7981017"><ele>707.25</ele><time>2026-05-03T16:00:46.749Z</time></trkpt><trkpt lat="44.41362" lon="10.79793"><ele>708.0</ele><time>2026-05-03T16:00:47.749Z</time></trkpt><trkpt lat="44.4136433" lon="10.7977567"><ele>707.75</ele><time>2026-05-03T16:00:48.75Z</time></trkpt><trkpt lat="44.4136717" lon="10.7975833"><ele>707.5</ele><time>2026-05-03T16:00:49.75Z</time></trkpt><trkpt lat="44.4136983" lon="10.7974167"><ele>707.25</ele><time>2026-05-03T16:00:50.75Z</time></trkpt><trkpt lat="44.4137183" lon="10.79725"><ele>707.0</ele><time>2026-05-03T16:00:51.75Z</time></trkpt><trkpt lat="44.4137433" lon="10.797085"><ele>707.0</ele><time>2026-05-03T16:00:52.749Z</time></trkpt><trkpt lat="44.4137683" lon="10.7969417"><ele>707.0</ele><time>2026-05-03T16:00:53.749Z</time></trkpt><trkpt lat="44.4137883" lon="10.79683"><ele>707.0</ele><time>2026-05-03T16:00:54.75Z</time></trkpt><trkpt lat="44.41382" lon="10.7967333"><ele>707.0</ele><time>2026-05-03T16:00:55.75Z</time></trkpt><trkpt lat="44.413855" lon="10.7966167"><ele>707.0</ele><time>2026-05-03T16:00:57.749Z</time></trkpt><trkpt lat="44.4138333" lon="10.7964933"><ele>707.0</ele><time>2026-05-03T16:01:35.75Z</time></trkpt><trkpt lat="44.4137783" lon="10.79643"><ele>707.2</ele><time>2026-05-03T16:01:36.75Z</time></trkpt><trkpt lat="44.4136267" lon="10.7963067"><ele>707.4000000000001</ele><time>2026-05-03T16:01:38.75Z</time></trkpt><trkpt lat="44.41355" lon="10.796275"><ele>707.5999999999999</ele><time>2026-05-03T16:01:39.749Z</time></trkpt><trkpt lat="44.4134833" lon="10.7962617"><ele>707.8</ele><time>2026-05-03T16:01:40.75Z</time></trkpt><trkpt lat="44.4133783" lon="10.796225"><ele>708.0</ele><time>2026-05-03T16:01:42.75Z</time></trkpt><trkpt lat="44.41331" lon="10.7961567"><ele>708.0</ele><time>2026-05-03T16:01:44.75Z</time></trkpt><trkpt lat="44.4132367" lon="10.7960717"><ele>708.0</ele><time>2026-05-03T16:02:39.75Z</time></trkpt><trkpt lat="44.4131667" lon="10.7960467"><ele>708.0</ele><time>2026-05-03T16:02:41.749Z</time></trkpt><trkpt lat="44.413155" lon="10.796145"><ele>708.0</ele><time>2026-05-03T16:02:44.75Z</time></trkpt><trkpt lat="44.41322" lon="10.7962867"><ele>708.0</ele><time>2026-05-03T16:05:21.75Z</time></trkpt><trkpt lat="44.4132933" lon="10.7963333"><ele>708.0</ele><time>2026-05-03T16:05:23.75Z</time></trkpt><trkpt lat="44.4134067" lon="10.796325"><ele>708.0</ele><time>2026-05-03T16:05:25.749Z</time></trkpt><trkpt lat="44.41347" lon="10.7962867"><ele>708.0</ele><time>2026-05-03T16:05:27.75Z</time></trkpt><trkpt lat="44.4135433" lon="10.7963183"><ele>708.0</ele><time>2026-05-03T16:05:38.75Z</time></trkpt><trkpt lat="44.41361" lon="10.79638"><ele>708.0</ele><time>2026-05-03T16:05:39.75Z</time></trkpt><trkpt lat="44.413695" lon="10.7964533"><ele>708.0</ele><time>2026-05-03T16:05:40.75Z</time></trkpt><trkpt lat="44.413795" lon="10.7965383"><ele>708.0</ele><time>2026-05-03T16:05:41.749Z</time></trkpt><trkpt lat="44.413905" lon="10.796625"><ele>708.75</ele><time>2026-05-03T16:05:42.75Z</time></trkpt><trkpt lat="44.414015" lon="10.7967217"><ele>709.5</ele><time>2026-05-03T16:05:43.75Z</time></trkpt><trkpt lat="44.4141183" lon="10.7968267"><ele>710.25</ele><time>2026-05-03T16:05:44.75Z</time></trkpt><trkpt lat="44.41423" lon="10.7969233"><ele>711.0</ele><time>2026-05-03T16:05:45.749Z</time></trkpt><trkpt lat="44.4143483" lon="10.7970167"><ele>710.75</ele><time>2026-05-03T16:05:46.75Z</time></trkpt><trkpt lat="44.4144633" lon="10.7971133"><ele>710.5</ele><time>2026-05-03T16:05:47.75Z</time></trkpt><trkpt lat="44.4145667" lon="10.7972133"><ele>710.25</ele><time>2026-05-03T16:05:48.749Z</time></trkpt><trkpt lat="44.4146517" lon="10.7973233"><ele>710.0</ele><time>2026-05-03T16:05:49.749Z</time></trkpt><trkpt lat="44.41473" lon="10.7974567"><ele>710.0</ele><time>2026-05-03T16:05:50.749Z</time></trkpt><trkpt lat="44.414795" lon="10.7976033"><ele>710.0</ele><time>2026-05-03T16:05:51.748Z</time></trkpt><trkpt lat="44.4148667" lon="10.7977317"><ele>710.0</ele><time>2026-05-03T16:05:52.749Z</time></trkpt><trkpt lat="44.4149567" lon="10.79783"><ele>710.0</ele><time>2026-05-03T16:05:53.749Z</time></trkpt><trkpt lat="44.4150717" lon="10.7978867"><ele>713.0</ele><time>2026-05-03T16:05:54.748Z</time></trkpt><trkpt lat="44.4151883" lon="10.7978983"><ele>716.0</ele><time>2026-05-03T16:05:55.749Z</time></trkpt><trkpt lat="44.41531" lon="10.7978583"><ele>719.0</ele><time>2026-05-03T16:05:56.749Z</time></trkpt><trkpt lat="44.4154417" lon="10.7977833"><ele>722.0</ele><time>2026-05-03T16:05:57.748Z</time></trkpt><trkpt lat="44.4155483" lon="10.7976783"><ele>722.25</ele><time>2026-05-03T16:05:58.749Z</time></trkpt><trkpt lat="44.4156533" lon="10.7975567"><ele>722.5</ele><time>2026-05-03T16:05:59.748Z</time></trkpt><trkpt lat="44.4157433" lon="10.7974083"><ele>722.75</ele><time>2026-05-03T16:06:00.749Z</time></trkpt><trkpt lat="44.4158333" lon="10.7972583"><ele>723.0</ele><time>2026-05-03T16:06:01.749Z</time></trkpt><trkpt lat="44.41594" lon="10.7971183"><ele>723.0</ele><time>2026-05-03T16:06:02.748Z</time></trkpt><trkpt lat="44.4160467" lon="10.7969917"><ele>723.0</ele><time>2026-05-03T16:06:03.749Z</time></trkpt><trkpt lat="44.41616" lon="10.7968867"><ele>723.0</ele><time>2026-05-03T16:06:04.749Z</time></trkpt><trkpt lat="44.4162733" lon="10.7968117"><ele>723.0</ele><time>2026-05-03T16:06:05.748Z</time></trkpt><trkpt lat="44.4164" lon="10.79677"><ele>724.0</ele><time>2026-05-03T16:06:06.749Z</time></trkpt><trkpt lat="44.416545" lon="10.7967483"><ele>725.0</ele><time>2026-05-03T16:06:07.749Z</time></trkpt><trkpt lat="44.416695" lon="10.7967433"><ele>726.0</ele><time>2026-05-03T16:06:08.748Z</time></trkpt><trkpt lat="44.4168417" lon="10.796725"><ele>727.0</ele><time>2026-05-03T16:06:09.749Z</time></trkpt><trkpt lat="44.416975" lon="10.7966783"><ele>727.0</ele><time>2026-05-03T16:06:10.749Z</time></trkpt><trkpt lat="44.4170933" lon="10.7966017"><ele>727.0</ele><time>2026-05-03T16:06:11.749Z</time></trkpt><trkpt lat="44.4171933" lon="10.7964817"><ele>727.0</ele><time>2026-05-03T16:06:12.749Z</time></trkpt><trkpt lat="44.4172833" lon="10.7963183"><ele>727.0</ele><time>2026-05-03T16:06:13.748Z</time></trkpt><trkpt lat="44.4173617" lon="10.79615"><ele>728.5</ele><time>2026-05-03T16:06:14.749Z</time></trkpt><trkpt lat="44.4174417" lon="10.7959767"><ele>730.0</ele><time>2026-05-03T16:06:15.749Z</time></trkpt><trkpt lat="44.41752" lon="10.7958083"><ele>731.5</ele><time>2026-05-03T16:06:16.748Z</time></trkpt><trkpt lat="44.4175867" lon="10.7956533"><ele>733.0</ele><time>2026-05-03T16:06:17.749Z</time></trkpt><trkpt lat="44.41763" lon="10.7954867"><ele>733.0</ele><time>2026-05-03T16:06:18.749Z</time></trkpt><trkpt lat="44.4176317" lon="10.7953217"><ele>733.0</ele><time>2026-05-03T16:06:19.749Z</time></trkpt><trkpt lat="44.417595" lon="10.7951533"><ele>733.0</ele><time>2026-05-03T16:06:20.749Z</time></trkpt><trkpt lat="44.4175283" lon="10.7949917"><ele>733.0</ele><time>2026-05-03T16:06:21.749Z</time></trkpt><trkpt lat="44.417445" lon="10.79484"><ele>733.75</ele><time>2026-05-03T16:06:22.748Z</time></trkpt><trkpt lat="44.4173617" lon="10.7946817"><ele>734.5</ele><time>2026-05-03T16:06:23.748Z</time></trkpt><trkpt lat="44.417295" lon="10.7945083"><ele>735.25</ele><time>2026-05-03T16:06:24.749Z</time></trkpt><trkpt lat="44.41724" lon="10.7943333"><ele>736.0</ele><time>2026-05-03T16:06:25.748Z</time></trkpt><trkpt lat="44.4172" lon="10.794145"><ele>735.25</ele><time>2026-05-03T16:06:26.748Z</time></trkpt><trkpt lat="44.4171667" lon="10.7939483"><ele>734.5</ele><time>2026-05-03T16:06:27.748Z</time></trkpt><trkpt lat="44.4171367" lon="10.7937483"><ele>733.75</ele><time>2026-05-03T16:06:28.749Z</time></trkpt><trkpt lat="44.41711" lon="10.793555"><ele>733.0</ele><time>2026-05-03T16:06:29.749Z</time></trkpt><trkpt lat="44.4170783" lon="10.7933717"><ele>733.0</ele><time>2026-05-03T16:06:30.748Z</time></trkpt><trkpt lat="44.4170567" lon="10.793205"><ele>733.0</ele><time>2026-05-03T16:06:31.749Z</time></trkpt><trkpt lat="44.417035" lon="10.7930517"><ele>733.0</ele><time>2026-05-03T16:06:32.749Z</time></trkpt><trkpt lat="44.4170267" lon="10.792905"><ele>733.0</ele><time>2026-05-03T16:06:33.749Z</time></trkpt><trkpt lat="44.4170433" lon="10.7927617"><ele>733.0</ele><time>2026-05-03T16:06:34.749Z</time></trkpt><trkpt lat="44.4170783" lon="10.7926217"><ele>733.75</ele><time>2026-05-03T16:06:35.749Z</time></trkpt><trkpt lat="44.4171467" lon="10.792485"><ele>734.5</ele><time>2026-05-03T16:06:36.749Z</time></trkpt><trkpt lat="44.41724" lon="10.7923783"><ele>735.25</ele><time>2026-05-03T16:06:37.749Z</time></trkpt><trkpt lat="44.4173483" lon="10.7922883"><ele>736.0</ele><time>2026-05-03T16:06:38.749Z</time></trkpt><trkpt lat="44.4174533" lon="10.7922083"><ele>741.0</ele><time>2026-05-03T16:06:39.749Z</time></trkpt><trkpt lat="44.417565" lon="10.7921483"><ele>746.0</ele><time>2026-05-03T16:06:40.748Z</time></trkpt><trkpt lat="44.41768" lon="10.7920983"><ele>751.0</ele><time>2026-05-03T16:06:41.749Z</time></trkpt><trkpt lat="44.4178033" lon="10.792065"><ele>756.0</ele><time>2026-05-03T16:06:42.749Z</time></trkpt><trkpt lat="44.4179233" lon="10.7920483"><ele>758.5</ele><time>2026-05-03T16:06:43.749Z</time></trkpt><trkpt lat="44.4180417" lon="10.7920267"><ele>761.0</ele><time>2026-05-03T16:06:44.749Z</time></trkpt><trkpt lat="44.4181617" lon="10.7920167"><ele>763.5</ele><time>2026-05-03T16:06:45.749Z</time></trkpt><trkpt lat="44.41828" lon="10.792035"><ele>766.0</ele><time>2026-05-03T16:06:46.749Z</time></trkpt><trkpt lat="44.418395" lon="10.7920667"><ele>766.0</ele><time>2026-05-03T16:06:47.748Z</time></trkpt><trkpt lat="44.4185033" lon="10.7920833"><ele>766.0</ele><time>2026-05-03T16:06:48.748Z</time></trkpt><trkpt lat="44.418615" lon="10.7920633"><ele>766.0</ele><time>2026-05-03T16:06:49.749Z</time></trkpt><trkpt lat="44.4187167" lon="10.7920067"><ele>766.0</ele><time>2026-05-03T16:06:50.749Z</time></trkpt><trkpt lat="44.4188067" lon="10.7919117"><ele>766.0</ele><time>2026-05-03T16:06:51.748Z</time></trkpt><trkpt lat="44.4188917" lon="10.7918033"><ele>767.25</ele><time>2026-05-03T16:06:52.749Z</time></trkpt><trkpt lat="44.41897" lon="10.7916783"><ele>768.5</ele><time>2026-05-03T16:06:53.749Z</time></trkpt><trkpt lat="44.4190383" lon="10.7915433"><ele>769.75</ele><time>2026-05-03T16:06:54.749Z</time></trkpt><trkpt lat="44.4190667" lon="10.7913783"><ele>771.0</ele><time>2026-05-03T16:06:55.748Z</time></trkpt><trkpt lat="44.4190617" lon="10.7911967"><ele>771.0</ele><time>2026-05-03T16:06:56.748Z</time></trkpt><trkpt lat="44.4190367" lon="10.7910117"><ele>771.0</ele><time>2026-05-03T16:06:57.748Z</time></trkpt><trkpt lat="44.419" lon="10.7908317"><ele>771.0</ele><time>2026-05-03T16:06:58.749Z</time></trkpt><trkpt lat="44.4189733" lon="10.7906633"><ele>771.0</ele><time>2026-05-03T16:06:59.748Z</time></trkpt><trkpt lat="44.4189617" lon="10.7905183"><ele>771.4</ele><time>2026-05-03T16:07:00.749Z</time></trkpt><trkpt lat="44.4189633" lon="10.7903667"><ele>771.8</ele><time>2026-05-03T16:07:01.749Z</time></trkpt><trkpt lat="44.4190017" lon="10.7902267"><ele>772.1999999999999</ele><time>2026-05-03T16:07:02.749Z</time></trkpt><trkpt lat="44.41906" lon="10.790115"><ele>772.5999999999999</ele><time>2026-05-03T16:07:03.748Z</time></trkpt><trkpt lat="44.419135" lon="10.790025"><ele>773.0</ele><time>2026-05-03T16:07:04.749Z</time></trkpt><trkpt lat="44.4192317" lon="10.7899833"><ele>772.0</ele><time>2026-05-03T16:07:05.748Z</time></trkpt><trkpt lat="44.419335" lon="10.78996"><ele>771.0</ele><time>2026-05-03T16:07:06.748Z</time></trkpt><trkpt lat="44.4194483" lon="10.789955"><ele>770.0</ele><time>2026-05-03T16:07:07.749Z</time></trkpt><trkpt lat="44.41956" lon="10.789935"><ele>769.0</ele><time>2026-05-03T16:07:08.749Z</time></trkpt><trkpt lat="44.4196733" lon="10.7898967"><ele>768.0</ele><time>2026-05-03T16:07:09.749Z</time></trkpt><trkpt lat="44.4197867" lon="10.78984"><ele>772.75</ele><time>2026-05-03T16:07:10.749Z</time></trkpt><trkpt lat="44.41989" lon="10.7897567"><ele>777.5</ele><time>2026-05-03T16:07:11.749Z</time></trkpt><trkpt lat="44.4199817" lon="10.7896633"><ele>782.25</ele><time>2026-05-03T16:07:12.749Z</time></trkpt><trkpt lat="44.420075" lon="10.789565"><ele>787.0</ele><time>2026-05-03T16:07:13.749Z</time></trkpt><trkpt lat="44.4201683" lon="10.78948"><ele>787.0</ele><time>2026-05-03T16:07:14.749Z</time></trkpt><trkpt lat="44.4202717" lon="10.7894283"><ele>787.0</ele><time>2026-05-03T16:07:15.749Z</time></trkpt><trkpt lat="44.420385" lon="10.789415"><ele>787.0</ele><time>2026-05-03T16:07:16.749Z</time></trkpt><trkpt lat="44.4204967" lon="10.78944"><ele>787.0</ele><time>2026-05-03T16:07:17.748Z</time></trkpt><trkpt lat="44.4206167" lon="10.789505"><ele>789.0</ele><time>2026-05-03T16:07:18.749Z</time></trkpt><trkpt lat="44.4207417" lon="10.7895783"><ele>791.0</ele><time>2026-05-03T16:07:19.749Z</time></trkpt><trkpt lat="44.420865" lon="10.7896417"><ele>793.0</ele><time>2026-05-03T16:07:20.748Z</time></trkpt><trkpt lat="44.42098" lon="10.7896733"><ele>795.0</ele><time>2026-05-03T16:07:21.749Z</time></trkpt><trkpt lat="44.4210917" lon="10.7896683"><ele>795.0</ele><time>2026-05-03T16:07:22.749Z</time></trkpt><trkpt lat="44.42119" lon="10.78961"><ele>795.0</ele><time>2026-05-03T16:07:23.748Z</time></trkpt><trkpt lat="44.4212683" lon="10.7895083"><ele>795.0</ele><time>2026-05-03T16:07:24.749Z</time></trkpt><trkpt lat="44.4213467" lon="10.7893883"><ele>795.0</ele><time>2026-05-03T16:07:25.749Z</time></trkpt><trkpt lat="44.4214383" lon="10.7892767"><ele>793.4</ele><time>2026-05-03T16:07:26.749Z</time></trkpt><trkpt lat="44.4215367" lon="10.7891767"><ele>791.8</ele><time>2026-05-03T16:07:27.749Z</time></trkpt><trkpt lat="44.4216383" lon="10.7891233"><ele>790.2</ele><time>2026-05-03T16:07:28.749Z</time></trkpt><trkpt lat="44.421735" lon="10.7890883"><ele>788.6</ele><time>2026-05-03T16:07:29.748Z</time></trkpt><trkpt lat="44.4218317" lon="10.789095"><ele>787.0</ele><time>2026-05-03T16:07:30.748Z</time></trkpt><trkpt lat="44.4219267" lon="10.78913"><ele>786.9999999999999</ele><time>2026-05-03T16:07:31.749Z</time></trkpt><trkpt lat="44.4220083" lon="10.78919"><ele>787.0</ele><time>2026-05-03T16:07:32.748Z</time></trkpt><trkpt lat="44.4220833" lon="10.7892433"><ele>787.0</ele><time>2026-05-03T16:07:33.748Z</time></trkpt><trkpt lat="44.4221467" lon="10.7893017"><ele>787.0</ele><time>2026-05-03T16:07:34.749Z</time></trkpt><trkpt lat="44.4222117" lon="10.78936"><ele>786.9999999999999</ele><time>2026-05-03T16:07:35.749Z</time></trkpt><trkpt lat="44.422305" lon="10.789445"><ele>787.0</ele><time>2026-05-03T16:07:37.749Z</time></trkpt><trkpt lat="44.42239" lon="10.7895017"><ele>787.9999999999999</ele><time>2026-05-03T16:07:39.749Z</time></trkpt><trkpt lat="44.4224933" lon="10.78959"><ele>789.0</ele><time>2026-05-03T16:07:41.749Z</time></trkpt><trkpt lat="44.4225517" lon="10.7896317"><ele>790.0</ele><time>2026-05-03T16:07:42.749Z</time></trkpt><trkpt lat="44.42261" lon="10.78967"><ele>791.0</ele><time>2026-05-03T16:07:43.749Z</time></trkpt><trkpt lat="44.4226817" lon="10.789745"><ele>791.9999999999999</ele><time>2026-05-03T16:07:45.749Z</time></trkpt><trkpt lat="44.4226633" lon="10.7898817"><ele>793.0</ele><time>2026-05-03T16:07:47.748Z</time></trkpt><trkpt lat="44.4226283" lon="10.79001"><ele>793.0</ele><time>2026-05-03T16:07:48.749Z</time></trkpt><trkpt lat="44.4225767" lon="10.79016"><ele>793.0</ele><time>2026-05-03T16:07:49.749Z</time></trkpt><trkpt lat="44.4225217" lon="10.7902867"><ele>793.0</ele><time>2026-05-03T16:07:50.749Z</time></trkpt><trkpt lat="44.4224767" lon="10.7904183"><ele>793.0</ele><time>2026-05-03T16:07:51.748Z</time></trkpt><trkpt lat="44.422415" lon="10.7905433"><ele>793.0</ele><time>2026-05-03T16:07:52.748Z</time></trkpt><trkpt lat="44.42236" lon="10.7906717"><ele>791.2</ele><time>2026-05-03T16:07:53.749Z</time></trkpt><trkpt lat="44.422305" lon="10.7908017"><ele>789.4</ele><time>2026-05-03T16:07:54.749Z</time></trkpt><trkpt lat="44.42226" lon="10.7909367"><ele>787.6</ele><time>2026-05-03T16:07:55.749Z</time></trkpt><trkpt lat="44.422225" lon="10.7910683"><ele>785.8000000000001</ele><time>2026-05-03T16:07:56.749Z</time></trkpt><trkpt lat="44.4222117" lon="10.79122"><ele>784.0</ele><time>2026-05-03T16:07:57.749Z</time></trkpt><trkpt lat="44.422205" lon="10.7913717"><ele>785.5</ele><time>2026-05-03T16:07:58.748Z</time></trkpt><trkpt lat="44.4221817" lon="10.7915467"><ele>787.0</ele><time>2026-05-03T16:07:59.749Z</time></trkpt><trkpt lat="44.4221667" lon="10.7917133"><ele>788.5</ele><time>2026-05-03T16:08:00.749Z</time></trkpt><trkpt lat="44.4221417" lon="10.79188"><ele>790.0</ele><time>2026-05-03T16:08:01.749Z</time></trkpt><trkpt lat="44.4221183" lon="10.7920417"><ele>790.0</ele><time>2026-05-03T16:08:02.749Z</time></trkpt><trkpt lat="44.4220983" lon="10.7922017"><ele>790.0</ele><time>2026-05-03T16:08:03.749Z</time></trkpt><trkpt lat="44.42206" lon="10.7923667"><ele>790.0</ele><time>2026-05-03T16:08:04.749Z</time></trkpt><trkpt lat="44.4220267" lon="10.7925283"><ele>790.0</ele><time>2026-05-03T16:08:05.749Z</time></trkpt><trkpt lat="44.421995" lon="10.79268"><ele>788.4999999999999</ele><time>2026-05-03T16:08:06.749Z</time></trkpt><trkpt lat="44.4219667" lon="10.7928283"><ele>787.0</ele><time>2026-05-03T16:08:07.748Z</time></trkpt><trkpt lat="44.421945" lon="10.7929633"><ele>785.5</ele><time>2026-05-03T16:08:08.749Z</time></trkpt><trkpt lat="44.4219367" lon="10.7930917"><ele>784.0</ele><time>2026-05-03T16:08:09.748Z</time></trkpt><trkpt lat="44.4219483" lon="10.793195"><ele>782.4999999999999</ele><time>2026-05-03T16:08:10.749Z</time></trkpt><trkpt lat="44.4219733" lon="10.7932817"><ele>781.0</ele><time>2026-05-03T16:08:11.749Z</time></trkpt><trkpt lat="44.42204" lon="10.7933633"><ele>781.0</ele><time>2026-05-03T16:08:13.749Z</time></trkpt><trkpt lat="44.4221233" lon="10.793325"><ele>781.0</ele><time>2026-05-03T16:08:15.748Z</time></trkpt><trkpt lat="44.42216" lon="10.79316"><ele>781.0</ele><time>2026-05-03T16:08:17.749Z</time></trkpt><trkpt lat="44.4221617" lon="10.7930383"><ele>781.0</ele><time>2026-05-03T16:08:18.749Z</time></trkpt><trkpt lat="44.422165" lon="10.7929083"><ele>781.0</ele><time>2026-05-03T16:08:19.749Z</time></trkpt><trkpt lat="44.42218" lon="10.7927983"><ele>779.0</ele><time>2026-05-03T16:08:20.749Z</time></trkpt><trkpt lat="44.4221983" lon="10.7926933"><ele>777.0</ele><time>2026-05-03T16:08:21.749Z</time></trkpt><trkpt lat="44.42223" lon="10.792595"><ele>775.0</ele><time>2026-05-03T16:08:22.749Z</time></trkpt><trkpt lat="44.422265" lon="10.7925133"><ele>773.0</ele><time>2026-05-03T16:08:23.749Z</time></trkpt><trkpt lat="44.4223117" lon="10.7924367"><ele>771.0</ele><time>2026-05-03T16:08:24.749Z</time></trkpt><trkpt lat="44.42237" lon="10.7923933"><ele>769.0</ele><time>2026-05-03T16:08:25.748Z</time></trkpt><trkpt lat="44.4224383" lon="10.7923833"><ele>767.0</ele><time>2026-05-03T16:08:26.749Z</time></trkpt><trkpt lat="44.4225217" lon="10.7924033"><ele>767.0</ele><time>2026-05-03T16:08:27.748Z</time></trkpt><trkpt lat="44.4226117" lon="10.7924167"><ele>767.0</ele><time>2026-05-03T16:08:28.749Z</time></trkpt><trkpt lat="44.4227017" lon="10.7924017"><ele>767.0</ele><time>2026-05-03T16:08:29.749Z</time></trkpt><trkpt lat="44.4227917" lon="10.7923883"><ele>767.0</ele><time>2026-05-03T16:08:30.749Z</time></trkpt><trkpt lat="44.4228933" lon="10.792385"><ele>767.0</ele><time>2026-05-03T16:08:31.749Z</time></trkpt><trkpt lat="44.4229967" lon="10.79239"><ele>763.25</ele><time>2026-05-03T16:08:32.749Z</time></trkpt><trkpt lat="44.4231083" lon="10.7923833"><ele>759.5</ele><time>2026-05-03T16:08:33.749Z</time></trkpt><trkpt lat="44.4232183" lon="10.7924067"><ele>755.75</ele><time>2026-05-03T16:08:34.749Z</time></trkpt><trkpt lat="44.423335" lon="10.7924333"><ele>752.0</ele><time>2026-05-03T16:08:35.749Z</time></trkpt><trkpt lat="44.4234483" lon="10.79245"><ele>752.0</ele><time>2026-05-03T16:08:36.748Z</time></trkpt><trkpt lat="44.4235617" lon="10.792475"><ele>752.0</ele><time>2026-05-03T16:08:37.749Z</time></trkpt><trkpt lat="44.4236633" lon="10.7924933"><ele>752.0</ele><time>2026-05-03T16:08:38.749Z</time></trkpt><trkpt lat="44.4237733" lon="10.7925"><ele>752.0</ele><time>2026-05-03T16:08:39.749Z</time></trkpt><trkpt lat="44.42386" lon="10.79248"><ele>752.0</ele><time>2026-05-03T16:08:40.749Z</time></trkpt><trkpt lat="44.4239517" lon="10.7924267"><ele>749.0</ele><time>2026-05-03T16:08:41.749Z</time></trkpt><trkpt lat="44.4240417" lon="10.7923433"><ele>746.0</ele><time>2026-05-03T16:08:42.748Z</time></trkpt><trkpt lat="44.4241417" lon="10.7922483"><ele>743.0</ele><time>2026-05-03T16:08:43.749Z</time></trkpt><trkpt lat="44.42425" lon="10.7921767"><ele>740.0</ele><time>2026-05-03T16:08:44.748Z</time></trkpt><trkpt lat="44.42437" lon="10.7921317"><ele>740.0</ele><time>2026-05-03T16:08:45.749Z</time></trkpt><trkpt lat="44.4244917" lon="10.7921017"><ele>740.0</ele><time>2026-05-03T16:08:46.749Z</time></trkpt><trkpt lat="44.4245967" lon="10.7920833"><ele>740.0</ele><time>2026-05-03T16:08:47.749Z</time></trkpt><trkpt lat="44.4246817" lon="10.7920933"><ele>740.0</ele><time>2026-05-03T16:08:48.749Z</time></trkpt><trkpt lat="44.4247667" lon="10.7921267"><ele>740.0</ele><time>2026-05-03T16:08:49.748Z</time></trkpt><trkpt lat="44.4248483" lon="10.7921967"><ele>737.0</ele><time>2026-05-03T16:08:50.749Z</time></trkpt><trkpt lat="44.4249367" lon="10.7922867"><ele>734.0</ele><time>2026-05-03T16:08:51.749Z</time></trkpt><trkpt lat="44.4250417" lon="10.792375"><ele>731.0</ele><time>2026-05-03T16:08:52.749Z</time></trkpt><trkpt lat="44.4251533" lon="10.7924567"><ele>728.0</ele><time>2026-05-03T16:08:53.749Z</time></trkpt><trkpt lat="44.425255" lon="10.7925383"><ele>728.0</ele><time>2026-05-03T16:08:54.748Z</time></trkpt><trkpt lat="44.4253567" lon="10.79263"><ele>728.0</ele><time>2026-05-03T16:08:55.748Z</time></trkpt><trkpt lat="44.425445" lon="10.79274"><ele>728.0</ele><time>2026-05-03T16:08:56.749Z</time></trkpt><trkpt lat="44.4255517" lon="10.7928433"><ele>728.0</ele><time>2026-05-03T16:08:57.749Z</time></trkpt><trkpt lat="44.4256533" lon="10.7929467"><ele>720.25</ele><time>2026-05-03T16:08:58.749Z</time></trkpt><trkpt lat="44.425765" lon="10.7930467"><ele>712.5</ele><time>2026-05-03T16:08:59.749Z</time></trkpt><trkpt lat="44.4258833" lon="10.7931333"><ele>704.75</ele><time>2026-05-03T16:09:00.749Z</time></trkpt><trkpt lat="44.425995" lon="10.7932133"><ele>697.0</ele><time>2026-05-03T16:09:01.749Z</time></trkpt><trkpt lat="44.42612" lon="10.7932833"><ele>697.0</ele><time>2026-05-03T16:09:02.748Z</time></trkpt><trkpt lat="44.4262333" lon="10.7933483"><ele>697.0</ele><time>2026-05-03T16:09:03.749Z</time></trkpt><trkpt lat="44.4263467" lon="10.793385"><ele>697.0</ele><time>2026-05-03T16:09:04.749Z</time></trkpt><trkpt lat="44.4264533" lon="10.7934083"><ele>697.0</ele><time>2026-05-03T16:09:05.749Z</time></trkpt><trkpt lat="44.4265433" lon="10.7934383"><ele>697.0</ele><time>2026-05-03T16:09:06.749Z</time></trkpt><trkpt lat="44.42663" lon="10.7934517"><ele>696.8333333333334</ele><time>2026-05-03T16:09:07.748Z</time></trkpt><trkpt lat="44.4266983" lon="10.7934467"><ele>696.6666666666667</ele><time>2026-05-03T16:09:08.748Z</time></trkpt><trkpt lat="44.4267733" lon="10.79344"><ele>696.5</ele><time>2026-05-03T16:09:09.749Z</time></trkpt><trkpt lat="44.42686" lon="10.7934333"><ele>696.3333333333334</ele><time>2026-05-03T16:09:10.748Z</time></trkpt><trkpt lat="44.4269417" lon="10.79343"><ele>696.1666666666666</ele><time>2026-05-03T16:09:11.749Z</time></trkpt><trkpt lat="44.4270283" lon="10.7934267"><ele>696.0</ele><time>2026-05-03T16:09:12.749Z</time></trkpt><trkpt lat="44.4271083" lon="10.7934183"><ele>694.1666666666666</ele><time>2026-05-03T16:09:13.749Z</time></trkpt><trkpt lat="44.4271783" lon="10.7933933"><ele>692.3333333333334</ele><time>2026-05-03T16:09:14.749Z</time></trkpt><trkpt lat="44.4272467" lon="10.7933517"><ele>690.5</ele><time>2026-05-03T16:09:15.749Z</time></trkpt><trkpt lat="44.427305" lon="10.7932683"><ele>688.6666666666667</ele><time>2026-05-03T16:09:16.748Z</time></trkpt><trkpt lat="44.4273517" lon="10.7931733"><ele>686.8333333333334</ele><time>2026-05-03T16:09:17.749Z</time></trkpt><trkpt lat="44.4274017" lon="10.793075"><ele>685.0</ele><time>2026-05-03T16:09:18.749Z</time></trkpt><trkpt lat="44.42745" lon="10.7929917"><ele>685.0</ele><time>2026-05-03T16:09:19.748Z</time></trkpt><trkpt lat="44.4275183" lon="10.7929317"><ele>685.0</ele><time>2026-05-03T16:09:20.749Z</time></trkpt><trkpt lat="44.4276033" lon="10.79289"><ele>685.0</ele><time>2026-05-03T16:09:21.749Z</time></trkpt><trkpt lat="44.4276983" lon="10.79288"><ele>685.0</ele><time>2026-05-03T16:09:22.749Z</time></trkpt><trkpt lat="44.4278083" lon="10.792885"><ele>685.0</ele><time>2026-05-03T16:09:23.749Z</time></trkpt><trkpt lat="44.4279167" lon="10.7928983"><ele>683.4</ele><time>2026-05-03T16:09:24.749Z</time></trkpt><trkpt lat="44.428025" lon="10.79291"><ele>681.8</ele><time>2026-05-03T16:09:25.749Z</time></trkpt><trkpt lat="44.4281367" lon="10.792905"><ele>680.2</ele><time>2026-05-03T16:09:26.749Z</time></trkpt><trkpt lat="44.4282383" lon="10.792885"><ele>678.6</ele><time>2026-05-03T16:09:27.749Z</time></trkpt><trkpt lat="44.4283367" lon="10.792845"><ele>677.0</ele><time>2026-05-03T16:09:28.749Z</time></trkpt><trkpt lat="44.4284367" lon="10.792795"><ele>677.0</ele><time>2026-05-03T16:09:29.749Z</time></trkpt><trkpt lat="44.428545" lon="10.7927483"><ele>677.0</ele><time>2026-05-03T16:09:30.748Z</time></trkpt><trkpt lat="44.4286467" lon="10.79274"><ele>677.0</ele><time>2026-05-03T16:09:31.749Z</time></trkpt><trkpt lat="44.4287417" lon="10.792765"><ele>677.0</ele><time>2026-05-03T16:09:32.749Z</time></trkpt><trkpt lat="44.4288233" lon="10.7928133"><ele>677.0</ele><time>2026-05-03T16:09:33.748Z</time></trkpt><trkpt lat="44.428915" lon="10.792855"><ele>677.6666666666666</ele><time>2026-05-03T16:09:34.749Z</time></trkpt><trkpt lat="44.4290033" lon="10.7929067"><ele>678.3333333333333</ele><time>2026-05-03T16:09:35.749Z</time></trkpt><trkpt lat="44.4291133" lon="10.7929533"><ele>679.0</ele><time>2026-05-03T16:09:36.749Z</time></trkpt><trkpt lat="44.4291983" lon="10.79299"><ele>679.6666666666666</ele><time>2026-05-03T16:09:37.749Z</time></trkpt><trkpt lat="44.4292683" lon="10.7930117"><ele>680.3333333333334</ele><time>2026-05-03T16:09:38.748Z</time></trkpt><trkpt lat="44.4293317" lon="10.7930117"><ele>681.0</ele><time>2026-05-03T16:09:39.748Z</time></trkpt><trkpt lat="44.4294433" lon="10.7930183"><ele>681.0000000000001</ele><time>2026-05-03T16:09:41.748Z</time></trkpt><trkpt lat="44.4295067" lon="10.7930333"><ele>681.0</ele><time>2026-05-03T16:09:42.749Z</time></trkpt><trkpt lat="44.4295783" lon="10.7930633"><ele>681.0</ele><time>2026-05-03T16:09:43.748Z</time></trkpt><trkpt lat="44.4296517" lon="10.7930933"><ele>681.0</ele><time>2026-05-03T16:09:44.748Z</time></trkpt><trkpt lat="44.42972" lon="10.7931217"><ele>681.0</ele><time>2026-05-03T16:09:45.749Z</time></trkpt><trkpt lat="44.429795" lon="10.7931433"><ele>681.0000000000001</ele><time>2026-05-03T16:09:46.749Z</time></trkpt><trkpt lat="44.4298683" lon="10.79316"><ele>681.0</ele><time>2026-05-03T16:09:47.749Z</time></trkpt><trkpt lat="44.4299417" lon="10.7931717"><ele>681.8333333333334</ele><time>2026-05-03T16:09:48.749Z</time></trkpt><trkpt lat="44.4300233" lon="10.7931867"><ele>682.6666666666666</ele><time>2026-05-03T16:09:49.749Z</time></trkpt><trkpt lat="44.4300867" lon="10.7932033"><ele>683.5</ele><time>2026-05-03T16:09:50.748Z</time></trkpt><trkpt lat="44.43016" lon="10.7933017"><ele>684.3333333333333</ele><time>2026-05-03T16:09:52.749Z</time></trkpt><trkpt lat="44.4301617" lon="10.793445"><ele>685.1666666666666</ele><time>2026-05-03T16:09:54.748Z</time></trkpt><trkpt lat="44.4301667" lon="10.79356"><ele>686.0</ele><time>2026-05-03T16:09:55.749Z</time></trkpt><trkpt lat="44.4301733" lon="10.793685"><ele>682.3333333333333</ele><time>2026-05-03T16:09:56.749Z</time></trkpt><trkpt lat="44.430185" lon="10.793795"><ele>678.6666666666666</ele><time>2026-05-03T16:09:57.749Z</time></trkpt><trkpt lat="44.4302133" lon="10.7938933"><ele>675.0</ele><time>2026-05-03T16:09:58.748Z</time></trkpt><trkpt lat="44.4302583" lon="10.7939933"><ele>671.3333333333334</ele><time>2026-05-03T16:09:59.749Z</time></trkpt><trkpt lat="44.430315" lon="10.7940917"><ele>667.6666666666667</ele><time>2026-05-03T16:10:00.749Z</time></trkpt><trkpt lat="44.43036" lon="10.79419"><ele>664.0</ele><time>2026-05-03T16:10:01.749Z</time></trkpt><trkpt lat="44.430425" lon="10.7942817"><ele>662.6666666666667</ele><time>2026-05-03T16:10:02.748Z</time></trkpt><trkpt lat="44.4304833" lon="10.7943817"><ele>661.3333333333334</ele><time>2026-05-03T16:10:03.748Z</time></trkpt><trkpt lat="44.430545" lon="10.7944733"><ele>660.0</ele><time>2026-05-03T16:10:04.748Z</time></trkpt><trkpt lat="44.4306033" lon="10.7945733"><ele>658.6666666666666</ele><time>2026-05-03T16:10:05.749Z</time></trkpt><trkpt lat="44.4306567" lon="10.794665"><ele>657.3333333333333</ele><time>2026-05-03T16:10:06.748Z</time></trkpt><trkpt lat="44.4307133" lon="10.7947467"><ele>656.0</ele><time>2026-05-03T16:10:07.749Z</time></trkpt><trkpt lat="44.4307717" lon="10.79483"><ele>656.0</ele><time>2026-05-03T16:10:08.749Z</time></trkpt><trkpt lat="44.4308367" lon="10.794895"><ele>656.0</ele><time>2026-05-03T16:10:09.749Z</time></trkpt><trkpt lat="44.4309033" lon="10.79496"><ele>656.0</ele><time>2026-05-03T16:10:10.748Z</time></trkpt><trkpt lat="44.4309733" lon="10.7950117"><ele>656.0</ele><time>2026-05-03T16:10:11.749Z</time></trkpt><trkpt lat="44.4310467" lon="10.7950567"><ele>656.0</ele><time>2026-05-03T16:10:12.749Z</time></trkpt><trkpt lat="44.4311167" lon="10.7951183"><ele>656.0</ele><time>2026-05-03T16:10:13.749Z</time></trkpt><trkpt lat="44.43119" lon="10.7951867"><ele>654.4</ele><time>2026-05-03T16:10:14.749Z</time></trkpt><trkpt lat="44.4312717" lon="10.7952583"><ele>652.8</ele><time>2026-05-03T16:10:15.748Z</time></trkpt><trkpt lat="44.43136" lon="10.7953417"><ele>651.1999999999999</ele><time>2026-05-03T16:10:16.749Z</time></trkpt><trkpt lat="44.4314367" lon="10.7954283"><ele>649.5999999999999</ele><time>2026-05-03T16:10:17.749Z</time></trkpt><trkpt lat="44.4315033" lon="10.79551"><ele>648.0</ele><time>2026-05-03T16:10:18.749Z</time></trkpt><trkpt lat="44.4315533" lon="10.79559"><ele>648.0</ele><time>2026-05-03T16:10:19.749Z</time></trkpt><trkpt lat="44.431605" lon="10.7956467"><ele>648.0</ele><time>2026-05-03T16:10:20.749Z</time></trkpt><trkpt lat="44.4316683" lon="10.79572"><ele>648.0</ele><time>2026-05-03T16:10:22.749Z</time></trkpt><trkpt lat="44.43175" lon="10.7957933"><ele>648.0</ele><time>2026-05-03T16:10:25.748Z</time></trkpt><trkpt lat="44.4318117" lon="10.7958233"><ele>648.0</ele><time>2026-05-03T16:10:26.748Z</time></trkpt><trkpt lat="44.4318867" lon="10.7958383"><ele>648.0</ele><time>2026-05-03T16:10:27.749Z</time></trkpt><trkpt lat="44.4319767" lon="10.7958667"><ele>648.0</ele><time>2026-05-03T16:10:28.749Z</time></trkpt><trkpt lat="44.4320633" lon="10.7959167"><ele>648.0</ele><time>2026-05-03T16:10:29.748Z</time></trkpt><trkpt lat="44.43215" lon="10.7959783"><ele>648.0</ele><time>2026-05-03T16:10:30.749Z</time></trkpt><trkpt lat="44.4322383" lon="10.79605"><ele>648.0</ele><time>2026-05-03T16:10:31.749Z</time></trkpt><trkpt lat="44.4323183" lon="10.7961433"><ele>648.0</ele><time>2026-05-03T16:10:32.749Z</time></trkpt><trkpt lat="44.4323967" lon="10.796225"><ele>645.1999999999999</ele><time>2026-05-03T16:10:33.749Z</time></trkpt><trkpt lat="44.4324817" lon="10.7963017"><ele>642.4</ele><time>2026-05-03T16:10:34.748Z</time></trkpt><trkpt lat="44.432575" lon="10.796375"><ele>639.5999999999999</ele><time>2026-05-03T16:10:35.749Z</time></trkpt><trkpt lat="44.4326767" lon="10.7964583"><ele>636.8</ele><time>2026-05-03T16:10:36.748Z</time></trkpt><trkpt lat="44.4327717" lon="10.7965483"><ele>634.0</ele><time>2026-05-03T16:10:37.748Z</time></trkpt><trkpt lat="44.4328633" lon="10.796645"><ele>634.0</ele><time>2026-05-03T16:10:38.748Z</time></trkpt><trkpt lat="44.4329583" lon="10.796745"><ele>634.0</ele><time>2026-05-03T16:10:39.749Z</time></trkpt><trkpt lat="44.4330567" lon="10.7968433"><ele>634.0</ele><time>2026-05-03T16:10:40.749Z</time></trkpt><trkpt lat="44.43314" lon="10.7969433"><ele>634.0</ele><time>2026-05-03T16:10:41.749Z</time></trkpt><trkpt lat="44.4332067" lon="10.7970667"><ele>632.25</ele><time>2026-05-03T16:10:42.749Z</time></trkpt><trkpt lat="44.4332717" lon="10.797195"><ele>630.5</ele><time>2026-05-03T16:10:43.748Z</time></trkpt><trkpt lat="44.4333267" lon="10.7973417"><ele>628.75</ele><time>2026-05-03T16:10:44.749Z</time></trkpt><trkpt lat="44.4333717" lon="10.7974967"><ele>627.0</ele><time>2026-05-03T16:10:45.748Z</time></trkpt><trkpt lat="44.4334283" lon="10.7976467"><ele>626.0</ele><time>2026-05-03T16:10:46.749Z</time></trkpt><trkpt lat="44.433495" lon="10.7977883"><ele>625.0</ele><time>2026-05-03T16:10:47.749Z</time></trkpt><trkpt lat="44.4335567" lon="10.7979233"><ele>624.0</ele><time>2026-05-03T16:10:48.748Z</time></trkpt><trkpt lat="44.433615" lon="10.79804"><ele>623.0</ele><time>2026-05-03T16:10:49.748Z</time></trkpt><trkpt lat="44.4337" lon="10.7981333"><ele>622.0</ele><time>2026-05-03T16:10:50.749Z</time></trkpt><trkpt lat="44.43377" lon="10.7982283"><ele>621.8333333333334</ele><time>2026-05-03T16:10:51.749Z</time></trkpt><trkpt lat="44.4338333" lon="10.79831"><ele>621.6666666666667</ele><time>2026-05-03T16:10:52.749Z</time></trkpt><trkpt lat="44.43388" lon="10.7983967"><ele>621.5</ele><time>2026-05-03T16:10:53.749Z</time></trkpt><trkpt lat="44.4339433" lon="10.7984783"><ele>621.3333333333334</ele><time>2026-05-03T16:10:54.749Z</time></trkpt><trkpt lat="44.433995" lon="10.798565"><ele>621.1666666666666</ele><time>2026-05-03T16:10:55.748Z</time></trkpt><trkpt lat="44.4340433" lon="10.7986567"><ele>621.0</ele><time>2026-05-03T16:10:56.749Z</time></trkpt><trkpt lat="44.4340967" lon="10.798745"><ele>621.0</ele><time>2026-05-03T16:10:57.749Z</time></trkpt><trkpt lat="44.4341517" lon="10.7988317"><ele>621.0</ele><time>2026-05-03T16:10:58.748Z</time></trkpt><trkpt lat="44.43421" lon="10.7989167"><ele>621.0</ele><time>2026-05-03T16:10:59.749Z</time></trkpt><trkpt lat="44.4342667" lon="10.79901"><ele>621.0</ele><time>2026-05-03T16:11:00.747Z</time></trkpt><trkpt lat="44.43432" lon="10.7990983"><ele>621.0</ele><time>2026-05-03T16:11:01.747Z</time></trkpt><trkpt lat="44.4343667" lon="10.7991917"><ele>621.0</ele><time>2026-05-03T16:11:02.748Z</time></trkpt><trkpt lat="44.4344233" lon="10.79928"><ele>620.8333333333334</ele><time>2026-05-03T16:11:03.748Z</time></trkpt><trkpt lat="44.4344817" lon="10.79936"><ele>620.6666666666666</ele><time>2026-05-03T16:11:04.748Z</time></trkpt><trkpt lat="44.4345417" lon="10.7994333"><ele>620.5</ele><time>2026-05-03T16:11:05.748Z</time></trkpt><trkpt lat="44.4346117" lon="10.799505"><ele>620.3333333333333</ele><time>2026-05-03T16:11:06.747Z</time></trkpt><trkpt lat="44.4346767" lon="10.79957"><ele>620.1666666666666</ele><time>2026-05-03T16:11:07.747Z</time></trkpt><trkpt lat="44.43475" lon="10.7996333"><ele>620.0</ele><time>2026-05-03T16:11:08.748Z</time></trkpt><trkpt lat="44.4348317" lon="10.799685"><ele>620.0</ele><time>2026-05-03T16:11:09.748Z</time></trkpt><trkpt lat="44.4349217" lon="10.7997283"><ele>620.0</ele><time>2026-05-03T16:11:10.748Z</time></trkpt><trkpt lat="44.43501" lon="10.7997867"><ele>620.0</ele><time>2026-05-03T16:11:11.748Z</time></trkpt><trkpt lat="44.4351017" lon="10.7998417"><ele>620.0</ele><time>2026-05-03T16:11:12.748Z</time></trkpt><trkpt lat="44.4351917" lon="10.7998867"><ele>620.0</ele><time>2026-05-03T16:11:13.748Z</time></trkpt><trkpt lat="44.4352783" lon="10.7999383"><ele>620.0</ele><time>2026-05-03T16:11:14.748Z</time></trkpt><trkpt lat="44.4353517" lon="10.799995"><ele>620.0</ele><time>2026-05-03T16:11:15.748Z</time></trkpt><trkpt lat="44.4354067" lon="10.8000683"><ele>620.0</ele><time>2026-05-03T16:11:16.747Z</time></trkpt><trkpt lat="44.4354467" lon="10.8001667"><ele>620.0</ele><time>2026-05-03T16:11:17.747Z</time></trkpt><trkpt lat="44.4354733" lon="10.8002717"><ele>620.0</ele><time>2026-05-03T16:11:18.748Z</time></trkpt><trkpt lat="44.4355067" lon="10.8003967"><ele>620.0</ele><time>2026-05-03T16:11:19.748Z</time></trkpt><trkpt lat="44.435545" lon="10.8005183"><ele>619.6</ele><time>2026-05-03T16:11:20.748Z</time></trkpt><trkpt lat="44.435585" lon="10.8006467"><ele>619.2</ele><time>2026-05-03T16:11:21.747Z</time></trkpt><trkpt lat="44.435635" lon="10.8007683"><ele>618.8</ele><time>2026-05-03T16:11:22.748Z</time></trkpt><trkpt lat="44.4356933" lon="10.80089"><ele>618.4</ele><time>2026-05-03T16:11:23.747Z</time></trkpt><trkpt lat="44.4357617" lon="10.801005"><ele>618.0</ele><time>2026-05-03T16:11:24.748Z</time></trkpt><trkpt lat="44.4358217" lon="10.8010917"><ele>615.4</ele><time>2026-05-03T16:11:25.747Z</time></trkpt><trkpt lat="44.43596" lon="10.801195"><ele>612.8</ele><time>2026-05-03T16:11:27.748Z</time></trkpt><trkpt lat="44.436035" lon="10.8012183"><ele>610.2</ele><time>2026-05-03T16:11:28.747Z</time></trkpt><trkpt lat="44.4361083" lon="10.8012417"><ele>607.6</ele><time>2026-05-03T16:11:29.748Z</time></trkpt><trkpt lat="44.436185" lon="10.8012833"><ele>605.0</ele><time>2026-05-03T16:11:30.747Z</time></trkpt><trkpt lat="44.43625" lon="10.80135"><ele>608.1666666666666</ele><time>2026-05-03T16:11:31.747Z</time></trkpt><trkpt lat="44.4363167" lon="10.8014217"><ele>611.3333333333333</ele><time>2026-05-03T16:11:32.748Z</time></trkpt><trkpt lat="44.436385" lon="10.8015067"><ele>614.5</ele><time>2026-05-03T16:11:33.748Z</time></trkpt><trkpt lat="44.436455" lon="10.8015883"><ele>617.6666666666666</ele><time>2026-05-03T16:11:34.748Z</time></trkpt><trkpt lat="44.4365233" lon="10.8016617"><ele>620.8333333333334</ele><time>2026-05-03T16:11:35.747Z</time></trkpt><trkpt lat="44.4365917" lon="10.8017367"><ele>624.0</ele><time>2026-05-03T16:11:36.748Z</time></trkpt><trkpt lat="44.4366483" lon="10.80181"><ele>622.3333333333334</ele><time>2026-05-03T16:11:37.748Z</time></trkpt><trkpt lat="44.436705" lon="10.8018917"><ele>620.6666666666666</ele><time>2026-05-03T16:11:38.747Z</time></trkpt><trkpt lat="44.43677" lon="10.801965"><ele>619.0</ele><time>2026-05-03T16:11:39.748Z</time></trkpt><trkpt lat="44.4368467" lon="10.802035"><ele>617.3333333333333</ele><time>2026-05-03T16:11:40.748Z</time></trkpt><trkpt lat="44.4369233" lon="10.8020917"><ele>615.6666666666666</ele><time>2026-05-03T16:11:41.747Z</time></trkpt><trkpt lat="44.4369933" lon="10.8021517"><ele>614.0</ele><time>2026-05-03T16:11:42.748Z</time></trkpt><trkpt lat="44.4370633" lon="10.80219"><ele>614.0</ele><time>2026-05-03T16:11:43.747Z</time></trkpt><trkpt lat="44.4371233" lon="10.8022167"><ele>614.0</ele><time>2026-05-03T16:11:44.748Z</time></trkpt><trkpt lat="44.4372417" lon="10.8022083"><ele>614.0</ele><time>2026-05-03T16:11:46.748Z</time></trkpt><trkpt lat="44.437305" lon="10.8021883"><ele>614.0</ele><time>2026-05-03T16:11:47.747Z</time></trkpt><trkpt lat="44.43737" lon="10.8021533"><ele>614.0</ele><time>2026-05-03T16:11:48.748Z</time></trkpt><trkpt lat="44.4374467" lon="10.80212"><ele>614.0</ele><time>2026-05-03T16:11:49.748Z</time></trkpt><trkpt lat="44.437515" lon="10.8020883"><ele>614.6666666666666</ele><time>2026-05-03T16:11:50.747Z</time></trkpt><trkpt lat="44.4375933" lon="10.8020483"><ele>615.3333333333333</ele><time>2026-05-03T16:11:51.748Z</time></trkpt><trkpt lat="44.4376783" lon="10.8020067"><ele>616.0</ele><time>2026-05-03T16:11:52.748Z</time></trkpt><trkpt lat="44.4377617" lon="10.8019667"><ele>616.6666666666666</ele><time>2026-05-03T16:11:53.747Z</time></trkpt><trkpt lat="44.4378433" lon="10.801905"><ele>617.3333333333334</ele><time>2026-05-03T16:11:54.747Z</time></trkpt><trkpt lat="44.437925" lon="10.8018433"><ele>618.0</ele><time>2026-05-03T16:11:55.748Z</time></trkpt><trkpt lat="44.438" lon="10.8017933"><ele>618.1666666666666</ele><time>2026-05-03T16:11:56.748Z</time></trkpt><trkpt lat="44.4380683" lon="10.8017433"><ele>618.3333333333334</ele><time>2026-05-03T16:11:57.748Z</time></trkpt><trkpt lat="44.4381367" lon="10.8017017"><ele>618.5</ele><time>2026-05-03T16:11:58.748Z</time></trkpt><trkpt lat="44.4382067" lon="10.8016533"><ele>618.6666666666667</ele><time>2026-05-03T16:11:59.748Z</time></trkpt><trkpt lat="44.4382817" lon="10.8016117"><ele>618.8333333333334</ele><time>2026-05-03T16:12:00.748Z</time></trkpt><trkpt lat="44.4383633" lon="10.8015667"><ele>619.0</ele><time>2026-05-03T16:12:01.748Z</time></trkpt><trkpt lat="44.438455" lon="10.8015317"><ele>619.0</ele><time>2026-05-03T16:12:02.747Z</time></trkpt><trkpt lat="44.4385333" lon="10.8015267"><ele>619.0</ele><time>2026-05-03T16:12:03.748Z</time></trkpt><trkpt lat="44.438615" lon="10.8015433"><ele>619.0</ele><time>2026-05-03T16:12:04.748Z</time></trkpt><trkpt lat="44.4386917" lon="10.8015967"><ele>619.0</ele><time>2026-05-03T16:12:05.748Z</time></trkpt><trkpt lat="44.4387667" lon="10.8016617"><ele>619.0</ele><time>2026-05-03T16:12:06.748Z</time></trkpt><trkpt lat="44.4388567" lon="10.8017167"><ele>619.0</ele><time>2026-05-03T16:12:07.748Z</time></trkpt><trkpt lat="44.4389417" lon="10.801735"><ele>615.2</ele><time>2026-05-03T16:12:08.747Z</time></trkpt><trkpt lat="44.4390267" lon="10.8017183"><ele>611.4</ele><time>2026-05-03T16:12:09.748Z</time></trkpt><trkpt lat="44.4391133" lon="10.8016983"><ele>607.6</ele><time>2026-05-03T16:12:10.747Z</time></trkpt><trkpt lat="44.43921" lon="10.80167"><ele>603.8</ele><time>2026-05-03T16:12:11.748Z</time></trkpt><trkpt lat="44.4393117" lon="10.8016367"><ele>600.0</ele><time>2026-05-03T16:12:12.748Z</time></trkpt><trkpt lat="44.4394133" lon="10.8016083"><ele>600.0</ele><time>2026-05-03T16:12:13.748Z</time></trkpt><trkpt lat="44.4395117" lon="10.8015667"><ele>600.0</ele><time>2026-05-03T16:12:14.748Z</time></trkpt><trkpt lat="44.4396117" lon="10.8015233"><ele>600.0</ele><time>2026-05-03T16:12:15.748Z</time></trkpt><trkpt lat="44.4397067" lon="10.8014683"><ele>600.0</ele><time>2026-05-03T16:12:16.748Z</time></trkpt><trkpt lat="44.4398017" lon="10.8014017"><ele>600.0</ele><time>2026-05-03T16:12:17.748Z</time></trkpt><trkpt lat="44.4398917" lon="10.8013233"><ele>600.75</ele><time>2026-05-03T16:12:18.748Z</time></trkpt><trkpt lat="44.439975" lon="10.8012467"><ele>601.5</ele><time>2026-05-03T16:12:19.748Z</time></trkpt><trkpt lat="44.4400683" lon="10.80115"><ele>602.25</ele><time>2026-05-03T16:12:20.748Z</time></trkpt><trkpt lat="44.44017" lon="10.8010617"><ele>603.0</ele><time>2026-05-03T16:12:21.748Z</time></trkpt><trkpt lat="44.4402633" lon="10.8009667"><ele>603.0</ele><time>2026-05-03T16:12:22.748Z</time></trkpt><trkpt lat="44.4403417" lon="10.8008617"><ele>603.0</ele><time>2026-05-03T16:12:23.748Z</time></trkpt><trkpt lat="44.4404133" lon="10.8007483"><ele>603.0</ele><time>2026-05-03T16:12:24.748Z</time></trkpt><trkpt lat="44.4404817" lon="10.80061"><ele>603.0</ele><time>2026-05-03T16:12:25.748Z</time></trkpt><trkpt lat="44.4405617" lon="10.8004817"><ele>600.75</ele><time>2026-05-03T16:12:26.748Z</time></trkpt><trkpt lat="44.4406433" lon="10.80035"><ele>598.5</ele><time>2026-05-03T16:12:27.748Z</time></trkpt><trkpt lat="44.44072" lon="10.80022"><ele>596.25</ele><time>2026-05-03T16:12:28.748Z</time></trkpt><trkpt lat="44.440785" lon="10.8000767"><ele>594.0</ele><time>2026-05-03T16:12:29.748Z</time></trkpt><trkpt lat="44.44085" lon="10.79994"><ele>594.0</ele><time>2026-05-03T16:12:30.748Z</time></trkpt><trkpt lat="44.440915" lon="10.7998067"><ele>594.0</ele><time>2026-05-03T16:12:31.748Z</time></trkpt><trkpt lat="44.4409783" lon="10.7996817"><ele>594.0</ele><time>2026-05-03T16:12:32.748Z</time></trkpt><trkpt lat="44.4410317" lon="10.799565"><ele>594.0</ele><time>2026-05-03T16:12:33.748Z</time></trkpt><trkpt lat="44.44109" lon="10.7994583"><ele>594.0</ele><time>2026-05-03T16:12:34.748Z</time></trkpt><trkpt lat="44.441145" lon="10.7993567"><ele>594.8333333333334</ele><time>2026-05-03T16:12:35.747Z</time></trkpt><trkpt lat="44.4411867" lon="10.7992733"><ele>595.6666666666666</ele><time>2026-05-03T16:12:36.747Z</time></trkpt><trkpt lat="44.4412283" lon="10.799195"><ele>596.5</ele><time>2026-05-03T16:12:37.747Z</time></trkpt><trkpt lat="44.44129" lon="10.799085"><ele>597.3333333333333</ele><time>2026-05-03T16:12:39.747Z</time></trkpt><trkpt lat="44.441355" lon="10.7989833"><ele>598.1666666666666</ele><time>2026-05-03T16:12:41.748Z</time></trkpt><trkpt lat="44.4413883" lon="10.7989067"><ele>599.0</ele><time>2026-05-03T16:12:42.748Z</time></trkpt><trkpt lat="44.4414267" lon="10.7988117"><ele>597.6</ele><time>2026-05-03T16:12:43.748Z</time></trkpt><trkpt lat="44.4414667" lon="10.7987067"><ele>596.2</ele><time>2026-05-03T16:12:44.748Z</time></trkpt><trkpt lat="44.44151" lon="10.7986017"><ele>594.8000000000001</ele><time>2026-05-03T16:12:45.748Z</time></trkpt><trkpt lat="44.4415633" lon="10.79849"><ele>593.4</ele><time>2026-05-03T16:12:46.748Z</time></trkpt><trkpt lat="44.44162" lon="10.798385"><ele>592.0</ele><time>2026-05-03T16:12:47.748Z</time></trkpt><trkpt lat="44.4416767" lon="10.79829"><ele>592.0</ele><time>2026-05-03T16:12:48.748Z</time></trkpt><trkpt lat="44.4417433" lon="10.7982067"><ele>592.0</ele><time>2026-05-03T16:12:49.748Z</time></trkpt><trkpt lat="44.4418133" lon="10.7981433"><ele>592.0</ele><time>2026-05-03T16:12:50.747Z</time></trkpt><trkpt lat="44.44189" lon="10.7980883"><ele>592.0</ele><time>2026-05-03T16:12:51.747Z</time></trkpt><trkpt lat="44.441965" lon="10.79804"><ele>592.0</ele><time>2026-05-03T16:12:52.747Z</time></trkpt><trkpt lat="44.4420267" lon="10.79799"><ele>592.0</ele><time>2026-05-03T16:12:53.747Z</time></trkpt><trkpt lat="44.4420967" lon="10.79794"><ele>592.0</ele><time>2026-05-03T16:12:54.748Z</time></trkpt><trkpt lat="44.4421667" lon="10.7978917"><ele>592.0</ele><time>2026-05-03T16:12:55.748Z</time></trkpt><trkpt lat="44.4422267" lon="10.7978483"><ele>592.0</ele><time>2026-05-03T16:12:56.748Z</time></trkpt><trkpt lat="44.442325" lon="10.7977517"><ele>592.0</ele><time>2026-05-03T16:12:58.748Z</time></trkpt><trkpt lat="44.4424083" lon="10.7976467"><ele>592.0</ele><time>2026-05-03T16:13:00.748Z</time></trkpt><trkpt lat="44.4424883" lon="10.7975367"><ele>592.0</ele><time>2026-05-03T16:13:02.748Z</time></trkpt><trkpt lat="44.4425617" lon="10.79745"><ele>592.0</ele><time>2026-05-03T16:13:04.747Z</time></trkpt><trkpt lat="44.4426417" lon="10.7973733"><ele>592.0</ele><time>2026-05-03T16:13:06.748Z</time></trkpt><trkpt lat="44.44272" lon="10.7973083"><ele>592.0</ele><time>2026-05-03T16:13:08.748Z</time></trkpt><trkpt lat="44.4427867" lon="10.7972567"><ele>592.0</ele><time>2026-05-03T16:13:10.748Z</time></trkpt><trkpt lat="44.4428683" lon="10.7972167"><ele>592.0</ele><time>2026-05-03T16:13:13.748Z</time></trkpt><trkpt lat="44.4429483" lon="10.797145"><ele>591.0</ele><time>2026-05-03T16:13:16.748Z</time></trkpt><trkpt lat="44.443025" lon="10.79708"><ele>590.0</ele><time>2026-05-03T16:13:19.748Z</time></trkpt><trkpt lat="44.4431083" lon="10.7970133"><ele>589.0</ele><time>2026-05-03T16:13:22.748Z</time></trkpt><trkpt lat="44.4432117" lon="10.7969483"><ele>588.0</ele><time>2026-05-03T16:13:24.747Z</time></trkpt><trkpt lat="44.44332" lon="10.7968983"><ele>587.0</ele><time>2026-05-03T16:13:26.747Z</time></trkpt><trkpt lat="44.4433783" lon="10.7968383"><ele>586.3333333333333</ele><time>2026-05-03T16:13:27.748Z</time></trkpt><trkpt lat="44.4434383" lon="10.7967633"><ele>585.6666666666666</ele><time>2026-05-03T16:13:28.747Z</time></trkpt><trkpt lat="44.4434917" lon="10.7966883"><ele>585.0</ele><time>2026-05-03T16:13:29.747Z</time></trkpt><trkpt lat="44.4435433" lon="10.796595"><ele>584.3333333333334</ele><time>2026-05-03T16:13:30.747Z</time></trkpt><trkpt lat="44.4435967" lon="10.79649"><ele>583.6666666666667</ele><time>2026-05-03T16:13:31.748Z</time></trkpt><trkpt lat="44.44365" lon="10.7963817"><ele>583.0</ele><time>2026-05-03T16:13:32.748Z</time></trkpt><trkpt lat="44.4437017" lon="10.7962917"><ele>583.0</ele><time>2026-05-03T16:13:33.748Z</time></trkpt><trkpt lat="44.4437667" lon="10.796205"><ele>583.0</ele><time>2026-05-03T16:13:34.748Z</time></trkpt><trkpt lat="44.4438417" lon="10.796125"><ele>583.0</ele><time>2026-05-03T16:13:35.747Z</time></trkpt><trkpt lat="44.443905" lon="10.79606"><ele>583.0</ele><time>2026-05-03T16:13:36.747Z</time></trkpt><trkpt lat="44.44398" lon="10.7959767"><ele>583.0</ele><time>2026-05-03T16:13:37.747Z</time></trkpt><trkpt lat="44.444055" lon="10.7958867"><ele>580.1666666666667</ele><time>2026-05-03T16:13:38.748Z</time></trkpt><trkpt lat="44.4441267" lon="10.7957867"><ele>577.3333333333334</ele><time>2026-05-03T16:13:39.747Z</time></trkpt><trkpt lat="44.444185" lon="10.7957033"><ele>574.5</ele><time>2026-05-03T16:13:40.747Z</time></trkpt><trkpt lat="44.4442267" lon="10.795615"><ele>571.6666666666666</ele><time>2026-05-03T16:13:41.747Z</time></trkpt><trkpt lat="44.44424" lon="10.7955017"><ele>568.8333333333333</ele><time>2026-05-03T16:13:42.748Z</time></trkpt><trkpt lat="44.444255" lon="10.7953883"><ele>566.0</ele><time>2026-05-03T16:13:43.748Z</time></trkpt><trkpt lat="44.4442617" lon="10.7952833"><ele>566.0</ele><time>2026-05-03T16:13:44.748Z</time></trkpt><trkpt lat="44.4442617" lon="10.7951817"><ele>566.0</ele><time>2026-05-03T16:13:45.748Z</time></trkpt><trkpt lat="44.4442767" lon="10.7950833"><ele>566.0</ele><time>2026-05-03T16:13:46.748Z</time></trkpt><trkpt lat="44.4442917" lon="10.7949833"><ele>566.0</ele><time>2026-05-03T16:13:47.748Z</time></trkpt><trkpt lat="44.4443083" lon="10.7948783"><ele>566.0</ele><time>2026-05-03T16:13:48.748Z</time></trkpt><trkpt lat="44.4443283" lon="10.7947767"><ele>566.0</ele><time>2026-05-03T16:13:49.748Z</time></trkpt><trkpt lat="44.4443317" lon="10.7946717"><ele>566.0</ele><time>2026-05-03T16:13:50.748Z</time></trkpt><trkpt lat="44.444325" lon="10.7945567"><ele>565.5</ele><time>2026-05-03T16:13:51.748Z</time></trkpt><trkpt lat="44.4443217" lon="10.7944467"><ele>565.0</ele><time>2026-05-03T16:13:52.748Z</time></trkpt><trkpt lat="44.444315" lon="10.7943317"><ele>564.5</ele><time>2026-05-03T16:13:53.748Z</time></trkpt><trkpt lat="44.4443067" lon="10.7942267"><ele>564.0</ele><time>2026-05-03T16:13:54.748Z</time></trkpt><trkpt lat="44.4442917" lon="10.7941233"><ele>563.5</ele><time>2026-05-03T16:13:55.748Z</time></trkpt><trkpt lat="44.4442683" lon="10.7940167"><ele>563.0</ele><time>2026-05-03T16:13:56.748Z</time></trkpt><trkpt lat="44.4442517" lon="10.7939117"><ele>563.0</ele><time>2026-05-03T16:13:57.748Z</time></trkpt><trkpt lat="44.4442433" lon="10.7938033"><ele>563.0</ele><time>2026-05-03T16:13:58.748Z</time></trkpt><trkpt lat="44.444245" lon="10.7936983"><ele>563.0</ele><time>2026-05-03T16:13:59.748Z</time></trkpt><trkpt lat="44.444245" lon="10.793595"><ele>563.0</ele><time>2026-05-03T16:14:00.748Z</time></trkpt><trkpt lat="44.44426" lon="10.7934717"><ele>563.0</ele><time>2026-05-03T16:14:01.747Z</time></trkpt><trkpt lat="44.4442833" lon="10.793355"><ele>563.0</ele><time>2026-05-03T16:14:02.748Z</time></trkpt><trkpt lat="44.4443267" lon="10.7932283"><ele>564.0</ele><time>2026-05-03T16:14:03.748Z</time></trkpt><trkpt lat="44.4443767" lon="10.79311"><ele>565.0</ele><time>2026-05-03T16:14:04.748Z</time></trkpt><trkpt lat="44.4444383" lon="10.7929967"><ele>566.0</ele><time>2026-05-03T16:14:05.747Z</time></trkpt><trkpt lat="44.4445033" lon="10.7928783"><ele>567.0</ele><time>2026-05-03T16:14:06.748Z</time></trkpt><trkpt lat="44.444575" lon="10.7927817"><ele>568.0</ele><time>2026-05-03T16:14:07.748Z</time></trkpt><trkpt lat="44.4446517" lon="10.7927017"><ele>566.5</ele><time>2026-05-03T16:14:08.747Z</time></trkpt><trkpt lat="44.4447233" lon="10.79263"><ele>565.0</ele><time>2026-05-03T16:14:09.747Z</time></trkpt><trkpt lat="44.4447867" lon="10.7925583"><ele>563.5</ele><time>2026-05-03T16:14:10.748Z</time></trkpt><trkpt lat="44.4448367" lon="10.7924767"><ele>562.0</ele><time>2026-05-03T16:14:11.748Z</time></trkpt><trkpt lat="44.4448767" lon="10.79239"><ele>560.5</ele><time>2026-05-03T16:14:12.747Z</time></trkpt><trkpt lat="44.444925" lon="10.7923017"><ele>559.0</ele><time>2026-05-03T16:14:13.748Z</time></trkpt><trkpt lat="44.4449933" lon="10.7922367"><ele>559.0</ele><time>2026-05-03T16:14:14.748Z</time></trkpt><trkpt lat="44.4450667" lon="10.7922083"><ele>559.0</ele><time>2026-05-03T16:14:15.748Z</time></trkpt><trkpt lat="44.4451517" lon="10.7922"><ele>559.0</ele><time>2026-05-03T16:14:16.748Z</time></trkpt><trkpt lat="44.4452433" lon="10.7921867"><ele>559.0</ele><time>2026-05-03T16:14:17.747Z</time></trkpt><trkpt lat="44.445325" lon="10.792175"><ele>559.0</ele><time>2026-05-03T16:14:18.748Z</time></trkpt><trkpt lat="44.4454117" lon="10.7921767"><ele>559.0</ele><time>2026-05-03T16:14:19.748Z</time></trkpt><trkpt lat="44.445505" lon="10.7922067"><ele>557.4</ele><time>2026-05-03T16:14:20.748Z</time></trkpt><trkpt lat="44.4455983" lon="10.7922467"><ele>555.8</ele><time>2026-05-03T16:14:21.748Z</time></trkpt><trkpt lat="44.4456917" lon="10.7922917"><ele>554.2</ele><time>2026-05-03T16:14:22.748Z</time></trkpt><trkpt lat="44.4457817" lon="10.7923267"><ele>552.6</ele><time>2026-05-03T16:14:23.748Z</time></trkpt><trkpt lat="44.44587" lon="10.7923683"><ele>551.0</ele><time>2026-05-03T16:14:24.748Z</time></trkpt><trkpt lat="44.4459533" lon="10.7924"><ele>551.0</ele><time>2026-05-03T16:14:25.747Z</time></trkpt><trkpt lat="44.4460133" lon="10.7924283"><ele>551.0</ele><time>2026-05-03T16:14:26.747Z</time></trkpt><trkpt lat="44.4461017" lon="10.792435"><ele>551.0</ele><time>2026-05-03T16:14:28.747Z</time></trkpt><trkpt lat="44.4461767" lon="10.79241"><ele>551.0</ele><time>2026-05-03T16:14:30.748Z</time></trkpt><trkpt lat="44.4462717" lon="10.79239"><ele>551.0</ele><time>2026-05-03T16:14:32.748Z</time></trkpt><trkpt lat="44.4464033" lon="10.7923567"><ele>550.1666666666666</ele><time>2026-05-03T16:14:34.748Z</time></trkpt><trkpt lat="44.446485" lon="10.792335"><ele>549.3333333333333</ele><time>2026-05-03T16:14:35.747Z</time></trkpt><trkpt lat="44.446565" lon="10.7922967"><ele>548.5</ele><time>2026-05-03T16:14:36.748Z</time></trkpt><trkpt lat="44.4466517" lon="10.7922567"><ele>547.6666666666666</ele><time>2026-05-03T16:14:37.748Z</time></trkpt><trkpt lat="44.44674" lon="10.79224"><ele>546.8333333333334</ele><time>2026-05-03T16:14:38.748Z</time></trkpt><trkpt lat="44.44683" lon="10.7922567"><ele>546.0</ele><time>2026-05-03T16:14:39.748Z</time></trkpt><trkpt lat="44.4469183" lon="10.7922883"><ele>546.0</ele><time>2026-05-03T16:14:40.748Z</time></trkpt><trkpt lat="44.4470117" lon="10.792305"><ele>546.0</ele><time>2026-05-03T16:14:41.748Z</time></trkpt><trkpt lat="44.4471117" lon="10.7923267"><ele>546.0</ele><time>2026-05-03T16:14:42.748Z</time></trkpt><trkpt lat="44.4472117" lon="10.7923383"><ele>546.0</ele><time>2026-05-03T16:14:43.748Z</time></trkpt><trkpt lat="44.4473033" lon="10.7923483"><ele>546.0</ele><time>2026-05-03T16:14:44.748Z</time></trkpt><trkpt lat="44.4473917" lon="10.7923583"><ele>547.0</ele><time>2026-05-03T16:14:45.748Z</time></trkpt><trkpt lat="44.4474767" lon="10.792355"><ele>548.0</ele><time>2026-05-03T16:14:46.748Z</time></trkpt><trkpt lat="44.44757" lon="10.7923517"><ele>549.0</ele><time>2026-05-03T16:14:47.748Z</time></trkpt><trkpt lat="44.4476583" lon="10.7923533"><ele>550.0</ele><time>2026-05-03T16:14:48.748Z</time></trkpt><trkpt lat="44.4477517" lon="10.7923533"><ele>551.0</ele><time>2026-05-03T16:14:49.748Z</time></trkpt><trkpt lat="44.4478467" lon="10.7923633"><ele>551.0</ele><time>2026-05-03T16:14:50.747Z</time></trkpt><trkpt lat="44.4479283" lon="10.7923633"><ele>551.0</ele><time>2026-05-03T16:14:51.748Z</time></trkpt><trkpt lat="44.4480033" lon="10.792365"><ele>551.0</ele><time>2026-05-03T16:14:52.747Z</time></trkpt><trkpt lat="44.4481233" lon="10.792415"><ele>551.0</ele><time>2026-05-03T16:14:54.747Z</time></trkpt><trkpt lat="44.4481783" lon="10.79248"><ele>551.0</ele><time>2026-05-03T16:14:55.748Z</time></trkpt><trkpt lat="44.4482217" lon="10.7925567"><ele>551.0</ele><time>2026-05-03T16:14:56.747Z</time></trkpt><trkpt lat="44.4482617" lon="10.792635"><ele>549.6666666666666</ele><time>2026-05-03T16:14:57.748Z</time></trkpt><trkpt lat="44.44831" lon="10.7926933"><ele>548.3333333333333</ele><time>2026-05-03T16:14:58.748Z</time></trkpt><trkpt lat="44.44837" lon="10.7927417"><ele>547.0</ele><time>2026-05-03T16:14:59.748Z</time></trkpt><trkpt lat="44.4484417" lon="10.7927867"><ele>545.6666666666666</ele><time>2026-05-03T16:15:00.748Z</time></trkpt><trkpt lat="44.44851" lon="10.7928217"><ele>544.3333333333334</ele><time>2026-05-03T16:15:01.748Z</time></trkpt><trkpt lat="44.4485917" lon="10.7928617"><ele>543.0</ele><time>2026-05-03T16:15:02.748Z</time></trkpt><trkpt lat="44.4486767" lon="10.7929117"><ele>543.0</ele><time>2026-05-03T16:15:03.747Z</time></trkpt><trkpt lat="44.44875" lon="10.792955"><ele>543.0</ele><time>2026-05-03T16:15:04.748Z</time></trkpt><trkpt lat="44.44884" lon="10.7929967"><ele>543.0</ele><time>2026-05-03T16:15:05.748Z</time></trkpt><trkpt lat="44.4489267" lon="10.7930417"><ele>543.0</ele><time>2026-05-03T16:15:06.748Z</time></trkpt><trkpt lat="44.4490183" lon="10.7930767"><ele>543.0</ele><time>2026-05-03T16:15:07.747Z</time></trkpt><trkpt lat="44.4491033" lon="10.7931067"><ele>543.0</ele><time>2026-05-03T16:15:08.748Z</time></trkpt><trkpt lat="44.44919" lon="10.7931417"><ele>543.1666666666666</ele><time>2026-05-03T16:15:09.748Z</time></trkpt><trkpt lat="44.4492833" lon="10.793165"><ele>543.3333333333334</ele><time>2026-05-03T16:15:10.748Z</time></trkpt><trkpt lat="44.44938" lon="10.7931783"><ele>543.5</ele><time>2026-05-03T16:15:11.748Z</time></trkpt><trkpt lat="44.449465" lon="10.7931917"><ele>543.6666666666667</ele><time>2026-05-03T16:15:12.747Z</time></trkpt><trkpt lat="44.4495467" lon="10.7931933"><ele>543.8333333333334</ele><time>2026-05-03T16:15:13.748Z</time></trkpt><trkpt lat="44.4496217" lon="10.793205"><ele>544.0</ele><time>2026-05-03T16:15:14.748Z</time></trkpt><trkpt lat="44.4496917" lon="10.7932333"><ele>544.0</ele><time>2026-05-03T16:15:15.747Z</time></trkpt><trkpt lat="44.4497533" lon="10.7932767"><ele>544.0</ele><time>2026-05-03T16:15:16.748Z</time></trkpt><trkpt lat="44.4498683" lon="10.7932967"><ele>544.0</ele><time>2026-05-03T16:15:18.748Z</time></trkpt><trkpt lat="44.449975" lon="10.7932067"><ele>544.0</ele><time>2026-05-03T16:15:20.748Z</time></trkpt><trkpt lat="44.4500267" lon="10.7931117"><ele>544.0</ele><time>2026-05-03T16:15:21.748Z</time></trkpt><trkpt lat="44.45007" lon="10.793005"><ele>544.0</ele><time>2026-05-03T16:15:22.747Z</time></trkpt><trkpt lat="44.4501167" lon="10.792925"><ele>544.0</ele><time>2026-05-03T16:15:23.748Z</time></trkpt><trkpt lat="44.45022" lon="10.792905"><ele>544.0</ele><time>2026-05-03T16:15:25.748Z</time></trkpt><trkpt lat="44.45028" lon="10.79294"><ele>544.0</ele><time>2026-05-03T16:15:26.748Z</time></trkpt><trkpt lat="44.4503483" lon="10.7930133"><ele>544.0</ele><time>2026-05-03T16:15:27.748Z</time></trkpt><trkpt lat="44.4504317" lon="10.793075"><ele>544.0</ele><time>2026-05-03T16:15:28.748Z</time></trkpt><trkpt lat="44.4505167" lon="10.7931333"><ele>545.0</ele><time>2026-05-03T16:15:29.748Z</time></trkpt><trkpt lat="44.4505833" lon="10.7931767"><ele>546.0</ele><time>2026-05-03T16:15:30.748Z</time></trkpt><trkpt lat="44.450685" lon="10.7932333"><ele>547.0</ele><time>2026-05-03T16:15:32.748Z</time></trkpt><trkpt lat="44.4507567" lon="10.7932383"><ele>548.0</ele><time>2026-05-03T16:17:00.747Z</time></trkpt><trkpt lat="44.4508633" lon="10.793245"><ele>549.0</ele><time>2026-05-03T16:17:02.747Z</time></trkpt><trkpt lat="44.45094" lon="10.7932383"><ele>550.0</ele><time>2026-05-03T16:17:03.746Z</time></trkpt><trkpt lat="44.451015" lon="10.7932483"><ele>550.0</ele><time>2026-05-03T16:17:04.747Z</time></trkpt><trkpt lat="44.4510883" lon="10.7932833"><ele>550.0</ele><time>2026-05-03T16:17:05.746Z</time></trkpt><trkpt lat="44.4511667" lon="10.79333"><ele>550.0</ele><time>2026-05-03T16:17:06.747Z</time></trkpt><trkpt lat="44.45124" lon="10.7933817"><ele>550.0</ele><time>2026-05-03T16:17:07.747Z</time></trkpt><trkpt lat="44.4513083" lon="10.7934383"><ele>550.0</ele><time>2026-05-03T16:17:08.747Z</time></trkpt><trkpt lat="44.451375" lon="10.79348"><ele>550.0</ele><time>2026-05-03T16:17:09.747Z</time></trkpt><trkpt lat="44.4514383" lon="10.7934867"><ele>552.2</ele><time>2026-05-03T16:17:10.746Z</time></trkpt><trkpt lat="44.4515383" lon="10.7934183"><ele>554.4</ele><time>2026-05-03T16:17:12.747Z</time></trkpt><trkpt lat="44.4516167" lon="10.7933617"><ele>556.6</ele><time>2026-05-03T16:17:14.747Z</time></trkpt><trkpt lat="44.4517" lon="10.79334"><ele>558.8</ele><time>2026-05-03T16:18:17.746Z</time></trkpt><trkpt lat="44.45183" lon="10.7934017"><ele>561.0</ele><time>2026-05-03T16:18:19.747Z</time></trkpt><trkpt lat="44.4519167" lon="10.793445"><ele>561.0</ele><time>2026-05-03T16:18:20.747Z</time></trkpt><trkpt lat="44.4520067" lon="10.7934783"><ele>561.0</ele><time>2026-05-03T16:18:21.747Z</time></trkpt><trkpt lat="44.4521083" lon="10.79351"><ele>561.0</ele><time>2026-05-03T16:18:22.747Z</time></trkpt><trkpt lat="44.45222" lon="10.7935433"><ele>561.0</ele><time>2026-05-03T16:18:23.746Z</time></trkpt><trkpt lat="44.4523417" lon="10.7935683"><ele>561.0</ele><time>2026-05-03T16:18:24.747Z</time></trkpt><trkpt lat="44.4524633" lon="10.793605"><ele>558.75</ele><time>2026-05-03T16:18:25.746Z</time></trkpt><trkpt lat="44.452575" lon="10.79365"><ele>556.5</ele><time>2026-05-03T16:18:26.747Z</time></trkpt><trkpt lat="44.452685" lon="10.79369"><ele>554.25</ele><time>2026-05-03T16:18:27.747Z</time></trkpt><trkpt lat="44.4528017" lon="10.7937183"><ele>552.0</ele><time>2026-05-03T16:18:28.747Z</time></trkpt><trkpt lat="44.4529067" lon="10.7937567"><ele>551.4</ele><time>2026-05-03T16:18:29.747Z</time></trkpt><trkpt lat="44.4530117" lon="10.7938017"><ele>550.8000000000001</ele><time>2026-05-03T16:18:30.747Z</time></trkpt><trkpt lat="44.4531067" lon="10.7938483"><ele>550.2</ele><time>2026-05-03T16:18:31.746Z</time></trkpt><trkpt lat="44.4532133" lon="10.793885"><ele>549.6</ele><time>2026-05-03T16:18:32.746Z</time></trkpt><trkpt lat="44.4533067" lon="10.7939317"><ele>549.0</ele><time>2026-05-03T16:18:33.747Z</time></trkpt><trkpt lat="44.4533933" lon="10.7939867"><ele>549.0</ele><time>2026-05-03T16:18:34.747Z</time></trkpt><trkpt lat="44.4534867" lon="10.794025"><ele>549.0</ele><time>2026-05-03T16:18:35.747Z</time></trkpt><trkpt lat="44.4535817" lon="10.7940617"><ele>549.0</ele><time>2026-05-03T16:18:36.747Z</time></trkpt><trkpt lat="44.4536633" lon="10.7941083"><ele>549.0</ele><time>2026-05-03T16:18:37.747Z</time></trkpt><trkpt lat="44.45374" lon="10.7941617"><ele>549.0</ele><time>2026-05-03T16:18:38.747Z</time></trkpt><trkpt lat="44.4538133" lon="10.794195"><ele>549.0</ele><time>2026-05-03T16:18:39.746Z</time></trkpt><trkpt lat="44.4538733" lon="10.7942233"><ele>548.4</ele><time>2026-05-03T16:18:40.747Z</time></trkpt><trkpt lat="44.4539667" lon="10.794195"><ele>547.8</ele><time>2026-05-03T16:18:42.747Z</time></trkpt><trkpt lat="44.4540383" lon="10.794055"><ele>547.2</ele><time>2026-05-03T16:18:44.747Z</time></trkpt><trkpt lat="44.4540783" lon="10.79397"><ele>546.6</ele><time>2026-05-03T16:18:45.747Z</time></trkpt><trkpt lat="44.4541083" lon="10.7938817"><ele>546.0</ele><time>2026-05-03T16:18:46.747Z</time></trkpt><trkpt lat="44.4541533" lon="10.7937283"><ele>546.0</ele><time>2026-05-03T16:18:48.747Z</time></trkpt><trkpt lat="44.4541533" lon="10.793555"><ele>546.0</ele><time>2026-05-03T16:18:50.747Z</time></trkpt><trkpt lat="44.4541267" lon="10.793465"><ele>546.0</ele><time>2026-05-03T16:18:51.747Z</time></trkpt><trkpt lat="44.454095" lon="10.7933717"><ele>546.0</ele><time>2026-05-03T16:18:52.747Z</time></trkpt><trkpt lat="44.45406" lon="10.793275"><ele>546.0</ele><time>2026-05-03T16:18:53.747Z</time></trkpt><trkpt lat="44.4540183" lon="10.7931767"><ele>546.0</ele><time>2026-05-03T16:18:54.746Z</time></trkpt><trkpt lat="44.4539717" lon="10.79308"><ele>544.8333333333334</ele><time>2026-05-03T16:18:55.747Z</time></trkpt><trkpt lat="44.4539333" lon="10.7929783"><ele>543.6666666666666</ele><time>2026-05-03T16:18:56.747Z</time></trkpt><trkpt lat="44.4539033" lon="10.79289"><ele>542.5</ele><time>2026-05-03T16:18:57.747Z</time></trkpt><trkpt lat="44.4539117" lon="10.7927383"><ele>541.3333333333333</ele><time>2026-05-03T16:18:59.746Z</time></trkpt><trkpt lat="44.4539733" lon="10.7927067"><ele>540.1666666666666</ele><time>2026-05-03T16:19:00.747Z</time></trkpt><trkpt lat="44.4540483" lon="10.7927117"><ele>539.0</ele><time>2026-05-03T16:19:01.747Z</time></trkpt><trkpt lat="44.4541433" lon="10.7927567"><ele>539.0</ele><time>2026-05-03T16:19:02.747Z</time></trkpt><trkpt lat="44.4542533" lon="10.79281"><ele>539.0</ele><time>2026-05-03T16:19:03.747Z</time></trkpt><trkpt lat="44.454365" lon="10.7928667"><ele>539.0</ele><time>2026-05-03T16:19:04.747Z</time></trkpt><trkpt lat="44.4544833" lon="10.7929167"><ele>539.0</ele><time>2026-05-03T16:19:05.747Z</time></trkpt><trkpt lat="44.4545933" lon="10.7929683"><ele>536.4</ele><time>2026-05-03T16:19:06.747Z</time></trkpt><trkpt lat="44.4546983" lon="10.7930267"><ele>533.8</ele><time>2026-05-03T16:19:07.746Z</time></trkpt><trkpt lat="44.4548" lon="10.7930867"><ele>531.2</ele><time>2026-05-03T16:19:08.746Z</time></trkpt><trkpt lat="44.4548917" lon="10.7931667"><ele>528.6</ele><time>2026-05-03T16:19:09.747Z</time></trkpt><trkpt lat="44.4549733" lon="10.79325"><ele>526.0</ele><time>2026-05-03T16:19:10.747Z</time></trkpt><trkpt lat="44.455045" lon="10.7933433"><ele>526.0</ele><time>2026-05-03T16:19:11.747Z</time></trkpt><trkpt lat="44.455115" lon="10.7934217"><ele>526.0</ele><time>2026-05-03T16:19:12.746Z</time></trkpt><trkpt lat="44.4551817" lon="10.7935083"><ele>526.0</ele><time>2026-05-03T16:19:13.746Z</time></trkpt><trkpt lat="44.45526" lon="10.7935833"><ele>526.0</ele><time>2026-05-03T16:19:14.747Z</time></trkpt><trkpt lat="44.45535" lon="10.79365"><ele>526.0</ele><time>2026-05-03T16:19:15.747Z</time></trkpt><trkpt lat="44.45544" lon="10.79371"><ele>525.2</ele><time>2026-05-03T16:19:16.747Z</time></trkpt><trkpt lat="44.4555467" lon="10.7937483"><ele>524.4000000000001</ele><time>2026-05-03T16:19:17.747Z</time></trkpt><trkpt lat="44.4556483" lon="10.7937767"><ele>523.6</ele><time>2026-05-03T16:19:18.746Z</time></trkpt><trkpt lat="44.4557417" lon="10.7937917"><ele>522.8000000000001</ele><time>2026-05-03T16:19:19.747Z</time></trkpt><trkpt lat="44.455835" lon="10.7937817"><ele>522.0</ele><time>2026-05-03T16:19:20.747Z</time></trkpt><trkpt lat="44.4559233" lon="10.79374"><ele>522.0</ele><time>2026-05-03T16:19:21.747Z</time></trkpt><trkpt lat="44.4560067" lon="10.7936667"><ele>522.0</ele><time>2026-05-03T16:19:22.747Z</time></trkpt><trkpt lat="44.456095" lon="10.7935867"><ele>522.0</ele><time>2026-05-03T16:19:23.747Z</time></trkpt><trkpt lat="44.456185" lon="10.7935"><ele>522.0</ele><time>2026-05-03T16:19:24.747Z</time></trkpt><trkpt lat="44.4562783" lon="10.7934033"><ele>522.0</ele><time>2026-05-03T16:19:25.747Z</time></trkpt><trkpt lat="44.456375" lon="10.7933033"><ele>520.6</ele><time>2026-05-03T16:19:26.747Z</time></trkpt><trkpt lat="44.4564583" lon="10.793195"><ele>519.2</ele><time>2026-05-03T16:19:27.746Z</time></trkpt><trkpt lat="44.4565333" lon="10.7930883"><ele>517.8</ele><time>2026-05-03T16:19:28.747Z</time></trkpt><trkpt lat="44.4566" lon="10.7929767"><ele>516.4</ele><time>2026-05-03T16:19:29.747Z</time></trkpt><trkpt lat="44.45667" lon="10.7928567"><ele>515.0</ele><time>2026-05-03T16:19:30.747Z</time></trkpt><trkpt lat="44.45674" lon="10.79274"><ele>512.2</ele><time>2026-05-03T16:19:31.747Z</time></trkpt><trkpt lat="44.4568" lon="10.7926383"><ele>509.4</ele><time>2026-05-03T16:19:32.747Z</time></trkpt><trkpt lat="44.45685" lon="10.7925517"><ele>506.6</ele><time>2026-05-03T16:19:33.746Z</time></trkpt><trkpt lat="44.4568883" lon="10.7924"><ele>503.8</ele><time>2026-05-03T16:19:35.746Z</time></trkpt><trkpt lat="44.4568233" lon="10.7922867"><ele>501.0</ele><time>2026-05-03T16:19:37.747Z</time></trkpt><trkpt lat="44.456695" lon="10.7923167"><ele>501.0</ele><time>2026-05-03T16:19:39.747Z</time></trkpt><trkpt lat="44.456605" lon="10.7923833"><ele>501.0</ele><time>2026-05-03T16:19:40.747Z</time></trkpt><trkpt lat="44.4565117" lon="10.792455"><ele>501.0</ele><time>2026-05-03T16:19:41.747Z</time></trkpt><trkpt lat="44.4564233" lon="10.79251"><ele>501.0</ele><time>2026-05-03T16:19:42.747Z</time></trkpt><trkpt lat="44.4563333" lon="10.7925267"><ele>501.0</ele><time>2026-05-03T16:19:43.747Z</time></trkpt><trkpt lat="44.456245" lon="10.7924867"><ele>502.0</ele><time>2026-05-03T16:19:44.747Z</time></trkpt><trkpt lat="44.456165" lon="10.7924067"><ele>503.0</ele><time>2026-05-03T16:19:45.747Z</time></trkpt><trkpt lat="44.456095" lon="10.7922817"><ele>504.0</ele><time>2026-05-03T16:19:46.747Z</time></trkpt><trkpt lat="44.4560233" lon="10.7921683"><ele>505.0</ele><time>2026-05-03T16:19:47.746Z</time></trkpt><trkpt lat="44.4559667" lon="10.7920833"><ele>506.0</ele><time>2026-05-03T16:19:48.747Z</time></trkpt><trkpt lat="44.45594" lon="10.7919933"><ele>505.99999999999994</ele><time>2026-05-03T16:19:49.747Z</time></trkpt><trkpt lat="44.4559383" lon="10.7919017"><ele>506.0</ele><time>2026-05-03T16:19:50.747Z</time></trkpt><trkpt lat="44.455965" lon="10.79182"><ele>506.0</ele><time>2026-05-03T16:19:51.747Z</time></trkpt><trkpt lat="44.456025" lon="10.791755"><ele>506.0</ele><time>2026-05-03T16:19:52.747Z</time></trkpt><trkpt lat="44.4561133" lon="10.7917083"><ele>505.99999999999994</ele><time>2026-05-03T16:19:53.747Z</time></trkpt><trkpt lat="44.4562283" lon="10.7916733"><ele>506.0</ele><time>2026-05-03T16:19:54.746Z</time></trkpt><trkpt lat="44.4563533" lon="10.7916383"><ele>501.25</ele><time>2026-05-03T16:19:55.747Z</time></trkpt><trkpt lat="44.4564683" lon="10.791595"><ele>496.5</ele><time>2026-05-03T16:19:56.747Z</time></trkpt><trkpt lat="44.4565733" lon="10.7915317"><ele>491.75</ele><time>2026-05-03T16:19:57.747Z</time></trkpt><trkpt lat="44.45668" lon="10.7914517"><ele>487.0</ele><time>2026-05-03T16:19:58.747Z</time></trkpt><trkpt lat="44.4567783" lon="10.7913733"><ele>487.0</ele><time>2026-05-03T16:19:59.747Z</time></trkpt><trkpt lat="44.4568817" lon="10.791295"><ele>487.0</ele><time>2026-05-03T16:20:00.747Z</time></trkpt><trkpt lat="44.456985" lon="10.7912183"><ele>487.0</ele><time>2026-05-03T16:20:01.747Z</time></trkpt><trkpt lat="44.4570917" lon="10.7911317"><ele>487.0</ele><time>2026-05-03T16:20:02.747Z</time></trkpt><trkpt lat="44.45719" lon="10.79105"><ele>483.6</ele><time>2026-05-03T16:20:03.746Z</time></trkpt><trkpt lat="44.4572817" lon="10.7909467"><ele>480.20000000000005</ele><time>2026-05-03T16:20:04.747Z</time></trkpt><trkpt lat="44.4573517" lon="10.790835"><ele>476.8</ele><time>2026-05-03T16:20:05.747Z</time></trkpt><trkpt lat="44.45743" lon="10.7907433"><ele>473.4</ele><time>2026-05-03T16:20:06.747Z</time></trkpt><trkpt lat="44.457495" lon="10.790685"><ele>470.0</ele><time>2026-05-03T16:20:07.747Z</time></trkpt><trkpt lat="44.4575967" lon="10.7906367"><ele>470.0</ele><time>2026-05-03T16:20:08.746Z</time></trkpt><trkpt lat="44.457695" lon="10.7906117"><ele>470.0</ele><time>2026-05-03T16:20:09.747Z</time></trkpt><trkpt lat="44.4578067" lon="10.7906"><ele>470.0</ele><time>2026-05-03T16:20:10.747Z</time></trkpt><trkpt lat="44.457935" lon="10.7905817"><ele>470.0</ele><time>2026-05-03T16:20:11.746Z</time></trkpt><trkpt lat="44.4580533" lon="10.790545"><ele>469.0</ele><time>2026-05-03T16:20:12.747Z</time></trkpt><trkpt lat="44.4581733" lon="10.7905083"><ele>468.0</ele><time>2026-05-03T16:20:13.747Z</time></trkpt><trkpt lat="44.4582833" lon="10.7904783"><ele>467.0</ele><time>2026-05-03T16:20:14.747Z</time></trkpt><trkpt lat="44.4583967" lon="10.79045"><ele>466.0</ele><time>2026-05-03T16:20:15.747Z</time></trkpt><trkpt lat="44.4585133" lon="10.79043"><ele>466.0</ele><time>2026-05-03T16:20:16.747Z</time></trkpt><trkpt lat="44.45863" lon="10.79042"><ele>466.0</ele><time>2026-05-03T16:20:17.747Z</time></trkpt><trkpt lat="44.4587233" lon="10.7904483"><ele>466.0</ele><time>2026-05-03T16:20:18.747Z</time></trkpt><trkpt lat="44.4588233" lon="10.7904867"><ele>466.0</ele><time>2026-05-03T16:20:19.747Z</time></trkpt><trkpt lat="44.4589183" lon="10.79055"><ele>466.0</ele><time>2026-05-03T16:20:20.747Z</time></trkpt><trkpt lat="44.4590017" lon="10.7906383"><ele>463.6</ele><time>2026-05-03T16:20:21.747Z</time></trkpt><trkpt lat="44.4590667" lon="10.7907333"><ele>461.20000000000005</ele><time>2026-05-03T16:20:22.747Z</time></trkpt><trkpt lat="44.45912" lon="10.7908067"><ele>458.79999999999995</ele><time>2026-05-03T16:20:23.746Z</time></trkpt><trkpt lat="44.4591717" lon="10.7908617"><ele>456.4</ele><time>2026-05-03T16:20:24.746Z</time></trkpt><trkpt lat="44.4592683" lon="10.79083"><ele>454.0</ele><time>2026-05-03T16:20:26.747Z</time></trkpt><trkpt lat="44.459305" lon="10.7906467"><ele>454.0</ele><time>2026-05-03T16:20:28.747Z</time></trkpt><trkpt lat="44.4593017" lon="10.7905183"><ele>454.0</ele><time>2026-05-03T16:20:29.747Z</time></trkpt><trkpt lat="44.459285" lon="10.79038"><ele>454.0</ele><time>2026-05-03T16:20:30.747Z</time></trkpt><trkpt lat="44.4592667" lon="10.790245"><ele>454.0</ele><time>2026-05-03T16:20:31.747Z</time></trkpt><trkpt lat="44.4592467" lon="10.7901"><ele>454.0</ele><time>2026-05-03T16:20:32.747Z</time></trkpt><trkpt lat="44.4592333" lon="10.789955"><ele>452.2</ele><time>2026-05-03T16:20:33.746Z</time></trkpt><trkpt lat="44.459215" lon="10.7898117"><ele>450.4</ele><time>2026-05-03T16:20:34.747Z</time></trkpt><trkpt lat="44.459195" lon="10.7896733"><ele>448.6</ele><time>2026-05-03T16:20:35.747Z</time></trkpt><trkpt lat="44.45918" lon="10.789545"><ele>446.8</ele><time>2026-05-03T16:20:36.747Z</time></trkpt><trkpt lat="44.4591683" lon="10.789445"><ele>445.0</ele><time>2026-05-03T16:20:37.746Z</time></trkpt><trkpt lat="44.4591533" lon="10.7892967"><ele>443.6</ele><time>2026-05-03T16:20:39.747Z</time></trkpt><trkpt lat="44.4591433" lon="10.7892"><ele>442.2</ele><time>2026-05-03T16:20:41.747Z</time></trkpt><trkpt lat="44.4590783" lon="10.78914"><ele>440.79999999999995</ele><time>2026-05-03T16:27:35.746Z</time></trkpt><trkpt lat="44.4590367" lon="10.7890617"><ele>439.4</ele><time>2026-05-03T16:31:04.745Z</time></trkpt><trkpt lat="44.4589117" lon="10.7890317"><ele>438.0</ele><time>2026-05-03T16:31:06.744Z</time></trkpt><trkpt lat="44.4587883" lon="10.789035"><ele>438.42857142857144</ele><time>2026-05-03T16:31:08.744Z</time></trkpt><trkpt lat="44.4587217" lon="10.7890333"><ele>438.85714285714283</ele><time>2026-05-03T16:31:09.745Z</time></trkpt><trkpt lat="44.4586517" lon="10.789"><ele>439.2857142857143</ele><time>2026-05-03T16:31:10.744Z</time></trkpt><trkpt lat="44.45858" lon="10.78894"><ele>439.7142857142857</ele><time>2026-05-03T16:31:11.744Z</time></trkpt><trkpt lat="44.45852" lon="10.7888617"><ele>440.1428571428571</ele><time>2026-05-03T16:31:12.745Z</time></trkpt><trkpt lat="44.45847" lon="10.7887817"><ele>440.57142857142856</ele><time>2026-05-03T16:31:13.745Z</time></trkpt><trkpt lat="44.458445" lon="10.7887"><ele>441.0</ele><time>2026-05-03T16:31:14.744Z</time></trkpt><trkpt lat="44.4584433" lon="10.7886067"><ele>439.6666666666667</ele><time>2026-05-03T16:31:15.745Z</time></trkpt><trkpt lat="44.4584583" lon="10.7885083"><ele>438.33333333333337</ele><time>2026-05-03T16:31:16.745Z</time></trkpt><trkpt lat="44.4584717" lon="10.7884067"><ele>437.0</ele><time>2026-05-03T16:31:17.745Z</time></trkpt><trkpt lat="44.4584517" lon="10.78824"><ele>435.6666666666667</ele><time>2026-05-03T16:31:19.745Z</time></trkpt><trkpt lat="44.45841" lon="10.7881483"><ele>434.33333333333337</ele><time>2026-05-03T16:31:20.745Z</time></trkpt><trkpt lat="44.4583483" lon="10.7880567"><ele>433.0</ele><time>2026-05-03T16:31:21.745Z</time></trkpt><trkpt lat="44.4582833" lon="10.7879617"><ele>433.0</ele><time>2026-05-03T16:31:22.744Z</time></trkpt><trkpt lat="44.4582133" lon="10.787865"><ele>432.99999999999994</ele><time>2026-05-03T16:31:23.745Z</time></trkpt><trkpt lat="44.45816" lon="10.78777"><ele>432.99999999999994</ele><time>2026-05-03T16:31:24.745Z</time></trkpt><trkpt lat="44.4581067" lon="10.7876683"><ele>433.0</ele><time>2026-05-03T16:31:25.745Z</time></trkpt><trkpt lat="44.45806" lon="10.7875617"><ele>433.0</ele><time>2026-05-03T16:31:26.745Z</time></trkpt><trkpt lat="44.4580133" lon="10.787445"><ele>432.79999999999995</ele><time>2026-05-03T16:31:27.745Z</time></trkpt><trkpt lat="44.4579683" lon="10.7873133"><ele>432.59999999999997</ele><time>2026-05-03T16:31:28.745Z</time></trkpt><trkpt lat="44.4579167" lon="10.78718"><ele>432.40000000000003</ele><time>2026-05-03T16:31:29.744Z</time></trkpt><trkpt lat="44.457865" lon="10.7870617"><ele>432.20000000000005</ele><time>2026-05-03T16:31:30.745Z</time></trkpt><trkpt lat="44.457815" lon="10.786955"><ele>432.0</ele><time>2026-05-03T16:31:31.745Z</time></trkpt><trkpt lat="44.4577867" lon="10.7868583"><ele>431.6666666666667</ele><time>2026-05-03T16:31:32.744Z</time></trkpt><trkpt lat="44.457755" lon="10.7867367"><ele>431.33333333333337</ele><time>2026-05-03T16:31:33.745Z</time></trkpt><trkpt lat="44.45774" lon="10.7866233"><ele>431.0</ele><time>2026-05-03T16:31:34.745Z</time></trkpt><trkpt lat="44.4577317" lon="10.78652"><ele>430.6666666666667</ele><time>2026-05-03T16:31:35.745Z</time></trkpt><trkpt lat="44.457725" lon="10.7864033"><ele>430.33333333333337</ele><time>2026-05-03T16:31:36.744Z</time></trkpt><trkpt lat="44.4577167" lon="10.786295"><ele>430.0</ele><time>2026-05-03T16:31:37.745Z</time></trkpt><trkpt lat="44.4577183" lon="10.7861817"><ele>430.00000000000006</ele><time>2026-05-03T16:31:38.745Z</time></trkpt><trkpt lat="44.45771" lon="10.78607"><ele>430.0</ele><time>2026-05-03T16:31:39.745Z</time></trkpt><trkpt lat="44.4576867" lon="10.785955"><ele>430.0</ele><time>2026-05-03T16:31:40.745Z</time></trkpt><trkpt lat="44.4576467" lon="10.78586"><ele>430.0</ele><time>2026-05-03T16:31:41.745Z</time></trkpt><trkpt lat="44.4575983" lon="10.7857567"><ele>430.00000000000006</ele><time>2026-05-03T16:31:42.745Z</time></trkpt><trkpt lat="44.4575483" lon="10.7856617"><ele>430.0</ele><time>2026-05-03T16:31:43.744Z</time></trkpt><trkpt lat="44.457515" lon="10.78557"><ele>429.8</ele><time>2026-05-03T16:31:44.744Z</time></trkpt><trkpt lat="44.4574983" lon="10.7854667"><ele>429.6</ele><time>2026-05-03T16:31:45.745Z</time></trkpt><trkpt lat="44.4574983" lon="10.78534"><ele>429.4</ele><time>2026-05-03T16:31:46.744Z</time></trkpt><trkpt lat="44.45749" lon="10.7852083"><ele>429.2</ele><time>2026-05-03T16:31:47.744Z</time></trkpt><trkpt lat="44.4574833" lon="10.7850583"><ele>429.0</ele><time>2026-05-03T16:31:48.745Z</time></trkpt><trkpt lat="44.457495" lon="10.7849017"><ele>428.75</ele><time>2026-05-03T16:31:49.745Z</time></trkpt><trkpt lat="44.4575167" lon="10.7847383"><ele>428.5</ele><time>2026-05-03T16:31:50.745Z</time></trkpt><trkpt lat="44.4575433" lon="10.784575"><ele>428.25</ele><time>2026-05-03T16:31:51.745Z</time></trkpt><trkpt lat="44.4575733" lon="10.7844283"><ele>428.0</ele><time>2026-05-03T16:31:52.745Z</time></trkpt><trkpt lat="44.45763" lon="10.7842817"><ele>428.66666666666663</ele><time>2026-05-03T16:31:53.745Z</time></trkpt><trkpt lat="44.4576867" lon="10.7841583"><ele>429.3333333333333</ele><time>2026-05-03T16:31:54.745Z</time></trkpt><trkpt lat="44.4577317" lon="10.78406"><ele>430.0</ele><time>2026-05-03T16:31:55.745Z</time></trkpt><trkpt lat="44.4577467" lon="10.7839733"><ele>430.66666666666663</ele><time>2026-05-03T16:31:56.745Z</time></trkpt><trkpt lat="44.4577367" lon="10.783875"><ele>431.3333333333333</ele><time>2026-05-03T16:31:57.744Z</time></trkpt><trkpt lat="44.4576983" lon="10.7837683"><ele>432.0</ele><time>2026-05-03T16:31:58.745Z</time></trkpt><trkpt lat="44.45764" lon="10.783665"><ele>432.0</ele><time>2026-05-03T16:31:59.745Z</time></trkpt><trkpt lat="44.457575" lon="10.7835667"><ele>432.00000000000006</ele><time>2026-05-03T16:32:00.745Z</time></trkpt><trkpt lat="44.457515" lon="10.7834667"><ele>432.00000000000006</ele><time>2026-05-03T16:32:01.745Z</time></trkpt><trkpt lat="44.457455" lon="10.78336"><ele>432.0</ele><time>2026-05-03T16:32:02.745Z</time></trkpt><trkpt lat="44.4573933" lon="10.783235"><ele>432.0</ele><time>2026-05-03T16:32:03.745Z</time></trkpt><trkpt lat="44.4573283" lon="10.78312"><ele>432.0</ele><time>2026-05-03T16:32:04.745Z</time></trkpt><trkpt lat="44.4572833" lon="10.7829967"><ele>432.00000000000006</ele><time>2026-05-03T16:32:05.745Z</time></trkpt><trkpt lat="44.4572517" lon="10.7828767"><ele>432.00000000000006</ele><time>2026-05-03T16:32:06.745Z</time></trkpt><trkpt lat="44.4572333" lon="10.782745"><ele>432.0</ele><time>2026-05-03T16:32:07.745Z</time></trkpt><trkpt lat="44.457215" lon="10.7826017"><ele>432.0</ele><time>2026-05-03T16:32:08.745Z</time></trkpt><trkpt lat="44.4572083" lon="10.7824767"><ele>432.0</ele><time>2026-05-03T16:32:09.744Z</time></trkpt><trkpt lat="44.4572033" lon="10.7823683"><ele>432.0</ele><time>2026-05-03T16:32:10.745Z</time></trkpt><trkpt lat="44.4571983" lon="10.7822417"><ele>432.0</ele><time>2026-05-03T16:32:12.745Z</time></trkpt><trkpt lat="44.45714" lon="10.7821283"><ele>432.0</ele><time>2026-05-03T16:32:14.745Z</time></trkpt><trkpt lat="44.4570783" lon="10.7820633"><ele>432.0</ele><time>2026-05-03T16:32:15.745Z</time></trkpt><trkpt lat="44.4569867" lon="10.7820033"><ele>432.0</ele><time>2026-05-03T16:32:16.745Z</time></trkpt><trkpt lat="44.4568917" lon="10.7819533"><ele>432.0</ele><time>2026-05-03T16:32:17.745Z</time></trkpt><trkpt lat="44.4568067" lon="10.7819083"><ele>432.00000000000006</ele><time>2026-05-03T16:32:18.745Z</time></trkpt><trkpt lat="44.4567167" lon="10.781855"><ele>432.00000000000006</ele><time>2026-05-03T16:32:19.745Z</time></trkpt><trkpt lat="44.456635" lon="10.781765"><ele>432.0</ele><time>2026-05-03T16:32:20.745Z</time></trkpt><trkpt lat="44.4565517" lon="10.7816683"><ele>432.0</ele><time>2026-05-03T16:32:21.745Z</time></trkpt><trkpt lat="44.456465" lon="10.7815767"><ele>432.0</ele><time>2026-05-03T16:32:22.745Z</time></trkpt><trkpt lat="44.4563883" lon="10.7814967"><ele>432.0</ele><time>2026-05-03T16:32:23.745Z</time></trkpt><trkpt lat="44.4563217" lon="10.7814233"><ele>432.0</ele><time>2026-05-03T16:32:24.745Z</time></trkpt><trkpt lat="44.45627" lon="10.7813467"><ele>432.0</ele><time>2026-05-03T16:32:25.745Z</time></trkpt><trkpt lat="44.4562333" lon="10.7812567"><ele>432.0</ele><time>2026-05-03T16:32:26.744Z</time></trkpt><trkpt lat="44.45622" lon="10.781145"><ele>432.0</ele><time>2026-05-03T16:32:27.745Z</time></trkpt><trkpt lat="44.4562183" lon="10.78103"><ele>429.5</ele><time>2026-05-03T16:32:28.745Z</time></trkpt><trkpt lat="44.456205" lon="10.7809333"><ele>427.0</ele><time>2026-05-03T16:32:29.745Z</time></trkpt><trkpt lat="44.4561667" lon="10.78085"><ele>424.5</ele><time>2026-05-03T16:32:30.745Z</time></trkpt><trkpt lat="44.4561167" lon="10.78077"><ele>422.0</ele><time>2026-05-03T16:32:31.745Z</time></trkpt><trkpt lat="44.4560517" lon="10.7807017"><ele>419.5</ele><time>2026-05-03T16:32:32.744Z</time></trkpt><trkpt lat="44.4559883" lon="10.7806367"><ele>417.0</ele><time>2026-05-03T16:32:33.745Z</time></trkpt><trkpt lat="44.4559083" lon="10.780595"><ele>417.0</ele><time>2026-05-03T16:32:34.744Z</time></trkpt><trkpt lat="44.4558217" lon="10.780555"><ele>417.0</ele><time>2026-05-03T16:32:35.744Z</time></trkpt><trkpt lat="44.4557267" lon="10.7805033"><ele>417.0</ele><time>2026-05-03T16:32:36.745Z</time></trkpt><trkpt lat="44.45565" lon="10.78044"><ele>417.0</ele><time>2026-05-03T16:32:37.744Z</time></trkpt><trkpt lat="44.4555833" lon="10.7803683"><ele>417.0</ele><time>2026-05-03T16:32:38.745Z</time></trkpt><trkpt lat="44.4555383" lon="10.78029"><ele>417.0</ele><time>2026-05-03T16:32:39.745Z</time></trkpt><trkpt lat="44.455515" lon="10.780205"><ele>414.0</ele><time>2026-05-03T16:32:40.745Z</time></trkpt><trkpt lat="44.45551" lon="10.7801133"><ele>411.0</ele><time>2026-05-03T16:32:41.745Z</time></trkpt><trkpt lat="44.4555133" lon="10.7800133"><ele>408.0</ele><time>2026-05-03T16:32:42.745Z</time></trkpt><trkpt lat="44.4555383" lon="10.7799067"><ele>405.0</ele><time>2026-05-03T16:32:43.745Z</time></trkpt><trkpt lat="44.4555433" lon="10.7797267"><ele>402.0</ele><time>2026-05-03T16:32:45.745Z</time></trkpt><trkpt lat="44.4555183" lon="10.7796333"><ele>399.0</ele><time>2026-05-03T16:32:46.744Z</time></trkpt><trkpt lat="44.455475" lon="10.779525"><ele>399.5</ele><time>2026-05-03T16:32:47.744Z</time></trkpt><trkpt lat="44.45543" lon="10.7794117"><ele>400.0</ele><time>2026-05-03T16:32:48.745Z</time></trkpt><trkpt lat="44.4554" lon="10.7792917"><ele>400.5</ele><time>2026-05-03T16:32:49.745Z</time></trkpt><trkpt lat="44.4553983" lon="10.77919"><ele>401.0</ele><time>2026-05-03T16:32:50.744Z</time></trkpt><trkpt lat="44.45541" lon="10.7790867"><ele>401.5</ele><time>2026-05-03T16:32:51.745Z</time></trkpt><trkpt lat="44.455435" lon="10.778995"><ele>402.0</ele><time>2026-05-03T16:32:52.745Z</time></trkpt><trkpt lat="44.4554433" lon="10.77889"><ele>402.0</ele><time>2026-05-03T16:32:53.744Z</time></trkpt><trkpt lat="44.4554333" lon="10.7787917"><ele>402.0</ele><time>2026-05-03T16:32:54.745Z</time></trkpt><trkpt lat="44.4554117" lon="10.7786783"><ele>402.0</ele><time>2026-05-03T16:32:55.744Z</time></trkpt><trkpt lat="44.4553717" lon="10.778565"><ele>402.0</ele><time>2026-05-03T16:32:56.745Z</time></trkpt><trkpt lat="44.45533" lon="10.7784633"><ele>402.0</ele><time>2026-05-03T16:32:57.744Z</time></trkpt><trkpt lat="44.4552733" lon="10.77836"><ele>402.0</ele><time>2026-05-03T16:32:58.745Z</time></trkpt><trkpt lat="44.4552067" lon="10.7782717"><ele>400.5</ele><time>2026-05-03T16:32:59.745Z</time></trkpt><trkpt lat="44.45514" lon="10.7781783"><ele>399.0</ele><time>2026-05-03T16:33:00.745Z</time></trkpt><trkpt lat="44.4550867" lon="10.7780783"><ele>397.5</ele><time>2026-05-03T16:33:01.745Z</time></trkpt><trkpt lat="44.4550383" lon="10.77798"><ele>396.0</ele><time>2026-05-03T16:33:02.745Z</time></trkpt><trkpt lat="44.4549783" lon="10.7778917"><ele>394.5</ele><time>2026-05-03T16:33:03.745Z</time></trkpt><trkpt lat="44.45491" lon="10.7778217"><ele>393.0</ele><time>2026-05-03T16:33:04.745Z</time></trkpt><trkpt lat="44.45483" lon="10.7777617"><ele>393.0</ele><time>2026-05-03T16:33:05.745Z</time></trkpt><trkpt lat="44.4547517" lon="10.77771"><ele>393.0</ele><time>2026-05-03T16:33:06.745Z</time></trkpt><trkpt lat="44.4546733" lon="10.7776683"><ele>393.0</ele><time>2026-05-03T16:33:07.745Z</time></trkpt><trkpt lat="44.4545967" lon="10.7776233"><ele>393.0</ele><time>2026-05-03T16:33:08.744Z</time></trkpt><trkpt lat="44.4545217" lon="10.7775983"><ele>393.0</ele><time>2026-05-03T16:33:09.745Z</time></trkpt><trkpt lat="44.4544417" lon="10.777595"><ele>393.0</ele><time>2026-05-03T16:33:10.745Z</time></trkpt><trkpt lat="44.45435" lon="10.7775983"><ele>393.2</ele><time>2026-05-03T16:33:11.744Z</time></trkpt><trkpt lat="44.4542617" lon="10.77759"><ele>393.4</ele><time>2026-05-03T16:33:12.744Z</time></trkpt><trkpt lat="44.4541733" lon="10.77756"><ele>393.59999999999997</ele><time>2026-05-03T16:33:13.745Z</time></trkpt><trkpt lat="44.4541083" lon="10.77752"><ele>393.79999999999995</ele><time>2026-05-03T16:33:14.745Z</time></trkpt><trkpt lat="44.4540783" lon="10.777405"><ele>394.0</ele><time>2026-05-03T16:33:16.745Z</time></trkpt><trkpt lat="44.4541383" lon="10.7772367"><ele>394.0</ele><time>2026-05-03T16:33:18.744Z</time></trkpt><trkpt lat="44.4541883" lon="10.7771283"><ele>394.0</ele><time>2026-05-03T16:33:19.744Z</time></trkpt><trkpt lat="44.45424" lon="10.7770283"><ele>394.0</ele><time>2026-05-03T16:33:20.744Z</time></trkpt><trkpt lat="44.4542783" lon="10.776905"><ele>394.0</ele><time>2026-05-03T16:33:21.743Z</time></trkpt><trkpt lat="44.454305" lon="10.77677"><ele>394.0</ele><time>2026-05-03T16:33:22.743Z</time></trkpt><trkpt lat="44.4543217" lon="10.7766267"><ele>394.5</ele><time>2026-05-03T16:33:23.744Z</time></trkpt><trkpt lat="44.4543367" lon="10.776475"><ele>395.0</ele><time>2026-05-03T16:33:24.744Z</time></trkpt><trkpt lat="44.4543433" lon="10.7763233"><ele>395.5</ele><time>2026-05-03T16:33:25.744Z</time></trkpt><trkpt lat="44.45434" lon="10.7761633"><ele>396.0</ele><time>2026-05-03T16:33:26.744Z</time></trkpt><trkpt lat="44.4543317" lon="10.7759983"><ele>397.6</ele><time>2026-05-03T16:33:27.744Z</time></trkpt><trkpt lat="44.4543233" lon="10.7758367"><ele>399.20000000000005</ele><time>2026-05-03T16:33:28.744Z</time></trkpt><trkpt lat="44.4543233" lon="10.77568"><ele>400.79999999999995</ele><time>2026-05-03T16:33:29.743Z</time></trkpt><trkpt lat="44.45431" lon="10.775535"><ele>402.4</ele><time>2026-05-03T16:33:30.743Z</time></trkpt><trkpt lat="44.4543017" lon="10.7753767"><ele>404.0</ele><time>2026-05-03T16:33:31.744Z</time></trkpt><trkpt lat="44.45429" lon="10.77522"><ele>406.4</ele><time>2026-05-03T16:33:32.744Z</time></trkpt><trkpt lat="44.454275" lon="10.77507"><ele>408.79999999999995</ele><time>2026-05-03T16:33:33.744Z</time></trkpt><trkpt lat="44.454275" lon="10.77493"><ele>411.20000000000005</ele><time>2026-05-03T16:33:34.743Z</time></trkpt><trkpt lat="44.45427" lon="10.774795"><ele>413.6</ele><time>2026-05-03T16:33:35.744Z</time></trkpt><trkpt lat="44.45426" lon="10.77467"><ele>416.0</ele><time>2026-05-03T16:33:36.744Z</time></trkpt><trkpt lat="44.45425" lon="10.774535"><ele>415.99999999999994</ele><time>2026-05-03T16:33:37.744Z</time></trkpt><trkpt lat="44.454255" lon="10.7744083"><ele>416.0</ele><time>2026-05-03T16:33:38.743Z</time></trkpt><trkpt lat="44.45427" lon="10.77429"><ele>416.0</ele><time>2026-05-03T16:33:39.743Z</time></trkpt><trkpt lat="44.4543033" lon="10.7741833"><ele>416.0</ele><time>2026-05-03T16:33:40.744Z</time></trkpt><trkpt lat="44.4543417" lon="10.7740817"><ele>415.99999999999994</ele><time>2026-05-03T16:33:41.743Z</time></trkpt><trkpt lat="44.454385" lon="10.7739967"><ele>416.0</ele><time>2026-05-03T16:33:42.744Z</time></trkpt><trkpt lat="44.4544433" lon="10.773915"><ele>416.99999999999994</ele><time>2026-05-03T16:33:43.744Z</time></trkpt><trkpt lat="44.4545067" lon="10.77383"><ele>418.0</ele><time>2026-05-03T16:33:44.744Z</time></trkpt><trkpt lat="44.4545683" lon="10.77374"><ele>419.0</ele><time>2026-05-03T16:33:45.744Z</time></trkpt><trkpt lat="44.4546167" lon="10.7736433"><ele>420.0</ele><time>2026-05-03T16:33:46.744Z</time></trkpt><trkpt lat="44.4546617" lon="10.7735267"><ele>420.99999999999994</ele><time>2026-05-03T16:33:47.744Z</time></trkpt><trkpt lat="44.454695" lon="10.7734083"><ele>422.0</ele><time>2026-05-03T16:33:48.744Z</time></trkpt><trkpt lat="44.45473" lon="10.7732867"><ele>426.99999999999994</ele><time>2026-05-03T16:33:49.744Z</time></trkpt><trkpt lat="44.4547767" lon="10.7731717"><ele>432.0</ele><time>2026-05-03T16:33:50.744Z</time></trkpt><trkpt lat="44.454835" lon="10.7730867"><ele>437.0</ele><time>2026-05-03T16:33:51.744Z</time></trkpt><trkpt lat="44.4549" lon="10.7730133"><ele>442.0</ele><time>2026-05-03T16:33:52.744Z</time></trkpt><trkpt lat="44.45495" lon="10.7729267"><ele>446.99999999999994</ele><time>2026-05-03T16:33:53.743Z</time></trkpt><trkpt lat="44.455" lon="10.7728417"><ele>452.0</ele><time>2026-05-03T16:33:54.743Z</time></trkpt><trkpt lat="44.4550567" lon="10.772765"><ele>451.99999999999994</ele><time>2026-05-03T16:33:55.743Z</time></trkpt><trkpt lat="44.4551167" lon="10.7727117"><ele>452.0</ele><time>2026-05-03T16:33:56.743Z</time></trkpt><trkpt lat="44.455185" lon="10.7726783"><ele>452.0</ele><time>2026-05-03T16:33:57.744Z</time></trkpt><trkpt lat="44.455265" lon="10.7726717"><ele>452.0</ele><time>2026-05-03T16:33:58.744Z</time></trkpt><trkpt lat="44.4553433" lon="10.77267"><ele>451.99999999999994</ele><time>2026-05-03T16:33:59.743Z</time></trkpt><trkpt lat="44.455435" lon="10.7726717"><ele>452.0</ele><time>2026-05-03T16:34:00.743Z</time></trkpt><trkpt lat="44.4555267" lon="10.7726767"><ele>453.99999999999994</ele><time>2026-05-03T16:34:01.743Z</time></trkpt><trkpt lat="44.4556133" lon="10.7726733"><ele>456.0</ele><time>2026-05-03T16:34:02.743Z</time></trkpt><trkpt lat="44.4556833" lon="10.7726767"><ele>458.0</ele><time>2026-05-03T16:34:03.744Z</time></trkpt><trkpt lat="44.4557517" lon="10.7726633"><ele>460.0</ele><time>2026-05-03T16:34:05.744Z</time></trkpt><trkpt lat="44.4557933" lon="10.77259"><ele>461.99999999999994</ele><time>2026-05-03T16:34:49.744Z</time></trkpt><trkpt lat="44.4557933" lon="10.7724967"><ele>464.0</ele><time>2026-05-03T16:36:59.743Z</time></trkpt><trkpt lat="44.4557883" lon="10.7723333"><ele>464.0</ele><time>2026-05-03T16:37:01.744Z</time></trkpt><trkpt lat="44.4557933" lon="10.7722033"><ele>464.0</ele><time>2026-05-03T16:37:02.744Z</time></trkpt><trkpt lat="44.4557883" lon="10.7720417"><ele>464.0</ele><time>2026-05-03T16:37:03.744Z</time></trkpt><trkpt lat="44.45578" lon="10.77185"><ele>464.0</ele><time>2026-05-03T16:37:04.744Z</time></trkpt><trkpt lat="44.4557733" lon="10.771655"><ele>465.75</ele><time>2026-05-03T16:37:05.744Z</time></trkpt><trkpt lat="44.45577" lon="10.77147"><ele>467.5</ele><time>2026-05-03T16:37:06.744Z</time></trkpt><trkpt lat="44.4557717" lon="10.771285"><ele>469.25</ele><time>2026-05-03T16:37:07.744Z</time></trkpt><trkpt lat="44.4557583" lon="10.771115"><ele>471.0</ele><time>2026-05-03T16:37:08.744Z</time></trkpt><trkpt lat="44.455745" lon="10.77095"><ele>473.0</ele><time>2026-05-03T16:37:09.744Z</time></trkpt><trkpt lat="44.4557233" lon="10.7707817"><ele>475.0</ele><time>2026-05-03T16:37:10.743Z</time></trkpt><trkpt lat="44.4556917" lon="10.7706267"><ele>477.0</ele><time>2026-05-03T16:37:11.744Z</time></trkpt><trkpt lat="44.4556367" lon="10.7704783"><ele>479.0</ele><time>2026-05-03T16:37:12.744Z</time></trkpt><trkpt lat="44.4555883" lon="10.7703333"><ele>481.0</ele><time>2026-05-03T16:37:13.743Z</time></trkpt><trkpt lat="44.4555417" lon="10.7701833"><ele>483.0</ele><time>2026-05-03T16:37:14.744Z</time></trkpt><trkpt lat="44.4555117" lon="10.7700233"><ele>485.0</ele><time>2026-05-03T16:37:15.744Z</time></trkpt><trkpt lat="44.45549" lon="10.7698517"><ele>487.0</ele><time>2026-05-03T16:37:16.743Z</time></trkpt><trkpt lat="44.4554717" lon="10.7696817"><ele>487.0</ele><time>2026-05-03T16:37:17.743Z</time></trkpt><trkpt lat="44.45547" lon="10.7695067"><ele>487.0</ele><time>2026-05-03T16:37:18.743Z</time></trkpt><trkpt lat="44.4554817" lon="10.7693367"><ele>487.0</ele><time>2026-05-03T16:37:19.744Z</time></trkpt><trkpt lat="44.455495" lon="10.7691683"><ele>487.0</ele><time>2026-05-03T16:37:20.744Z</time></trkpt><trkpt lat="44.4555267" lon="10.7689883"><ele>487.75</ele><time>2026-05-03T16:37:21.744Z</time></trkpt><trkpt lat="44.4555667" lon="10.7688117"><ele>488.5</ele><time>2026-05-03T16:37:22.744Z</time></trkpt><trkpt lat="44.4555983" lon="10.7686367"><ele>489.25</ele><time>2026-05-03T16:37:23.744Z</time></trkpt><trkpt lat="44.4556267" lon="10.7684667"><ele>490.0</ele><time>2026-05-03T16:37:24.744Z</time></trkpt><trkpt lat="44.4556483" lon="10.7683083"><ele>490.0</ele><time>2026-05-03T16:37:25.744Z</time></trkpt><trkpt lat="44.4556683" lon="10.7681683"><ele>490.0</ele><time>2026-05-03T16:37:26.743Z</time></trkpt><trkpt lat="44.4556683" lon="10.7680383"><ele>490.0</ele><time>2026-05-03T16:37:27.744Z</time></trkpt><trkpt lat="44.4556483" lon="10.7679167"><ele>490.0</ele><time>2026-05-03T16:37:28.744Z</time></trkpt><trkpt lat="44.4555983" lon="10.767805"><ele>490.0</ele><time>2026-05-03T16:37:29.744Z</time></trkpt><trkpt lat="44.4555283" lon="10.7676967"><ele>489.5</ele><time>2026-05-03T16:37:30.744Z</time></trkpt><trkpt lat="44.455445" lon="10.7675967"><ele>489.0</ele><time>2026-05-03T16:37:31.743Z</time></trkpt><trkpt lat="44.455355" lon="10.767495"><ele>488.5</ele><time>2026-05-03T16:37:32.744Z</time></trkpt><trkpt lat="44.4552767" lon="10.767385"><ele>488.0</ele><time>2026-05-03T16:37:33.743Z</time></trkpt><trkpt lat="44.4552033" lon="10.7672517"><ele>488.0</ele><time>2026-05-03T16:37:34.744Z</time></trkpt><trkpt lat="44.4551433" lon="10.7671183"><ele>487.99999999999994</ele><time>2026-05-03T16:37:35.744Z</time></trkpt><trkpt lat="44.45509" lon="10.7669783"><ele>487.99999999999994</ele><time>2026-05-03T16:37:36.743Z</time></trkpt><trkpt lat="44.4550433" lon="10.76684"><ele>488.0</ele><time>2026-05-03T16:37:37.744Z</time></trkpt><trkpt lat="44.4549867" lon="10.7667017"><ele>488.0</ele><time>2026-05-03T16:37:38.744Z</time></trkpt><trkpt lat="44.4549283" lon="10.7665717"><ele>490.5</ele><time>2026-05-03T16:37:39.744Z</time></trkpt><trkpt lat="44.4548683" lon="10.76643"><ele>493.0</ele><time>2026-05-03T16:37:40.744Z</time></trkpt><trkpt lat="44.45481" lon="10.766285"><ele>495.5</ele><time>2026-05-03T16:37:41.744Z</time></trkpt><trkpt lat="44.4547533" lon="10.7661483"><ele>498.0</ele><time>2026-05-03T16:37:42.743Z</time></trkpt><trkpt lat="44.4546933" lon="10.766005"><ele>498.25</ele><time>2026-05-03T16:37:43.743Z</time></trkpt><trkpt lat="44.4546367" lon="10.76587"><ele>498.5</ele><time>2026-05-03T16:37:44.744Z</time></trkpt><trkpt lat="44.454585" lon="10.765725"><ele>498.75</ele><time>2026-05-03T16:37:45.744Z</time></trkpt><trkpt lat="44.4545417" lon="10.765575"><ele>499.0</ele><time>2026-05-03T16:37:46.744Z</time></trkpt><trkpt lat="44.4545017" lon="10.7654117"><ele>499.0</ele><time>2026-05-03T16:37:47.743Z</time></trkpt><trkpt lat="44.4544633" lon="10.7652583"><ele>499.0</ele><time>2026-05-03T16:37:48.744Z</time></trkpt><trkpt lat="44.4544283" lon="10.765115"><ele>499.0</ele><time>2026-05-03T16:37:49.743Z</time></trkpt><trkpt lat="44.4543967" lon="10.7649933"><ele>499.0</ele><time>2026-05-03T16:37:50.744Z</time></trkpt><trkpt lat="44.454365" lon="10.764895"><ele>499.0</ele><time>2026-05-03T16:37:51.744Z</time></trkpt><trkpt lat="44.454335" lon="10.7647767"><ele>499.83333333333337</ele><time>2026-05-03T16:37:53.744Z</time></trkpt><trkpt lat="44.4543133" lon="10.764655"><ele>500.6666666666667</ele><time>2026-05-03T16:37:55.744Z</time></trkpt><trkpt lat="44.4542817" lon="10.764575"><ele>501.5</ele><time>2026-05-03T16:37:56.744Z</time></trkpt><trkpt lat="44.454245" lon="10.7644983"><ele>502.33333333333337</ele><time>2026-05-03T16:37:57.744Z</time></trkpt><trkpt lat="44.4541967" lon="10.7643733"><ele>503.1666666666667</ele><time>2026-05-03T16:37:59.744Z</time></trkpt><trkpt lat="44.4542367" lon="10.7643033"><ele>504.0</ele><time>2026-05-03T16:38:01.743Z</time></trkpt><trkpt lat="44.4543283" lon="10.7643067"><ele>504.0</ele><time>2026-05-03T16:38:03.744Z</time></trkpt><trkpt lat="44.4543917" lon="10.76433"><ele>504.0</ele><time>2026-05-03T16:38:04.743Z</time></trkpt><trkpt lat="44.45445" lon="10.764375"><ele>504.0</ele><time>2026-05-03T16:38:05.744Z</time></trkpt><trkpt lat="44.4545083" lon="10.7644233"><ele>504.0</ele><time>2026-05-03T16:38:06.743Z</time></trkpt><trkpt lat="44.4545817" lon="10.7644583"><ele>504.0</ele><time>2026-05-03T16:38:07.744Z</time></trkpt><trkpt lat="44.4546583" lon="10.7644967"><ele>504.0</ele><time>2026-05-03T16:38:08.744Z</time></trkpt><trkpt lat="44.4547467" lon="10.7645217"><ele>504.0</ele><time>2026-05-03T16:38:09.744Z</time></trkpt><trkpt lat="44.4548433" lon="10.7645367"><ele>506.4</ele><time>2026-05-03T16:38:10.744Z</time></trkpt><trkpt lat="44.4549367" lon="10.76455"><ele>508.79999999999995</ele><time>2026-05-03T16:38:11.744Z</time></trkpt><trkpt lat="44.4550367" lon="10.7645567"><ele>511.20000000000005</ele><time>2026-05-03T16:38:12.744Z</time></trkpt><trkpt lat="44.4551467" lon="10.7645533"><ele>513.6</ele><time>2026-05-03T16:38:13.744Z</time></trkpt><trkpt lat="44.4552483" lon="10.7645583"><ele>516.0</ele><time>2026-05-03T16:38:14.744Z</time></trkpt><trkpt lat="44.45535" lon="10.7645517"><ele>516.0</ele><time>2026-05-03T16:38:15.744Z</time></trkpt><trkpt lat="44.4554483" lon="10.7645433"><ele>516.0</ele><time>2026-05-03T16:38:16.743Z</time></trkpt><trkpt lat="44.4555517" lon="10.76453"><ele>516.0</ele><time>2026-05-03T16:38:17.744Z</time></trkpt><trkpt lat="44.45566" lon="10.764515"><ele>516.0</ele><time>2026-05-03T16:38:18.744Z</time></trkpt><trkpt lat="44.455775" lon="10.7645167"><ele>516.0</ele><time>2026-05-03T16:38:19.743Z</time></trkpt><trkpt lat="44.4558817" lon="10.7645383"><ele>519.25</ele><time>2026-05-03T16:38:20.744Z</time></trkpt><trkpt lat="44.455985" lon="10.7645833"><ele>522.5</ele><time>2026-05-03T16:38:21.744Z</time></trkpt><trkpt lat="44.45609" lon="10.7646633"><ele>525.75</ele><time>2026-05-03T16:38:22.744Z</time></trkpt><trkpt lat="44.4561967" lon="10.764745"><ele>529.0</ele><time>2026-05-03T16:38:23.744Z</time></trkpt><trkpt lat="44.4563067" lon="10.7648233"><ele>531.25</ele><time>2026-05-03T16:38:24.744Z</time></trkpt><trkpt lat="44.456415" lon="10.7648933"><ele>533.5</ele><time>2026-05-03T16:38:25.744Z</time></trkpt><trkpt lat="44.4565317" lon="10.7649467"><ele>535.75</ele><time>2026-05-03T16:38:26.743Z</time></trkpt><trkpt lat="44.45664" lon="10.764995"><ele>538.0</ele><time>2026-05-03T16:38:27.744Z</time></trkpt><trkpt lat="44.456755" lon="10.765035"><ele>538.0</ele><time>2026-05-03T16:38:28.744Z</time></trkpt><trkpt lat="44.4568683" lon="10.7650767"><ele>538.0</ele><time>2026-05-03T16:38:29.744Z</time></trkpt><trkpt lat="44.456975" lon="10.7650983"><ele>538.0</ele><time>2026-05-03T16:38:30.744Z</time></trkpt><trkpt lat="44.457065" lon="10.765095"><ele>538.0</ele><time>2026-05-03T16:38:31.743Z</time></trkpt><trkpt lat="44.4571283" lon="10.7650633"><ele>538.0</ele><time>2026-05-03T16:38:32.743Z</time></trkpt><trkpt lat="44.4571917" lon="10.7649967"><ele>540.4</ele><time>2026-05-03T16:38:33.743Z</time></trkpt><trkpt lat="44.457255" lon="10.76489"><ele>542.8</ele><time>2026-05-03T16:38:34.743Z</time></trkpt><trkpt lat="44.457325" lon="10.764755"><ele>545.2</ele><time>2026-05-03T16:38:35.743Z</time></trkpt><trkpt lat="44.4573933" lon="10.764625"><ele>547.6</ele><time>2026-05-03T16:38:36.743Z</time></trkpt><trkpt lat="44.4574483" lon="10.7645233"><ele>550.0</ele><time>2026-05-03T16:38:37.743Z</time></trkpt><trkpt lat="44.4575067" lon="10.7644583"><ele>550.0</ele><time>2026-05-03T16:38:38.742Z</time></trkpt><trkpt lat="44.457575" lon="10.7644117"><ele>550.0</ele><time>2026-05-03T16:38:39.742Z</time></trkpt><trkpt lat="44.45766" lon="10.7643933"><ele>550.0</ele><time>2026-05-03T16:38:40.742Z</time></trkpt><trkpt lat="44.457755" lon="10.7643933"><ele>550.0</ele><time>2026-05-03T16:38:41.742Z</time></trkpt><trkpt lat="44.4578717" lon="10.7643883"><ele>550.0</ele><time>2026-05-03T16:38:42.743Z</time></trkpt><trkpt lat="44.4579933" lon="10.7643817"><ele>552.5</ele><time>2026-05-03T16:38:43.743Z</time></trkpt><trkpt lat="44.45812" lon="10.7643783"><ele>555.0</ele><time>2026-05-03T16:38:44.743Z</time></trkpt><trkpt lat="44.45824" lon="10.7643717"><ele>557.5</ele><time>2026-05-03T16:38:45.743Z</time></trkpt><trkpt lat="44.4583483" lon="10.7643567"><ele>560.0</ele><time>2026-05-03T16:38:46.743Z</time></trkpt><trkpt lat="44.4584517" lon="10.7643183"><ele>560.0</ele><time>2026-05-03T16:38:47.742Z</time></trkpt><trkpt lat="44.45855" lon="10.764255"><ele>560.0</ele><time>2026-05-03T16:38:48.743Z</time></trkpt><trkpt lat="44.4586517" lon="10.7641617"><ele>560.0</ele><time>2026-05-03T16:38:49.743Z</time></trkpt><trkpt lat="44.45874" lon="10.7640767"><ele>560.0</ele><time>2026-05-03T16:38:50.743Z</time></trkpt><trkpt lat="44.4588183" lon="10.76401"><ele>560.0</ele><time>2026-05-03T16:38:51.743Z</time></trkpt><trkpt lat="44.4589017" lon="10.76396"><ele>561.4</ele><time>2026-05-03T16:38:52.743Z</time></trkpt><trkpt lat="44.4589783" lon="10.763935"><ele>562.8</ele><time>2026-05-03T16:38:53.742Z</time></trkpt><trkpt lat="44.4590467" lon="10.763945"><ele>564.2</ele><time>2026-05-03T16:38:54.743Z</time></trkpt><trkpt lat="44.45913" lon="10.76404"><ele>565.6</ele><time>2026-05-03T16:38:56.743Z</time></trkpt><trkpt lat="44.4591917" lon="10.7641983"><ele>567.0</ele><time>2026-05-03T16:38:58.743Z</time></trkpt><trkpt lat="44.4592267" lon="10.7643"><ele>568.0</ele><time>2026-05-03T16:38:59.743Z</time></trkpt><trkpt lat="44.4592717" lon="10.7643983"><ele>569.0</ele><time>2026-05-03T16:39:00.742Z</time></trkpt><trkpt lat="44.4593317" lon="10.76449"><ele>570.0</ele><time>2026-05-03T16:39:01.743Z</time></trkpt><trkpt lat="44.4594017" lon="10.7645533"><ele>571.0</ele><time>2026-05-03T16:39:02.743Z</time></trkpt><trkpt lat="44.4594783" lon="10.76459"><ele>572.0</ele><time>2026-05-03T16:39:03.742Z</time></trkpt><trkpt lat="44.4595633" lon="10.7646133"><ele>573.0</ele><time>2026-05-03T16:39:04.742Z</time></trkpt><trkpt lat="44.4596483" lon="10.7646533"><ele>573.0</ele><time>2026-05-03T16:39:05.743Z</time></trkpt><trkpt lat="44.45973" lon="10.7647017"><ele>573.0</ele><time>2026-05-03T16:39:06.742Z</time></trkpt><trkpt lat="44.459795" lon="10.7647683"><ele>573.0</ele><time>2026-05-03T16:39:07.743Z</time></trkpt><trkpt lat="44.4598267" lon="10.7648467"><ele>573.0</ele><time>2026-05-03T16:39:08.743Z</time></trkpt><trkpt lat="44.459835" lon="10.7650133"><ele>573.0</ele><time>2026-05-03T16:39:10.743Z</time></trkpt><trkpt lat="44.4598333" lon="10.7651933"><ele>574.1428571428571</ele><time>2026-05-03T16:39:12.743Z</time></trkpt><trkpt lat="44.4598317" lon="10.76529"><ele>575.2857142857143</ele><time>2026-05-03T16:39:13.743Z</time></trkpt><trkpt lat="44.4598417" lon="10.7653783"><ele>576.4285714285714</ele><time>2026-05-03T16:39:14.743Z</time></trkpt><trkpt lat="44.4598617" lon="10.7654667"><ele>577.5714285714286</ele><time>2026-05-03T16:39:15.742Z</time></trkpt><trkpt lat="44.4599" lon="10.7655517"><ele>578.7142857142858</ele><time>2026-05-03T16:39:16.742Z</time></trkpt><trkpt lat="44.4599467" lon="10.76564"><ele>579.8571428571429</ele><time>2026-05-03T16:39:17.743Z</time></trkpt><trkpt lat="44.4600017" lon="10.7657117"><ele>581.0</ele><time>2026-05-03T16:39:18.743Z</time></trkpt><trkpt lat="44.460065" lon="10.7657583"><ele>581.0</ele><time>2026-05-03T16:39:19.742Z</time></trkpt><trkpt lat="44.4601367" lon="10.7657833"><ele>581.0</ele><time>2026-05-03T16:39:20.743Z</time></trkpt><trkpt lat="44.4602267" lon="10.7657833"><ele>581.0</ele><time>2026-05-03T16:39:21.742Z</time></trkpt><trkpt lat="44.460315" lon="10.7657983"><ele>581.0</ele><time>2026-05-03T16:39:22.743Z</time></trkpt><trkpt lat="44.4603983" lon="10.7658333"><ele>581.0</ele><time>2026-05-03T16:39:23.743Z</time></trkpt><trkpt lat="44.4604833" lon="10.765895"><ele>581.0</ele><time>2026-05-03T16:39:24.742Z</time></trkpt><trkpt lat="44.4605517" lon="10.765965"><ele>580.6666666666666</ele><time>2026-05-03T16:39:25.743Z</time></trkpt><trkpt lat="44.460615" lon="10.7660017"><ele>580.3333333333333</ele><time>2026-05-03T16:39:26.743Z</time></trkpt><trkpt lat="44.460735" lon="10.7659767"><ele>580.0</ele><time>2026-05-03T16:39:28.743Z</time></trkpt><trkpt lat="44.4607933" lon="10.7659133"><ele>579.6666666666666</ele><time>2026-05-03T16:39:29.743Z</time></trkpt><trkpt lat="44.460845" lon="10.7658183"><ele>579.3333333333334</ele><time>2026-05-03T16:39:30.742Z</time></trkpt><trkpt lat="44.460905" lon="10.7657317"><ele>579.0</ele><time>2026-05-03T16:39:31.743Z</time></trkpt><trkpt lat="44.4609617" lon="10.7656367"><ele>579.0</ele><time>2026-05-03T16:39:32.743Z</time></trkpt><trkpt lat="44.4610167" lon="10.7655483"><ele>579.0</ele><time>2026-05-03T16:39:33.743Z</time></trkpt><trkpt lat="44.4610717" lon="10.7654517"><ele>579.0</ele><time>2026-05-03T16:39:34.742Z</time></trkpt><trkpt lat="44.4611217" lon="10.7653717"><ele>579.0</ele><time>2026-05-03T16:39:35.743Z</time></trkpt><trkpt lat="44.4612217" lon="10.7652883"><ele>579.0</ele><time>2026-05-03T16:39:37.743Z</time></trkpt><trkpt lat="44.4613517" lon="10.7653683"><ele>576.3333333333334</ele><time>2026-05-03T16:39:39.743Z</time></trkpt><trkpt lat="44.4614217" lon="10.76544"><ele>573.6666666666666</ele><time>2026-05-03T16:39:40.743Z</time></trkpt><trkpt lat="44.461495" lon="10.7655217"><ele>571.0</ele><time>2026-05-03T16:39:41.743Z</time></trkpt><trkpt lat="44.4615583" lon="10.7656133"><ele>568.3333333333333</ele><time>2026-05-03T16:39:42.743Z</time></trkpt><trkpt lat="44.4616117" lon="10.7656983"><ele>565.6666666666666</ele><time>2026-05-03T16:39:43.742Z</time></trkpt><trkpt lat="44.4616583" lon="10.765765"><ele>563.0</ele><time>2026-05-03T16:39:44.742Z</time></trkpt><trkpt lat="44.4617283" lon="10.7658433"><ele>563.0</ele><time>2026-05-03T16:39:46.743Z</time></trkpt><trkpt lat="44.461825" lon="10.7658583"><ele>563.0</ele><time>2026-05-03T16:39:48.743Z</time></trkpt><trkpt lat="44.4619133" lon="10.7658267"><ele>563.0</ele><time>2026-05-03T16:39:50.743Z</time></trkpt><trkpt lat="44.4620017" lon="10.765735"><ele>563.0</ele><time>2026-05-03T16:39:52.743Z</time></trkpt><trkpt lat="44.462055" lon="10.76567"><ele>563.0</ele><time>2026-05-03T16:39:53.742Z</time></trkpt><trkpt lat="44.462115" lon="10.7655933"><ele>559.8333333333333</ele><time>2026-05-03T16:39:54.743Z</time></trkpt><trkpt lat="44.4621733" lon="10.7655167"><ele>556.6666666666666</ele><time>2026-05-03T16:39:55.743Z</time></trkpt><trkpt lat="44.462235" lon="10.765435"><ele>553.5</ele><time>2026-05-03T16:39:56.742Z</time></trkpt><trkpt lat="44.462295" lon="10.765365"><ele>550.3333333333334</ele><time>2026-05-03T16:39:57.743Z</time></trkpt><trkpt lat="44.4623533" lon="10.7652883"><ele>547.1666666666667</ele><time>2026-05-03T16:39:58.743Z</time></trkpt><trkpt lat="44.4624117" lon="10.7652117"><ele>544.0</ele><time>2026-05-03T16:39:59.743Z</time></trkpt><trkpt lat="44.4624617" lon="10.7651433"><ele>544.0</ele><time>2026-05-03T16:40:00.743Z</time></trkpt><trkpt lat="44.4625133" lon="10.765075"><ele>544.0</ele><time>2026-05-03T16:40:01.743Z</time></trkpt><trkpt lat="44.4625717" lon="10.7650083"><ele>544.0</ele><time>2026-05-03T16:40:02.743Z</time></trkpt><trkpt lat="44.4626183" lon="10.7649433"><ele>544.0</ele><time>2026-05-03T16:40:03.743Z</time></trkpt><trkpt lat="44.4627017" lon="10.7648267"><ele>544.0</ele><time>2026-05-03T16:40:05.743Z</time></trkpt><trkpt lat="44.462765" lon="10.7647833"><ele>544.0</ele><time>2026-05-03T16:40:07.743Z</time></trkpt><trkpt lat="44.4627567" lon="10.7648917"><ele>544.0</ele><time>2026-05-03T16:40:11.743Z</time></trkpt><trkpt lat="44.462745" lon="10.7649867"><ele>544.0</ele><time>2026-05-03T16:40:21.743Z</time></trkpt><trkpt lat="44.4627233" lon="10.7651633"><ele>544.0</ele><time>2026-05-03T16:40:23.743Z</time></trkpt><trkpt lat="44.4627033" lon="10.7652783"><ele>544.0</ele><time>2026-05-03T16:40:24.743Z</time></trkpt><trkpt lat="44.46268" lon="10.7654083"><ele>544.0</ele><time>2026-05-03T16:40:25.742Z</time></trkpt><trkpt lat="44.462655" lon="10.7655567"><ele>543.8</ele><time>2026-05-03T16:40:26.743Z</time></trkpt><trkpt lat="44.46264" lon="10.7657167"><ele>543.5999999999999</ele><time>2026-05-03T16:40:27.742Z</time></trkpt><trkpt lat="44.4626367" lon="10.7658717"><ele>543.4</ele><time>2026-05-03T16:40:28.743Z</time></trkpt><trkpt lat="44.4626483" lon="10.7660233"><ele>543.1999999999999</ele><time>2026-05-03T16:40:29.743Z</time></trkpt><trkpt lat="44.46267" lon="10.76617"><ele>543.0</ele><time>2026-05-03T16:40:30.743Z</time></trkpt><trkpt lat="44.46269" lon="10.7663267"><ele>543.0</ele><time>2026-05-03T16:40:31.742Z</time></trkpt><trkpt lat="44.46271" lon="10.7664783"><ele>543.0</ele><time>2026-05-03T16:40:32.743Z</time></trkpt><trkpt lat="44.46272" lon="10.7666233"><ele>543.0</ele><time>2026-05-03T16:40:33.742Z</time></trkpt><trkpt lat="44.4627417" lon="10.766755"><ele>543.0</ele><time>2026-05-03T16:40:34.743Z</time></trkpt><trkpt lat="44.46277" lon="10.7668717"><ele>543.0</ele><time>2026-05-03T16:40:35.743Z</time></trkpt><trkpt lat="44.4627917" lon="10.7669833"><ele>543.4</ele><time>2026-05-03T16:40:36.743Z</time></trkpt><trkpt lat="44.4628167" lon="10.7670867"><ele>543.8</ele><time>2026-05-03T16:40:37.743Z</time></trkpt><trkpt lat="44.4628617" lon="10.7672267"><ele>544.2</ele><time>2026-05-03T16:40:39.743Z</time></trkpt><trkpt lat="44.4629333" lon="10.76721"><ele>544.6</ele><time>2026-05-03T16:40:42.743Z</time></trkpt><trkpt lat="44.4629167" lon="10.7670533"><ele>545.0</ele><time>2026-05-03T16:40:44.742Z</time></trkpt><trkpt lat="44.4628833" lon="10.7669283"><ele>544.6666666666666</ele><time>2026-05-03T16:40:45.743Z</time></trkpt><trkpt lat="44.4628467" lon="10.7667917"><ele>544.3333333333333</ele><time>2026-05-03T16:40:46.743Z</time></trkpt><trkpt lat="44.4628183" lon="10.7666683"><ele>544.0</ele><time>2026-05-03T16:40:47.743Z</time></trkpt><trkpt lat="44.4628167" lon="10.7665467"><ele>543.6666666666666</ele><time>2026-05-03T16:40:48.743Z</time></trkpt><trkpt lat="44.46284" lon="10.7664467"><ele>543.3333333333334</ele><time>2026-05-03T16:40:49.743Z</time></trkpt><trkpt lat="44.4628917" lon="10.7663867"><ele>543.0</ele><time>2026-05-03T16:40:50.743Z</time></trkpt><trkpt lat="44.4629783" lon="10.7664017"><ele>540.1999999999999</ele><time>2026-05-03T16:40:51.743Z</time></trkpt><trkpt lat="44.4630417" lon="10.766465"><ele>537.4</ele><time>2026-05-03T16:40:52.743Z</time></trkpt><trkpt lat="44.4630833" lon="10.7665817"><ele>534.5999999999999</ele><time>2026-05-03T16:40:53.742Z</time></trkpt><trkpt lat="44.4631117" lon="10.76673"><ele>531.8</ele><time>2026-05-03T16:40:54.743Z</time></trkpt><trkpt lat="44.4631433" lon="10.7668867"><ele>529.0</ele><time>2026-05-03T16:40:55.743Z</time></trkpt><trkpt lat="44.4631983" lon="10.7670367"><ele>529.0</ele><time>2026-05-03T16:40:56.743Z</time></trkpt><trkpt lat="44.4632783" lon="10.76718"><ele>529.0</ele><time>2026-05-03T16:40:57.743Z</time></trkpt><trkpt lat="44.4633783" lon="10.7673067"><ele>529.0</ele><time>2026-05-03T16:40:58.743Z</time></trkpt><trkpt lat="44.463495" lon="10.7674117"><ele>529.0</ele><time>2026-05-03T16:40:59.743Z</time></trkpt><trkpt lat="44.4636233" lon="10.7674933"><ele>529.0</ele><time>2026-05-03T16:41:00.743Z</time></trkpt><trkpt lat="44.4637567" lon="10.7675617"><ele>529.0</ele><time>2026-05-03T16:41:01.743Z</time></trkpt><trkpt lat="44.4638783" lon="10.7676417"><ele>529.0</ele><time>2026-05-03T16:41:02.743Z</time></trkpt><trkpt lat="44.463995" lon="10.7677367"><ele>529.0</ele><time>2026-05-03T16:41:03.743Z</time></trkpt><trkpt lat="44.464105" lon="10.7678383"><ele>528.0</ele><time>2026-05-03T16:41:04.742Z</time></trkpt><trkpt lat="44.4642233" lon="10.7679233"><ele>527.0</ele><time>2026-05-03T16:41:05.742Z</time></trkpt><trkpt lat="44.4643467" lon="10.7679667"><ele>526.0</ele><time>2026-05-03T16:41:06.743Z</time></trkpt><trkpt lat="44.464475" lon="10.7679783"><ele>525.0</ele><time>2026-05-03T16:41:07.742Z</time></trkpt><trkpt lat="44.464605" lon="10.7679867"><ele>522.25</ele><time>2026-05-03T16:41:08.743Z</time></trkpt><trkpt lat="44.4647283" lon="10.76801"><ele>519.5</ele><time>2026-05-03T16:41:09.743Z</time></trkpt><trkpt lat="44.4648467" lon="10.768075"><ele>516.75</ele><time>2026-05-03T16:41:10.743Z</time></trkpt><trkpt lat="44.4649567" lon="10.7681683"><ele>514.0</ele><time>2026-05-03T16:41:11.743Z</time></trkpt><trkpt lat="44.4650717" lon="10.768265"><ele>514.0</ele><time>2026-05-03T16:41:12.743Z</time></trkpt><trkpt lat="44.46519" lon="10.7683583"><ele>514.0</ele><time>2026-05-03T16:41:13.743Z</time></trkpt><trkpt lat="44.465305" lon="10.7684417"><ele>514.0</ele><time>2026-05-03T16:41:14.743Z</time></trkpt><trkpt lat="44.465405" lon="10.7685483"><ele>514.0</ele><time>2026-05-03T16:41:15.743Z</time></trkpt><trkpt lat="44.4654883" lon="10.768675"><ele>510.75</ele><time>2026-05-03T16:41:16.742Z</time></trkpt><trkpt lat="44.4655517" lon="10.7688283"><ele>507.5</ele><time>2026-05-03T16:41:17.743Z</time></trkpt><trkpt lat="44.465615" lon="10.7689967"><ele>504.25</ele><time>2026-05-03T16:41:18.743Z</time></trkpt><trkpt lat="44.465675" lon="10.7691617"><ele>501.0</ele><time>2026-05-03T16:41:19.743Z</time></trkpt><trkpt lat="44.4657483" lon="10.7693167"><ele>499.5</ele><time>2026-05-03T16:41:20.743Z</time></trkpt><trkpt lat="44.46583" lon="10.769465"><ele>498.0</ele><time>2026-05-03T16:41:21.743Z</time></trkpt><trkpt lat="44.46591" lon="10.7696033"><ele>496.5</ele><time>2026-05-03T16:41:22.743Z</time></trkpt><trkpt lat="44.4659983" lon="10.7697233"><ele>495.0</ele><time>2026-05-03T16:41:23.743Z</time></trkpt><trkpt lat="44.4660833" lon="10.769835"><ele>495.0</ele><time>2026-05-03T16:41:24.743Z</time></trkpt><trkpt lat="44.4661617" lon="10.7699267"><ele>495.0</ele><time>2026-05-03T16:41:25.742Z</time></trkpt><trkpt lat="44.4662383" lon="10.7700067"><ele>495.0</ele><time>2026-05-03T16:41:26.742Z</time></trkpt><trkpt lat="44.4663233" lon="10.77005"><ele>495.0</ele><time>2026-05-03T16:41:27.742Z</time></trkpt><trkpt lat="44.4664017" lon="10.7700617"><ele>495.0</ele><time>2026-05-03T16:41:28.743Z</time></trkpt><trkpt lat="44.466485" lon="10.770035"><ele>494.2</ele><time>2026-05-03T16:41:29.743Z</time></trkpt><trkpt lat="44.466565" lon="10.7699733"><ele>493.4</ele><time>2026-05-03T16:41:30.743Z</time></trkpt><trkpt lat="44.4666483" lon="10.769875"><ele>492.6</ele><time>2026-05-03T16:41:31.743Z</time></trkpt><trkpt lat="44.46671" lon="10.7697733"><ele>491.8</ele><time>2026-05-03T16:41:32.743Z</time></trkpt><trkpt lat="44.4667467" lon="10.76967"><ele>491.0</ele><time>2026-05-03T16:41:33.743Z</time></trkpt><trkpt lat="44.4667583" lon="10.769555"><ele>491.0</ele><time>2026-05-03T16:41:34.743Z</time></trkpt><trkpt lat="44.46674" lon="10.769445"><ele>491.0</ele><time>2026-05-03T16:41:35.743Z</time></trkpt><trkpt lat="44.466685" lon="10.769325"><ele>491.0</ele><time>2026-05-03T16:41:36.742Z</time></trkpt><trkpt lat="44.4665883" lon="10.769195"><ele>491.0</ele><time>2026-05-03T16:41:37.743Z</time></trkpt><trkpt lat="44.46646" lon="10.76908"><ele>490.75</ele><time>2026-05-03T16:41:38.743Z</time></trkpt><trkpt lat="44.4663517" lon="10.7689483"><ele>490.5</ele><time>2026-05-03T16:41:39.743Z</time></trkpt><trkpt lat="44.4662683" lon="10.7688167"><ele>490.25</ele><time>2026-05-03T16:41:40.743Z</time></trkpt><trkpt lat="44.4662" lon="10.7686733"><ele>490.0</ele><time>2026-05-03T16:41:41.742Z</time></trkpt><trkpt lat="44.4661517" lon="10.76853"><ele>491.5</ele><time>2026-05-03T16:41:42.743Z</time></trkpt><trkpt lat="44.4661233" lon="10.7683667"><ele>493.0</ele><time>2026-05-03T16:41:43.742Z</time></trkpt><trkpt lat="44.4661233" lon="10.7682"><ele>494.5</ele><time>2026-05-03T16:41:44.743Z</time></trkpt><trkpt lat="44.466155" lon="10.768025"><ele>496.0</ele><time>2026-05-03T16:41:45.743Z</time></trkpt><trkpt lat="44.46619" lon="10.7678533"><ele>496.0</ele><time>2026-05-03T16:41:46.742Z</time></trkpt><trkpt lat="44.4662283" lon="10.7677083"><ele>496.0</ele><time>2026-05-03T16:41:47.743Z</time></trkpt><trkpt lat="44.46628" lon="10.7676083"><ele>496.0</ele><time>2026-05-03T16:41:48.743Z</time></trkpt><trkpt lat="44.4663533" lon="10.7675533"><ele>496.0</ele><time>2026-05-03T16:41:49.742Z</time></trkpt><trkpt lat="44.4664317" lon="10.767565"><ele>496.0</ele><time>2026-05-03T16:41:50.743Z</time></trkpt><trkpt lat="44.466515" lon="10.7676283"><ele>493.25</ele><time>2026-05-03T16:41:51.743Z</time></trkpt><trkpt lat="44.4665833" lon="10.767735"><ele>490.5</ele><time>2026-05-03T16:41:52.743Z</time></trkpt><trkpt lat="44.4666433" lon="10.7678817"><ele>487.75</ele><time>2026-05-03T16:41:53.742Z</time></trkpt><trkpt lat="44.4667033" lon="10.76805"><ele>485.0</ele><time>2026-05-03T16:41:54.742Z</time></trkpt><trkpt lat="44.4667667" lon="10.768215"><ele>485.0</ele><time>2026-05-03T16:41:55.742Z</time></trkpt><trkpt lat="44.466845" lon="10.7683633"><ele>485.0</ele><time>2026-05-03T16:41:56.742Z</time></trkpt><trkpt lat="44.466935" lon="10.7684883"><ele>485.0</ele><time>2026-05-03T16:41:57.742Z</time></trkpt><trkpt lat="44.467015" lon="10.7685817"><ele>485.0</ele><time>2026-05-03T16:41:58.743Z</time></trkpt><trkpt lat="44.4670983" lon="10.768635"><ele>482.4</ele><time>2026-05-03T16:41:59.742Z</time></trkpt><trkpt lat="44.467185" lon="10.7686483"><ele>479.8</ele><time>2026-05-03T16:42:00.743Z</time></trkpt><trkpt lat="44.467265" lon="10.7686067"><ele>477.20000000000005</ele><time>2026-05-03T16:42:01.743Z</time></trkpt><trkpt lat="44.4673317" lon="10.7685233"><ele>474.6</ele><time>2026-05-03T16:42:02.742Z</time></trkpt><trkpt lat="44.467375" lon="10.7684033"><ele>472.0</ele><time>2026-05-03T16:42:03.743Z</time></trkpt><trkpt lat="44.4673967" lon="10.7682567"><ele>471.75</ele><time>2026-05-03T16:42:04.742Z</time></trkpt><trkpt lat="44.4673767" lon="10.7680833"><ele>471.5</ele><time>2026-05-03T16:42:05.743Z</time></trkpt><trkpt lat="44.4673117" lon="10.7679"><ele>471.25</ele><time>2026-05-03T16:42:06.742Z</time></trkpt><trkpt lat="44.4672217" lon="10.767705"><ele>471.0</ele><time>2026-05-03T16:42:07.742Z</time></trkpt><trkpt lat="44.4671567" lon="10.7675167"><ele>471.25</ele><time>2026-05-03T16:42:08.743Z</time></trkpt><trkpt lat="44.4671017" lon="10.7673267"><ele>471.5</ele><time>2026-05-03T16:42:09.743Z</time></trkpt><trkpt lat="44.467075" lon="10.7671417"><ele>471.75</ele><time>2026-05-03T16:42:10.742Z</time></trkpt><trkpt lat="44.467075" lon="10.76696"><ele>472.0</ele><time>2026-05-03T16:42:11.743Z</time></trkpt><trkpt lat="44.4670717" lon="10.7667833"><ele>472.0</ele><time>2026-05-03T16:42:12.743Z</time></trkpt><trkpt lat="44.46706" lon="10.7666117"><ele>472.0</ele><time>2026-05-03T16:42:13.743Z</time></trkpt><trkpt lat="44.4670283" lon="10.7664383"><ele>472.0</ele><time>2026-05-03T16:42:14.743Z</time></trkpt><trkpt lat="44.4669667" lon="10.7662783"><ele>472.0</ele><time>2026-05-03T16:42:15.743Z</time></trkpt><trkpt lat="44.466895" lon="10.7661633"><ele>472.0</ele><time>2026-05-03T16:42:16.743Z</time></trkpt><trkpt lat="44.4668117" lon="10.76608"><ele>472.00000000000006</ele><time>2026-05-03T16:42:17.743Z</time></trkpt><trkpt lat="44.46672" lon="10.7660417"><ele>472.00000000000006</ele><time>2026-05-03T16:42:18.743Z</time></trkpt><trkpt lat="44.4666067" lon="10.766035"><ele>472.0</ele><time>2026-05-03T16:42:19.742Z</time></trkpt><trkpt lat="44.4664833" lon="10.7660533"><ele>472.0</ele><time>2026-05-03T16:42:20.743Z</time></trkpt><trkpt lat="44.46634" lon="10.7660833"><ele>473.25</ele><time>2026-05-03T16:42:21.743Z</time></trkpt><trkpt lat="44.4661967" lon="10.76612"><ele>474.5</ele><time>2026-05-03T16:42:22.743Z</time></trkpt><trkpt lat="44.4660717" lon="10.7661483"><ele>475.75</ele><time>2026-05-03T16:42:23.743Z</time></trkpt><trkpt lat="44.4659667" lon="10.766155"><ele>477.0</ele><time>2026-05-03T16:42:24.743Z</time></trkpt><trkpt lat="44.4658683" lon="10.7661283"><ele>477.0</ele><time>2026-05-03T16:42:25.743Z</time></trkpt><trkpt lat="44.4657967" lon="10.7660667"><ele>477.00000000000006</ele><time>2026-05-03T16:42:26.743Z</time></trkpt><trkpt lat="44.4657483" lon="10.765965"><ele>477.00000000000006</ele><time>2026-05-03T16:42:27.743Z</time></trkpt><trkpt lat="44.465735" lon="10.765845"><ele>477.0</ele><time>2026-05-03T16:42:28.742Z</time></trkpt><trkpt lat="44.4657667" lon="10.7657233"><ele>477.0</ele><time>2026-05-03T16:42:29.743Z</time></trkpt><trkpt lat="44.4658367" lon="10.765605"><ele>476.25</ele><time>2026-05-03T16:42:30.743Z</time></trkpt><trkpt lat="44.4659283" lon="10.7654933"><ele>475.5</ele><time>2026-05-03T16:42:31.743Z</time></trkpt><trkpt lat="44.46604" lon="10.76537"><ele>474.75</ele><time>2026-05-03T16:42:32.743Z</time></trkpt><trkpt lat="44.4661533" lon="10.76525"><ele>474.0</ele><time>2026-05-03T16:42:33.742Z</time></trkpt><trkpt lat="44.4662667" lon="10.76513"><ele>469.0</ele><time>2026-05-03T16:42:34.743Z</time></trkpt><trkpt lat="44.466375" lon="10.7650017"><ele>464.0</ele><time>2026-05-03T16:42:35.743Z</time></trkpt><trkpt lat="44.4664817" lon="10.7648533"><ele>459.0</ele><time>2026-05-03T16:42:36.742Z</time></trkpt><trkpt lat="44.4665833" lon="10.7646967"><ele>454.0</ele><time>2026-05-03T16:42:37.743Z</time></trkpt><trkpt lat="44.4666583" lon="10.7645317"><ele>454.0</ele><time>2026-05-03T16:42:38.743Z</time></trkpt><trkpt lat="44.4667217" lon="10.7643667"><ele>454.0</ele><time>2026-05-03T16:42:39.743Z</time></trkpt><trkpt lat="44.4667817" lon="10.7641933"><ele>454.0</ele><time>2026-05-03T16:42:40.743Z</time></trkpt><trkpt lat="44.4668367" lon="10.7640333"><ele>454.0</ele><time>2026-05-03T16:42:41.743Z</time></trkpt><trkpt lat="44.4668983" lon="10.7639083"><ele>454.6</ele><time>2026-05-03T16:42:42.742Z</time></trkpt><trkpt lat="44.4669767" lon="10.76382"><ele>455.2</ele><time>2026-05-03T16:42:43.743Z</time></trkpt><trkpt lat="44.4670667" lon="10.7637717"><ele>455.80000000000007</ele><time>2026-05-03T16:42:44.743Z</time></trkpt><trkpt lat="44.4671667" lon="10.7637867"><ele>456.40000000000003</ele><time>2026-05-03T16:42:45.743Z</time></trkpt><trkpt lat="44.46727" lon="10.763835"><ele>457.0</ele><time>2026-05-03T16:42:46.743Z</time></trkpt><trkpt lat="44.4673817" lon="10.7639067"><ele>452.75</ele><time>2026-05-03T16:42:47.743Z</time></trkpt><trkpt lat="44.4675067" lon="10.76397"><ele>448.5</ele><time>2026-05-03T16:42:48.743Z</time></trkpt><trkpt lat="44.4676317" lon="10.7640267"><ele>444.25</ele><time>2026-05-03T16:42:49.742Z</time></trkpt><trkpt lat="44.4677617" lon="10.7640617"><ele>440.0</ele><time>2026-05-03T16:42:50.743Z</time></trkpt><trkpt lat="44.4678983" lon="10.76408"><ele>438.5</ele><time>2026-05-03T16:42:51.743Z</time></trkpt><trkpt lat="44.4680483" lon="10.764085"><ele>437.0</ele><time>2026-05-03T16:42:52.743Z</time></trkpt><trkpt lat="44.4681933" lon="10.7640683"><ele>435.5</ele><time>2026-05-03T16:42:53.743Z</time></trkpt><trkpt lat="44.4683367" lon="10.764075"><ele>434.0</ele><time>2026-05-03T16:42:54.742Z</time></trkpt><trkpt lat="44.46849" lon="10.7640933"><ele>434.0</ele><time>2026-05-03T16:42:55.743Z</time></trkpt><trkpt lat="44.4686417" lon="10.7641233"><ele>434.0</ele><time>2026-05-03T16:42:56.742Z</time></trkpt><trkpt lat="44.468795" lon="10.7641417"><ele>434.0</ele><time>2026-05-03T16:42:57.743Z</time></trkpt><trkpt lat="44.4689467" lon="10.76415"><ele>435.0</ele><time>2026-05-03T16:42:58.742Z</time></trkpt><trkpt lat="44.4690883" lon="10.764135"><ele>436.0</ele><time>2026-05-03T16:42:59.743Z</time></trkpt><trkpt lat="44.469225" lon="10.7641283"><ele>437.0</ele><time>2026-05-03T16:43:00.742Z</time></trkpt><trkpt lat="44.46937" lon="10.764125"><ele>438.0</ele><time>2026-05-03T16:43:01.743Z</time></trkpt><trkpt lat="44.4696567" lon="10.7641683"><ele>435.0</ele><time>2026-05-03T16:43:03.743Z</time></trkpt><trkpt lat="44.4700617" lon="10.7644117"><ele>432.0</ele><time>2026-05-03T16:43:06.742Z</time></trkpt><trkpt lat="44.4701967" lon="10.7645167"><ele>432.0</ele><time>2026-05-03T16:43:07.743Z</time></trkpt><trkpt lat="44.470325" lon="10.7646367"><ele>432.0</ele><time>2026-05-03T16:43:08.743Z</time></trkpt><trkpt lat="44.4704617" lon="10.76475"><ele>432.0</ele><time>2026-05-03T16:43:09.743Z</time></trkpt><trkpt lat="44.4705983" lon="10.76487"><ele>434.0</ele><time>2026-05-03T16:43:10.743Z</time></trkpt><trkpt lat="44.4707283" lon="10.764985"><ele>436.0</ele><time>2026-05-03T16:43:11.743Z</time></trkpt><trkpt lat="44.4708583" lon="10.7651067"><ele>438.0</ele><time>2026-05-03T16:43:12.743Z</time></trkpt><trkpt lat="44.4709917" lon="10.76522"><ele>438.0</ele><time>2026-05-03T16:43:13.743Z</time></trkpt><trkpt lat="44.4711233" lon="10.7653317"><ele>438.0</ele><time>2026-05-03T16:43:14.742Z</time></trkpt><trkpt lat="44.4712567" lon="10.765435"><ele>438.0</ele><time>2026-05-03T16:43:15.743Z</time></trkpt><trkpt lat="44.4713883" lon="10.7655417"><ele>442.0</ele><time>2026-05-03T16:43:16.742Z</time></trkpt><trkpt lat="44.4715167" lon="10.7656517"><ele>446.0</ele><time>2026-05-03T16:43:17.743Z</time></trkpt><trkpt lat="44.4716367" lon="10.7657717"><ele>450.0</ele><time>2026-05-03T16:43:18.742Z</time></trkpt><trkpt lat="44.4717417" lon="10.7659183"><ele>454.0</ele><time>2026-05-03T16:43:19.743Z</time></trkpt><trkpt lat="44.47183" lon="10.76609"><ele>454.0</ele><time>2026-05-03T16:43:20.742Z</time></trkpt><trkpt lat="44.471895" lon="10.76628"><ele>454.0</ele><time>2026-05-03T16:43:21.743Z</time></trkpt><trkpt lat="44.4719667" lon="10.76648"><ele>454.0</ele><time>2026-05-03T16:43:22.743Z</time></trkpt><trkpt lat="44.4720283" lon="10.76667"><ele>454.0</ele><time>2026-05-03T16:43:23.743Z</time></trkpt><trkpt lat="44.472095" lon="10.7668467"><ele>454.0</ele><time>2026-05-03T16:43:24.742Z</time></trkpt><trkpt lat="44.47215" lon="10.7670067"><ele>454.0</ele><time>2026-05-03T16:43:25.742Z</time></trkpt><trkpt lat="44.4722133" lon="10.7671367"><ele>454.0</ele><time>2026-05-03T16:43:26.743Z</time></trkpt><trkpt lat="44.4722983" lon="10.767225"><ele>455.0</ele><time>2026-05-03T16:43:27.743Z</time></trkpt><trkpt lat="44.4724083" lon="10.7672683"><ele>456.0</ele><time>2026-05-03T16:43:28.742Z</time></trkpt><trkpt lat="44.47253" lon="10.7672817"><ele>457.0</ele><time>2026-05-03T16:43:29.743Z</time></trkpt><trkpt lat="44.4726667" lon="10.7672867"><ele>458.0</ele><time>2026-05-03T16:43:30.743Z</time></trkpt><trkpt lat="44.4727983" lon="10.7673067"><ele>458.0</ele><time>2026-05-03T16:43:31.743Z</time></trkpt><trkpt lat="44.47293" lon="10.7673717"><ele>458.0</ele><time>2026-05-03T16:43:32.743Z</time></trkpt><trkpt lat="44.4730417" lon="10.76748"><ele>458.0</ele><time>2026-05-03T16:43:33.743Z</time></trkpt><trkpt lat="44.473265" lon="10.767755"><ele>461.0</ele><time>2026-05-03T16:43:35.743Z</time></trkpt><trkpt lat="44.47337" lon="10.7678967"><ele>464.0</ele><time>2026-05-03T16:43:36.742Z</time></trkpt><trkpt lat="44.4734833" lon="10.7680333"><ele>467.0</ele><time>2026-05-03T16:43:37.742Z</time></trkpt><trkpt lat="44.4736117" lon="10.7681667"><ele>467.0</ele><time>2026-05-03T16:43:38.742Z</time></trkpt><trkpt lat="44.4737383" lon="10.7682867"><ele>467.0</ele><time>2026-05-03T16:43:39.742Z</time></trkpt><trkpt lat="44.4738567" lon="10.7684133"><ele>467.0</ele><time>2026-05-03T16:43:40.742Z</time></trkpt><trkpt lat="44.4739633" lon="10.7685283"><ele>467.0</ele><time>2026-05-03T16:43:41.742Z</time></trkpt><trkpt lat="44.4740683" lon="10.7686333"><ele>469.75</ele><time>2026-05-03T16:43:42.741Z</time></trkpt><trkpt lat="44.474165" lon="10.7687617"><ele>472.5</ele><time>2026-05-03T16:43:43.742Z</time></trkpt><trkpt lat="44.4742283" lon="10.76891"><ele>475.25</ele><time>2026-05-03T16:43:44.742Z</time></trkpt><trkpt lat="44.4742617" lon="10.7690667"><ele>478.0</ele><time>2026-05-03T16:43:45.742Z</time></trkpt><trkpt lat="44.474275" lon="10.7692267"><ele>479.5</ele><time>2026-05-03T16:43:46.741Z</time></trkpt><trkpt lat="44.4742767" lon="10.769405"><ele>481.0</ele><time>2026-05-03T16:43:47.742Z</time></trkpt><trkpt lat="44.4742417" lon="10.7695817"><ele>482.5</ele><time>2026-05-03T16:43:48.742Z</time></trkpt><trkpt lat="44.4742033" lon="10.76977"><ele>484.0</ele><time>2026-05-03T16:43:49.741Z</time></trkpt><trkpt lat="44.4741583" lon="10.7699617"><ele>484.0</ele><time>2026-05-03T16:43:50.741Z</time></trkpt><trkpt lat="44.4741067" lon="10.7701567"><ele>484.0</ele><time>2026-05-03T16:43:51.741Z</time></trkpt><trkpt lat="44.4740683" lon="10.7703317"><ele>484.0</ele><time>2026-05-03T16:43:52.742Z</time></trkpt><trkpt lat="44.474035" lon="10.7704833"><ele>484.0</ele><time>2026-05-03T16:43:53.742Z</time></trkpt><trkpt lat="44.4740233" lon="10.770615"><ele>485.25</ele><time>2026-05-03T16:43:54.742Z</time></trkpt><trkpt lat="44.47404" lon="10.7707533"><ele>486.5</ele><time>2026-05-03T16:43:55.741Z</time></trkpt><trkpt lat="44.4740783" lon="10.7708933"><ele>487.75</ele><time>2026-05-03T16:43:56.742Z</time></trkpt><trkpt lat="44.4741417" lon="10.7710317"><ele>489.0</ele><time>2026-05-03T16:43:57.741Z</time></trkpt><trkpt lat="44.4742183" lon="10.7711733"><ele>489.25</ele><time>2026-05-03T16:43:58.742Z</time></trkpt><trkpt lat="44.4743067" lon="10.771315"><ele>489.5</ele><time>2026-05-03T16:43:59.741Z</time></trkpt><trkpt lat="44.474405" lon="10.7714617"><ele>489.75</ele><time>2026-05-03T16:44:00.742Z</time></trkpt><trkpt lat="44.4745033" lon="10.7716033"><ele>490.0</ele><time>2026-05-03T16:44:01.742Z</time></trkpt><trkpt lat="44.4746067" lon="10.7717467"><ele>488.6666666666667</ele><time>2026-05-03T16:44:02.742Z</time></trkpt><trkpt lat="44.4747167" lon="10.7718983"><ele>487.33333333333337</ele><time>2026-05-03T16:44:03.742Z</time></trkpt><trkpt lat="44.4748283" lon="10.7720383"><ele>486.0</ele><time>2026-05-03T16:44:04.742Z</time></trkpt><trkpt lat="44.4749383" lon="10.7721883"><ele>486.0</ele><time>2026-05-03T16:44:05.742Z</time></trkpt><trkpt lat="44.4750417" lon="10.7723367"><ele>486.0</ele><time>2026-05-03T16:44:06.742Z</time></trkpt><trkpt lat="44.4751483" lon="10.7724833"><ele>486.0</ele><time>2026-05-03T16:44:07.741Z</time></trkpt><trkpt lat="44.4752533" lon="10.77261"><ele>486.0</ele><time>2026-05-03T16:44:08.742Z</time></trkpt><trkpt lat="44.47535" lon="10.7727433"><ele>490.75</ele><time>2026-05-03T16:44:09.741Z</time></trkpt><trkpt lat="44.47544" lon="10.7728783"><ele>495.5</ele><time>2026-05-03T16:44:10.742Z</time></trkpt><trkpt lat="44.4754867" lon="10.7730283"><ele>500.25</ele><time>2026-05-03T16:44:11.741Z</time></trkpt><trkpt lat="44.4754983" lon="10.7731933"><ele>505.0</ele><time>2026-05-03T16:44:12.742Z</time></trkpt><trkpt lat="44.47547" lon="10.773355"><ele>505.33333333333337</ele><time>2026-05-03T16:44:13.742Z</time></trkpt><trkpt lat="44.475315" lon="10.7736283"><ele>505.66666666666663</ele><time>2026-05-03T16:44:15.742Z</time></trkpt><trkpt lat="44.475205" lon="10.773755"><ele>506.0</ele><time>2026-05-03T16:44:16.742Z</time></trkpt><trkpt lat="44.4750867" lon="10.773875"><ele>506.0</ele><time>2026-05-03T16:44:17.741Z</time></trkpt><trkpt lat="44.47497" lon="10.7739867"><ele>506.0</ele><time>2026-05-03T16:44:18.742Z</time></trkpt><trkpt lat="44.4748617" lon="10.774095"><ele>506.0</ele><time>2026-05-03T16:44:19.741Z</time></trkpt><trkpt lat="44.4747883" lon="10.7742083"><ele>506.0</ele><time>2026-05-03T16:44:20.742Z</time></trkpt><trkpt lat="44.474745" lon="10.7743333"><ele>503.20000000000005</ele><time>2026-05-03T16:44:21.741Z</time></trkpt><trkpt lat="44.4747267" lon="10.774465"><ele>500.40000000000003</ele><time>2026-05-03T16:44:22.741Z</time></trkpt><trkpt lat="44.474735" lon="10.7745883"><ele>497.6</ele><time>2026-05-03T16:44:23.742Z</time></trkpt><trkpt lat="44.47478" lon="10.7746833"><ele>494.8</ele><time>2026-05-03T16:44:24.742Z</time></trkpt><trkpt lat="44.4748583" lon="10.7747417"><ele>492.0</ele><time>2026-05-03T16:44:25.742Z</time></trkpt><trkpt lat="44.474965" lon="10.7747683"><ele>492.0</ele><time>2026-05-03T16:44:26.742Z</time></trkpt><trkpt lat="44.4751033" lon="10.7747567"><ele>492.0</ele><time>2026-05-03T16:44:27.742Z</time></trkpt><trkpt lat="44.475275" lon="10.7747283"><ele>492.0</ele><time>2026-05-03T16:44:28.742Z</time></trkpt><trkpt lat="44.475435" lon="10.7747067"><ele>496.0</ele><time>2026-05-03T16:44:29.741Z</time></trkpt><trkpt lat="44.4755833" lon="10.7747033"><ele>500.0</ele><time>2026-05-03T16:44:30.742Z</time></trkpt><trkpt lat="44.4757183" lon="10.7746967"><ele>504.0</ele><time>2026-05-03T16:44:31.742Z</time></trkpt><trkpt lat="44.47584" lon="10.7747167"><ele>508.0</ele><time>2026-05-03T16:44:32.742Z</time></trkpt><trkpt lat="44.4759517" lon="10.774785"><ele>508.0</ele><time>2026-05-03T16:44:33.741Z</time></trkpt><trkpt lat="44.4760517" lon="10.7748733"><ele>508.0</ele><time>2026-05-03T16:44:34.742Z</time></trkpt><trkpt lat="44.4761217" lon="10.7750033"><ele>508.0</ele><time>2026-05-03T16:44:35.742Z</time></trkpt><trkpt lat="44.47619" lon="10.7751417"><ele>508.0</ele><time>2026-05-03T16:44:36.741Z</time></trkpt><trkpt lat="44.4762583" lon="10.7752633"><ele>506.79999999999995</ele><time>2026-05-03T16:44:37.742Z</time></trkpt><trkpt lat="44.4763333" lon="10.7753667"><ele>505.59999999999997</ele><time>2026-05-03T16:44:38.742Z</time></trkpt><trkpt lat="44.4764" lon="10.77546"><ele>504.40000000000003</ele><time>2026-05-03T16:44:39.742Z</time></trkpt><trkpt lat="44.4764567" lon="10.7755367"><ele>503.20000000000005</ele><time>2026-05-03T16:44:40.741Z</time></trkpt><trkpt lat="44.4765083" lon="10.775605"><ele>502.0</ele><time>2026-05-03T16:44:41.742Z</time></trkpt><trkpt lat="44.4765633" lon="10.77574"><ele>502.0</ele><time>2026-05-03T16:44:43.742Z</time></trkpt><trkpt lat="44.476545" lon="10.7758667"><ele>502.00000000000006</ele><time>2026-05-03T16:44:45.742Z</time></trkpt><trkpt lat="44.476495" lon="10.7759967"><ele>502.00000000000006</ele><time>2026-05-03T16:44:47.741Z</time></trkpt><trkpt lat="44.4764217" lon="10.7761317"><ele>502.0</ele><time>2026-05-03T16:44:49.742Z</time></trkpt><trkpt lat="44.4763367" lon="10.7762517"><ele>502.0</ele><time>2026-05-03T16:44:51.742Z</time></trkpt><trkpt lat="44.4762633" lon="10.77638"><ele>501.0</ele><time>2026-05-03T16:44:53.742Z</time></trkpt><trkpt lat="44.4761783" lon="10.7765067"><ele>500.00000000000006</ele><time>2026-05-03T16:44:55.742Z</time></trkpt><trkpt lat="44.4761333" lon="10.7765717"><ele>499.00000000000006</ele><time>2026-05-03T16:44:56.741Z</time></trkpt><trkpt lat="44.4760883" lon="10.7766417"><ele>498.0</ele><time>2026-05-03T16:44:57.742Z</time></trkpt><trkpt lat="44.476005" lon="10.7767583"><ele>497.0</ele><time>2026-05-03T16:44:59.742Z</time></trkpt><trkpt lat="44.475915" lon="10.7768533"><ele>496.49999999999994</ele><time>2026-05-03T16:45:01.742Z</time></trkpt><trkpt lat="44.47583" lon="10.7769533"><ele>496.0</ele><time>2026-05-03T16:45:03.742Z</time></trkpt><trkpt lat="44.47578" lon="10.7770433"><ele>495.5</ele><time>2026-05-03T16:45:05.742Z</time></trkpt><trkpt lat="44.4757717" lon="10.77714"><ele>495.0</ele><time>2026-05-03T16:45:07.741Z</time></trkpt><trkpt lat="44.4758083" lon="10.77727"><ele>494.49999999999994</ele><time>2026-05-03T16:45:09.742Z</time></trkpt><trkpt lat="44.4758483" lon="10.7773467"><ele>494.0</ele><time>2026-05-03T16:45:10.742Z</time></trkpt><trkpt lat="44.4758817" lon="10.7774267"><ele>493.99999999999994</ele><time>2026-05-03T16:45:11.741Z</time></trkpt><trkpt lat="44.4759117" lon="10.7775167"><ele>494.0</ele><time>2026-05-03T16:45:12.742Z</time></trkpt><trkpt lat="44.475945" lon="10.7776033"><ele>494.0</ele><time>2026-05-03T16:45:13.741Z</time></trkpt><trkpt lat="44.4759683" lon="10.77769"><ele>494.0</ele><time>2026-05-03T16:45:14.742Z</time></trkpt><trkpt lat="44.4759883" lon="10.77778"><ele>493.99999999999994</ele><time>2026-05-03T16:45:15.741Z</time></trkpt><trkpt lat="44.4759917" lon="10.7778733"><ele>494.0</ele><time>2026-05-03T16:45:16.742Z</time></trkpt><trkpt lat="44.4759467" lon="10.7780283"><ele>492.2</ele><time>2026-05-03T16:45:18.741Z</time></trkpt><trkpt lat="44.4758883" lon="10.7780883"><ele>490.4</ele><time>2026-05-03T16:45:19.742Z</time></trkpt><trkpt lat="44.4758233" lon="10.7781283"><ele>488.6</ele><time>2026-05-03T16:45:20.742Z</time></trkpt><trkpt lat="44.4757383" lon="10.77822"><ele>486.8</ele><time>2026-05-03T16:45:22.741Z</time></trkpt><trkpt lat="44.47576" lon="10.7783683"><ele>485.0</ele><time>2026-05-03T16:45:24.742Z</time></trkpt><trkpt lat="44.4758983" lon="10.77843"><ele>484.99999999999994</ele><time>2026-05-03T16:45:26.742Z</time></trkpt><trkpt lat="44.475995" lon="10.7784333"><ele>485.0</ele><time>2026-05-03T16:45:27.741Z</time></trkpt><trkpt lat="44.4760867" lon="10.778435"><ele>485.0</ele><time>2026-05-03T16:45:28.742Z</time></trkpt><trkpt lat="44.4761783" lon="10.7784467"><ele>485.0</ele><time>2026-05-03T16:45:29.741Z</time></trkpt><trkpt lat="44.476255" lon="10.7784667"><ele>484.99999999999994</ele><time>2026-05-03T16:45:30.742Z</time></trkpt><trkpt lat="44.4763117" lon="10.7785117"><ele>485.0</ele><time>2026-05-03T16:45:31.742Z</time></trkpt><trkpt lat="44.4763217" lon="10.7786467"><ele>482.5</ele><time>2026-05-03T16:45:33.742Z</time></trkpt><trkpt lat="44.4762517" lon="10.7788183"><ele>480.0</ele><time>2026-05-03T16:45:35.742Z</time></trkpt><trkpt lat="44.47618" lon="10.7789283"><ele>477.5</ele><time>2026-05-03T16:45:36.742Z</time></trkpt><trkpt lat="44.4761033" lon="10.77904"><ele>475.0</ele><time>2026-05-03T16:45:37.742Z</time></trkpt><trkpt lat="44.4760317" lon="10.7791467"><ele>475.0</ele><time>2026-05-03T16:45:38.742Z</time></trkpt><trkpt lat="44.4759533" lon="10.779245"><ele>475.0</ele><time>2026-05-03T16:45:39.742Z</time></trkpt><trkpt lat="44.4758733" lon="10.7793283"><ele>475.0</ele><time>2026-05-03T16:45:40.742Z</time></trkpt><trkpt lat="44.47579" lon="10.7794017"><ele>475.0</ele><time>2026-05-03T16:45:41.742Z</time></trkpt><trkpt lat="44.4757083" lon="10.7794833"><ele>475.0</ele><time>2026-05-03T16:45:42.742Z</time></trkpt><trkpt lat="44.475605" lon="10.7795567"><ele>474.0</ele><time>2026-05-03T16:45:43.742Z</time></trkpt><trkpt lat="44.4755067" lon="10.779635"><ele>473.0</ele><time>2026-05-03T16:45:44.741Z</time></trkpt><trkpt lat="44.4754167" lon="10.77972"><ele>472.0</ele><time>2026-05-03T16:45:45.742Z</time></trkpt><trkpt lat="44.47534" lon="10.7798117"><ele>471.0</ele><time>2026-05-03T16:45:46.742Z</time></trkpt><trkpt lat="44.4752983" lon="10.7799067"><ele>470.0</ele><time>2026-05-03T16:45:47.742Z</time></trkpt><trkpt lat="44.4752683" lon="10.7800117"><ele>470.0</ele><time>2026-05-03T16:45:48.741Z</time></trkpt><trkpt lat="44.4752517" lon="10.7801433"><ele>470.0</ele><time>2026-05-03T16:45:49.742Z</time></trkpt><trkpt lat="44.4752533" lon="10.7802933"><ele>470.0</ele><time>2026-05-03T16:45:50.741Z</time></trkpt><trkpt lat="44.4752833" lon="10.7804383"><ele>470.0</ele><time>2026-05-03T16:45:51.741Z</time></trkpt><trkpt lat="44.4753283" lon="10.7805783"><ele>470.0</ele><time>2026-05-03T16:45:52.742Z</time></trkpt><trkpt lat="44.4753717" lon="10.780715"><ele>469.0</ele><time>2026-05-03T16:45:53.742Z</time></trkpt><trkpt lat="44.4753867" lon="10.78085"><ele>468.0</ele><time>2026-05-03T16:45:54.742Z</time></trkpt><trkpt lat="44.4753933" lon="10.78098"><ele>467.0</ele><time>2026-05-03T16:45:55.742Z</time></trkpt><trkpt lat="44.4753867" lon="10.781115"><ele>466.0</ele><time>2026-05-03T16:45:56.742Z</time></trkpt><trkpt lat="44.4753617" lon="10.7812483"><ele>465.0</ele><time>2026-05-03T16:45:57.742Z</time></trkpt><trkpt lat="44.47532" lon="10.781395"><ele>463.2</ele><time>2026-05-03T16:45:58.742Z</time></trkpt><trkpt lat="44.4752717" lon="10.7815383"><ele>461.4</ele><time>2026-05-03T16:45:59.741Z</time></trkpt><trkpt lat="44.475225" lon="10.7816933"><ele>459.6</ele><time>2026-05-03T16:46:00.742Z</time></trkpt><trkpt lat="44.4751783" lon="10.781825"><ele>457.8</ele><time>2026-05-03T16:46:01.742Z</time></trkpt><trkpt lat="44.4751417" lon="10.781945"><ele>456.0</ele><time>2026-05-03T16:46:02.742Z</time></trkpt><trkpt lat="44.475115" lon="10.78206"><ele>454.0</ele><time>2026-05-03T16:46:03.741Z</time></trkpt><trkpt lat="44.4751067" lon="10.7821883"><ele>452.0</ele><time>2026-05-03T16:46:04.742Z</time></trkpt><trkpt lat="44.4751183" lon="10.78232"><ele>450.0</ele><time>2026-05-03T16:46:05.742Z</time></trkpt><trkpt lat="44.4751433" lon="10.7824567"><ele>448.0</ele><time>2026-05-03T16:46:06.742Z</time></trkpt><trkpt lat="44.4751767" lon="10.782605"><ele>446.0</ele><time>2026-05-03T16:46:07.742Z</time></trkpt><trkpt lat="44.4752017" lon="10.7827567"><ele>444.6</ele><time>2026-05-03T16:46:08.742Z</time></trkpt><trkpt lat="44.4752267" lon="10.782895"><ele>443.20000000000005</ele><time>2026-05-03T16:46:09.742Z</time></trkpt><trkpt lat="44.4752617" lon="10.7830333"><ele>441.79999999999995</ele><time>2026-05-03T16:46:10.742Z</time></trkpt><trkpt lat="44.47531" lon="10.7831583"><ele>440.4</ele><time>2026-05-03T16:46:11.741Z</time></trkpt><trkpt lat="44.4753633" lon="10.78327"><ele>439.0</ele><time>2026-05-03T16:46:12.742Z</time></trkpt><trkpt lat="44.4754333" lon="10.7833567"><ele>437.50000000000006</ele><time>2026-05-03T16:46:13.741Z</time></trkpt><trkpt lat="44.475505" lon="10.78343"><ele>436.0</ele><time>2026-05-03T16:46:14.742Z</time></trkpt><trkpt lat="44.4755617" lon="10.7835033"><ele>434.5</ele><time>2026-05-03T16:46:15.742Z</time></trkpt><trkpt lat="44.4756083" lon="10.7835983"><ele>433.0</ele><time>2026-05-03T16:46:16.742Z</time></trkpt><trkpt lat="44.47565" lon="10.7836933"><ele>431.50000000000006</ele><time>2026-05-03T16:46:17.742Z</time></trkpt><trkpt lat="44.4757133" lon="10.783775"><ele>430.0</ele><time>2026-05-03T16:46:18.742Z</time></trkpt><trkpt lat="44.4758017" lon="10.7838483"><ele>428.4</ele><time>2026-05-03T16:46:19.742Z</time></trkpt><trkpt lat="44.4759" lon="10.7839"><ele>426.8</ele><time>2026-05-03T16:46:20.742Z</time></trkpt><trkpt lat="44.4759917" lon="10.783935"><ele>425.20000000000005</ele><time>2026-05-03T16:46:21.742Z</time></trkpt><trkpt lat="44.4760883" lon="10.7839533"><ele>423.6</ele><time>2026-05-03T16:46:22.742Z</time></trkpt><trkpt lat="44.4761783" lon="10.78394"><ele>422.0</ele><time>2026-05-03T16:46:23.742Z</time></trkpt><trkpt lat="44.4762567" lon="10.7839117"><ele>420.16666666666663</ele><time>2026-05-03T16:46:24.742Z</time></trkpt><trkpt lat="44.476345" lon="10.783895"><ele>418.3333333333333</ele><time>2026-05-03T16:46:25.742Z</time></trkpt><trkpt lat="44.4764417" lon="10.7839117"><ele>416.5</ele><time>2026-05-03T16:46:26.741Z</time></trkpt><trkpt lat="44.4765333" lon="10.7839467"><ele>414.66666666666663</ele><time>2026-05-03T16:46:27.742Z</time></trkpt><trkpt lat="44.4766167" lon="10.7839783"><ele>412.8333333333333</ele><time>2026-05-03T16:46:28.742Z</time></trkpt><trkpt lat="44.4766783" lon="10.78404"><ele>411.0</ele><time>2026-05-03T16:46:29.742Z</time></trkpt><trkpt lat="44.4767233" lon="10.784125"><ele>411.0</ele><time>2026-05-03T16:46:30.742Z</time></trkpt><trkpt lat="44.4767517" lon="10.7842233"><ele>411.0</ele><time>2026-05-03T16:46:31.742Z</time></trkpt><trkpt lat="44.4767917" lon="10.7843183"><ele>411.0</ele><time>2026-05-03T16:46:32.742Z</time></trkpt><trkpt lat="44.4768567" lon="10.7843733"><ele>411.0</ele><time>2026-05-03T16:46:33.742Z</time></trkpt><trkpt lat="44.4769367" lon="10.784395"><ele>411.0</ele><time>2026-05-03T16:46:34.741Z</time></trkpt><trkpt lat="44.477035" lon="10.784395"><ele>411.0</ele><time>2026-05-03T16:46:35.742Z</time></trkpt><trkpt lat="44.47714" lon="10.7843983"><ele>406.25</ele><time>2026-05-03T16:46:36.742Z</time></trkpt><trkpt lat="44.4772417" lon="10.784435"><ele>401.5</ele><time>2026-05-03T16:46:37.742Z</time></trkpt><trkpt lat="44.4773433" lon="10.78452"><ele>396.75</ele><time>2026-05-03T16:46:38.742Z</time></trkpt><trkpt lat="44.4774533" lon="10.784595"><ele>392.0</ele><time>2026-05-03T16:46:39.742Z</time></trkpt><trkpt lat="44.47756" lon="10.78466"><ele>392.0</ele><time>2026-05-03T16:46:40.742Z</time></trkpt><trkpt lat="44.47767" lon="10.78471"><ele>392.0</ele><time>2026-05-03T16:46:41.742Z</time></trkpt><trkpt lat="44.47778" lon="10.7847433"><ele>392.0</ele><time>2026-05-03T16:46:42.742Z</time></trkpt><trkpt lat="44.4778867" lon="10.784785"><ele>392.0</ele><time>2026-05-03T16:46:43.742Z</time></trkpt><trkpt lat="44.477985" lon="10.7848383"><ele>392.0</ele><time>2026-05-03T16:46:44.742Z</time></trkpt><trkpt lat="44.47806" lon="10.784895"><ele>389.99999999999994</ele><time>2026-05-03T16:46:45.742Z</time></trkpt><trkpt lat="44.4781217" lon="10.784945"><ele>388.0</ele><time>2026-05-03T16:46:46.741Z</time></trkpt><trkpt lat="44.478175" lon="10.7849933"><ele>386.0</ele><time>2026-05-03T16:46:47.742Z</time></trkpt><trkpt lat="44.4781917" lon="10.7851217"><ele>384.0</ele><time>2026-05-03T16:46:49.741Z</time></trkpt><trkpt lat="44.478115" lon="10.78519"><ele>382.0</ele><time>2026-05-03T16:46:51.742Z</time></trkpt><trkpt lat="44.47805" lon="10.78519"><ele>380.0</ele><time>2026-05-03T16:46:52.742Z</time></trkpt><trkpt lat="44.4779767" lon="10.7851817"><ele>378.6</ele><time>2026-05-03T16:46:53.742Z</time></trkpt><trkpt lat="44.4778917" lon="10.78518"><ele>377.2</ele><time>2026-05-03T16:46:54.742Z</time></trkpt><trkpt lat="44.4777983" lon="10.7852067"><ele>375.79999999999995</ele><time>2026-05-03T16:46:55.742Z</time></trkpt><trkpt lat="44.4777167" lon="10.7852317"><ele>374.4</ele><time>2026-05-03T16:46:56.742Z</time></trkpt><trkpt lat="44.47765" lon="10.7852583"><ele>373.0</ele><time>2026-05-03T16:46:57.742Z</time></trkpt><trkpt lat="44.4775367" lon="10.78534"><ele>373.0</ele><time>2026-05-03T16:46:59.742Z</time></trkpt><trkpt lat="44.477485" lon="10.7854"><ele>373.0</ele><time>2026-05-03T16:47:00.742Z</time></trkpt><trkpt lat="44.477445" lon="10.7855767"><ele>373.0</ele><time>2026-05-03T16:47:02.742Z</time></trkpt><trkpt lat="44.4774483" lon="10.785685"><ele>373.0</ele><time>2026-05-03T16:47:03.741Z</time></trkpt><trkpt lat="44.4774633" lon="10.7857967"><ele>373.0</ele><time>2026-05-03T16:47:04.742Z</time></trkpt><trkpt lat="44.4774917" lon="10.7859"><ele>373.0</ele><time>2026-05-03T16:47:05.741Z</time></trkpt><trkpt lat="44.47754" lon="10.786005"><ele>370.4</ele><time>2026-05-03T16:47:06.742Z</time></trkpt><trkpt lat="44.4776083" lon="10.786095"><ele>367.79999999999995</ele><time>2026-05-03T16:47:07.742Z</time></trkpt><trkpt lat="44.4777" lon="10.7861867"><ele>365.2</ele><time>2026-05-03T16:47:08.742Z</time></trkpt><trkpt lat="44.4777917" lon="10.7862817"><ele>362.6</ele><time>2026-05-03T16:47:09.741Z</time></trkpt><trkpt lat="44.47788" lon="10.786385"><ele>360.0</ele><time>2026-05-03T16:47:10.742Z</time></trkpt><trkpt lat="44.4779683" lon="10.78649"><ele>357.6</ele><time>2026-05-03T16:47:11.742Z</time></trkpt><trkpt lat="44.4780567" lon="10.786585"><ele>355.2</ele><time>2026-05-03T16:47:12.742Z</time></trkpt><trkpt lat="44.47814" lon="10.7866733"><ele>352.79999999999995</ele><time>2026-05-03T16:47:13.742Z</time></trkpt><trkpt lat="44.478215" lon="10.7867667"><ele>350.4</ele><time>2026-05-03T16:47:14.742Z</time></trkpt><trkpt lat="44.4782883" lon="10.7868717"><ele>348.0</ele><time>2026-05-03T16:47:15.742Z</time></trkpt><trkpt lat="44.4783467" lon="10.787"><ele>347.79999999999995</ele><time>2026-05-03T16:47:16.741Z</time></trkpt><trkpt lat="44.4784" lon="10.787145"><ele>347.6</ele><time>2026-05-03T16:47:17.742Z</time></trkpt><trkpt lat="44.4784467" lon="10.7872867"><ele>347.4</ele><time>2026-05-03T16:47:18.742Z</time></trkpt><trkpt lat="44.4784983" lon="10.78742"><ele>347.20000000000005</ele><time>2026-05-03T16:47:19.742Z</time></trkpt><trkpt lat="44.4785333" lon="10.7875333"><ele>347.0</ele><time>2026-05-03T16:47:20.742Z</time></trkpt><trkpt lat="44.4785567" lon="10.7876317"><ele>344.6666666666667</ele><time>2026-05-03T16:47:21.742Z</time></trkpt><trkpt lat="44.4785383" lon="10.7877967"><ele>342.33333333333337</ele><time>2026-05-03T16:47:23.741Z</time></trkpt><trkpt lat="44.478495" lon="10.7878633"><ele>340.0</ele><time>2026-05-03T16:47:24.742Z</time></trkpt><trkpt lat="44.4784217" lon="10.787915"><ele>337.6666666666667</ele><time>2026-05-03T16:47:25.741Z</time></trkpt><trkpt lat="44.47834" lon="10.7879383"><ele>335.3333333333333</ele><time>2026-05-03T16:47:26.741Z</time></trkpt><trkpt lat="44.4782717" lon="10.7879717"><ele>333.0</ele><time>2026-05-03T16:47:27.742Z</time></trkpt><trkpt lat="44.4782117" lon="10.7881017"><ele>333.0</ele><time>2026-05-03T16:47:29.742Z</time></trkpt><trkpt lat="44.4782717" lon="10.7882383"><ele>333.0</ele><time>2026-05-03T16:47:31.742Z</time></trkpt><trkpt lat="44.478355" lon="10.7882883"><ele>333.0</ele><time>2026-05-03T16:47:32.742Z</time></trkpt><trkpt lat="44.4784617" lon="10.78833"><ele>333.0</ele><time>2026-05-03T16:47:33.741Z</time></trkpt><trkpt lat="44.4785783" lon="10.7883633"><ele>333.0</ele><time>2026-05-03T16:47:34.741Z</time></trkpt><trkpt lat="44.47868" lon="10.7884133"><ele>333.0</ele><time>2026-05-03T16:47:35.741Z</time></trkpt><trkpt lat="44.47876" lon="10.78848"><ele>333.0</ele><time>2026-05-03T16:47:36.742Z</time></trkpt><trkpt lat="44.4788367" lon="10.7885233"><ele>333.0</ele><time>2026-05-03T16:47:37.742Z</time></trkpt><trkpt lat="44.4789067" lon="10.7885383"><ele>333.0</ele><time>2026-05-03T16:47:38.742Z</time></trkpt><trkpt lat="44.4789783" lon="10.7885233"><ele>333.0</ele><time>2026-05-03T16:47:39.741Z</time></trkpt><trkpt lat="44.47905" lon="10.7884567"><ele>333.0</ele><time>2026-05-03T16:47:40.742Z</time></trkpt><trkpt lat="44.4791067" lon="10.7883467"><ele>332.59999999999997</ele><time>2026-05-03T16:47:41.742Z</time></trkpt><trkpt lat="44.4791633" lon="10.788215"><ele>332.2</ele><time>2026-05-03T16:47:42.742Z</time></trkpt><trkpt lat="44.4792283" lon="10.788085"><ele>331.8</ele><time>2026-05-03T16:47:43.742Z</time></trkpt><trkpt lat="44.4792767" lon="10.7879583"><ele>331.4</ele><time>2026-05-03T16:47:44.741Z</time></trkpt><trkpt lat="44.4793083" lon="10.7878317"><ele>331.0</ele><time>2026-05-03T16:47:45.742Z</time></trkpt><trkpt lat="44.4793217" lon="10.7876983"><ele>331.3333333333333</ele><time>2026-05-03T16:47:46.742Z</time></trkpt><trkpt lat="44.4793333" lon="10.7875817"><ele>331.66666666666663</ele><time>2026-05-03T16:47:47.742Z</time></trkpt><trkpt lat="44.47936" lon="10.7874767"><ele>332.0</ele><time>2026-05-03T16:47:48.742Z</time></trkpt><trkpt lat="44.4793983" lon="10.7873983"><ele>332.3333333333333</ele><time>2026-05-03T16:47:49.741Z</time></trkpt><trkpt lat="44.4794567" lon="10.787355"><ele>332.6666666666667</ele><time>2026-05-03T16:47:50.742Z</time></trkpt><trkpt lat="44.47954" lon="10.7873333"><ele>333.0</ele><time>2026-05-03T16:47:51.742Z</time></trkpt><trkpt lat="44.479655" lon="10.787335"><ele>330.6666666666667</ele><time>2026-05-03T16:47:52.741Z</time></trkpt><trkpt lat="44.479765" lon="10.7873167"><ele>328.3333333333333</ele><time>2026-05-03T16:47:53.742Z</time></trkpt><trkpt lat="44.4798633" lon="10.7872933"><ele>326.0</ele><time>2026-05-03T16:47:54.742Z</time></trkpt><trkpt lat="44.4799433" lon="10.7872967"><ele>323.66666666666663</ele><time>2026-05-03T16:47:55.742Z</time></trkpt><trkpt lat="44.4800183" lon="10.787325"><ele>321.3333333333333</ele><time>2026-05-03T16:47:56.741Z</time></trkpt><trkpt lat="44.4800883" lon="10.7873783"><ele>319.0</ele><time>2026-05-03T16:47:57.742Z</time></trkpt><trkpt lat="44.4801533" lon="10.7874467"><ele>319.0</ele><time>2026-05-03T16:47:58.742Z</time></trkpt><trkpt lat="44.480185" lon="10.78754"><ele>319.0</ele><time>2026-05-03T16:47:59.742Z</time></trkpt><trkpt lat="44.4801733" lon="10.787715"><ele>319.0</ele><time>2026-05-03T16:48:01.742Z</time></trkpt><trkpt lat="44.4801417" lon="10.7878183"><ele>319.0</ele><time>2026-05-03T16:48:02.742Z</time></trkpt><trkpt lat="44.480105" lon="10.7879417"><ele>319.0</ele><time>2026-05-03T16:48:03.742Z</time></trkpt><trkpt lat="44.4800683" lon="10.7880783"><ele>318.3333333333333</ele><time>2026-05-03T16:48:04.742Z</time></trkpt><trkpt lat="44.4800517" lon="10.7882"><ele>317.66666666666663</ele><time>2026-05-03T16:48:05.742Z</time></trkpt><trkpt lat="44.4800417" lon="10.7883267"><ele>317.0</ele><time>2026-05-03T16:48:06.742Z</time></trkpt><trkpt lat="44.48004" lon="10.7884383"><ele>316.3333333333333</ele><time>2026-05-03T16:48:07.741Z</time></trkpt><trkpt lat="44.480045" lon="10.7885333"><ele>315.6666666666667</ele><time>2026-05-03T16:48:08.741Z</time></trkpt><trkpt lat="44.4800483" lon="10.788695"><ele>315.0</ele><time>2026-05-03T16:48:10.742Z</time></trkpt><trkpt lat="44.4800517" lon="10.78883"><ele>313.3333333333333</ele><time>2026-05-03T16:48:12.742Z</time></trkpt><trkpt lat="44.480045" lon="10.7889617"><ele>311.6666666666667</ele><time>2026-05-03T16:48:14.741Z</time></trkpt><trkpt lat="44.4800933" lon="10.7890467"><ele>310.0</ele><time>2026-05-03T16:48:16.741Z</time></trkpt><trkpt lat="44.4801817" lon="10.7890583"><ele>308.33333333333337</ele><time>2026-05-03T16:48:18.742Z</time></trkpt><trkpt lat="44.480245" lon="10.789035"><ele>306.6666666666667</ele><time>2026-05-03T16:48:19.742Z</time></trkpt><trkpt lat="44.4803133" lon="10.789005"><ele>305.0</ele><time>2026-05-03T16:48:20.742Z</time></trkpt><trkpt lat="44.4803883" lon="10.7889683"><ele>303.5</ele><time>2026-05-03T16:48:21.742Z</time></trkpt><trkpt lat="44.4804667" lon="10.7889383"><ele>302.0</ele><time>2026-05-03T16:48:22.742Z</time></trkpt><trkpt lat="44.480545" lon="10.788925"><ele>300.5</ele><time>2026-05-03T16:48:23.742Z</time></trkpt><trkpt lat="44.4806317" lon="10.78895"><ele>299.0</ele><time>2026-05-03T16:48:24.741Z</time></trkpt><trkpt lat="44.4807017" lon="10.7890033"><ele>297.5</ele><time>2026-05-03T16:48:25.742Z</time></trkpt><trkpt lat="44.4807633" lon="10.789095"><ele>296.0</ele><time>2026-05-03T16:48:26.741Z</time></trkpt><trkpt lat="44.4808217" lon="10.7891983"><ele>296.0</ele><time>2026-05-03T16:48:27.742Z</time></trkpt><trkpt lat="44.48086" lon="10.7893033"><ele>296.0</ele><time>2026-05-03T16:48:28.742Z</time></trkpt><trkpt lat="44.480875" lon="10.7894233"><ele>296.0</ele><time>2026-05-03T16:48:29.741Z</time></trkpt><trkpt lat="44.4808717" lon="10.7895567"><ele>296.0</ele><time>2026-05-03T16:48:30.742Z</time></trkpt><trkpt lat="44.48086" lon="10.7896917"><ele>296.0</ele><time>2026-05-03T16:48:31.742Z</time></trkpt><trkpt lat="44.480825" lon="10.789845"><ele>294.0</ele><time>2026-05-03T16:48:32.742Z</time></trkpt><trkpt lat="44.4807833" lon="10.78999"><ele>292.0</ele><time>2026-05-03T16:48:33.742Z</time></trkpt><trkpt lat="44.4807283" lon="10.790115"><ele>290.0</ele><time>2026-05-03T16:48:34.742Z</time></trkpt><trkpt lat="44.4806667" lon="10.7902417"><ele>288.0</ele><time>2026-05-03T16:48:35.742Z</time></trkpt><trkpt lat="44.48059" lon="10.7903567"><ele>286.0</ele><time>2026-05-03T16:48:36.742Z</time></trkpt><trkpt lat="44.4804983" lon="10.79047"><ele>283.5</ele><time>2026-05-03T16:48:37.742Z</time></trkpt><trkpt lat="44.4804" lon="10.79058"><ele>281.0</ele><time>2026-05-03T16:48:38.742Z</time></trkpt><trkpt lat="44.4802917" lon="10.7906783"><ele>278.5</ele><time>2026-05-03T16:48:39.742Z</time></trkpt><trkpt lat="44.480185" lon="10.7907767"><ele>276.0</ele><time>2026-05-03T16:48:40.742Z</time></trkpt><trkpt lat="44.48009" lon="10.7908767"><ele>276.0</ele><time>2026-05-03T16:48:41.742Z</time></trkpt><trkpt lat="44.4799967" lon="10.790975"><ele>276.0</ele><time>2026-05-03T16:48:42.741Z</time></trkpt><trkpt lat="44.4799117" lon="10.7910717"><ele>276.0</ele><time>2026-05-03T16:48:43.742Z</time></trkpt><trkpt lat="44.4798283" lon="10.7911667"><ele>276.0</ele><time>2026-05-03T16:48:44.741Z</time></trkpt><trkpt lat="44.479755" lon="10.7912433"><ele>276.0</ele><time>2026-05-03T16:48:45.742Z</time></trkpt><trkpt lat="44.4796833" lon="10.7912983"><ele>275.6666666666667</ele><time>2026-05-03T16:48:46.742Z</time></trkpt><trkpt lat="44.4796183" lon="10.7913333"><ele>275.3333333333333</ele><time>2026-05-03T16:48:47.742Z</time></trkpt><trkpt lat="44.4795533" lon="10.7913433"><ele>275.0</ele><time>2026-05-03T16:48:48.742Z</time></trkpt><trkpt lat="44.4794783" lon="10.791425"><ele>274.66666666666663</ele><time>2026-05-03T16:48:50.741Z</time></trkpt><trkpt lat="44.479525" lon="10.79155"><ele>274.3333333333333</ele><time>2026-05-03T16:48:52.741Z</time></trkpt><trkpt lat="44.4795983" lon="10.7916017"><ele>274.0</ele><time>2026-05-03T16:48:53.741Z</time></trkpt><trkpt lat="44.479705" lon="10.7916333"><ele>273.5</ele><time>2026-05-03T16:48:54.741Z</time></trkpt><trkpt lat="44.4798283" lon="10.791645"><ele>273.0</ele><time>2026-05-03T16:48:55.74Z</time></trkpt><trkpt lat="44.4799567" lon="10.7916533"><ele>272.5</ele><time>2026-05-03T16:48:56.741Z</time></trkpt><trkpt lat="44.4800783" lon="10.7916417"><ele>272.0</ele><time>2026-05-03T16:48:57.741Z</time></trkpt><trkpt lat="44.4802017" lon="10.7916217"><ele>272.0</ele><time>2026-05-03T16:48:58.741Z</time></trkpt><trkpt lat="44.4803283" lon="10.7916083"><ele>272.0</ele><time>2026-05-03T16:48:59.741Z</time></trkpt><trkpt lat="44.4804633" lon="10.7915917"><ele>272.0</ele><time>2026-05-03T16:49:00.741Z</time></trkpt><trkpt lat="44.4805883" lon="10.7915883"><ele>272.0</ele><time>2026-05-03T16:49:01.741Z</time></trkpt><trkpt lat="44.4807133" lon="10.7915883"><ele>270.5</ele><time>2026-05-03T16:49:02.741Z</time></trkpt><trkpt lat="44.4808467" lon="10.791605"><ele>269.0</ele><time>2026-05-03T16:49:03.741Z</time></trkpt><trkpt lat="44.4809867" lon="10.79164"><ele>267.5</ele><time>2026-05-03T16:49:04.741Z</time></trkpt><trkpt lat="44.4811317" lon="10.7916767"><ele>266.0</ele><time>2026-05-03T16:49:05.741Z</time></trkpt><trkpt lat="44.4812733" lon="10.7917267"><ele>266.0</ele><time>2026-05-03T16:49:06.741Z</time></trkpt><trkpt lat="44.4814133" lon="10.7917783"><ele>266.0</ele><time>2026-05-03T16:49:07.741Z</time></trkpt><trkpt lat="44.4815417" lon="10.7918367"><ele>266.0</ele><time>2026-05-03T16:49:08.741Z</time></trkpt><trkpt lat="44.4816683" lon="10.7919"><ele>266.0</ele><time>2026-05-03T16:49:09.741Z</time></trkpt><trkpt lat="44.481785" lon="10.7919817"><ele>266.0</ele><time>2026-05-03T16:49:10.741Z</time></trkpt><trkpt lat="44.4818867" lon="10.7920917"><ele>266.0</ele><time>2026-05-03T16:49:11.741Z</time></trkpt><trkpt lat="44.4819767" lon="10.7922267"><ele>266.0</ele><time>2026-05-03T16:49:12.741Z</time></trkpt><trkpt lat="44.482075" lon="10.7923633"><ele>266.0</ele><time>2026-05-03T16:49:13.741Z</time></trkpt><trkpt lat="44.4821683" lon="10.7925017"><ele>265.5</ele><time>2026-05-03T16:49:14.741Z</time></trkpt><trkpt lat="44.4822617" lon="10.792635"><ele>265.0</ele><time>2026-05-03T16:49:15.741Z</time></trkpt><trkpt lat="44.482365" lon="10.7927433"><ele>264.5</ele><time>2026-05-03T16:49:16.741Z</time></trkpt><trkpt lat="44.4824867" lon="10.792825"><ele>264.0</ele><time>2026-05-03T16:49:17.741Z</time></trkpt><trkpt lat="44.48262" lon="10.7928683"><ele>264.0</ele><time>2026-05-03T16:49:18.741Z</time></trkpt><trkpt lat="44.4827517" lon="10.7928933"><ele>264.0</ele><time>2026-05-03T16:49:19.741Z</time></trkpt><trkpt lat="44.4828733" lon="10.7929117"><ele>264.0</ele><time>2026-05-03T16:49:20.74Z</time></trkpt><trkpt lat="44.4829883" lon="10.7928983"><ele>264.0</ele><time>2026-05-03T16:49:21.741Z</time></trkpt><trkpt lat="44.483095" lon="10.7928433"><ele>262.8</ele><time>2026-05-03T16:49:22.741Z</time></trkpt><trkpt lat="44.4831983" lon="10.79276"><ele>261.59999999999997</ele><time>2026-05-03T16:49:23.741Z</time></trkpt><trkpt lat="44.4832917" lon="10.7926767"><ele>260.4</ele><time>2026-05-03T16:49:24.741Z</time></trkpt><trkpt lat="44.4833733" lon="10.79261"><ele>259.2</ele><time>2026-05-03T16:49:25.741Z</time></trkpt><trkpt lat="44.4834533" lon="10.7925817"><ele>258.0</ele><time>2026-05-03T16:49:26.741Z</time></trkpt><trkpt lat="44.483525" lon="10.792585"><ele>258.0</ele><time>2026-05-03T16:49:27.741Z</time></trkpt><trkpt lat="44.4836" lon="10.7926333"><ele>258.0</ele><time>2026-05-03T16:49:28.74Z</time></trkpt><trkpt lat="44.4836667" lon="10.7927183"><ele>258.0</ele><time>2026-05-03T16:49:29.741Z</time></trkpt><trkpt lat="44.4837233" lon="10.792845"><ele>258.0</ele><time>2026-05-03T16:49:30.741Z</time></trkpt><trkpt lat="44.483785" lon="10.7929717"><ele>258.0</ele><time>2026-05-03T16:49:31.741Z</time></trkpt><trkpt lat="44.4838417" lon="10.793115"><ele>257.8</ele><time>2026-05-03T16:49:32.741Z</time></trkpt><trkpt lat="44.4838933" lon="10.79326"><ele>257.6</ele><time>2026-05-03T16:49:33.741Z</time></trkpt><trkpt lat="44.48394" lon="10.7933983"><ele>257.4</ele><time>2026-05-03T16:49:34.741Z</time></trkpt><trkpt lat="44.483975" lon="10.793525"><ele>257.2</ele><time>2026-05-03T16:49:35.74Z</time></trkpt><trkpt lat="44.4840217" lon="10.7936417"><ele>257.0</ele><time>2026-05-03T16:49:36.741Z</time></trkpt><trkpt lat="44.4840783" lon="10.7937433"><ele>257.0</ele><time>2026-05-03T16:49:37.74Z</time></trkpt><trkpt lat="44.4841583" lon="10.7938083"><ele>257.0</ele><time>2026-05-03T16:49:38.741Z</time></trkpt><trkpt lat="44.484245" lon="10.79383"><ele>257.0</ele><time>2026-05-03T16:49:39.741Z</time></trkpt><trkpt lat="44.48434" lon="10.7938133"><ele>257.0</ele><time>2026-05-03T16:49:40.741Z</time></trkpt><trkpt lat="44.484445" lon="10.7937417"><ele>257.0</ele><time>2026-05-03T16:49:41.741Z</time></trkpt><trkpt lat="44.48454" lon="10.793625"><ele>256.0</ele><time>2026-05-03T16:49:42.74Z</time></trkpt><trkpt lat="44.4846167" lon="10.793495"><ele>255.0</ele><time>2026-05-03T16:49:43.741Z</time></trkpt><trkpt lat="44.4846883" lon="10.7933467"><ele>254.0</ele><time>2026-05-03T16:49:44.741Z</time></trkpt><trkpt lat="44.4847617" lon="10.7932033"><ele>253.0</ele><time>2026-05-03T16:49:45.741Z</time></trkpt><trkpt lat="44.4848283" lon="10.7930567"><ele>253.0</ele><time>2026-05-03T16:49:46.74Z</time></trkpt><trkpt lat="44.4848883" lon="10.7929233"><ele>253.0</ele><time>2026-05-03T16:49:47.741Z</time></trkpt><trkpt lat="44.4849567" lon="10.7928"><ele>253.0</ele><time>2026-05-03T16:49:48.741Z</time></trkpt><trkpt lat="44.48503" lon="10.7926867"><ele>253.0</ele><time>2026-05-03T16:49:49.741Z</time></trkpt><trkpt lat="44.4851183" lon="10.7925833"><ele>253.0</ele><time>2026-05-03T16:49:50.741Z</time></trkpt><trkpt lat="44.4852183" lon="10.792495"><ele>253.2</ele><time>2026-05-03T16:49:51.741Z</time></trkpt><trkpt lat="44.4853117" lon="10.7924417"><ele>253.4</ele><time>2026-05-03T16:49:52.741Z</time></trkpt><trkpt lat="44.48541" lon="10.7924233"><ele>253.59999999999997</ele><time>2026-05-03T16:49:53.74Z</time></trkpt><trkpt lat="44.4855067" lon="10.7924467"><ele>253.79999999999998</ele><time>2026-05-03T16:49:54.741Z</time></trkpt><trkpt lat="44.485605" lon="10.79251"><ele>254.0</ele><time>2026-05-03T16:49:55.74Z</time></trkpt><trkpt lat="44.4856767" lon="10.792615"><ele>254.2</ele><time>2026-05-03T16:49:56.741Z</time></trkpt><trkpt lat="44.4857483" lon="10.7927333"><ele>254.39999999999998</ele><time>2026-05-03T16:49:57.74Z</time></trkpt><trkpt lat="44.4858083" lon="10.792865"><ele>254.6</ele><time>2026-05-03T16:49:58.741Z</time></trkpt><trkpt lat="44.48584" lon="10.7930133"><ele>254.8</ele><time>2026-05-03T16:49:59.741Z</time></trkpt><trkpt lat="44.4858783" lon="10.7931467"><ele>255.0</ele><time>2026-05-03T16:50:00.741Z</time></trkpt><trkpt lat="44.4858883" lon="10.7933"><ele>255.0</ele><time>2026-05-03T16:50:01.74Z</time></trkpt><trkpt lat="44.48588" lon="10.793455"><ele>255.0</ele><time>2026-05-03T16:50:02.741Z</time></trkpt><trkpt lat="44.4858833" lon="10.793575"><ele>255.0</ele><time>2026-05-03T16:50:03.74Z</time></trkpt><trkpt lat="44.4858967" lon="10.7937033"><ele>255.0</ele><time>2026-05-03T16:50:05.741Z</time></trkpt><trkpt lat="44.48592" lon="10.793585"><ele>255.0</ele><time>2026-05-03T16:50:18.74Z</time></trkpt><trkpt lat="44.4859417" lon="10.7934317"><ele>255.0</ele><time>2026-05-03T16:50:20.741Z</time></trkpt><trkpt lat="44.4859967" lon="10.79331"><ele>255.0</ele><time>2026-05-03T16:50:22.74Z</time></trkpt><trkpt lat="44.48607" lon="10.7931733"><ele>255.0</ele><time>2026-05-03T16:50:24.741Z</time></trkpt><trkpt lat="44.4861117" lon="10.793095"><ele>255.0</ele><time>2026-05-03T16:50:25.741Z</time></trkpt><trkpt lat="44.4861533" lon="10.79302"><ele>255.0</ele><time>2026-05-03T16:50:26.741Z</time></trkpt><trkpt lat="44.4861983" lon="10.79295"><ele>255.0</ele><time>2026-05-03T16:50:27.741Z</time></trkpt><trkpt lat="44.48624" lon="10.7928833"><ele>258.6</ele><time>2026-05-03T16:50:28.741Z</time></trkpt><trkpt lat="44.48632" lon="10.7927567"><ele>262.2</ele><time>2026-05-03T16:50:30.74Z</time></trkpt><trkpt lat="44.4863983" lon="10.7927083"><ele>265.8</ele><time>2026-05-03T16:50:32.741Z</time></trkpt><trkpt lat="44.4864767" lon="10.7926817"><ele>269.4</ele><time>2026-05-03T16:50:34.741Z</time></trkpt><trkpt lat="44.48656" lon="10.79258"><ele>273.0</ele><time>2026-05-03T16:50:36.741Z</time></trkpt><trkpt lat="44.4866033" lon="10.7924983"><ele>273.5</ele><time>2026-05-03T16:50:37.74Z</time></trkpt><trkpt lat="44.4866533" lon="10.7924017"><ele>274.0</ele><time>2026-05-03T16:50:38.741Z</time></trkpt><trkpt lat="44.4866967" lon="10.792305"><ele>274.5</ele><time>2026-05-03T16:50:39.74Z</time></trkpt><trkpt lat="44.48674" lon="10.7922283"><ele>275.0</ele><time>2026-05-03T16:50:40.741Z</time></trkpt><trkpt lat="44.48678" lon="10.7921483"><ele>275.5</ele><time>2026-05-03T16:50:41.74Z</time></trkpt><trkpt lat="44.4868267" lon="10.7920533"><ele>276.0</ele><time>2026-05-03T16:50:42.741Z</time></trkpt><trkpt lat="44.48688" lon="10.79196"><ele>276.0</ele><time>2026-05-03T16:50:43.741Z</time></trkpt><trkpt lat="44.4869333" lon="10.7918867"><ele>276.0</ele><time>2026-05-03T16:50:44.74Z</time></trkpt><trkpt lat="44.4869933" lon="10.79182"><ele>276.0</ele><time>2026-05-03T16:50:45.741Z</time></trkpt><trkpt lat="44.4870617" lon="10.79177"><ele>276.0</ele><time>2026-05-03T16:50:46.741Z</time></trkpt><trkpt lat="44.4871233" lon="10.7917333"><ele>276.0</ele><time>2026-05-03T16:50:47.741Z</time></trkpt><trkpt lat="44.4871883" lon="10.7916967"><ele>276.0</ele><time>2026-05-03T16:50:48.741Z</time></trkpt><trkpt lat="44.48726" lon="10.7916433"><ele>276.0</ele><time>2026-05-03T16:50:49.741Z</time></trkpt><trkpt lat="44.4873333" lon="10.7915767"><ele>280.0</ele><time>2026-05-03T16:50:50.741Z</time></trkpt><trkpt lat="44.487395" lon="10.791505"><ele>284.0</ele><time>2026-05-03T16:50:51.741Z</time></trkpt><trkpt lat="44.48745" lon="10.7914267"><ele>288.0</ele><time>2026-05-03T16:50:52.741Z</time></trkpt><trkpt lat="44.4875067" lon="10.7913317"><ele>292.0</ele><time>2026-05-03T16:50:53.741Z</time></trkpt><trkpt lat="44.4875583" lon="10.7912217"><ele>296.0</ele><time>2026-05-03T16:50:54.74Z</time></trkpt><trkpt lat="44.487595" lon="10.7911217"><ele>300.0</ele><time>2026-05-03T16:50:55.741Z</time></trkpt><trkpt lat="44.48762" lon="10.7910217"><ele>298.8333333333333</ele><time>2026-05-03T16:50:56.741Z</time></trkpt><trkpt lat="44.4876383" lon="10.79091"><ele>297.6666666666667</ele><time>2026-05-03T16:50:57.741Z</time></trkpt><trkpt lat="44.48767" lon="10.7908017"><ele>296.5</ele><time>2026-05-03T16:50:58.741Z</time></trkpt><trkpt lat="44.487695" lon="10.7906867"><ele>295.33333333333337</ele><time>2026-05-03T16:50:59.741Z</time></trkpt><trkpt lat="44.4877267" lon="10.7905733"><ele>294.1666666666667</ele><time>2026-05-03T16:51:00.74Z</time></trkpt><trkpt lat="44.4877317" lon="10.790445"><ele>293.0</ele><time>2026-05-03T16:51:01.741Z</time></trkpt><trkpt lat="44.48772" lon="10.790325"><ele>293.0</ele><time>2026-05-03T16:51:02.741Z</time></trkpt><trkpt lat="44.4877117" lon="10.7902183"><ele>293.0</ele><time>2026-05-03T16:51:03.741Z</time></trkpt><trkpt lat="44.48772" lon="10.79011"><ele>293.0</ele><time>2026-05-03T16:51:04.741Z</time></trkpt><trkpt lat="44.4877433" lon="10.79"><ele>293.0</ele><time>2026-05-03T16:51:05.74Z</time></trkpt><trkpt lat="44.48778" lon="10.78989"><ele>293.0</ele><time>2026-05-03T16:51:06.741Z</time></trkpt><trkpt lat="44.4878183" lon="10.789775"><ele>293.0</ele><time>2026-05-03T16:51:07.741Z</time></trkpt><trkpt lat="44.4878567" lon="10.789655"><ele>293.0</ele><time>2026-05-03T16:51:08.741Z</time></trkpt><trkpt lat="44.4878917" lon="10.7895367"><ele>293.0</ele><time>2026-05-03T16:51:09.741Z</time></trkpt><trkpt lat="44.4879167" lon="10.7894217"><ele>293.0</ele><time>2026-05-03T16:51:10.741Z</time></trkpt><trkpt lat="44.4879233" lon="10.7893133"><ele>293.0</ele><time>2026-05-03T16:51:11.741Z</time></trkpt><trkpt lat="44.48792" lon="10.7892167"><ele>293.0</ele><time>2026-05-03T16:51:12.741Z</time></trkpt><trkpt lat="44.48796" lon="10.789085"><ele>293.0</ele><time>2026-05-03T16:51:14.741Z</time></trkpt><trkpt lat="44.4880533" lon="10.7890717"><ele>298.2</ele><time>2026-05-03T16:51:16.74Z</time></trkpt><trkpt lat="44.488115" lon="10.7891383"><ele>303.4</ele><time>2026-05-03T16:51:17.741Z</time></trkpt><trkpt lat="44.4881883" lon="10.7892483"><ele>308.59999999999997</ele><time>2026-05-03T16:51:18.741Z</time></trkpt><trkpt lat="44.4882583" lon="10.78936"><ele>313.8</ele><time>2026-05-03T16:51:19.741Z</time></trkpt><trkpt lat="44.4883267" lon="10.78947"><ele>319.0</ele><time>2026-05-03T16:51:20.741Z</time></trkpt><trkpt lat="44.4883933" lon="10.7895767"><ele>319.8333333333333</ele><time>2026-05-03T16:51:21.741Z</time></trkpt><trkpt lat="44.4884433" lon="10.7896717"><ele>320.66666666666663</ele><time>2026-05-03T16:51:22.741Z</time></trkpt><trkpt lat="44.4884883" lon="10.7897533"><ele>321.5</ele><time>2026-05-03T16:51:23.74Z</time></trkpt><trkpt lat="44.4885383" lon="10.7898283"><ele>322.3333333333333</ele><time>2026-05-03T16:51:24.74Z</time></trkpt><trkpt lat="44.488595" lon="10.7899017"><ele>323.1666666666667</ele><time>2026-05-03T16:51:25.741Z</time></trkpt><trkpt lat="44.4886367" lon="10.78998"><ele>324.0</ele><time>2026-05-03T16:51:26.741Z</time></trkpt><trkpt lat="44.488665" lon="10.7901117"><ele>324.0</ele><time>2026-05-03T16:51:28.741Z</time></trkpt><trkpt lat="44.48864" lon="10.7902167"><ele>324.0</ele><time>2026-05-03T16:51:30.74Z</time></trkpt><trkpt lat="44.4885817" lon="10.790345"><ele>324.0</ele><time>2026-05-03T16:51:32.741Z</time></trkpt><trkpt lat="44.4885233" lon="10.7904767"><ele>324.0</ele><time>2026-05-03T16:51:34.741Z</time></trkpt><trkpt lat="44.4885317" lon="10.790635"><ele>324.0</ele><time>2026-05-03T16:51:36.741Z</time></trkpt><trkpt lat="44.4885817" lon="10.7907617"><ele>324.0</ele><time>2026-05-03T16:51:38.741Z</time></trkpt><trkpt lat="44.488655" lon="10.7908633"><ele>324.0</ele><time>2026-05-03T16:51:40.741Z</time></trkpt><trkpt lat="44.4886833" lon="10.790975"><ele>324.0</ele><time>2026-05-03T16:51:42.74Z</time></trkpt><trkpt lat="44.4886467" lon="10.791125"><ele>324.0</ele><time>2026-05-03T16:51:44.74Z</time></trkpt><trkpt lat="44.48865" lon="10.79131"><ele>324.0</ele><time>2026-05-03T16:51:46.741Z</time></trkpt><trkpt lat="44.4886783" lon="10.791395"><ele>324.0</ele><time>2026-05-03T16:51:47.74Z</time></trkpt><trkpt lat="44.4887267" lon="10.7914633"><ele>324.0</ele><time>2026-05-03T16:51:48.741Z</time></trkpt><trkpt lat="44.4888017" lon="10.7915633"><ele>324.0</ele><time>2026-05-03T16:51:50.741Z</time></trkpt><trkpt lat="44.4888933" lon="10.7916817"><ele>324.0</ele><time>2026-05-03T16:51:52.741Z</time></trkpt><trkpt lat="44.4889283" lon="10.7918017"><ele>324.0</ele><time>2026-05-03T16:51:54.741Z</time></trkpt><trkpt lat="44.4888533" lon="10.7919083"><ele>325.57142857142856</ele><time>2026-05-03T16:51:56.74Z</time></trkpt><trkpt lat="44.4887983" lon="10.7919567"><ele>327.1428571428571</ele><time>2026-05-03T16:51:57.741Z</time></trkpt><trkpt lat="44.4887317" lon="10.7920183"><ele>328.71428571428567</ele><time>2026-05-03T16:51:58.741Z</time></trkpt><trkpt lat="44.4886667" lon="10.7920767"><ele>330.2857142857143</ele><time>2026-05-03T16:51:59.741Z</time></trkpt><trkpt lat="44.4886017" lon="10.7921417"><ele>331.85714285714283</ele><time>2026-05-03T16:52:00.741Z</time></trkpt><trkpt lat="44.4885367" lon="10.7922017"><ele>333.4285714285714</ele><time>2026-05-03T16:52:01.741Z</time></trkpt><trkpt lat="44.48848" lon="10.7922533"><ele>335.0</ele><time>2026-05-03T16:52:02.74Z</time></trkpt><trkpt lat="44.4883883" lon="10.7923317"><ele>335.0</ele><time>2026-05-03T16:52:04.741Z</time></trkpt><trkpt lat="44.4883533" lon="10.7924467"><ele>335.0</ele><time>2026-05-03T16:52:06.741Z</time></trkpt><trkpt lat="44.4884067" lon="10.7925833"><ele>335.0</ele><time>2026-05-03T16:52:08.741Z</time></trkpt><trkpt lat="44.488455" lon="10.7926517"><ele>335.0</ele><time>2026-05-03T16:52:09.741Z</time></trkpt><trkpt lat="44.4885033" lon="10.7927233"><ele>335.0</ele><time>2026-05-03T16:52:10.741Z</time></trkpt><trkpt lat="44.4885483" lon="10.792795"><ele>335.0</ele><time>2026-05-03T16:52:11.741Z</time></trkpt><trkpt lat="44.48859" lon="10.792875"><ele>334.85714285714283</ele><time>2026-05-03T16:52:12.741Z</time></trkpt><trkpt lat="44.4886383" lon="10.79295"><ele>334.7142857142857</ele><time>2026-05-03T16:52:13.74Z</time></trkpt><trkpt lat="44.4886867" lon="10.7930283"><ele>334.57142857142856</ele><time>2026-05-03T16:52:14.741Z</time></trkpt><trkpt lat="44.48873" lon="10.79311"><ele>334.42857142857144</ele><time>2026-05-03T16:52:15.741Z</time></trkpt><trkpt lat="44.488765" lon="10.7932067"><ele>334.2857142857143</ele><time>2026-05-03T16:52:16.741Z</time></trkpt><trkpt lat="44.4887817" lon="10.79331"><ele>334.1428571428571</ele><time>2026-05-03T16:52:17.741Z</time></trkpt><trkpt lat="44.488775" lon="10.7934117"><ele>334.0</ele><time>2026-05-03T16:52:18.741Z</time></trkpt><trkpt lat="44.488745" lon="10.7935183"><ele>334.0</ele><time>2026-05-03T16:52:19.741Z</time></trkpt><trkpt lat="44.488715" lon="10.793615"><ele>334.0</ele><time>2026-05-03T16:52:20.74Z</time></trkpt><trkpt lat="44.4886867" lon="10.7937033"><ele>334.0</ele><time>2026-05-03T16:52:21.741Z</time></trkpt><trkpt lat="44.4886633" lon="10.7937867"><ele>334.0</ele><time>2026-05-03T16:52:22.741Z</time></trkpt><trkpt lat="44.4886317" lon="10.7939383"><ele>334.0</ele><time>2026-05-03T16:52:24.74Z</time></trkpt><trkpt lat="44.4885967" lon="10.7940667"><ele>334.0</ele><time>2026-05-03T16:52:26.741Z</time></trkpt><trkpt lat="44.4885667" lon="10.794185"><ele>334.0</ele><time>2026-05-03T16:52:28.741Z</time></trkpt><trkpt lat="44.48853" lon="10.7943133"><ele>334.0</ele><time>2026-05-03T16:52:30.741Z</time></trkpt><trkpt lat="44.4885183" lon="10.7944117"><ele>334.0</ele><time>2026-05-03T16:52:32.741Z</time></trkpt><trkpt lat="44.4885717" lon="10.7945067"><ele>334.0</ele><time>2026-05-03T16:52:35.741Z</time></trkpt><trkpt lat="44.48865" lon="10.794565"><ele>334.0</ele><time>2026-05-03T16:52:37.74Z</time></trkpt><trkpt lat="44.48872" lon="10.79466"><ele>334.0</ele><time>2026-05-03T16:52:39.741Z</time></trkpt><trkpt lat="44.488775" lon="10.79478"><ele>336.0</ele><time>2026-05-03T16:52:41.741Z</time></trkpt><trkpt lat="44.4888283" lon="10.7949"><ele>338.0</ele><time>2026-05-03T16:52:43.741Z</time></trkpt><trkpt lat="44.4888883" lon="10.794965"><ele>340.0</ele><time>2026-05-03T16:52:45.74Z</time></trkpt><trkpt lat="44.4889633" lon="10.79494"><ele>342.0</ele><time>2026-05-03T16:52:47.74Z</time></trkpt><trkpt lat="44.4890467" lon="10.7948933"><ele>344.0</ele><time>2026-05-03T16:52:49.741Z</time></trkpt><trkpt lat="44.48915" lon="10.794825"><ele>344.0</ele><time>2026-05-03T16:52:51.741Z</time></trkpt><trkpt lat="44.4892517" lon="10.7947517"><ele>344.0</ele><time>2026-05-03T16:52:53.741Z</time></trkpt><trkpt lat="44.4893383" lon="10.79469"><ele>344.0</ele><time>2026-05-03T16:52:55.741Z</time></trkpt><trkpt lat="44.4894" lon="10.79466"><ele>344.0</ele><time>2026-05-03T16:54:36.74Z</time></trkpt><trkpt lat="44.4894817" lon="10.794615"><ele>344.0</ele><time>2026-05-03T16:54:39.74Z</time></trkpt><trkpt lat="44.48955" lon="10.7945767"><ele>344.0</ele><time>2026-05-03T16:54:41.74Z</time></trkpt><trkpt lat="44.48963" lon="10.7945283"><ele>344.5</ele><time>2026-05-03T16:54:43.74Z</time></trkpt><trkpt lat="44.48971" lon="10.794515"><ele>345.0</ele><time>2026-05-03T16:54:45.74Z</time></trkpt><trkpt lat="44.48978" lon="10.794555"><ele>345.5</ele><time>2026-05-03T16:54:47.74Z</time></trkpt><trkpt lat="44.4898533" lon="10.794625"><ele>346.0</ele><time>2026-05-03T16:54:49.74Z</time></trkpt><trkpt lat="44.4899233" lon="10.7946783"><ele>346.5</ele><time>2026-05-03T16:54:51.74Z</time></trkpt><trkpt lat="44.4899917" lon="10.7947183"><ele>347.0</ele><time>2026-05-03T16:54:53.74Z</time></trkpt><trkpt lat="44.4900817" lon="10.794755"><ele>347.0</ele><time>2026-05-03T16:54:56.74Z</time></trkpt><trkpt lat="44.4901617" lon="10.7948183"><ele>347.0</ele><time>2026-05-03T16:54:59.74Z</time></trkpt><trkpt lat="44.4902467" lon="10.7948483"><ele>347.0</ele><time>2026-05-03T16:55:02.739Z</time></trkpt><trkpt lat="44.4903133" lon="10.7948533"><ele>347.0</ele><time>2026-05-03T16:55:04.74Z</time></trkpt><trkpt lat="44.49038" lon="10.7948583"><ele>347.0</ele><time>2026-05-03T16:55:06.74Z</time></trkpt><trkpt lat="44.4904633" lon="10.7948383"><ele>347.0</ele><time>2026-05-03T16:55:09.739Z</time></trkpt><trkpt lat="44.490535" lon="10.7948333"><ele>348.40000000000003</ele><time>2026-05-03T16:55:11.74Z</time></trkpt><trkpt lat="44.4906017" lon="10.79484"><ele>349.8</ele><time>2026-05-03T16:55:13.74Z</time></trkpt><trkpt lat="44.4906733" lon="10.794855"><ele>351.2</ele><time>2026-05-03T16:55:15.74Z</time></trkpt><trkpt lat="44.4907617" lon="10.7948483"><ele>352.6</ele><time>2026-05-03T16:55:17.74Z</time></trkpt><trkpt lat="44.4908733" lon="10.79486"><ele>354.0</ele><time>2026-05-03T16:55:19.74Z</time></trkpt><trkpt lat="44.490995" lon="10.7948833"><ele>354.0</ele><time>2026-05-03T16:55:21.74Z</time></trkpt><trkpt lat="44.4910583" lon="10.7949017"><ele>354.0</ele><time>2026-05-03T16:55:22.74Z</time></trkpt><trkpt lat="44.4911217" lon="10.7949067"><ele>354.0</ele><time>2026-05-03T16:55:23.74Z</time></trkpt><trkpt lat="44.4912283" lon="10.7949217"><ele>354.0</ele><time>2026-05-03T16:55:25.74Z</time></trkpt><trkpt lat="44.4912983" lon="10.7949133"><ele>354.0</ele><time>2026-05-03T16:55:28.739Z</time></trkpt><trkpt lat="44.49134" lon="10.7948467"><ele>354.0</ele><time>2026-05-03T16:55:30.739Z</time></trkpt><trkpt lat="44.4913717" lon="10.7946833"><ele>355.25</ele><time>2026-05-03T16:55:32.739Z</time></trkpt><trkpt lat="44.49138" lon="10.79457"><ele>356.5</ele><time>2026-05-03T16:55:33.74Z</time></trkpt><trkpt lat="44.491405" lon="10.7944383"><ele>357.75</ele><time>2026-05-03T16:55:34.74Z</time></trkpt><trkpt lat="44.49147" lon="10.794175"><ele>359.0</ele><time>2026-05-03T16:55:36.74Z</time></trkpt><trkpt lat="44.491505" lon="10.794035"><ele>359.0</ele><time>2026-05-03T16:55:37.74Z</time></trkpt><trkpt lat="44.4915333" lon="10.7938883"><ele>359.0</ele><time>2026-05-03T16:55:38.739Z</time></trkpt><trkpt lat="44.491545" lon="10.7937417"><ele>359.0</ele><time>2026-05-03T16:55:39.74Z</time></trkpt><trkpt lat="44.4915533" lon="10.7935833"><ele>359.0</ele><time>2026-05-03T16:55:40.74Z</time></trkpt><trkpt lat="44.4915667" lon="10.7934217"><ele>359.0</ele><time>2026-05-03T16:55:41.74Z</time></trkpt><trkpt lat="44.491585" lon="10.7932617"><ele>360.25</ele><time>2026-05-03T16:55:42.74Z</time></trkpt><trkpt lat="44.4916217" lon="10.793095"><ele>361.5</ele><time>2026-05-03T16:55:43.74Z</time></trkpt><trkpt lat="44.491665" lon="10.792935"><ele>362.75</ele><time>2026-05-03T16:55:44.739Z</time></trkpt><trkpt lat="44.4917183" lon="10.7927783"><ele>364.0</ele><time>2026-05-03T16:55:45.74Z</time></trkpt><trkpt lat="44.4917833" lon="10.7926133"><ele>366.5</ele><time>2026-05-03T16:55:46.74Z</time></trkpt><trkpt lat="44.491845" lon="10.7924517"><ele>369.0</ele><time>2026-05-03T16:55:47.74Z</time></trkpt><trkpt lat="44.491905" lon="10.7922917"><ele>371.5</ele><time>2026-05-03T16:55:48.739Z</time></trkpt><trkpt lat="44.4919667" lon="10.79213"><ele>374.0</ele><time>2026-05-03T16:55:49.74Z</time></trkpt><trkpt lat="44.4920333" lon="10.79197"><ele>375.2</ele><time>2026-05-03T16:55:50.74Z</time></trkpt><trkpt lat="44.4921033" lon="10.7918117"><ele>376.4</ele><time>2026-05-03T16:55:51.74Z</time></trkpt><trkpt lat="44.4921483" lon="10.7916883"><ele>377.6</ele><time>2026-05-03T16:55:52.74Z</time></trkpt><trkpt lat="44.4921983" lon="10.791595"><ele>378.8</ele><time>2026-05-03T16:55:53.74Z</time></trkpt><trkpt lat="44.492255" lon="10.7915217"><ele>380.0</ele><time>2026-05-03T16:55:54.74Z</time></trkpt><trkpt lat="44.49232" lon="10.7914833"><ele>380.0</ele><time>2026-05-03T16:55:55.74Z</time></trkpt><trkpt lat="44.4923983" lon="10.7914833"><ele>380.0</ele><time>2026-05-03T16:55:56.74Z</time></trkpt><trkpt lat="44.492485" lon="10.7914917"><ele>380.0</ele><time>2026-05-03T16:55:57.739Z</time></trkpt><trkpt lat="44.4925683" lon="10.791475"><ele>380.0</ele><time>2026-05-03T16:55:58.739Z</time></trkpt><trkpt lat="44.4926467" lon="10.7914217"><ele>380.0</ele><time>2026-05-03T16:55:59.74Z</time></trkpt><trkpt lat="44.492715" lon="10.7913317"><ele>380.0</ele><time>2026-05-03T16:56:00.74Z</time></trkpt><trkpt lat="44.492775" lon="10.7912433"><ele>380.0</ele><time>2026-05-03T16:56:01.74Z</time></trkpt><trkpt lat="44.49285" lon="10.791175"><ele>380.0</ele><time>2026-05-03T16:56:02.74Z</time></trkpt><trkpt lat="44.4929367" lon="10.7911517"><ele>380.0</ele><time>2026-05-03T16:56:03.739Z</time></trkpt><trkpt lat="44.4930317" lon="10.791155"><ele>380.0</ele><time>2026-05-03T16:56:04.74Z</time></trkpt><trkpt lat="44.49313" lon="10.791165"><ele>380.0</ele><time>2026-05-03T16:56:05.74Z</time></trkpt><trkpt lat="44.4932233" lon="10.7911833"><ele>380.0</ele><time>2026-05-03T16:56:06.74Z</time></trkpt><trkpt lat="44.493305" lon="10.791185"><ele>380.0</ele><time>2026-05-03T16:56:07.739Z</time></trkpt><trkpt lat="44.4933733" lon="10.79117"><ele>380.0</ele><time>2026-05-03T16:56:08.74Z</time></trkpt><trkpt lat="44.49345" lon="10.791155"><ele>380.0</ele><time>2026-05-03T16:56:09.74Z</time></trkpt><trkpt lat="44.49352" lon="10.79115"><ele>380.0</ele><time>2026-05-03T16:56:10.74Z</time></trkpt><trkpt lat="44.4936583" lon="10.79115"><ele>380.0</ele><time>2026-05-03T16:56:12.74Z</time></trkpt><trkpt lat="44.4937367" lon="10.7911733"><ele>381.33333333333337</ele><time>2026-05-03T16:56:13.74Z</time></trkpt><trkpt lat="44.493815" lon="10.7912283"><ele>382.6666666666667</ele><time>2026-05-03T16:56:14.74Z</time></trkpt><trkpt lat="44.493885" lon="10.791295"><ele>384.0</ele><time>2026-05-03T16:56:15.74Z</time></trkpt><trkpt lat="44.4939483" lon="10.79136"><ele>385.33333333333337</ele><time>2026-05-03T16:56:16.74Z</time></trkpt><trkpt lat="44.4940083" lon="10.7914183"><ele>386.6666666666667</ele><time>2026-05-03T16:56:17.739Z</time></trkpt><trkpt lat="44.49407" lon="10.791475"><ele>388.0</ele><time>2026-05-03T16:56:18.739Z</time></trkpt><trkpt lat="44.4941167" lon="10.7915483"><ele>388.0</ele><time>2026-05-03T16:56:19.74Z</time></trkpt><trkpt lat="44.4941417" lon="10.79163"><ele>388.0</ele><time>2026-05-03T16:56:20.74Z</time></trkpt><trkpt lat="44.4941783" lon="10.7917267"><ele>388.0</ele><time>2026-05-03T16:56:21.74Z</time></trkpt><trkpt lat="44.49421" lon="10.7918267"><ele>388.0</ele><time>2026-05-03T16:56:22.74Z</time></trkpt><trkpt lat="44.4942383" lon="10.7919267"><ele>388.0</ele><time>2026-05-03T16:56:23.739Z</time></trkpt><trkpt lat="44.494265" lon="10.79202"><ele>388.0</ele><time>2026-05-03T16:56:24.74Z</time></trkpt><trkpt lat="44.4942967" lon="10.7921017"><ele>388.0</ele><time>2026-05-03T16:56:25.74Z</time></trkpt><trkpt lat="44.4943317" lon="10.7921833"><ele>385.6666666666667</ele><time>2026-05-03T16:56:26.74Z</time></trkpt><trkpt lat="44.49436" lon="10.7922733"><ele>383.33333333333337</ele><time>2026-05-03T16:56:27.74Z</time></trkpt><trkpt lat="44.4943933" lon="10.79238"><ele>381.0</ele><time>2026-05-03T16:56:28.74Z</time></trkpt><trkpt lat="44.4944217" lon="10.79249"><ele>378.6666666666667</ele><time>2026-05-03T16:56:29.74Z</time></trkpt><trkpt lat="44.4944517" lon="10.7925917"><ele>376.33333333333337</ele><time>2026-05-03T16:56:30.74Z</time></trkpt><trkpt lat="44.4944833" lon="10.79269"><ele>374.0</ele><time>2026-05-03T16:56:31.74Z</time></trkpt><trkpt lat="44.4945183" lon="10.792775"><ele>373.0</ele><time>2026-05-03T16:56:32.74Z</time></trkpt><trkpt lat="44.49455" lon="10.7928667"><ele>372.0</ele><time>2026-05-03T16:56:33.739Z</time></trkpt><trkpt lat="44.4945883" lon="10.7929467"><ele>371.0</ele><time>2026-05-03T16:56:34.739Z</time></trkpt><trkpt lat="44.494635" lon="10.7930267"><ele>370.0</ele><time>2026-05-03T16:56:35.739Z</time></trkpt><trkpt lat="44.4946867" lon="10.7931067"><ele>369.0</ele><time>2026-05-03T16:56:36.74Z</time></trkpt><trkpt lat="44.4947417" lon="10.7931933"><ele>368.0</ele><time>2026-05-03T16:56:37.74Z</time></trkpt><trkpt lat="44.4947983" lon="10.79328"><ele>368.0</ele><time>2026-05-03T16:56:38.74Z</time></trkpt><trkpt lat="44.4948517" lon="10.79336"><ele>368.0</ele><time>2026-05-03T16:56:39.74Z</time></trkpt><trkpt lat="44.4949017" lon="10.79344"><ele>368.0</ele><time>2026-05-03T16:56:40.74Z</time></trkpt><trkpt lat="44.4949383" lon="10.7935267"><ele>368.0</ele><time>2026-05-03T16:56:41.739Z</time></trkpt><trkpt lat="44.4949733" lon="10.793605"><ele>368.0</ele><time>2026-05-03T16:56:42.74Z</time></trkpt><trkpt lat="44.4950517" lon="10.7937017"><ele>368.0</ele><time>2026-05-03T16:56:44.74Z</time></trkpt><trkpt lat="44.4951733" lon="10.7937617"><ele>366.1666666666667</ele><time>2026-05-03T16:56:46.739Z</time></trkpt><trkpt lat="44.495235" lon="10.7937967"><ele>364.33333333333337</ele><time>2026-05-03T16:56:47.74Z</time></trkpt><trkpt lat="44.4952917" lon="10.7938417"><ele>362.5</ele><time>2026-05-03T16:56:48.74Z</time></trkpt><trkpt lat="44.495355" lon="10.7938883"><ele>360.6666666666667</ele><time>2026-05-03T16:56:49.74Z</time></trkpt><trkpt lat="44.4954117" lon="10.793945"><ele>358.8333333333333</ele><time>2026-05-03T16:56:50.74Z</time></trkpt><trkpt lat="44.4955167" lon="10.7940233"><ele>357.0</ele><time>2026-05-03T16:56:52.74Z</time></trkpt><trkpt lat="44.49563" lon="10.7940717"><ele>355.57142857142856</ele><time>2026-05-03T16:56:54.739Z</time></trkpt><trkpt lat="44.4956983" lon="10.7940967"><ele>354.1428571428571</ele><time>2026-05-03T16:56:55.74Z</time></trkpt><trkpt lat="44.4957633" lon="10.79412"><ele>352.7142857142857</ele><time>2026-05-03T16:56:56.74Z</time></trkpt><trkpt lat="44.49583" lon="10.7941467"><ele>351.2857142857143</ele><time>2026-05-03T16:56:57.74Z</time></trkpt><trkpt lat="44.4958917" lon="10.794175"><ele>349.85714285714283</ele><time>2026-05-03T16:56:58.739Z</time></trkpt><trkpt lat="44.4959517" lon="10.7942083"><ele>348.42857142857144</ele><time>2026-05-03T16:56:59.74Z</time></trkpt><trkpt lat="44.4960133" lon="10.7942367"><ele>347.0</ele><time>2026-05-03T16:57:00.74Z</time></trkpt><trkpt lat="44.496105" lon="10.7943467"><ele>344.83333333333337</ele><time>2026-05-03T16:57:02.74Z</time></trkpt><trkpt lat="44.49615" lon="10.7944233"><ele>342.6666666666667</ele><time>2026-05-03T16:57:03.739Z</time></trkpt><trkpt lat="44.4962" lon="10.7945167"><ele>340.5</ele><time>2026-05-03T16:57:04.74Z</time></trkpt><trkpt lat="44.4962283" lon="10.7946267"><ele>338.3333333333333</ele><time>2026-05-03T16:57:05.74Z</time></trkpt><trkpt lat="44.4962717" lon="10.7947417"><ele>336.16666666666663</ele><time>2026-05-03T16:57:06.74Z</time></trkpt><trkpt lat="44.4963133" lon="10.79485"><ele>334.0</ele><time>2026-05-03T16:57:07.74Z</time></trkpt><trkpt lat="44.49636" lon="10.7949683"><ele>333.5</ele><time>2026-05-03T16:57:08.739Z</time></trkpt><trkpt lat="44.496395" lon="10.7950833"><ele>333.0</ele><time>2026-05-03T16:57:09.74Z</time></trkpt><trkpt lat="44.49642" lon="10.795195"><ele>332.5</ele><time>2026-05-03T16:57:10.74Z</time></trkpt><trkpt lat="44.4964667" lon="10.7952917"><ele>332.0</ele><time>2026-05-03T16:57:11.74Z</time></trkpt><trkpt lat="44.496525" lon="10.795385"><ele>331.5</ele><time>2026-05-03T16:57:12.739Z</time></trkpt><trkpt lat="44.4965967" lon="10.795485"><ele>331.0</ele><time>2026-05-03T16:57:13.74Z</time></trkpt><trkpt lat="44.49667" lon="10.7955867"><ele>330.6</ele><time>2026-05-03T16:57:14.74Z</time></trkpt><trkpt lat="44.4967467" lon="10.795685"><ele>330.20000000000005</ele><time>2026-05-03T16:57:15.74Z</time></trkpt><trkpt lat="44.49682" lon="10.79579"><ele>329.79999999999995</ele><time>2026-05-03T16:57:16.74Z</time></trkpt><trkpt lat="44.4968767" lon="10.7959117"><ele>329.4</ele><time>2026-05-03T16:57:17.74Z</time></trkpt><trkpt lat="44.4969283" lon="10.79605"><ele>329.0</ele><time>2026-05-03T16:57:18.74Z</time></trkpt><trkpt lat="44.4969767" lon="10.796195"><ele>328.75</ele><time>2026-05-03T16:57:19.739Z</time></trkpt><trkpt lat="44.4970333" lon="10.7963433"><ele>328.5</ele><time>2026-05-03T16:57:20.74Z</time></trkpt><trkpt lat="44.4971" lon="10.7964933"><ele>328.25</ele><time>2026-05-03T16:57:21.74Z</time></trkpt><trkpt lat="44.4971717" lon="10.7966417"><ele>328.0</ele><time>2026-05-03T16:57:22.74Z</time></trkpt><trkpt lat="44.497245" lon="10.79678"><ele>329.0</ele><time>2026-05-03T16:57:23.74Z</time></trkpt><trkpt lat="44.4973067" lon="10.7968983"><ele>330.0</ele><time>2026-05-03T16:57:24.74Z</time></trkpt><trkpt lat="44.4973667" lon="10.7969883"><ele>331.0</ele><time>2026-05-03T16:57:25.739Z</time></trkpt><trkpt lat="44.497415" lon="10.79706"><ele>332.0</ele><time>2026-05-03T16:57:26.74Z</time></trkpt><trkpt lat="44.49746" lon="10.79722"><ele>333.0</ele><time>2026-05-03T16:57:28.74Z</time></trkpt><trkpt lat="44.4974483" lon="10.7973267"><ele>333.0</ele><time>2026-05-03T16:57:29.74Z</time></trkpt><trkpt lat="44.4974183" lon="10.79746"><ele>333.0</ele><time>2026-05-03T16:57:30.74Z</time></trkpt><trkpt lat="44.4974" lon="10.797605"><ele>333.0</ele><time>2026-05-03T16:57:31.74Z</time></trkpt><trkpt lat="44.4973867" lon="10.7977483"><ele>333.0</ele><time>2026-05-03T16:57:32.74Z</time></trkpt><trkpt lat="44.4973933" lon="10.7978967"><ele>333.0</ele><time>2026-05-03T16:57:33.74Z</time></trkpt><trkpt lat="44.4974217" lon="10.7980317"><ele>331.8333333333333</ele><time>2026-05-03T16:57:34.739Z</time></trkpt><trkpt lat="44.497455" lon="10.79815"><ele>330.6666666666667</ele><time>2026-05-03T16:57:35.74Z</time></trkpt><trkpt lat="44.4974583" lon="10.7982633"><ele>329.5</ele><time>2026-05-03T16:57:36.739Z</time></trkpt><trkpt lat="44.4974333" lon="10.7983767"><ele>328.33333333333337</ele><time>2026-05-03T16:57:37.74Z</time></trkpt><trkpt lat="44.4973983" lon="10.79849"><ele>327.1666666666667</ele><time>2026-05-03T16:57:38.739Z</time></trkpt><trkpt lat="44.497365" lon="10.79861"><ele>326.0</ele><time>2026-05-03T16:57:39.74Z</time></trkpt><trkpt lat="44.4973383" lon="10.79873"><ele>324.0</ele><time>2026-05-03T16:57:40.74Z</time></trkpt><trkpt lat="44.4973333" lon="10.7988567"><ele>322.0</ele><time>2026-05-03T16:57:41.74Z</time></trkpt><trkpt lat="44.49736" lon="10.7989867"><ele>320.0</ele><time>2026-05-03T16:57:42.739Z</time></trkpt><trkpt lat="44.49741" lon="10.799115"><ele>318.0</ele><time>2026-05-03T16:57:43.74Z</time></trkpt><trkpt lat="44.4974583" lon="10.7992467"><ele>316.0</ele><time>2026-05-03T16:57:44.74Z</time></trkpt><trkpt lat="44.4975117" lon="10.7993817"><ele>315.40000000000003</ele><time>2026-05-03T16:57:45.74Z</time></trkpt><trkpt lat="44.49756" lon="10.79951"><ele>314.8</ele><time>2026-05-03T16:57:46.74Z</time></trkpt><trkpt lat="44.4976017" lon="10.7996333"><ele>314.20000000000005</ele><time>2026-05-03T16:57:47.74Z</time></trkpt><trkpt lat="44.497645" lon="10.7997467"><ele>313.6</ele><time>2026-05-03T16:57:48.74Z</time></trkpt><trkpt lat="44.49769" lon="10.7998467"><ele>313.0</ele><time>2026-05-03T16:57:49.74Z</time></trkpt><trkpt lat="44.4977417" lon="10.7999267"><ele>313.0</ele><time>2026-05-03T16:57:50.74Z</time></trkpt><trkpt lat="44.497795" lon="10.800005"><ele>313.0</ele><time>2026-05-03T16:57:51.74Z</time></trkpt><trkpt lat="44.4978567" lon="10.8000933"><ele>313.0</ele><time>2026-05-03T16:57:52.74Z</time></trkpt><trkpt lat="44.4979133" lon="10.8001867"><ele>313.0</ele><time>2026-05-03T16:57:53.74Z</time></trkpt><trkpt lat="44.4979717" lon="10.800285"><ele>313.0</ele><time>2026-05-03T16:57:54.74Z</time></trkpt><trkpt lat="44.4980283" lon="10.800385"><ele>313.0</ele><time>2026-05-03T16:57:55.739Z</time></trkpt><trkpt lat="44.49808" lon="10.8005"><ele>312.2</ele><time>2026-05-03T16:57:56.74Z</time></trkpt><trkpt lat="44.4981367" lon="10.8005967"><ele>311.4</ele><time>2026-05-03T16:57:57.74Z</time></trkpt><trkpt lat="44.4982033" lon="10.8006817"><ele>310.59999999999997</ele><time>2026-05-03T16:57:58.74Z</time></trkpt><trkpt lat="44.4982767" lon="10.8007583"><ele>309.8</ele><time>2026-05-03T16:57:59.739Z</time></trkpt><trkpt lat="44.498355" lon="10.800825"><ele>309.0</ele><time>2026-05-03T16:58:00.74Z</time></trkpt><trkpt lat="44.49843" lon="10.800915"><ele>307.8</ele><time>2026-05-03T16:58:01.74Z</time></trkpt><trkpt lat="44.4984917" lon="10.80102"><ele>306.59999999999997</ele><time>2026-05-03T16:58:02.74Z</time></trkpt><trkpt lat="44.498545" lon="10.8011433"><ele>305.4</ele><time>2026-05-03T16:58:03.739Z</time></trkpt><trkpt lat="44.4985867" lon="10.8012767"><ele>304.2</ele><time>2026-05-03T16:58:04.74Z</time></trkpt><trkpt lat="44.4986283" lon="10.8014167"><ele>303.0</ele><time>2026-05-03T16:58:05.74Z</time></trkpt><trkpt lat="44.498675" lon="10.8015417"><ele>303.0</ele><time>2026-05-03T16:58:06.739Z</time></trkpt><trkpt lat="44.49873" lon="10.8016683"><ele>303.0</ele><time>2026-05-03T16:58:07.74Z</time></trkpt><trkpt lat="44.4987867" lon="10.80179"><ele>303.0</ele><time>2026-05-03T16:58:08.739Z</time></trkpt><trkpt lat="44.4988683" lon="10.8018883"><ele>303.0</ele><time>2026-05-03T16:58:09.74Z</time></trkpt><trkpt lat="44.4989583" lon="10.80196"><ele>303.0</ele><time>2026-05-03T16:58:10.739Z</time></trkpt><trkpt lat="44.499065" lon="10.8020183"><ele>301.2</ele><time>2026-05-03T16:58:11.74Z</time></trkpt><trkpt lat="44.49916" lon="10.80207"><ele>299.4</ele><time>2026-05-03T16:58:12.739Z</time></trkpt><trkpt lat="44.499245" lon="10.8021533"><ele>297.59999999999997</ele><time>2026-05-03T16:58:13.74Z</time></trkpt><trkpt lat="44.4993283" lon="10.80226"><ele>295.8</ele><time>2026-05-03T16:58:14.74Z</time></trkpt><trkpt lat="44.49938" lon="10.8023917"><ele>294.0</ele><time>2026-05-03T16:58:15.739Z</time></trkpt><trkpt lat="44.49944" lon="10.8025217"><ele>294.0</ele><time>2026-05-03T16:58:16.74Z</time></trkpt><trkpt lat="44.4995283" lon="10.8026383"><ele>294.0</ele><time>2026-05-03T16:58:17.74Z</time></trkpt><trkpt lat="44.4996267" lon="10.80274"><ele>294.0</ele><time>2026-05-03T16:58:18.74Z</time></trkpt><trkpt lat="44.4997283" lon="10.802845"><ele>294.0</ele><time>2026-05-03T16:58:19.739Z</time></trkpt><trkpt lat="44.4998233" lon="10.80294"><ele>294.8333333333333</ele><time>2026-05-03T16:58:20.739Z</time></trkpt><trkpt lat="44.4999067" lon="10.8030283"><ele>295.6666666666667</ele><time>2026-05-03T16:58:21.739Z</time></trkpt><trkpt lat="44.4999917" lon="10.8031033"><ele>296.5</ele><time>2026-05-03T16:58:22.74Z</time></trkpt><trkpt lat="44.5000717" lon="10.8031783"><ele>297.33333333333337</ele><time>2026-05-03T16:58:23.74Z</time></trkpt><trkpt lat="44.5001217" lon="10.8032567"><ele>298.1666666666667</ele><time>2026-05-03T16:58:24.74Z</time></trkpt><trkpt lat="44.500145" lon="10.80335"><ele>299.0</ele><time>2026-05-03T16:58:25.74Z</time></trkpt><trkpt lat="44.500165" lon="10.803445"><ele>299.0</ele><time>2026-05-03T16:58:26.739Z</time></trkpt><trkpt lat="44.5001767" lon="10.8035617"><ele>299.0</ele><time>2026-05-03T16:58:27.739Z</time></trkpt><trkpt lat="44.50018" lon="10.8036967"><ele>299.0</ele><time>2026-05-03T16:58:28.74Z</time></trkpt><trkpt lat="44.5001833" lon="10.80383"><ele>299.0</ele><time>2026-05-03T16:58:29.739Z</time></trkpt><trkpt lat="44.5001867" lon="10.80394"><ele>299.0</ele><time>2026-05-03T16:58:30.739Z</time></trkpt><trkpt lat="44.5001683" lon="10.804045"><ele>299.0</ele><time>2026-05-03T16:58:31.74Z</time></trkpt><trkpt lat="44.5001367" lon="10.8041367"><ele>299.0</ele><time>2026-05-03T16:58:32.74Z</time></trkpt><trkpt lat="44.5001233" lon="10.8042283"><ele>299.0</ele><time>2026-05-03T16:58:33.74Z</time></trkpt><trkpt lat="44.5001383" lon="10.8043367"><ele>299.0</ele><time>2026-05-03T16:58:34.739Z</time></trkpt><trkpt lat="44.5001483" lon="10.804455"><ele>299.0</ele><time>2026-05-03T16:58:35.74Z</time></trkpt><trkpt lat="44.5001767" lon="10.804565"><ele>299.0</ele><time>2026-05-03T16:58:36.739Z</time></trkpt><trkpt lat="44.50021" lon="10.8046683"><ele>299.0</ele><time>2026-05-03T16:58:37.74Z</time></trkpt><trkpt lat="44.5002467" lon="10.804775"><ele>299.1666666666667</ele><time>2026-05-03T16:58:38.74Z</time></trkpt><trkpt lat="44.500285" lon="10.8048683"><ele>299.33333333333337</ele><time>2026-05-03T16:58:39.74Z</time></trkpt><trkpt lat="44.5003133" lon="10.8049583"><ele>299.5</ele><time>2026-05-03T16:58:40.74Z</time></trkpt><trkpt lat="44.5003617" lon="10.8050483"><ele>299.6666666666667</ele><time>2026-05-03T16:58:41.74Z</time></trkpt><trkpt lat="44.5004217" lon="10.805125"><ele>299.8333333333333</ele><time>2026-05-03T16:58:42.74Z</time></trkpt><trkpt lat="44.5004833" lon="10.8052133"><ele>300.0</ele><time>2026-05-03T16:58:43.74Z</time></trkpt><trkpt lat="44.5005283" lon="10.8053167"><ele>300.0</ele><time>2026-05-03T16:58:44.74Z</time></trkpt><trkpt lat="44.5005683" lon="10.8054267"><ele>300.0</ele><time>2026-05-03T16:58:45.74Z</time></trkpt><trkpt lat="44.5006017" lon="10.8055333"><ele>300.0</ele><time>2026-05-03T16:58:46.74Z</time></trkpt><trkpt lat="44.500635" lon="10.805635"><ele>300.0</ele><time>2026-05-03T16:58:47.739Z</time></trkpt><trkpt lat="44.5006667" lon="10.8057417"><ele>300.0</ele><time>2026-05-03T16:58:48.74Z</time></trkpt><trkpt lat="44.5007083" lon="10.8058333"><ele>300.0</ele><time>2026-05-03T16:58:49.74Z</time></trkpt><trkpt lat="44.5007517" lon="10.8059217"><ele>297.8333333333333</ele><time>2026-05-03T16:58:50.739Z</time></trkpt><trkpt lat="44.500805" lon="10.8060017"><ele>295.6666666666667</ele><time>2026-05-03T16:58:51.74Z</time></trkpt><trkpt lat="44.50086" lon="10.8060917"><ele>293.5</ele><time>2026-05-03T16:58:52.74Z</time></trkpt><trkpt lat="44.5009167" lon="10.8061983"><ele>291.33333333333337</ele><time>2026-05-03T16:58:53.74Z</time></trkpt><trkpt lat="44.5009617" lon="10.80632"><ele>289.1666666666667</ele><time>2026-05-03T16:58:54.74Z</time></trkpt><trkpt lat="44.501" lon="10.806435"><ele>287.0</ele><time>2026-05-03T16:58:55.74Z</time></trkpt><trkpt lat="44.501025" lon="10.80654"><ele>287.0</ele><time>2026-05-03T16:58:56.74Z</time></trkpt><trkpt lat="44.50105" lon="10.8066467"><ele>287.0</ele><time>2026-05-03T16:58:57.74Z</time></trkpt><trkpt lat="44.50108" lon="10.8067333"><ele>287.0</ele><time>2026-05-03T16:58:58.74Z</time></trkpt><trkpt lat="44.5011133" lon="10.8068133"><ele>287.0</ele><time>2026-05-03T16:58:59.74Z</time></trkpt><trkpt lat="44.501145" lon="10.806895"><ele>287.0</ele><time>2026-05-03T16:59:00.739Z</time></trkpt><trkpt lat="44.5011833" lon="10.8069717"><ele>287.0</ele><time>2026-05-03T16:59:01.74Z</time></trkpt><trkpt lat="44.5012283" lon="10.8070533"><ele>287.0</ele><time>2026-05-03T16:59:02.74Z</time></trkpt><trkpt lat="44.50127" lon="10.807145"><ele>289.8</ele><time>2026-05-03T16:59:03.74Z</time></trkpt><trkpt lat="44.5013117" lon="10.8072517"><ele>292.6</ele><time>2026-05-03T16:59:04.74Z</time></trkpt><trkpt lat="44.501365" lon="10.8073683"><ele>295.40000000000003</ele><time>2026-05-03T16:59:05.74Z</time></trkpt><trkpt lat="44.5014217" lon="10.807495"><ele>298.2</ele><time>2026-05-03T16:59:06.74Z</time></trkpt><trkpt lat="44.50148" lon="10.8076067"><ele>301.0</ele><time>2026-05-03T16:59:07.74Z</time></trkpt><trkpt lat="44.5015283" lon="10.807705"><ele>301.0</ele><time>2026-05-03T16:59:08.74Z</time></trkpt><trkpt lat="44.5015683" lon="10.80778"><ele>301.0</ele><time>2026-05-03T16:59:09.739Z</time></trkpt><trkpt lat="44.5016167" lon="10.8078367"><ele>301.0</ele><time>2026-05-03T16:59:10.74Z</time></trkpt><trkpt lat="44.5016717" lon="10.8078867"><ele>301.0</ele><time>2026-05-03T16:59:11.74Z</time></trkpt><trkpt lat="44.5017283" lon="10.80794"><ele>301.0</ele><time>2026-05-03T16:59:12.74Z</time></trkpt><trkpt lat="44.5017833" lon="10.8080017"><ele>301.0</ele><time>2026-05-03T16:59:13.739Z</time></trkpt><trkpt lat="44.5018367" lon="10.8080567"><ele>301.0</ele><time>2026-05-03T16:59:14.74Z</time></trkpt><trkpt lat="44.501905" lon="10.8081067"><ele>301.0</ele><time>2026-05-03T16:59:15.74Z</time></trkpt><trkpt lat="44.5019817" lon="10.808155"><ele>301.0</ele><time>2026-05-03T16:59:16.74Z</time></trkpt><trkpt lat="44.5020533" lon="10.8082017"><ele>301.0</ele><time>2026-05-03T16:59:17.74Z</time></trkpt><trkpt lat="44.5021167" lon="10.8082583"><ele>301.0</ele><time>2026-05-03T16:59:18.739Z</time></trkpt><trkpt lat="44.5021867" lon="10.8083267"><ele>301.0</ele><time>2026-05-03T16:59:19.74Z</time></trkpt><trkpt lat="44.5022517" lon="10.8084083"><ele>301.0</ele><time>2026-05-03T16:59:20.74Z</time></trkpt><trkpt lat="44.50232" lon="10.8084967"><ele>301.40000000000003</ele><time>2026-05-03T16:59:21.739Z</time></trkpt><trkpt lat="44.50239" lon="10.8085933"><ele>301.8</ele><time>2026-05-03T16:59:22.74Z</time></trkpt><trkpt lat="44.502455" lon="10.8086967"><ele>302.20000000000005</ele><time>2026-05-03T16:59:23.74Z</time></trkpt><trkpt lat="44.50251" lon="10.8088"><ele>302.6</ele><time>2026-05-03T16:59:24.74Z</time></trkpt><trkpt lat="44.5025567" lon="10.8089"><ele>303.0</ele><time>2026-05-03T16:59:25.74Z</time></trkpt><trkpt lat="44.502615" lon="10.8089833"><ele>303.0</ele><time>2026-05-03T16:59:26.739Z</time></trkpt><trkpt lat="44.50273" lon="10.8090983"><ele>303.0</ele><time>2026-05-03T16:59:28.74Z</time></trkpt><trkpt lat="44.5027983" lon="10.8091517"><ele>303.0</ele><time>2026-05-03T16:59:29.738Z</time></trkpt><trkpt lat="44.50286" lon="10.809195"><ele>303.0</ele><time>2026-05-03T16:59:30.739Z</time></trkpt><trkpt lat="44.50295" lon="10.8092717"><ele>303.0</ele><time>2026-05-03T16:59:32.738Z</time></trkpt><trkpt lat="44.503045" lon="10.80934"><ele>302.2</ele><time>2026-05-03T16:59:34.738Z</time></trkpt><trkpt lat="44.5031317" lon="10.8094017"><ele>301.4</ele><time>2026-05-03T16:59:36.739Z</time></trkpt><trkpt lat="44.5032133" lon="10.8094833"><ele>300.59999999999997</ele><time>2026-05-03T16:59:38.738Z</time></trkpt><trkpt lat="44.5032783" lon="10.8095783"><ele>299.8</ele><time>2026-05-03T16:59:40.739Z</time></trkpt><trkpt lat="44.5033583" lon="10.8096533"><ele>299.0</ele><time>2026-05-03T16:59:42.739Z</time></trkpt><trkpt lat="44.50345" lon="10.809745"><ele>299.0</ele><time>2026-05-03T16:59:44.739Z</time></trkpt><trkpt lat="44.5035517" lon="10.80985"><ele>299.0</ele><time>2026-05-03T16:59:46.739Z</time></trkpt><trkpt lat="44.503605" lon="10.8099017"><ele>299.0</ele><time>2026-05-03T16:59:47.738Z</time></trkpt><trkpt lat="44.5036733" lon="10.80994"><ele>299.0</ele><time>2026-05-03T16:59:48.739Z</time></trkpt><trkpt lat="44.5037433" lon="10.8099767"><ele>299.0</ele><time>2026-05-03T16:59:49.739Z</time></trkpt><trkpt lat="44.5038217" lon="10.8100233"><ele>299.0</ele><time>2026-05-03T16:59:50.739Z</time></trkpt><trkpt lat="44.5039" lon="10.810065"><ele>299.5</ele><time>2026-05-03T16:59:51.739Z</time></trkpt><trkpt lat="44.5039733" lon="10.8101167"><ele>300.0</ele><time>2026-05-03T16:59:52.739Z</time></trkpt><trkpt lat="44.5040533" lon="10.81016"><ele>300.5</ele><time>2026-05-03T16:59:53.738Z</time></trkpt><trkpt lat="44.50413" lon="10.8102033"><ele>301.0</ele><time>2026-05-03T16:59:54.739Z</time></trkpt><trkpt lat="44.5042" lon="10.8102483"><ele>301.5</ele><time>2026-05-03T16:59:55.739Z</time></trkpt><trkpt lat="44.504265" lon="10.8102967"><ele>302.0</ele><time>2026-05-03T16:59:56.739Z</time></trkpt><trkpt lat="44.50437" lon="10.8103867"><ele>302.00000000000006</ele><time>2026-05-03T16:59:58.738Z</time></trkpt><trkpt lat="44.50445" lon="10.8104733"><ele>302.0</ele><time>2026-05-03T17:00:00.739Z</time></trkpt><trkpt lat="44.50452" lon="10.8105083"><ele>302.0</ele><time>2026-05-03T17:00:02.739Z</time></trkpt><trkpt lat="44.504575" lon="10.81057"><ele>302.0</ele><time>2026-05-03T17:00:23.739Z</time></trkpt><trkpt lat="44.5046183" lon="10.810635"><ele>302.0</ele><time>2026-05-03T17:00:24.739Z</time></trkpt><trkpt lat="44.504655" lon="10.8107183"><ele>302.00000000000006</ele><time>2026-05-03T17:00:25.739Z</time></trkpt><trkpt lat="44.504685" lon="10.8108017"><ele>302.0</ele><time>2026-05-03T17:00:26.739Z</time></trkpt><trkpt lat="44.50472" lon="10.810885"><ele>302.5714285714286</ele><time>2026-05-03T17:00:27.739Z</time></trkpt><trkpt lat="44.5047567" lon="10.8109717"><ele>303.14285714285717</ele><time>2026-05-03T17:00:28.739Z</time></trkpt><trkpt lat="44.504795" lon="10.8110583"><ele>303.7142857142857</ele><time>2026-05-03T17:00:29.739Z</time></trkpt><trkpt lat="44.5048317" lon="10.8111467"><ele>304.28571428571433</ele><time>2026-05-03T17:00:30.738Z</time></trkpt><trkpt lat="44.5048733" lon="10.8112367"><ele>304.8571428571429</ele><time>2026-05-03T17:00:31.739Z</time></trkpt><trkpt lat="44.5049117" lon="10.8113267"><ele>305.42857142857144</ele><time>2026-05-03T17:00:32.739Z</time></trkpt><trkpt lat="44.5049483" lon="10.8114133"><ele>306.0</ele><time>2026-05-03T17:00:33.738Z</time></trkpt><trkpt lat="44.504985" lon="10.8115"><ele>306.6</ele><time>2026-05-03T17:00:34.739Z</time></trkpt><trkpt lat="44.5050817" lon="10.8116533"><ele>307.20000000000005</ele><time>2026-05-03T17:00:36.739Z</time></trkpt><trkpt lat="44.505205" lon="10.811775"><ele>307.79999999999995</ele><time>2026-05-03T17:00:38.739Z</time></trkpt><trkpt lat="44.5052667" lon="10.8118283"><ele>308.4</ele><time>2026-05-03T17:00:39.739Z</time></trkpt><trkpt lat="44.505325" lon="10.8118783"><ele>309.0</ele><time>2026-05-03T17:00:40.739Z</time></trkpt><trkpt lat="44.5053867" lon="10.8119283"><ele>307.25</ele><time>2026-05-03T17:00:41.738Z</time></trkpt><trkpt lat="44.5055033" lon="10.81202"><ele>305.5</ele><time>2026-05-03T17:00:43.738Z</time></trkpt><trkpt lat="44.5056233" lon="10.8121417"><ele>303.75</ele><time>2026-05-03T17:00:45.739Z</time></trkpt><trkpt lat="44.5057383" lon="10.81227"><ele>302.0</ele><time>2026-05-03T17:00:47.739Z</time></trkpt><trkpt lat="44.5057983" lon="10.812445"><ele>302.0</ele><time>2026-05-03T17:00:49.739Z</time></trkpt><trkpt lat="44.5057917" lon="10.8126483"><ele>302.0</ele><time>2026-05-03T17:00:51.739Z</time></trkpt><trkpt lat="44.50575" lon="10.8128367"><ele>302.0</ele><time>2026-05-03T17:00:53.739Z</time></trkpt><trkpt lat="44.5057067" lon="10.81294"><ele>302.0</ele><time>2026-05-03T17:00:54.739Z</time></trkpt><trkpt lat="44.50565" lon="10.8130317"><ele>301.6666666666667</ele><time>2026-05-03T17:00:55.739Z</time></trkpt><trkpt lat="44.505505" lon="10.8131267"><ele>301.3333333333333</ele><time>2026-05-03T17:00:57.739Z</time></trkpt><trkpt lat="44.5053283" lon="10.8131283"><ele>301.0</ele><time>2026-05-03T17:00:59.739Z</time></trkpt><trkpt lat="44.5052167" lon="10.8131017"><ele>296.0</ele><time>2026-05-03T17:01:00.738Z</time></trkpt><trkpt lat="44.5050067" lon="10.8130583"><ele>291.0</ele><time>2026-05-03T17:01:02.739Z</time></trkpt><trkpt lat="44.504825" lon="10.812935"><ele>286.0</ele><time>2026-05-03T17:01:04.739Z</time></trkpt><trkpt lat="44.5047417" lon="10.8128517"><ele>286.0</ele><time>2026-05-03T17:01:05.738Z</time></trkpt><trkpt lat="44.5046683" lon="10.81275"><ele>286.0</ele><time>2026-05-03T17:01:06.738Z</time></trkpt><trkpt lat="44.5046" lon="10.812635"><ele>286.0</ele><time>2026-05-03T17:01:07.739Z</time></trkpt><trkpt lat="44.50453" lon="10.8125083"><ele>286.0</ele><time>2026-05-03T17:01:08.739Z</time></trkpt><trkpt lat="44.504385" lon="10.8122983"><ele>281.0</ele><time>2026-05-03T17:01:10.739Z</time></trkpt><trkpt lat="44.5042117" lon="10.81215"><ele>276.0</ele><time>2026-05-03T17:01:12.739Z</time></trkpt><trkpt lat="44.5040033" lon="10.8120983"><ele>271.0</ele><time>2026-05-03T17:01:14.739Z</time></trkpt><trkpt lat="44.5038967" lon="10.8120717"><ele>271.0</ele><time>2026-05-03T17:01:15.739Z</time></trkpt><trkpt lat="44.5038033" lon="10.812025"><ele>271.0</ele><time>2026-05-03T17:01:16.739Z</time></trkpt><trkpt lat="44.5036983" lon="10.8119567"><ele>271.0</ele><time>2026-05-03T17:01:17.739Z</time></trkpt><trkpt lat="44.5036" lon="10.811875"><ele>271.0</ele><time>2026-05-03T17:01:18.739Z</time></trkpt><trkpt lat="44.5034983" lon="10.8117933"><ele>271.0</ele><time>2026-05-03T17:01:19.738Z</time></trkpt><trkpt lat="44.5034" lon="10.811705"><ele>268.66666666666663</ele><time>2026-05-03T17:01:20.739Z</time></trkpt><trkpt lat="44.5032033" lon="10.8115533"><ele>266.3333333333333</ele><time>2026-05-03T17:01:22.739Z</time></trkpt><trkpt lat="44.5030267" lon="10.811445"><ele>264.0</ele><time>2026-05-03T17:01:24.739Z</time></trkpt><trkpt lat="44.5029467" lon="10.8114217"><ele>262.0</ele><time>2026-05-03T17:01:25.738Z</time></trkpt><trkpt lat="44.5027817" lon="10.811445"><ele>260.0</ele><time>2026-05-03T17:01:27.739Z</time></trkpt><trkpt lat="44.5026067" lon="10.8115817"><ele>258.0</ele><time>2026-05-03T17:01:29.739Z</time></trkpt><trkpt lat="44.50246" lon="10.81171"><ele>258.0</ele><time>2026-05-03T17:01:31.739Z</time></trkpt><trkpt lat="44.5024083" lon="10.8117917"><ele>258.0</ele><time>2026-05-03T17:01:32.738Z</time></trkpt><trkpt lat="44.502385" lon="10.8118933"><ele>258.0</ele><time>2026-05-03T17:01:33.738Z</time></trkpt><trkpt lat="44.5023867" lon="10.8119983"><ele>258.0</ele><time>2026-05-03T17:01:34.738Z</time></trkpt><trkpt lat="44.5024033" lon="10.81212"><ele>258.0</ele><time>2026-05-03T17:01:35.739Z</time></trkpt><trkpt lat="44.5024333" lon="10.8122567"><ele>258.0</ele><time>2026-05-03T17:01:36.739Z</time></trkpt><trkpt lat="44.502475" lon="10.812415"><ele>255.75</ele><time>2026-05-03T17:01:37.739Z</time></trkpt><trkpt lat="44.5025167" lon="10.812585"><ele>253.5</ele><time>2026-05-03T17:01:38.739Z</time></trkpt><trkpt lat="44.5025517" lon="10.8127617"><ele>251.25</ele><time>2026-05-03T17:01:39.739Z</time></trkpt><trkpt lat="44.5025833" lon="10.8129417"><ele>249.0</ele><time>2026-05-03T17:01:40.739Z</time></trkpt><trkpt lat="44.5026667" lon="10.8132967"><ele>247.25</ele><time>2026-05-03T17:01:42.739Z</time></trkpt><trkpt lat="44.50271" lon="10.813475"><ele>245.5</ele><time>2026-05-03T17:01:43.739Z</time></trkpt><trkpt lat="44.5027483" lon="10.8136533"><ele>243.75</ele><time>2026-05-03T17:01:44.739Z</time></trkpt><trkpt lat="44.5027867" lon="10.8138317"><ele>242.0</ele><time>2026-05-03T17:01:45.738Z</time></trkpt><trkpt lat="44.50282" lon="10.8140183"><ele>239.0</ele><time>2026-05-03T17:01:46.738Z</time></trkpt><trkpt lat="44.502845" lon="10.8142117"><ele>236.0</ele><time>2026-05-03T17:01:47.739Z</time></trkpt><trkpt lat="44.50287" lon="10.8144"><ele>233.0</ele><time>2026-05-03T17:01:48.739Z</time></trkpt><trkpt lat="44.50291" lon="10.8145767"><ele>230.0</ele><time>2026-05-03T17:01:49.739Z</time></trkpt><trkpt lat="44.5029333" lon="10.8147717"><ele>227.0</ele><time>2026-05-03T17:01:50.739Z</time></trkpt><trkpt lat="44.5029633" lon="10.8149667"><ele>224.0</ele><time>2026-05-03T17:01:51.739Z</time></trkpt><trkpt lat="44.502995" lon="10.8151633"><ele>221.0</ele><time>2026-05-03T17:01:52.739Z</time></trkpt><trkpt lat="44.503005" lon="10.81538"><ele>218.0</ele><time>2026-05-03T17:01:53.739Z</time></trkpt><trkpt lat="44.503015" lon="10.815585"><ele>216.0</ele><time>2026-05-03T17:01:54.739Z</time></trkpt><trkpt lat="44.5030267" lon="10.81579"><ele>214.0</ele><time>2026-05-03T17:01:55.739Z</time></trkpt><trkpt lat="44.5030367" lon="10.8159883"><ele>212.0</ele><time>2026-05-03T17:01:56.739Z</time></trkpt><trkpt lat="44.5030483" lon="10.8161783"><ele>210.0</ele><time>2026-05-03T17:01:57.739Z</time></trkpt><trkpt lat="44.50305" lon="10.8163733"><ele>209.0</ele><time>2026-05-03T17:01:58.738Z</time></trkpt><trkpt lat="44.5030533" lon="10.81655"><ele>208.0</ele><time>2026-05-03T17:01:59.738Z</time></trkpt><trkpt lat="44.50306" lon="10.8167067"><ele>207.0</ele><time>2026-05-03T17:02:00.739Z</time></trkpt><trkpt lat="44.5030567" lon="10.8168633"><ele>206.0</ele><time>2026-05-03T17:02:01.738Z</time></trkpt><trkpt lat="44.5030383" lon="10.81704"><ele>205.25</ele><time>2026-05-03T17:02:02.739Z</time></trkpt><trkpt lat="44.503" lon="10.8172"><ele>204.5</ele><time>2026-05-03T17:02:03.739Z</time></trkpt><trkpt lat="44.5029467" lon="10.8173483"><ele>203.75</ele><time>2026-05-03T17:02:04.738Z</time></trkpt><trkpt lat="44.5028933" lon="10.8174883"><ele>203.0</ele><time>2026-05-03T17:02:05.739Z</time></trkpt><trkpt lat="44.5028417" lon="10.8176183"><ele>201.4</ele><time>2026-05-03T17:02:06.739Z</time></trkpt><trkpt lat="44.5027867" lon="10.8177383"><ele>199.8</ele><time>2026-05-03T17:02:07.739Z</time></trkpt><trkpt lat="44.5027333" lon="10.8178567"><ele>198.2</ele><time>2026-05-03T17:02:08.739Z</time></trkpt><trkpt lat="44.5026783" lon="10.8179633"><ele>196.6</ele><time>2026-05-03T17:02:09.739Z</time></trkpt><trkpt lat="44.5026317" lon="10.81808"><ele>195.0</ele><time>2026-05-03T17:02:10.739Z</time></trkpt><trkpt lat="44.5025883" lon="10.818185"><ele>195.0</ele><time>2026-05-03T17:02:11.739Z</time></trkpt><trkpt lat="44.5025433" lon="10.818275"><ele>195.0</ele><time>2026-05-03T17:02:12.739Z</time></trkpt><trkpt lat="44.5024733" lon="10.8183967"><ele>195.0</ele><time>2026-05-03T17:02:14.739Z</time></trkpt><trkpt lat="44.502435" lon="10.8184717"><ele>195.0</ele><time>2026-05-03T17:02:17.739Z</time></trkpt><trkpt lat="44.5024583" lon="10.8186083"><ele>195.0</ele><time>2026-05-03T17:02:19.738Z</time></trkpt><trkpt lat="44.5025067" lon="10.81873"><ele>194.75</ele><time>2026-05-03T17:02:20.739Z</time></trkpt><trkpt lat="44.5025617" lon="10.8188667"><ele>194.5</ele><time>2026-05-03T17:02:21.738Z</time></trkpt><trkpt lat="44.502605" lon="10.8190067"><ele>194.25</ele><time>2026-05-03T17:02:22.739Z</time></trkpt><trkpt lat="44.5026533" lon="10.8191667"><ele>194.0</ele><time>2026-05-03T17:02:23.739Z</time></trkpt><trkpt lat="44.502685" lon="10.8193283"><ele>193.25</ele><time>2026-05-03T17:02:24.739Z</time></trkpt><trkpt lat="44.5027167" lon="10.8194933"><ele>192.5</ele><time>2026-05-03T17:02:25.739Z</time></trkpt><trkpt lat="44.50275" lon="10.8196583"><ele>191.75</ele><time>2026-05-03T17:02:26.739Z</time></trkpt><trkpt lat="44.5027967" lon="10.8198217"><ele>191.0</ele><time>2026-05-03T17:02:27.739Z</time></trkpt><trkpt lat="44.50284" lon="10.8200017"><ele>189.75</ele><time>2026-05-03T17:02:28.739Z</time></trkpt><trkpt lat="44.5028667" lon="10.82017"><ele>188.5</ele><time>2026-05-03T17:02:29.739Z</time></trkpt><trkpt lat="44.50289" lon="10.820345"><ele>187.25</ele><time>2026-05-03T17:02:30.739Z</time></trkpt><trkpt lat="44.5028667" lon="10.8205417"><ele>186.0</ele><time>2026-05-03T17:02:31.738Z</time></trkpt><trkpt lat="44.5028417" lon="10.820725"><ele>186.0</ele><time>2026-05-03T17:02:32.738Z</time></trkpt><trkpt lat="44.502815" lon="10.8209233"><ele>186.0</ele><time>2026-05-03T17:02:33.739Z</time></trkpt><trkpt lat="44.5027883" lon="10.8211333"><ele>186.0</ele><time>2026-05-03T17:02:34.739Z</time></trkpt><trkpt lat="44.5027817" lon="10.8213533"><ele>185.66666666666666</ele><time>2026-05-03T17:02:35.739Z</time></trkpt><trkpt lat="44.5028033" lon="10.82157"><ele>185.33333333333331</ele><time>2026-05-03T17:02:36.739Z</time></trkpt><trkpt lat="44.50282" lon="10.821795"><ele>185.0</ele><time>2026-05-03T17:02:37.738Z</time></trkpt><trkpt lat="44.5028383" lon="10.822015"><ele>184.75</ele><time>2026-05-03T17:02:38.739Z</time></trkpt><trkpt lat="44.5028667" lon="10.8222267"><ele>184.5</ele><time>2026-05-03T17:02:39.739Z</time></trkpt><trkpt lat="44.5028967" lon="10.8224233"><ele>184.25</ele><time>2026-05-03T17:02:40.738Z</time></trkpt><trkpt lat="44.50293" lon="10.8226083"><ele>184.0</ele><time>2026-05-03T17:02:41.739Z</time></trkpt><trkpt lat="44.5029633" lon="10.8228"><ele>183.25</ele><time>2026-05-03T17:02:42.739Z</time></trkpt><trkpt lat="44.50299" lon="10.8229867"><ele>182.5</ele><time>2026-05-03T17:02:43.739Z</time></trkpt><trkpt lat="44.5030133" lon="10.82316"><ele>181.75</ele><time>2026-05-03T17:02:44.739Z</time></trkpt><trkpt lat="44.5030367" lon="10.8233083"><ele>181.0</ele><time>2026-05-03T17:02:45.739Z</time></trkpt><trkpt lat="44.5030317" lon="10.8234583"><ele>180.4</ele><time>2026-05-03T17:02:46.739Z</time></trkpt><trkpt lat="44.50299" lon="10.8236"><ele>179.8</ele><time>2026-05-03T17:02:47.739Z</time></trkpt><trkpt lat="44.502925" lon="10.82372"><ele>179.20000000000002</ele><time>2026-05-03T17:02:48.738Z</time></trkpt><trkpt lat="44.5028467" lon="10.823835"><ele>178.60000000000002</ele><time>2026-05-03T17:02:49.739Z</time></trkpt><trkpt lat="44.502775" lon="10.8239383"><ele>178.0</ele><time>2026-05-03T17:02:50.739Z</time></trkpt><trkpt lat="44.50271" lon="10.8240383"><ele>179.2</ele><time>2026-05-03T17:02:51.739Z</time></trkpt><trkpt lat="44.5026733" lon="10.82415"><ele>180.4</ele><time>2026-05-03T17:02:52.738Z</time></trkpt><trkpt lat="44.5026717" lon="10.8242783"><ele>181.6</ele><time>2026-05-03T17:02:53.739Z</time></trkpt><trkpt lat="44.502695" lon="10.8244117"><ele>182.79999999999998</ele><time>2026-05-03T17:02:54.739Z</time></trkpt><trkpt lat="44.5027633" lon="10.8245433"><ele>184.0</ele><time>2026-05-03T17:02:55.739Z</time></trkpt><trkpt lat="44.5028667" lon="10.8246767"><ele>183.0</ele><time>2026-05-03T17:02:56.739Z</time></trkpt><trkpt lat="44.5029933" lon="10.8247883"><ele>182.0</ele><time>2026-05-03T17:02:57.739Z</time></trkpt><trkpt lat="44.5031267" lon="10.8249"><ele>181.0</ele><time>2026-05-03T17:02:58.739Z</time></trkpt><trkpt lat="44.5034167" lon="10.8250967"><ele>181.0</ele><time>2026-05-03T17:03:00.739Z</time></trkpt><trkpt lat="44.5035533" lon="10.8251917"><ele>181.0</ele><time>2026-05-03T17:03:01.739Z</time></trkpt><trkpt lat="44.50369" lon="10.8252767"><ele>181.0</ele><time>2026-05-03T17:03:02.739Z</time></trkpt><trkpt lat="44.5038117" lon="10.8253467"><ele>181.0</ele><time>2026-05-03T17:03:03.739Z</time></trkpt><trkpt lat="44.5039133" lon="10.825425"><ele>181.0</ele><time>2026-05-03T17:03:04.739Z</time></trkpt><trkpt lat="44.504" lon="10.825525"><ele>181.0</ele><time>2026-05-03T17:03:05.739Z</time></trkpt><trkpt lat="44.50406" lon="10.82566"><ele>181.0</ele><time>2026-05-03T17:03:06.739Z</time></trkpt><trkpt lat="44.5041067" lon="10.8258183"><ele>181.0</ele><time>2026-05-03T17:03:07.739Z</time></trkpt><trkpt lat="44.5041467" lon="10.826"><ele>181.25</ele><time>2026-05-03T17:03:08.739Z</time></trkpt><trkpt lat="44.5041767" lon="10.826195"><ele>181.5</ele><time>2026-05-03T17:03:09.739Z</time></trkpt><trkpt lat="44.5042167" lon="10.8263917"><ele>181.75</ele><time>2026-05-03T17:03:10.739Z</time></trkpt><trkpt lat="44.50426" lon="10.8265933"><ele>182.0</ele><time>2026-05-03T17:03:11.739Z</time></trkpt><trkpt lat="44.5043033" lon="10.8267867"><ele>182.5</ele><time>2026-05-03T17:03:12.739Z</time></trkpt><trkpt lat="44.5043467" lon="10.8269517"><ele>183.0</ele><time>2026-05-03T17:03:13.739Z</time></trkpt><trkpt lat="44.5043867" lon="10.8271133"><ele>183.5</ele><time>2026-05-03T17:03:14.739Z</time></trkpt><trkpt lat="44.50445" lon="10.8272717"><ele>184.0</ele><time>2026-05-03T17:03:15.738Z</time></trkpt><trkpt lat="44.5045383" lon="10.827415"><ele>182.75</ele><time>2026-05-03T17:03:16.739Z</time></trkpt><trkpt lat="44.5046317" lon="10.82755"><ele>181.5</ele><time>2026-05-03T17:03:17.738Z</time></trkpt><trkpt lat="44.50473" lon="10.82767"><ele>180.25</ele><time>2026-05-03T17:03:18.738Z</time></trkpt><trkpt lat="44.504835" lon="10.827795"><ele>179.0</ele><time>2026-05-03T17:03:19.739Z</time></trkpt><trkpt lat="44.5049483" lon="10.8279133"><ele>179.0</ele><time>2026-05-03T17:03:20.739Z</time></trkpt><trkpt lat="44.5050617" lon="10.8280383"><ele>179.0</ele><time>2026-05-03T17:03:21.738Z</time></trkpt><trkpt lat="44.5051667" lon="10.82817"><ele>179.0</ele><time>2026-05-03T17:03:22.739Z</time></trkpt><trkpt lat="44.5052817" lon="10.8283033"><ele>179.0</ele><time>2026-05-03T17:03:23.738Z</time></trkpt><trkpt lat="44.50539" lon="10.82844"><ele>177.0</ele><time>2026-05-03T17:03:24.739Z</time></trkpt><trkpt lat="44.5055117" lon="10.8285883"><ele>175.0</ele><time>2026-05-03T17:03:25.739Z</time></trkpt><trkpt lat="44.505625" lon="10.8287267"><ele>173.0</ele><time>2026-05-03T17:03:26.739Z</time></trkpt><trkpt lat="44.5057383" lon="10.82887"><ele>173.0</ele><time>2026-05-03T17:03:27.738Z</time></trkpt><trkpt lat="44.5058467" lon="10.8290167"><ele>173.0</ele><time>2026-05-03T17:03:28.738Z</time></trkpt><trkpt lat="44.5059417" lon="10.8291767"><ele>173.0</ele><time>2026-05-03T17:03:29.739Z</time></trkpt><trkpt lat="44.5060267" lon="10.8293533"><ele>172.33333333333331</ele><time>2026-05-03T17:03:30.739Z</time></trkpt><trkpt lat="44.5060983" lon="10.8295433"><ele>171.66666666666666</ele><time>2026-05-03T17:03:31.739Z</time></trkpt><trkpt lat="44.5061617" lon="10.82974"><ele>171.0</ele><time>2026-05-03T17:03:32.739Z</time></trkpt><trkpt lat="44.50622" lon="10.8299383"><ele>171.33333333333334</ele><time>2026-05-03T17:03:33.739Z</time></trkpt><trkpt lat="44.5062783" lon="10.8301333"><ele>171.66666666666669</ele><time>2026-05-03T17:03:34.738Z</time></trkpt><trkpt lat="44.5063367" lon="10.8303383"><ele>172.0</ele><time>2026-05-03T17:03:35.739Z</time></trkpt><trkpt lat="44.5064" lon="10.830535"><ele>172.33333333333334</ele><time>2026-05-03T17:03:36.739Z</time></trkpt><trkpt lat="44.5064483" lon="10.830735"><ele>172.66666666666666</ele><time>2026-05-03T17:03:37.739Z</time></trkpt><trkpt lat="44.5064917" lon="10.830945"><ele>173.0</ele><time>2026-05-03T17:03:38.738Z</time></trkpt><trkpt lat="44.5065333" lon="10.8311417"><ele>172.5</ele><time>2026-05-03T17:03:39.739Z</time></trkpt><trkpt lat="44.5065767" lon="10.8313333"><ele>172.0</ele><time>2026-05-03T17:03:40.739Z</time></trkpt><trkpt lat="44.506635" lon="10.831495"><ele>171.5</ele><time>2026-05-03T17:03:41.739Z</time></trkpt><trkpt lat="44.5067" lon="10.8316333"><ele>171.0</ele><time>2026-05-03T17:03:42.739Z</time></trkpt><trkpt lat="44.5068" lon="10.8317533"><ele>171.0</ele><time>2026-05-03T17:03:43.739Z</time></trkpt><trkpt lat="44.5068983" lon="10.83185"><ele>171.0</ele><time>2026-05-03T17:03:44.739Z</time></trkpt><trkpt lat="44.50701" lon="10.8319433"><ele>171.0</ele><time>2026-05-03T17:03:45.739Z</time></trkpt><trkpt lat="44.5071217" lon="10.83204"><ele>171.0</ele><time>2026-05-03T17:03:46.739Z</time></trkpt><trkpt lat="44.507225" lon="10.8321583"><ele>170.5</ele><time>2026-05-03T17:03:47.739Z</time></trkpt><trkpt lat="44.5073267" lon="10.8322817"><ele>170.0</ele><time>2026-05-03T17:03:48.739Z</time></trkpt><trkpt lat="44.5074183" lon="10.8324167"><ele>169.5</ele><time>2026-05-03T17:03:49.738Z</time></trkpt><trkpt lat="44.5075017" lon="10.8325567"><ele>169.0</ele><time>2026-05-03T17:03:50.738Z</time></trkpt><trkpt lat="44.507595" lon="10.8327033"><ele>168.75</ele><time>2026-05-03T17:03:51.739Z</time></trkpt><trkpt lat="44.5076883" lon="10.8328583"><ele>168.5</ele><time>2026-05-03T17:03:52.738Z</time></trkpt><trkpt lat="44.5077783" lon="10.83302"><ele>168.25</ele><time>2026-05-03T17:03:53.738Z</time></trkpt><trkpt lat="44.50787" lon="10.8331883"><ele>168.0</ele><time>2026-05-03T17:03:54.739Z</time></trkpt><trkpt lat="44.5079583" lon="10.8333633"><ele>167.75</ele><time>2026-05-03T17:03:55.739Z</time></trkpt><trkpt lat="44.50804" lon="10.833525"><ele>167.5</ele><time>2026-05-03T17:03:56.739Z</time></trkpt><trkpt lat="44.508135" lon="10.8336817"><ele>167.25</ele><time>2026-05-03T17:03:57.738Z</time></trkpt><trkpt lat="44.5082433" lon="10.8338167"><ele>167.0</ele><time>2026-05-03T17:03:58.739Z</time></trkpt><trkpt lat="44.50837" lon="10.8339283"><ele>167.0</ele><time>2026-05-03T17:03:59.739Z</time></trkpt><trkpt lat="44.5085183" lon="10.83402"><ele>167.0</ele><time>2026-05-03T17:04:00.739Z</time></trkpt><trkpt lat="44.5086633" lon="10.8341133"><ele>167.0</ele><time>2026-05-03T17:04:01.739Z</time></trkpt><trkpt lat="44.5088033" lon="10.8342033"><ele>167.0</ele><time>2026-05-03T17:04:02.739Z</time></trkpt><trkpt lat="44.5089333" lon="10.834295"><ele>167.0</ele><time>2026-05-03T17:04:03.739Z</time></trkpt><trkpt lat="44.5090633" lon="10.8343983"><ele>167.0</ele><time>2026-05-03T17:04:04.739Z</time></trkpt><trkpt lat="44.50918" lon="10.834495"><ele>167.0</ele><time>2026-05-03T17:04:05.739Z</time></trkpt><trkpt lat="44.5092833" lon="10.834595"><ele>166.8</ele><time>2026-05-03T17:04:06.739Z</time></trkpt><trkpt lat="44.5093767" lon="10.83468"><ele>166.6</ele><time>2026-05-03T17:04:07.739Z</time></trkpt><trkpt lat="44.509475" lon="10.834765"><ele>166.4</ele><time>2026-05-03T17:04:08.739Z</time></trkpt><trkpt lat="44.5095617" lon="10.8348467"><ele>166.20000000000002</ele><time>2026-05-03T17:04:09.739Z</time></trkpt><trkpt lat="44.509655" lon="10.834925"><ele>166.0</ele><time>2026-05-03T17:04:10.739Z</time></trkpt><trkpt lat="44.5097383" lon="10.835005"><ele>166.0</ele><time>2026-05-03T17:04:11.739Z</time></trkpt><trkpt lat="44.50981" lon="10.8350683"><ele>166.0</ele><time>2026-05-03T17:04:12.739Z</time></trkpt><trkpt lat="44.5098617" lon="10.8351233"><ele>166.0</ele><time>2026-05-03T17:04:13.739Z</time></trkpt><trkpt lat="44.5099217" lon="10.8352217"><ele>166.0</ele><time>2026-05-03T17:04:15.738Z</time></trkpt><trkpt lat="44.5098317" lon="10.8353083"><ele>166.0</ele><time>2026-05-03T17:04:18.739Z</time></trkpt><trkpt lat="44.5097167" lon="10.8354017"><ele>166.5</ele><time>2026-05-03T17:04:20.739Z</time></trkpt><trkpt lat="44.5096733" lon="10.8354883"><ele>167.0</ele><time>2026-05-03T17:04:21.739Z</time></trkpt><trkpt lat="44.5096383" lon="10.8356033"><ele>167.5</ele><time>2026-05-03T17:04:22.739Z</time></trkpt><trkpt lat="44.5096017" lon="10.8357283"><ele>168.0</ele><time>2026-05-03T17:04:23.738Z</time></trkpt><trkpt lat="44.5095667" lon="10.8358483"><ele>168.5</ele><time>2026-05-03T17:04:24.739Z</time></trkpt><trkpt lat="44.50954" lon="10.8359733"><ele>169.0</ele><time>2026-05-03T17:04:25.739Z</time></trkpt><trkpt lat="44.5095033" lon="10.8361017"><ele>170.39999999999998</ele><time>2026-05-03T17:04:26.739Z</time></trkpt><trkpt lat="44.5094583" lon="10.83624"><ele>171.8</ele><time>2026-05-03T17:04:27.738Z</time></trkpt><trkpt lat="44.5094167" lon="10.8363833"><ele>173.2</ele><time>2026-05-03T17:04:28.739Z</time></trkpt><trkpt lat="44.5093783" lon="10.8365317"><ele>174.60000000000002</ele><time>2026-05-03T17:04:29.739Z</time></trkpt><trkpt lat="44.5093367" lon="10.836685"><ele>176.0</ele><time>2026-05-03T17:04:30.739Z</time></trkpt><trkpt lat="44.5092933" lon="10.8368367"><ele>177.60000000000002</ele><time>2026-05-03T17:04:31.739Z</time></trkpt><trkpt lat="44.5092483" lon="10.8369933"><ele>179.2</ele><time>2026-05-03T17:04:32.739Z</time></trkpt><trkpt lat="44.5092133" lon="10.8371367"><ele>180.8</ele><time>2026-05-03T17:04:33.739Z</time></trkpt><trkpt lat="44.5091817" lon="10.8372767"><ele>182.39999999999998</ele><time>2026-05-03T17:04:34.738Z</time></trkpt><trkpt lat="44.5091633" lon="10.8374217"><ele>184.0</ele><time>2026-05-03T17:04:35.738Z</time></trkpt><trkpt lat="44.50914" lon="10.8375633"><ele>185.39999999999998</ele><time>2026-05-03T17:04:36.739Z</time></trkpt><trkpt lat="44.509105" lon="10.83771"><ele>186.8</ele><time>2026-05-03T17:04:37.739Z</time></trkpt><trkpt lat="44.509075" lon="10.8378567"><ele>188.2</ele><time>2026-05-03T17:04:38.739Z</time></trkpt><trkpt lat="44.50903" lon="10.8380033"><ele>189.60000000000002</ele><time>2026-05-03T17:04:39.739Z</time></trkpt><trkpt lat="44.5089883" lon="10.83815"><ele>191.0</ele><time>2026-05-03T17:04:40.739Z</time></trkpt><trkpt lat="44.508945" lon="10.8383"><ele>191.0</ele><time>2026-05-03T17:04:41.739Z</time></trkpt><trkpt lat="44.508905" lon="10.83844"><ele>191.0</ele><time>2026-05-03T17:04:42.739Z</time></trkpt><trkpt lat="44.5088667" lon="10.8385833"><ele>191.0</ele><time>2026-05-03T17:04:43.739Z</time></trkpt><trkpt lat="44.5088267" lon="10.8387133"><ele>191.0</ele><time>2026-05-03T17:04:44.739Z</time></trkpt><trkpt lat="44.50879" lon="10.8388367"><ele>191.0</ele><time>2026-05-03T17:04:45.738Z</time></trkpt><trkpt lat="44.5087583" lon="10.8389583"><ele>192.60000000000002</ele><time>2026-05-03T17:04:46.739Z</time></trkpt><trkpt lat="44.5087233" lon="10.839075"><ele>194.2</ele><time>2026-05-03T17:04:47.738Z</time></trkpt><trkpt lat="44.5086933" lon="10.8391917"><ele>195.8</ele><time>2026-05-03T17:04:48.737Z</time></trkpt><trkpt lat="44.5086683" lon="10.8393083"><ele>197.39999999999998</ele><time>2026-05-03T17:04:49.738Z</time></trkpt><trkpt lat="44.5086317" lon="10.839445"><ele>199.0</ele><time>2026-05-03T17:04:50.738Z</time></trkpt><trkpt lat="44.5086" lon="10.83958"><ele>201.6</ele><time>2026-05-03T17:04:51.738Z</time></trkpt><trkpt lat="44.50856" lon="10.8397133"><ele>204.2</ele><time>2026-05-03T17:04:52.738Z</time></trkpt><trkpt lat="44.5085167" lon="10.8398517"><ele>206.79999999999998</ele><time>2026-05-03T17:04:53.738Z</time></trkpt><trkpt lat="44.5084767" lon="10.8399917"><ele>209.39999999999998</ele><time>2026-05-03T17:04:54.738Z</time></trkpt><trkpt lat="44.50844" lon="10.8401317"><ele>212.0</ele><time>2026-05-03T17:04:55.738Z</time></trkpt><trkpt lat="44.5084067" lon="10.8402617"><ele>216.2</ele><time>2026-05-03T17:04:56.738Z</time></trkpt><trkpt lat="44.5083717" lon="10.8403667"><ele>220.39999999999998</ele><time>2026-05-03T17:04:57.737Z</time></trkpt><trkpt lat="44.5083383" lon="10.8404617"><ele>224.60000000000002</ele><time>2026-05-03T17:04:58.737Z</time></trkpt><trkpt lat="44.5082567" lon="10.8405933"><ele>228.8</ele><time>2026-05-03T17:05:00.737Z</time></trkpt><trkpt lat="44.5081417" lon="10.8406817"><ele>233.0</ele><time>2026-05-03T17:05:02.738Z</time></trkpt><trkpt lat="44.508065" lon="10.840735"><ele>233.00000000000003</ele><time>2026-05-03T17:05:03.738Z</time></trkpt><trkpt lat="44.5080017" lon="10.8407867"><ele>233.0</ele><time>2026-05-03T17:05:04.738Z</time></trkpt><trkpt lat="44.507945" lon="10.8408467"><ele>233.0</ele><time>2026-05-03T17:05:05.737Z</time></trkpt><trkpt lat="44.5079033" lon="10.8409133"><ele>233.0</ele><time>2026-05-03T17:05:06.738Z</time></trkpt><trkpt lat="44.5079183" lon="10.84105"><ele>233.00000000000003</ele><time>2026-05-03T17:05:08.737Z</time></trkpt><trkpt lat="44.5079733" lon="10.8411167"><ele>233.0</ele><time>2026-05-03T17:05:09.738Z</time></trkpt><trkpt lat="44.5080583" lon="10.841185"><ele>236.2</ele><time>2026-05-03T17:05:10.737Z</time></trkpt><trkpt lat="44.5081633" lon="10.8412333"><ele>239.4</ele><time>2026-05-03T17:05:11.738Z</time></trkpt><trkpt lat="44.5082733" lon="10.84127"><ele>242.59999999999997</ele><time>2026-05-03T17:05:12.738Z</time></trkpt><trkpt lat="44.5083683" lon="10.8413033"><ele>245.79999999999998</ele><time>2026-05-03T17:05:13.738Z</time></trkpt><trkpt lat="44.5084633" lon="10.8413517"><ele>249.0</ele><time>2026-05-03T17:05:14.738Z</time></trkpt><trkpt lat="44.5085417" lon="10.8414217"><ele>249.0</ele><time>2026-05-03T17:05:15.738Z</time></trkpt><trkpt lat="44.5086283" lon="10.8414917"><ele>248.99999999999997</ele><time>2026-05-03T17:05:16.738Z</time></trkpt><trkpt lat="44.5087183" lon="10.8415633"><ele>248.99999999999997</ele><time>2026-05-03T17:05:17.738Z</time></trkpt><trkpt lat="44.50881" lon="10.8416367"><ele>249.0</ele><time>2026-05-03T17:05:18.738Z</time></trkpt><trkpt lat="44.5088933" lon="10.8417017"><ele>249.0</ele><time>2026-05-03T17:05:19.738Z</time></trkpt><trkpt lat="44.5089383" lon="10.8417683"><ele>249.66666666666666</ele><time>2026-05-03T17:05:20.738Z</time></trkpt><trkpt lat="44.5090117" lon="10.841815"><ele>250.33333333333331</ele><time>2026-05-03T17:05:21.738Z</time></trkpt><trkpt lat="44.5090767" lon="10.841875"><ele>251.0</ele><time>2026-05-03T17:05:22.738Z</time></trkpt><trkpt lat="44.5091433" lon="10.841955"><ele>251.66666666666666</ele><time>2026-05-03T17:05:23.738Z</time></trkpt><trkpt lat="44.509195" lon="10.8420333"><ele>252.33333333333331</ele><time>2026-05-03T17:05:24.738Z</time></trkpt><trkpt lat="44.5092367" lon="10.8421067"><ele>253.0</ele><time>2026-05-03T17:05:25.738Z</time></trkpt><trkpt lat="44.509265" lon="10.8421933"><ele>252.99999999999997</ele><time>2026-05-03T17:05:26.738Z</time></trkpt><trkpt lat="44.5092983" lon="10.84228"><ele>253.0</ele><time>2026-05-03T17:05:27.738Z</time></trkpt><trkpt lat="44.5093117" lon="10.8423667"><ele>253.0</ele><time>2026-05-03T17:05:28.738Z</time></trkpt><trkpt lat="44.5093167" lon="10.84247"><ele>253.0</ele><time>2026-05-03T17:05:29.737Z</time></trkpt><trkpt lat="44.5093167" lon="10.8425833"><ele>252.99999999999997</ele><time>2026-05-03T17:05:30.738Z</time></trkpt><trkpt lat="44.5093067" lon="10.8426933"><ele>253.0</ele><time>2026-05-03T17:05:31.737Z</time></trkpt><trkpt lat="44.5093017" lon="10.842815"><ele>254.99999999999997</ele><time>2026-05-03T17:05:32.737Z</time></trkpt><trkpt lat="44.5093067" lon="10.8429267"><ele>257.0</ele><time>2026-05-03T17:05:33.738Z</time></trkpt><trkpt lat="44.5093217" lon="10.8430317"><ele>259.0</ele><time>2026-05-03T17:05:34.738Z</time></trkpt><trkpt lat="44.5093217" lon="10.84313"><ele>261.0</ele><time>2026-05-03T17:05:35.738Z</time></trkpt><trkpt lat="44.5093267" lon="10.8432333"><ele>263.0</ele><time>2026-05-03T17:05:36.738Z</time></trkpt><trkpt lat="44.509325" lon="10.84334"><ele>265.0</ele><time>2026-05-03T17:05:37.738Z</time></trkpt><trkpt lat="44.50933" lon="10.84346"><ele>266.3333333333333</ele><time>2026-05-03T17:05:38.737Z</time></trkpt><trkpt lat="44.5093383" lon="10.8435767"><ele>267.66666666666663</ele><time>2026-05-03T17:05:39.737Z</time></trkpt><trkpt lat="44.5093517" lon="10.8436917"><ele>269.0</ele><time>2026-05-03T17:05:40.737Z</time></trkpt><trkpt lat="44.5093717" lon="10.84381"><ele>270.3333333333333</ele><time>2026-05-03T17:05:41.737Z</time></trkpt><trkpt lat="44.50939" lon="10.8439283"><ele>271.6666666666667</ele><time>2026-05-03T17:05:42.738Z</time></trkpt><trkpt lat="44.5094083" lon="10.8440633"><ele>273.0</ele><time>2026-05-03T17:05:43.738Z</time></trkpt><trkpt lat="44.5094233" lon="10.8441867"><ele>273.0</ele><time>2026-05-03T17:05:44.738Z</time></trkpt><trkpt lat="44.50944" lon="10.8442783"><ele>273.0</ele><time>2026-05-03T17:05:45.737Z</time></trkpt><trkpt lat="44.5094617" lon="10.8443883"><ele>273.0</ele><time>2026-05-03T17:05:47.738Z</time></trkpt><trkpt lat="44.5095167" lon="10.8445133"><ele>273.0</ele><time>2026-05-03T17:05:54.737Z</time></trkpt><trkpt lat="44.509615" lon="10.844575"><ele>273.0</ele><time>2026-05-03T17:05:56.738Z</time></trkpt><trkpt lat="44.50968" lon="10.8446183"><ele>273.0</ele><time>2026-05-03T17:05:57.738Z</time></trkpt><trkpt lat="44.5097567" lon="10.844665"><ele>272.2</ele><time>2026-05-03T17:05:58.737Z</time></trkpt><trkpt lat="44.5098417" lon="10.844705"><ele>271.4</ele><time>2026-05-03T17:05:59.737Z</time></trkpt><trkpt lat="44.50994" lon="10.8447367"><ele>270.59999999999997</ele><time>2026-05-03T17:06:00.738Z</time></trkpt><trkpt lat="44.5100383" lon="10.8447617"><ele>269.8</ele><time>2026-05-03T17:06:01.738Z</time></trkpt><trkpt lat="44.5101383" lon="10.84476"><ele>269.0</ele><time>2026-05-03T17:06:02.738Z</time></trkpt><trkpt lat="44.5102417" lon="10.8447483"><ele>269.0</ele><time>2026-05-03T17:06:03.738Z</time></trkpt><trkpt lat="44.51034" lon="10.84472"><ele>269.0</ele><time>2026-05-03T17:06:04.737Z</time></trkpt><trkpt lat="44.5104383" lon="10.8446733"><ele>269.0</ele><time>2026-05-03T17:06:05.738Z</time></trkpt><trkpt lat="44.5105367" lon="10.84464"><ele>269.0</ele><time>2026-05-03T17:06:06.738Z</time></trkpt><trkpt lat="44.5106367" lon="10.8446167"><ele>269.0</ele><time>2026-05-03T17:06:07.738Z</time></trkpt><trkpt lat="44.5107333" lon="10.8446"><ele>268.33333333333337</ele><time>2026-05-03T17:06:08.738Z</time></trkpt><trkpt lat="44.5108267" lon="10.844595"><ele>267.6666666666667</ele><time>2026-05-03T17:06:09.738Z</time></trkpt><trkpt lat="44.5109217" lon="10.8445883"><ele>267.0</ele><time>2026-05-03T17:06:10.738Z</time></trkpt><trkpt lat="44.5110067" lon="10.8445967"><ele>266.3333333333333</ele><time>2026-05-03T17:06:11.738Z</time></trkpt><trkpt lat="44.511075" lon="10.8446233"><ele>265.66666666666663</ele><time>2026-05-03T17:06:12.738Z</time></trkpt><trkpt lat="44.5111367" lon="10.8446867"><ele>265.0</ele><time>2026-05-03T17:06:13.738Z</time></trkpt><trkpt lat="44.5111767" lon="10.84478"><ele>265.0</ele><time>2026-05-03T17:06:14.738Z</time></trkpt><trkpt lat="44.5111983" lon="10.8448867"><ele>265.0</ele><time>2026-05-03T17:06:15.738Z</time></trkpt><trkpt lat="44.5112017" lon="10.8450067"><ele>265.0</ele><time>2026-05-03T17:06:16.738Z</time></trkpt><trkpt lat="44.51118" lon="10.8451433"><ele>265.0</ele><time>2026-05-03T17:06:17.738Z</time></trkpt><trkpt lat="44.511145" lon="10.845285"><ele>265.0</ele><time>2026-05-03T17:06:18.737Z</time></trkpt><trkpt lat="44.5111217" lon="10.845425"><ele>263.4</ele><time>2026-05-03T17:06:19.737Z</time></trkpt><trkpt lat="44.51109" lon="10.84557"><ele>261.8</ele><time>2026-05-03T17:06:20.737Z</time></trkpt><trkpt lat="44.5110617" lon="10.84571"><ele>260.2</ele><time>2026-05-03T17:06:21.738Z</time></trkpt><trkpt lat="44.51103" lon="10.8458567"><ele>258.6</ele><time>2026-05-03T17:06:22.738Z</time></trkpt><trkpt lat="44.5109767" lon="10.84598"><ele>257.0</ele><time>2026-05-03T17:06:23.738Z</time></trkpt><trkpt lat="44.5109" lon="10.8460883"><ele>254.39999999999998</ele><time>2026-05-03T17:06:24.738Z</time></trkpt><trkpt lat="44.5108117" lon="10.8461717"><ele>251.79999999999998</ele><time>2026-05-03T17:06:25.738Z</time></trkpt><trkpt lat="44.5107167" lon="10.8462217"><ele>249.2</ele><time>2026-05-03T17:06:26.738Z</time></trkpt><trkpt lat="44.5106117" lon="10.8462317"><ele>246.6</ele><time>2026-05-03T17:06:27.737Z</time></trkpt><trkpt lat="44.5105" lon="10.84621"><ele>244.0</ele><time>2026-05-03T17:06:28.738Z</time></trkpt><trkpt lat="44.510385" lon="10.8461717"><ele>242.5</ele><time>2026-05-03T17:06:29.738Z</time></trkpt><trkpt lat="44.5102717" lon="10.84612"><ele>241.0</ele><time>2026-05-03T17:06:30.738Z</time></trkpt><trkpt lat="44.5101517" lon="10.84609"><ele>239.5</ele><time>2026-05-03T17:06:31.738Z</time></trkpt><trkpt lat="44.5100467" lon="10.8460483"><ele>238.0</ele><time>2026-05-03T17:06:32.738Z</time></trkpt><trkpt lat="44.5099417" lon="10.8459983"><ele>237.2</ele><time>2026-05-03T17:06:33.738Z</time></trkpt><trkpt lat="44.509845" lon="10.845945"><ele>236.4</ele><time>2026-05-03T17:06:34.738Z</time></trkpt><trkpt lat="44.5097533" lon="10.8459"><ele>235.59999999999997</ele><time>2026-05-03T17:06:35.738Z</time></trkpt><trkpt lat="44.5096833" lon="10.8458683"><ele>234.79999999999998</ele><time>2026-05-03T17:06:36.738Z</time></trkpt><trkpt lat="44.5095733" lon="10.8459033"><ele>234.0</ele><time>2026-05-03T17:06:38.738Z</time></trkpt><trkpt lat="44.5095733" lon="10.8460933"><ele>234.79999999999998</ele><time>2026-05-03T17:06:40.738Z</time></trkpt><trkpt lat="44.5096367" lon="10.8461883"><ele>235.59999999999997</ele><time>2026-05-03T17:06:41.738Z</time></trkpt><trkpt lat="44.5097267" lon="10.8462717"><ele>236.4</ele><time>2026-05-03T17:06:42.738Z</time></trkpt><trkpt lat="44.5098217" lon="10.8463417"><ele>237.2</ele><time>2026-05-03T17:06:43.738Z</time></trkpt><trkpt lat="44.5099117" lon="10.846415"><ele>238.0</ele><time>2026-05-03T17:06:44.738Z</time></trkpt><trkpt lat="44.5100117" lon="10.8464933"><ele>238.0</ele><time>2026-05-03T17:06:45.738Z</time></trkpt><trkpt lat="44.5101117" lon="10.846575"><ele>238.0</ele><time>2026-05-03T17:06:46.737Z</time></trkpt><trkpt lat="44.5102083" lon="10.8466717"><ele>238.0</ele><time>2026-05-03T17:06:47.738Z</time></trkpt><trkpt lat="44.5103083" lon="10.8467633"><ele>238.0</ele><time>2026-05-03T17:06:48.738Z</time></trkpt><trkpt lat="44.5104067" lon="10.84687"><ele>235.75</ele><time>2026-05-03T17:06:49.738Z</time></trkpt><trkpt lat="44.5105117" lon="10.8469733"><ele>233.5</ele><time>2026-05-03T17:06:50.738Z</time></trkpt><trkpt lat="44.5106283" lon="10.8470767"><ele>231.25</ele><time>2026-05-03T17:06:51.737Z</time></trkpt><trkpt lat="44.510745" lon="10.84718"><ele>229.0</ele><time>2026-05-03T17:06:52.738Z</time></trkpt><trkpt lat="44.51086" lon="10.847285"><ele>229.0</ele><time>2026-05-03T17:06:53.737Z</time></trkpt><trkpt lat="44.5109783" lon="10.8473833"><ele>229.0</ele><time>2026-05-03T17:06:54.738Z</time></trkpt><trkpt lat="44.511095" lon="10.8474933"><ele>229.0</ele><time>2026-05-03T17:06:55.738Z</time></trkpt><trkpt lat="44.5112117" lon="10.8476033"><ele>229.0</ele><time>2026-05-03T17:06:56.738Z</time></trkpt><trkpt lat="44.511325" lon="10.847715"><ele>226.5</ele><time>2026-05-03T17:06:57.738Z</time></trkpt><trkpt lat="44.511435" lon="10.8478317"><ele>224.0</ele><time>2026-05-03T17:06:58.738Z</time></trkpt><trkpt lat="44.5115333" lon="10.8479683"><ele>221.5</ele><time>2026-05-03T17:06:59.738Z</time></trkpt><trkpt lat="44.5116317" lon="10.8481133"><ele>219.0</ele><time>2026-05-03T17:07:00.738Z</time></trkpt><trkpt lat="44.5117217" lon="10.8482667"><ele>219.0</ele><time>2026-05-03T17:07:01.738Z</time></trkpt><trkpt lat="44.5118083" lon="10.8484183"><ele>219.0</ele><time>2026-05-03T17:07:02.737Z</time></trkpt><trkpt lat="44.51189" lon="10.848555"><ele>219.0</ele><time>2026-05-03T17:07:03.738Z</time></trkpt><trkpt lat="44.5119783" lon="10.8486717"><ele>219.0</ele><time>2026-05-03T17:07:04.738Z</time></trkpt><trkpt lat="44.5120833" lon="10.8487617"><ele>218.25</ele><time>2026-05-03T17:07:05.738Z</time></trkpt><trkpt lat="44.5122183" lon="10.848835"><ele>217.5</ele><time>2026-05-03T17:07:06.738Z</time></trkpt><trkpt lat="44.5123467" lon="10.8488917"><ele>216.75</ele><time>2026-05-03T17:07:07.737Z</time></trkpt><trkpt lat="44.5124917" lon="10.8489417"><ele>216.0</ele><time>2026-05-03T17:07:08.738Z</time></trkpt><trkpt lat="44.5126367" lon="10.8489833"><ele>216.0</ele><time>2026-05-03T17:07:09.738Z</time></trkpt><trkpt lat="44.5127767" lon="10.8490417"><ele>216.0</ele><time>2026-05-03T17:07:10.738Z</time></trkpt><trkpt lat="44.5129267" lon="10.8491033"><ele>216.0</ele><time>2026-05-03T17:07:11.738Z</time></trkpt><trkpt lat="44.5130683" lon="10.8491717"><ele>212.66666666666669</ele><time>2026-05-03T17:07:12.737Z</time></trkpt><trkpt lat="44.5132083" lon="10.8492333"><ele>209.33333333333334</ele><time>2026-05-03T17:07:13.738Z</time></trkpt><trkpt lat="44.513355" lon="10.8492967"><ele>206.0</ele><time>2026-05-03T17:07:14.737Z</time></trkpt><trkpt lat="44.5135017" lon="10.84936"><ele>205.0</ele><time>2026-05-03T17:07:15.738Z</time></trkpt><trkpt lat="44.5136417" lon="10.8494117"><ele>204.0</ele><time>2026-05-03T17:07:16.738Z</time></trkpt><trkpt lat="44.51378" lon="10.84947"><ele>203.0</ele><time>2026-05-03T17:07:17.737Z</time></trkpt><trkpt lat="44.5139233" lon="10.8495283"><ele>202.0</ele><time>2026-05-03T17:07:18.738Z</time></trkpt><trkpt lat="44.5140683" lon="10.849585"><ele>200.66666666666666</ele><time>2026-05-03T17:07:19.738Z</time></trkpt><trkpt lat="44.5142183" lon="10.8496467"><ele>199.33333333333331</ele><time>2026-05-03T17:07:20.738Z</time></trkpt><trkpt lat="44.5143683" lon="10.84971"><ele>198.0</ele><time>2026-05-03T17:07:21.738Z</time></trkpt><trkpt lat="44.514525" lon="10.8497633"><ele>197.33333333333331</ele><time>2026-05-03T17:07:22.738Z</time></trkpt><trkpt lat="44.5146767" lon="10.8498167"><ele>196.66666666666666</ele><time>2026-05-03T17:07:23.738Z</time></trkpt><trkpt lat="44.5148283" lon="10.8498733"><ele>196.0</ele><time>2026-05-03T17:07:24.738Z</time></trkpt><trkpt lat="44.5149733" lon="10.84993"><ele>196.0</ele><time>2026-05-03T17:07:25.737Z</time></trkpt><trkpt lat="44.5151283" lon="10.8499767"><ele>196.0</ele><time>2026-05-03T17:07:26.738Z</time></trkpt><trkpt lat="44.5152883" lon="10.8500433"><ele>196.0</ele><time>2026-05-03T17:07:27.738Z</time></trkpt><trkpt lat="44.5154283" lon="10.850105"><ele>194.75</ele><time>2026-05-03T17:07:28.738Z</time></trkpt><trkpt lat="44.515575" lon="10.8501567"><ele>193.5</ele><time>2026-05-03T17:07:29.737Z</time></trkpt><trkpt lat="44.515715" lon="10.8502067"><ele>192.25</ele><time>2026-05-03T17:07:30.738Z</time></trkpt><trkpt lat="44.5158583" lon="10.8502633"><ele>191.0</ele><time>2026-05-03T17:07:31.738Z</time></trkpt><trkpt lat="44.5160017" lon="10.85032"><ele>191.0</ele><time>2026-05-03T17:07:32.738Z</time></trkpt><trkpt lat="44.5161317" lon="10.8503933"><ele>191.0</ele><time>2026-05-03T17:07:33.737Z</time></trkpt><trkpt lat="44.516265" lon="10.85047"><ele>191.0</ele><time>2026-05-03T17:07:34.737Z</time></trkpt><trkpt lat="44.5163867" lon="10.8505733"><ele>191.0</ele><time>2026-05-03T17:07:35.737Z</time></trkpt><trkpt lat="44.5165133" lon="10.8506633"><ele>190.5</ele><time>2026-05-03T17:07:36.737Z</time></trkpt><trkpt lat="44.5166383" lon="10.85076"><ele>190.0</ele><time>2026-05-03T17:07:37.738Z</time></trkpt><trkpt lat="44.5167583" lon="10.8508633"><ele>189.5</ele><time>2026-05-03T17:07:38.738Z</time></trkpt><trkpt lat="44.5168767" lon="10.8509483"><ele>189.0</ele><time>2026-05-03T17:07:39.738Z</time></trkpt><trkpt lat="44.516985" lon="10.8510467"><ele>187.25</ele><time>2026-05-03T17:07:40.737Z</time></trkpt><trkpt lat="44.5170867" lon="10.85115"><ele>185.5</ele><time>2026-05-03T17:07:41.738Z</time></trkpt><trkpt lat="44.51717" lon="10.85128"><ele>183.75</ele><time>2026-05-03T17:07:42.737Z</time></trkpt><trkpt lat="44.5172467" lon="10.85143"><ele>182.0</ele><time>2026-05-03T17:07:43.738Z</time></trkpt><trkpt lat="44.51733" lon="10.8515783"><ele>182.0</ele><time>2026-05-03T17:07:44.738Z</time></trkpt><trkpt lat="44.5174267" lon="10.851725"><ele>182.0</ele><time>2026-05-03T17:07:45.738Z</time></trkpt><trkpt lat="44.5175333" lon="10.851865"><ele>182.0</ele><time>2026-05-03T17:07:46.737Z</time></trkpt><trkpt lat="44.5176333" lon="10.8520083"><ele>182.0</ele><time>2026-05-03T17:07:47.738Z</time></trkpt><trkpt lat="44.5177333" lon="10.8521533"><ele>180.0</ele><time>2026-05-03T17:07:48.737Z</time></trkpt><trkpt lat="44.5178283" lon="10.85231"><ele>178.0</ele><time>2026-05-03T17:07:49.738Z</time></trkpt><trkpt lat="44.5179267" lon="10.8524767"><ele>176.0</ele><time>2026-05-03T17:07:50.738Z</time></trkpt><trkpt lat="44.5180083" lon="10.8526317"><ele>174.0</ele><time>2026-05-03T17:07:51.738Z</time></trkpt><trkpt lat="44.5180983" lon="10.8527633"><ele>171.25</ele><time>2026-05-03T17:07:52.738Z</time></trkpt><trkpt lat="44.51819" lon="10.85288"><ele>168.5</ele><time>2026-05-03T17:07:53.737Z</time></trkpt><trkpt lat="44.5183033" lon="10.8529583"><ele>165.75</ele><time>2026-05-03T17:07:54.737Z</time></trkpt><trkpt lat="44.5184267" lon="10.8530333"><ele>163.0</ele><time>2026-05-03T17:07:55.738Z</time></trkpt><trkpt lat="44.5185483" lon="10.8531117"><ele>163.0</ele><time>2026-05-03T17:07:56.738Z</time></trkpt><trkpt lat="44.518655" lon="10.8531933"><ele>163.0</ele><time>2026-05-03T17:07:57.738Z</time></trkpt><trkpt lat="44.5187533" lon="10.8533"><ele>163.0</ele><time>2026-05-03T17:07:58.738Z</time></trkpt><trkpt lat="44.5188183" lon="10.8534367"><ele>163.0</ele><time>2026-05-03T17:07:59.738Z</time></trkpt><trkpt lat="44.5188567" lon="10.85359"><ele>161.5</ele><time>2026-05-03T17:08:00.738Z</time></trkpt><trkpt lat="44.5188783" lon="10.85376"><ele>160.0</ele><time>2026-05-03T17:08:01.737Z</time></trkpt><trkpt lat="44.5189" lon="10.8539483"><ele>158.5</ele><time>2026-05-03T17:08:02.738Z</time></trkpt><trkpt lat="44.5189233" lon="10.8541383"><ele>157.0</ele><time>2026-05-03T17:08:03.738Z</time></trkpt><trkpt lat="44.5189467" lon="10.8543333"><ele>155.75</ele><time>2026-05-03T17:08:04.738Z</time></trkpt><trkpt lat="44.5189767" lon="10.8545233"><ele>154.5</ele><time>2026-05-03T17:08:05.738Z</time></trkpt><trkpt lat="44.5189983" lon="10.854705"><ele>153.25</ele><time>2026-05-03T17:08:06.738Z</time></trkpt><trkpt lat="44.51903" lon="10.8548833"><ele>152.0</ele><time>2026-05-03T17:08:07.738Z</time></trkpt><trkpt lat="44.5190867" lon="10.8550533"><ele>150.75</ele><time>2026-05-03T17:08:08.737Z</time></trkpt><trkpt lat="44.5191683" lon="10.8552033"><ele>149.5</ele><time>2026-05-03T17:08:09.737Z</time></trkpt><trkpt lat="44.519265" lon="10.8553367"><ele>148.25</ele><time>2026-05-03T17:08:10.738Z</time></trkpt><trkpt lat="44.5193667" lon="10.8554633"><ele>147.0</ele><time>2026-05-03T17:08:11.738Z</time></trkpt><trkpt lat="44.5194617" lon="10.8555983"><ele>147.0</ele><time>2026-05-03T17:08:12.737Z</time></trkpt><trkpt lat="44.5195517" lon="10.855735"><ele>147.0</ele><time>2026-05-03T17:08:13.738Z</time></trkpt><trkpt lat="44.5196417" lon="10.8558717"><ele>147.0</ele><time>2026-05-03T17:08:14.738Z</time></trkpt><trkpt lat="44.5197383" lon="10.8560083"><ele>147.0</ele><time>2026-05-03T17:08:15.738Z</time></trkpt><trkpt lat="44.5198367" lon="10.8561433"><ele>146.75</ele><time>2026-05-03T17:08:16.737Z</time></trkpt><trkpt lat="44.51995" lon="10.85626"><ele>146.5</ele><time>2026-05-03T17:08:17.738Z</time></trkpt><trkpt lat="44.5200817" lon="10.856345"><ele>146.25</ele><time>2026-05-03T17:08:18.737Z</time></trkpt><trkpt lat="44.52022" lon="10.8563917"><ele>146.0</ele><time>2026-05-03T17:08:19.738Z</time></trkpt><trkpt lat="44.5203617" lon="10.8564033"><ele>146.0</ele><time>2026-05-03T17:08:20.738Z</time></trkpt><trkpt lat="44.5205083" lon="10.856395"><ele>146.0</ele><time>2026-05-03T17:08:21.737Z</time></trkpt><trkpt lat="44.520655" lon="10.85638"><ele>146.0</ele><time>2026-05-03T17:08:22.738Z</time></trkpt><trkpt lat="44.5208017" lon="10.8563717"><ele>146.0</ele><time>2026-05-03T17:08:23.738Z</time></trkpt><trkpt lat="44.520945" lon="10.8563833"><ele>146.0</ele><time>2026-05-03T17:08:24.737Z</time></trkpt><trkpt lat="44.5210933" lon="10.8564183"><ele>146.0</ele><time>2026-05-03T17:08:25.738Z</time></trkpt><trkpt lat="44.5212317" lon="10.8564767"><ele>146.0</ele><time>2026-05-03T17:08:26.738Z</time></trkpt><trkpt lat="44.521365" lon="10.856555"><ele>146.0</ele><time>2026-05-03T17:08:27.738Z</time></trkpt><trkpt lat="44.5215017" lon="10.8566417"><ele>146.25</ele><time>2026-05-03T17:08:28.738Z</time></trkpt><trkpt lat="44.5216333" lon="10.8567233"><ele>146.5</ele><time>2026-05-03T17:08:29.737Z</time></trkpt><trkpt lat="44.521765" lon="10.856825"><ele>146.75</ele><time>2026-05-03T17:08:30.738Z</time></trkpt><trkpt lat="44.52189" lon="10.8569233"><ele>147.0</ele><time>2026-05-03T17:08:31.738Z</time></trkpt><trkpt lat="44.5220167" lon="10.85701"><ele>146.25</ele><time>2026-05-03T17:08:32.737Z</time></trkpt><trkpt lat="44.5221583" lon="10.8570817"><ele>145.5</ele><time>2026-05-03T17:08:33.738Z</time></trkpt><trkpt lat="44.5222983" lon="10.8571667"><ele>144.75</ele><time>2026-05-03T17:08:34.738Z</time></trkpt><trkpt lat="44.5224317" lon="10.85723"><ele>144.0</ele><time>2026-05-03T17:08:35.738Z</time></trkpt><trkpt lat="44.5225617" lon="10.8572833"><ele>144.0</ele><time>2026-05-03T17:08:36.738Z</time></trkpt><trkpt lat="44.5226783" lon="10.85733"><ele>144.0</ele><time>2026-05-03T17:08:37.738Z</time></trkpt><trkpt lat="44.52279" lon="10.857355"><ele>144.0</ele><time>2026-05-03T17:08:38.738Z</time></trkpt><trkpt lat="44.5229067" lon="10.8573567"><ele>144.0</ele><time>2026-05-03T17:08:39.737Z</time></trkpt><trkpt lat="44.523" lon="10.8573583"><ele>144.0</ele><time>2026-05-03T17:08:40.737Z</time></trkpt><trkpt lat="44.5231" lon="10.85735"><ele>143.6</ele><time>2026-05-03T17:08:41.738Z</time></trkpt><trkpt lat="44.5232" lon="10.8573467"><ele>143.2</ele><time>2026-05-03T17:08:42.737Z</time></trkpt><trkpt lat="44.5233067" lon="10.857345"><ele>142.79999999999998</ele><time>2026-05-03T17:08:43.738Z</time></trkpt><trkpt lat="44.5234183" lon="10.8573217"><ele>142.4</ele><time>2026-05-03T17:08:44.738Z</time></trkpt><trkpt lat="44.5235317" lon="10.8573033"><ele>142.0</ele><time>2026-05-03T17:08:45.738Z</time></trkpt><trkpt lat="44.52365" lon="10.8572833"><ele>142.5</ele><time>2026-05-03T17:08:46.738Z</time></trkpt><trkpt lat="44.5237767" lon="10.85728"><ele>143.0</ele><time>2026-05-03T17:08:47.737Z</time></trkpt><trkpt lat="44.5239133" lon="10.857245"><ele>143.5</ele><time>2026-05-03T17:08:48.738Z</time></trkpt><trkpt lat="44.5240533" lon="10.8572217"><ele>144.0</ele><time>2026-05-03T17:08:49.738Z</time></trkpt><trkpt lat="44.5241933" lon="10.857195"><ele>144.0</ele><time>2026-05-03T17:08:50.738Z</time></trkpt><trkpt lat="44.5243367" lon="10.857175"><ele>144.0</ele><time>2026-05-03T17:08:51.738Z</time></trkpt><trkpt lat="44.524485" lon="10.8571483"><ele>144.0</ele><time>2026-05-03T17:08:52.738Z</time></trkpt><trkpt lat="44.5246383" lon="10.8571117"><ele>144.0</ele><time>2026-05-03T17:08:53.738Z</time></trkpt><trkpt lat="44.524795" lon="10.8570883"><ele>143.0</ele><time>2026-05-03T17:08:54.738Z</time></trkpt><trkpt lat="44.5249517" lon="10.8570517"><ele>142.0</ele><time>2026-05-03T17:08:55.738Z</time></trkpt><trkpt lat="44.5251117" lon="10.85703"><ele>141.0</ele><time>2026-05-03T17:08:56.737Z</time></trkpt><trkpt lat="44.5252617" lon="10.85703"><ele>141.0</ele><time>2026-05-03T17:08:57.737Z</time></trkpt><trkpt lat="44.5254267" lon="10.85703"><ele>141.0</ele><time>2026-05-03T17:08:58.738Z</time></trkpt><trkpt lat="44.52559" lon="10.8570433"><ele>141.0</ele><time>2026-05-03T17:08:59.738Z</time></trkpt><trkpt lat="44.5257567" lon="10.8570583"><ele>141.0</ele><time>2026-05-03T17:09:00.738Z</time></trkpt><trkpt lat="44.525925" lon="10.85708"><ele>141.0</ele><time>2026-05-03T17:09:01.737Z</time></trkpt><trkpt lat="44.52609" lon="10.8571117"><ele>141.0</ele><time>2026-05-03T17:09:02.737Z</time></trkpt><trkpt lat="44.52626" lon="10.8571467"><ele>140.33333333333334</ele><time>2026-05-03T17:09:03.738Z</time></trkpt><trkpt lat="44.52643" lon="10.8571817"><ele>139.66666666666669</ele><time>2026-05-03T17:09:04.738Z</time></trkpt><trkpt lat="44.5265917" lon="10.857225"><ele>139.0</ele><time>2026-05-03T17:09:05.738Z</time></trkpt><trkpt lat="44.52676" lon="10.8572733"><ele>139.0</ele><time>2026-05-03T17:09:06.738Z</time></trkpt><trkpt lat="44.5269283" lon="10.8573267"><ele>139.0</ele><time>2026-05-03T17:09:07.738Z</time></trkpt><trkpt lat="44.5270883" lon="10.8573733"><ele>139.0</ele><time>2026-05-03T17:09:08.738Z</time></trkpt><trkpt lat="44.527245" lon="10.8574133"><ele>138.5</ele><time>2026-05-03T17:09:09.737Z</time></trkpt><trkpt lat="44.527395" lon="10.85744"><ele>138.0</ele><time>2026-05-03T17:09:10.738Z</time></trkpt><trkpt lat="44.5275467" lon="10.85747"><ele>137.5</ele><time>2026-05-03T17:09:11.738Z</time></trkpt><trkpt lat="44.5276883" lon="10.8574967"><ele>137.0</ele><time>2026-05-03T17:09:12.737Z</time></trkpt><trkpt lat="44.527815" lon="10.8575183"><ele>137.0</ele><time>2026-05-03T17:09:13.738Z</time></trkpt><trkpt lat="44.5279317" lon="10.8575367"><ele>137.0</ele><time>2026-05-03T17:09:14.737Z</time></trkpt><trkpt lat="44.5280383" lon="10.8575667"><ele>137.0</ele><time>2026-05-03T17:09:15.738Z</time></trkpt><trkpt lat="44.5281317" lon="10.8575933"><ele>137.0</ele><time>2026-05-03T17:09:16.738Z</time></trkpt><trkpt lat="44.5282083" lon="10.8576117"><ele>137.0</ele><time>2026-05-03T17:09:17.738Z</time></trkpt><trkpt lat="44.5283233" lon="10.857675"><ele>137.0</ele><time>2026-05-03T17:09:19.738Z</time></trkpt><trkpt lat="44.5284167" lon="10.857735"><ele>137.0</ele><time>2026-05-03T17:09:21.737Z</time></trkpt><trkpt lat="44.528495" lon="10.85767"><ele>137.0</ele><time>2026-05-03T17:09:23.737Z</time></trkpt><trkpt lat="44.52852" lon="10.857585"><ele>137.0</ele><time>2026-05-03T17:09:24.737Z</time></trkpt><trkpt lat="44.5285383" lon="10.857455"><ele>137.0</ele><time>2026-05-03T17:09:25.738Z</time></trkpt><trkpt lat="44.5285517" lon="10.85732"><ele>137.0</ele><time>2026-05-03T17:09:26.738Z</time></trkpt><trkpt lat="44.5285833" lon="10.8571617"><ele>137.0</ele><time>2026-05-03T17:09:27.738Z</time></trkpt><trkpt lat="44.5286133" lon="10.8570117"><ele>137.0</ele><time>2026-05-03T17:09:28.738Z</time></trkpt><trkpt lat="44.52864" lon="10.85684"><ele>137.0</ele><time>2026-05-03T17:09:29.738Z</time></trkpt><trkpt lat="44.5286717" lon="10.8566683"><ele>137.0</ele><time>2026-05-03T17:09:30.738Z</time></trkpt><trkpt lat="44.528705" lon="10.8564967"><ele>137.0</ele><time>2026-05-03T17:09:31.738Z</time></trkpt><trkpt lat="44.528735" lon="10.856325"><ele>137.0</ele><time>2026-05-03T17:09:32.738Z</time></trkpt><trkpt lat="44.528765" lon="10.8561467"><ele>137.0</ele><time>2026-05-03T17:09:33.737Z</time></trkpt><trkpt lat="44.5287967" lon="10.85598"><ele>135.5</ele><time>2026-05-03T17:09:34.738Z</time></trkpt><trkpt lat="44.5288317" lon="10.85582"><ele>134.0</ele><time>2026-05-03T17:09:35.738Z</time></trkpt><trkpt lat="44.5288683" lon="10.85566"><ele>132.5</ele><time>2026-05-03T17:09:36.738Z</time></trkpt><trkpt lat="44.5289017" lon="10.8555033"><ele>131.0</ele><time>2026-05-03T17:09:37.737Z</time></trkpt><trkpt lat="44.52895" lon="10.8553567"><ele>131.0</ele><time>2026-05-03T17:09:38.738Z</time></trkpt><trkpt lat="44.52899" lon="10.8552183"><ele>131.0</ele><time>2026-05-03T17:09:39.738Z</time></trkpt><trkpt lat="44.5290317" lon="10.8551017"><ele>131.0</ele><time>2026-05-03T17:09:40.738Z</time></trkpt><trkpt lat="44.5290733" lon="10.855005"><ele>131.0</ele><time>2026-05-03T17:09:41.738Z</time></trkpt><trkpt lat="44.5291183" lon="10.85493"><ele>131.0</ele><time>2026-05-03T17:09:42.738Z</time></trkpt><trkpt lat="44.5291867" lon="10.8548817"><ele>131.0</ele><time>2026-05-03T17:09:43.738Z</time></trkpt><trkpt lat="44.52926" lon="10.854865"><ele>131.0</ele><time>2026-05-03T17:09:44.737Z</time></trkpt><trkpt lat="44.5293467" lon="10.8548917"><ele>131.0</ele><time>2026-05-03T17:09:45.737Z</time></trkpt><trkpt lat="44.52944" lon="10.8549433"><ele>131.0</ele><time>2026-05-03T17:09:46.738Z</time></trkpt><trkpt lat="44.5295467" lon="10.8549967"><ele>131.0</ele><time>2026-05-03T17:09:47.737Z</time></trkpt><trkpt lat="44.5296583" lon="10.8550567"><ele>131.0</ele><time>2026-05-03T17:09:48.737Z</time></trkpt><trkpt lat="44.529775" lon="10.8551133"><ele>130.5</ele><time>2026-05-03T17:09:49.738Z</time></trkpt><trkpt lat="44.529895" lon="10.855165"><ele>130.0</ele><time>2026-05-03T17:09:50.737Z</time></trkpt><trkpt lat="44.53002" lon="10.8552117"><ele>129.5</ele><time>2026-05-03T17:09:51.738Z</time></trkpt><trkpt lat="44.5301383" lon="10.8552683"><ele>129.0</ele><time>2026-05-03T17:09:52.737Z</time></trkpt><trkpt lat="44.5302567" lon="10.8553283"><ele>129.0</ele><time>2026-05-03T17:09:53.738Z</time></trkpt><trkpt lat="44.530375" lon="10.855385"><ele>129.0</ele><time>2026-05-03T17:09:54.738Z</time></trkpt><trkpt lat="44.5304967" lon="10.855445"><ele>129.0</ele><time>2026-05-03T17:09:55.738Z</time></trkpt><trkpt lat="44.5306167" lon="10.855525"><ele>129.0</ele><time>2026-05-03T17:09:56.738Z</time></trkpt><trkpt lat="44.5307167" lon="10.855625"><ele>129.0</ele><time>2026-05-03T17:09:57.738Z</time></trkpt><trkpt lat="44.5308117" lon="10.85572"><ele>129.0</ele><time>2026-05-03T17:09:58.737Z</time></trkpt><trkpt lat="44.5308933" lon="10.8558167"><ele>129.0</ele><time>2026-05-03T17:09:59.738Z</time></trkpt><trkpt lat="44.5309733" lon="10.8559017"><ele>129.0</ele><time>2026-05-03T17:10:00.738Z</time></trkpt><trkpt lat="44.5310317" lon="10.8559867"><ele>129.0</ele><time>2026-05-03T17:10:01.738Z</time></trkpt><trkpt lat="44.531065" lon="10.8560883"><ele>129.0</ele><time>2026-05-03T17:10:02.738Z</time></trkpt><trkpt lat="44.53107" lon="10.8562033"><ele>129.0</ele><time>2026-05-03T17:10:03.738Z</time></trkpt><trkpt lat="44.53104" lon="10.8563217"><ele>129.0</ele><time>2026-05-03T17:10:04.738Z</time></trkpt><trkpt lat="44.5309917" lon="10.856455"><ele>129.0</ele><time>2026-05-03T17:10:05.738Z</time></trkpt><trkpt lat="44.5309367" lon="10.8565967"><ele>129.0</ele><time>2026-05-03T17:10:06.738Z</time></trkpt><trkpt lat="44.530895" lon="10.8567433"><ele>129.25</ele><time>2026-05-03T17:10:07.738Z</time></trkpt><trkpt lat="44.5308567" lon="10.85689"><ele>129.5</ele><time>2026-05-03T17:10:08.737Z</time></trkpt><trkpt lat="44.5308183" lon="10.85704"><ele>129.75</ele><time>2026-05-03T17:10:09.738Z</time></trkpt><trkpt lat="44.53078" lon="10.8571933"><ele>130.0</ele><time>2026-05-03T17:10:10.736Z</time></trkpt><trkpt lat="44.5307417" lon="10.85735"><ele>130.0</ele><time>2026-05-03T17:10:11.736Z</time></trkpt><trkpt lat="44.530705" lon="10.85751"><ele>130.0</ele><time>2026-05-03T17:10:12.737Z</time></trkpt><trkpt lat="44.530675" lon="10.85767"><ele>130.0</ele><time>2026-05-03T17:10:13.737Z</time></trkpt><trkpt lat="44.5306467" lon="10.857825"><ele>130.0</ele><time>2026-05-03T17:10:14.737Z</time></trkpt><trkpt lat="44.530625" lon="10.857985"><ele>130.0</ele><time>2026-05-03T17:10:15.736Z</time></trkpt><trkpt lat="44.530605" lon="10.8581467"><ele>130.0</ele><time>2026-05-03T17:10:16.737Z</time></trkpt><trkpt lat="44.5305883" lon="10.8583067"><ele>130.0</ele><time>2026-05-03T17:10:17.737Z</time></trkpt><trkpt lat="44.5305733" lon="10.858475"><ele>130.0</ele><time>2026-05-03T17:10:18.737Z</time></trkpt><trkpt lat="44.5305617" lon="10.8586383"><ele>129.5</ele><time>2026-05-03T17:10:19.737Z</time></trkpt><trkpt lat="44.53055" lon="10.8587983"><ele>129.0</ele><time>2026-05-03T17:10:20.736Z</time></trkpt><trkpt lat="44.5305417" lon="10.858965"><ele>128.5</ele><time>2026-05-03T17:10:21.737Z</time></trkpt><trkpt lat="44.5305267" lon="10.8591267"><ele>128.0</ele><time>2026-05-03T17:10:22.737Z</time></trkpt><trkpt lat="44.53052" lon="10.8592933"><ele>128.0</ele><time>2026-05-03T17:10:23.737Z</time></trkpt><trkpt lat="44.5305117" lon="10.8594517"><ele>128.0</ele><time>2026-05-03T17:10:24.737Z</time></trkpt><trkpt lat="44.5305067" lon="10.8595917"><ele>128.0</ele><time>2026-05-03T17:10:25.737Z</time></trkpt><trkpt lat="44.5305033" lon="10.8597267"><ele>128.0</ele><time>2026-05-03T17:10:26.737Z</time></trkpt><trkpt lat="44.5305017" lon="10.859855"><ele>128.0</ele><time>2026-05-03T17:10:27.737Z</time></trkpt><trkpt lat="44.5304933" lon="10.85998"><ele>127.99999999999999</ele><time>2026-05-03T17:10:28.737Z</time></trkpt><trkpt lat="44.5304833" lon="10.8600917"><ele>128.0</ele><time>2026-05-03T17:10:29.737Z</time></trkpt><trkpt lat="44.5304733" lon="10.8601867"><ele>128.0</ele><time>2026-05-03T17:10:30.737Z</time></trkpt><trkpt lat="44.5304383" lon="10.86033"><ele>128.0</ele><time>2026-05-03T17:10:32.737Z</time></trkpt><trkpt lat="44.5303433" lon="10.8603383"><ele>127.99999999999999</ele><time>2026-05-03T17:10:34.737Z</time></trkpt><trkpt lat="44.53026" lon="10.86033"><ele>128.0</ele><time>2026-05-03T17:10:36.737Z</time></trkpt><trkpt lat="44.5302117" lon="10.8603967"><ele>128.0</ele><time>2026-05-03T17:10:39.737Z</time></trkpt></trkseg></trk></gpx>